<?xml version='1.0' encoding='UTF-8'?><gpx version="1.1" creator="JPX - https://github.com/jenetics/jpx" xmlns="http://www.topografix.com/GPX/1/1"><trk><trkseg><trkpt lat="45.1936261" lon="8.0688505"><ele>156.0</ele><time>2026-04-25T08:30:24.974Z</time></trkpt><trkpt lat="45.193581" lon="8.0689455"><ele>156.0</ele><time>2026-04-25T08:32:54.988Z</time></trkpt><trkpt lat="45.1934178" lon="8.0691186"><ele>156.0</ele><time>2026-04-25T08:33:06.994Z</time></trkpt><trkpt lat="45.1933447" lon="8.0691399"><ele>156.0</ele><time>2026-04-25T08:33:08.985Z</time></trkpt><trkpt lat="45.1932806" lon="8.0691825"><ele>156.0</ele><time>2026-04-25T08:33:11.99Z</time></trkpt><trkpt lat="45.1932234" lon="8.0692289"><ele>156.16666666666666</ele><time>2026-04-25T08:33:19.997Z</time></trkpt><trkpt lat="45.1932122" lon="8.0693502"><ele>156.33333333333334</ele><time>2026-04-25T08:33:21.985Z</time></trkpt><trkpt lat="45.1932146" lon="8.0694408"><ele>156.5</ele><time>2026-04-25T08:33:22.994Z</time></trkpt><trkpt lat="45.1932162" lon="8.0695503"><ele>156.66666666666669</ele><time>2026-04-25T08:33:23.984Z</time></trkpt><trkpt lat="45.1932174" lon="8.0696698"><ele>156.83333333333334</ele><time>2026-04-25T08:33:24.99Z</time></trkpt><trkpt lat="45.1932189" lon="8.0698062"><ele>157.0</ele><time>2026-04-25T08:33:26.011Z</time></trkpt><trkpt lat="45.1932209" lon="8.0699517"><ele>157.0</ele><time>2026-04-25T08:33:26.991Z</time></trkpt><trkpt lat="45.1932225" lon="8.070108"><ele>157.0</ele><time>2026-04-25T08:33:27.983Z</time></trkpt><trkpt lat="45.1932267" lon="8.0702731"><ele>157.0</ele><time>2026-04-25T08:33:28.99Z</time></trkpt><trkpt lat="45.1932332" lon="8.0704459"><ele>157.0</ele><time>2026-04-25T08:33:29.988Z</time></trkpt><trkpt lat="45.1932383" lon="8.070626"><ele>157.25</ele><time>2026-04-25T08:33:30.992Z</time></trkpt><trkpt lat="45.1932421" lon="8.0708168"><ele>157.5</ele><time>2026-04-25T08:33:32.013Z</time></trkpt><trkpt lat="45.193248" lon="8.0710151"><ele>157.75</ele><time>2026-04-25T08:33:32.984Z</time></trkpt><trkpt lat="45.1932523" lon="8.0712231"><ele>158.0</ele><time>2026-04-25T08:33:33.981Z</time></trkpt><trkpt lat="45.193257" lon="8.0714369"><ele>158.0</ele><time>2026-04-25T08:33:34.984Z</time></trkpt><trkpt lat="45.1932628" lon="8.0716532"><ele>158.0</ele><time>2026-04-25T08:33:35.984Z</time></trkpt><trkpt lat="45.193269" lon="8.0718727"><ele>158.0</ele><time>2026-04-25T08:33:36.989Z</time></trkpt><trkpt lat="45.1932746" lon="8.0720923"><ele>158.0</ele><time>2026-04-25T08:33:38.009Z</time></trkpt><trkpt lat="45.1932797" lon="8.0723156"><ele>158.0</ele><time>2026-04-25T08:33:38.986Z</time></trkpt><trkpt lat="45.1932844" lon="8.0725396"><ele>158.0</ele><time>2026-04-25T08:33:39.991Z</time></trkpt><trkpt lat="45.1932894" lon="8.0727703"><ele>158.33333333333331</ele><time>2026-04-25T08:33:40.988Z</time></trkpt><trkpt lat="45.1932951" lon="8.0730048"><ele>158.66666666666666</ele><time>2026-04-25T08:33:41.994Z</time></trkpt><trkpt lat="45.1933013" lon="8.0732381"><ele>159.0</ele><time>2026-04-25T08:33:42.99Z</time></trkpt><trkpt lat="45.1933077" lon="8.0734741"><ele>158.33333333333334</ele><time>2026-04-25T08:33:43.987Z</time></trkpt><trkpt lat="45.1933141" lon="8.073711"><ele>157.66666666666669</ele><time>2026-04-25T08:33:44.991Z</time></trkpt><trkpt lat="45.1933204" lon="8.0739486"><ele>157.0</ele><time>2026-04-25T08:33:45.988Z</time></trkpt><trkpt lat="45.1933266" lon="8.074188"><ele>156.33333333333334</ele><time>2026-04-25T08:33:46.999Z</time></trkpt><trkpt lat="45.1933342" lon="8.0744286"><ele>155.66666666666666</ele><time>2026-04-25T08:33:47.989Z</time></trkpt><trkpt lat="45.1933422" lon="8.0746706"><ele>155.0</ele><time>2026-04-25T08:33:48.988Z</time></trkpt><trkpt lat="45.1933485" lon="8.0749147"><ele>155.33333333333331</ele><time>2026-04-25T08:33:49.987Z</time></trkpt><trkpt lat="45.1933545" lon="8.0751608"><ele>155.66666666666666</ele><time>2026-04-25T08:33:50.988Z</time></trkpt><trkpt lat="45.1933612" lon="8.0754086"><ele>156.0</ele><time>2026-04-25T08:33:51.993Z</time></trkpt><trkpt lat="45.1933683" lon="8.0756582"><ele>156.0</ele><time>2026-04-25T08:33:52.986Z</time></trkpt><trkpt lat="45.1933747" lon="8.0759089"><ele>156.0</ele><time>2026-04-25T08:33:53.991Z</time></trkpt><trkpt lat="45.1933807" lon="8.0761604"><ele>156.0</ele><time>2026-04-25T08:33:54.986Z</time></trkpt><trkpt lat="45.1933877" lon="8.0764117"><ele>155.66666666666666</ele><time>2026-04-25T08:33:56.019Z</time></trkpt><trkpt lat="45.1933954" lon="8.0766632"><ele>155.33333333333331</ele><time>2026-04-25T08:33:56.991Z</time></trkpt><trkpt lat="45.1934033" lon="8.0769141"><ele>155.0</ele><time>2026-04-25T08:33:57.993Z</time></trkpt><trkpt lat="45.1934104" lon="8.0771652"><ele>155.0</ele><time>2026-04-25T08:33:58.991Z</time></trkpt><trkpt lat="45.193417" lon="8.0774156"><ele>155.0</ele><time>2026-04-25T08:33:59.99Z</time></trkpt><trkpt lat="45.1934228" lon="8.0776651"><ele>155.0</ele><time>2026-04-25T08:34:00.987Z</time></trkpt><trkpt lat="45.1934284" lon="8.0779134"><ele>156.0</ele><time>2026-04-25T08:34:02.014Z</time></trkpt><trkpt lat="45.1934357" lon="8.0781602"><ele>157.0</ele><time>2026-04-25T08:34:02.988Z</time></trkpt><trkpt lat="45.1934437" lon="8.0784052"><ele>158.0</ele><time>2026-04-25T08:34:03.985Z</time></trkpt><trkpt lat="45.1934504" lon="8.078649"><ele>158.66666666666666</ele><time>2026-04-25T08:34:04.989Z</time></trkpt><trkpt lat="45.1934502" lon="8.0788887"><ele>159.33333333333334</ele><time>2026-04-25T08:34:05.987Z</time></trkpt><trkpt lat="45.1934545" lon="8.0791317"><ele>160.0</ele><time>2026-04-25T08:34:06.985Z</time></trkpt><trkpt lat="45.1934579" lon="8.0793721"><ele>160.0</ele><time>2026-04-25T08:34:08.012Z</time></trkpt><trkpt lat="45.1934611" lon="8.0796082"><ele>160.0</ele><time>2026-04-25T08:34:08.986Z</time></trkpt><trkpt lat="45.193461" lon="8.0798369"><ele>160.0</ele><time>2026-04-25T08:34:09.985Z</time></trkpt><trkpt lat="45.1934582" lon="8.0800591"><ele>159.5</ele><time>2026-04-25T08:34:10.992Z</time></trkpt><trkpt lat="45.1934458" lon="8.0802715"><ele>159.0</ele><time>2026-04-25T08:34:11.992Z</time></trkpt><trkpt lat="45.1934211" lon="8.0804805"><ele>158.5</ele><time>2026-04-25T08:34:12.985Z</time></trkpt><trkpt lat="45.1933791" lon="8.0806814"><ele>158.0</ele><time>2026-04-25T08:34:14.011Z</time></trkpt><trkpt lat="45.1933168" lon="8.0808772"><ele>158.0</ele><time>2026-04-25T08:34:14.985Z</time></trkpt><trkpt lat="45.1932423" lon="8.0810695"><ele>158.0</ele><time>2026-04-25T08:34:15.987Z</time></trkpt><trkpt lat="45.1931661" lon="8.0812687"><ele>158.0</ele><time>2026-04-25T08:34:16.987Z</time></trkpt><trkpt lat="45.193093" lon="8.081476"><ele>157.0</ele><time>2026-04-25T08:34:17.992Z</time></trkpt><trkpt lat="45.1930216" lon="8.0816899"><ele>156.0</ele><time>2026-04-25T08:34:18.986Z</time></trkpt><trkpt lat="45.1929512" lon="8.0819068"><ele>155.0</ele><time>2026-04-25T08:34:19.987Z</time></trkpt><trkpt lat="45.1928791" lon="8.0821231"><ele>155.0</ele><time>2026-04-25T08:34:20.987Z</time></trkpt><trkpt lat="45.1928055" lon="8.08234"><ele>155.0</ele><time>2026-04-25T08:34:21.987Z</time></trkpt><trkpt lat="45.192727" lon="8.0825559"><ele>155.0</ele><time>2026-04-25T08:34:23.015Z</time></trkpt><trkpt lat="45.1926424" lon="8.0827713"><ele>155.0</ele><time>2026-04-25T08:34:23.99Z</time></trkpt><trkpt lat="45.1925542" lon="8.0829863"><ele>155.0</ele><time>2026-04-25T08:34:24.986Z</time></trkpt><trkpt lat="45.1924633" lon="8.0832021"><ele>155.0</ele><time>2026-04-25T08:34:25.985Z</time></trkpt><trkpt lat="45.1923702" lon="8.0834192"><ele>155.33333333333331</ele><time>2026-04-25T08:34:26.986Z</time></trkpt><trkpt lat="45.1922756" lon="8.0836381"><ele>155.66666666666666</ele><time>2026-04-25T08:34:27.991Z</time></trkpt><trkpt lat="45.1921786" lon="8.0838592"><ele>156.0</ele><time>2026-04-25T08:34:28.988Z</time></trkpt><trkpt lat="45.1920808" lon="8.0840823"><ele>155.33333333333334</ele><time>2026-04-25T08:34:29.986Z</time></trkpt><trkpt lat="45.1919826" lon="8.0843057"><ele>154.66666666666669</ele><time>2026-04-25T08:34:30.987Z</time></trkpt><trkpt lat="45.1918845" lon="8.0845315"><ele>154.0</ele><time>2026-04-25T08:34:31.984Z</time></trkpt><trkpt lat="45.1917859" lon="8.0847603"><ele>154.33333333333334</ele><time>2026-04-25T08:34:32.989Z</time></trkpt><trkpt lat="45.1916873" lon="8.0849912"><ele>154.66666666666666</ele><time>2026-04-25T08:34:33.986Z</time></trkpt><trkpt lat="45.1915866" lon="8.0852235"><ele>155.0</ele><time>2026-04-25T08:34:35.003Z</time></trkpt><trkpt lat="45.191486" lon="8.0854555"><ele>155.0</ele><time>2026-04-25T08:34:35.988Z</time></trkpt><trkpt lat="45.1913846" lon="8.0856867"><ele>155.0</ele><time>2026-04-25T08:34:36.987Z</time></trkpt><trkpt lat="45.1912823" lon="8.0859179"><ele>155.0</ele><time>2026-04-25T08:34:37.986Z</time></trkpt><trkpt lat="45.1911803" lon="8.0861488"><ele>155.0</ele><time>2026-04-25T08:34:38.986Z</time></trkpt><trkpt lat="45.1910797" lon="8.0863804"><ele>155.0</ele><time>2026-04-25T08:34:40.01Z</time></trkpt><trkpt lat="45.1909805" lon="8.0866123"><ele>155.0</ele><time>2026-04-25T08:34:40.988Z</time></trkpt><trkpt lat="45.1908804" lon="8.0868423"><ele>155.0</ele><time>2026-04-25T08:34:41.987Z</time></trkpt><trkpt lat="45.19078" lon="8.0870714"><ele>155.0</ele><time>2026-04-25T08:34:42.991Z</time></trkpt><trkpt lat="45.19068" lon="8.0872983"><ele>155.0</ele><time>2026-04-25T08:34:43.989Z</time></trkpt><trkpt lat="45.1905803" lon="8.0875258"><ele>155.0</ele><time>2026-04-25T08:34:45.007Z</time></trkpt><trkpt lat="45.1904823" lon="8.0877533"><ele>155.0</ele><time>2026-04-25T08:34:45.99Z</time></trkpt><trkpt lat="45.1903842" lon="8.0879811"><ele>155.0</ele><time>2026-04-25T08:34:46.991Z</time></trkpt><trkpt lat="45.190286" lon="8.0882075"><ele>154.66666666666666</ele><time>2026-04-25T08:34:47.99Z</time></trkpt><trkpt lat="45.1901864" lon="8.088434"><ele>154.33333333333334</ele><time>2026-04-25T08:34:48.987Z</time></trkpt><trkpt lat="45.1900869" lon="8.0886597"><ele>154.0</ele><time>2026-04-25T08:34:49.987Z</time></trkpt><trkpt lat="45.1899875" lon="8.0888858"><ele>154.0</ele><time>2026-04-25T08:34:50.988Z</time></trkpt><trkpt lat="45.1898883" lon="8.0891119"><ele>154.0</ele><time>2026-04-25T08:34:51.99Z</time></trkpt><trkpt lat="45.1897905" lon="8.0893377"><ele>154.0</ele><time>2026-04-25T08:34:52.989Z</time></trkpt><trkpt lat="45.1896911" lon="8.0895641"><ele>154.0</ele><time>2026-04-25T08:34:54.031Z</time></trkpt><trkpt lat="45.1895907" lon="8.0897921"><ele>154.0</ele><time>2026-04-25T08:34:54.984Z</time></trkpt><trkpt lat="45.18949" lon="8.0900196"><ele>154.0</ele><time>2026-04-25T08:34:55.991Z</time></trkpt><trkpt lat="45.1893908" lon="8.0902478"><ele>154.0</ele><time>2026-04-25T08:34:56.987Z</time></trkpt><trkpt lat="45.189293" lon="8.0904763"><ele>154.0</ele><time>2026-04-25T08:34:57.984Z</time></trkpt><trkpt lat="45.1891948" lon="8.090703"><ele>154.0</ele><time>2026-04-25T08:34:58.99Z</time></trkpt><trkpt lat="45.1890961" lon="8.0909287"><ele>153.33333333333334</ele><time>2026-04-25T08:34:59.992Z</time></trkpt><trkpt lat="45.1889955" lon="8.0911433"><ele>152.66666666666666</ele><time>2026-04-25T08:35:01.009Z</time></trkpt><trkpt lat="45.1888915" lon="8.091369"><ele>152.0</ele><time>2026-04-25T08:35:01.987Z</time></trkpt><trkpt lat="45.1887914" lon="8.091594"><ele>151.66666666666666</ele><time>2026-04-25T08:35:02.987Z</time></trkpt><trkpt lat="45.1886918" lon="8.0918138"><ele>151.33333333333334</ele><time>2026-04-25T08:35:03.985Z</time></trkpt><trkpt lat="45.188596" lon="8.0920351"><ele>151.0</ele><time>2026-04-25T08:35:04.986Z</time></trkpt><trkpt lat="45.1885006" lon="8.0922566"><ele>151.33333333333334</ele><time>2026-04-25T08:35:05.992Z</time></trkpt><trkpt lat="45.1884006" lon="8.0924819"><ele>151.66666666666666</ele><time>2026-04-25T08:35:06.988Z</time></trkpt><trkpt lat="45.1883027" lon="8.092707"><ele>152.0</ele><time>2026-04-25T08:35:08.03Z</time></trkpt><trkpt lat="45.1882051" lon="8.0929279"><ele>151.33333333333331</ele><time>2026-04-25T08:35:08.988Z</time></trkpt><trkpt lat="45.1881064" lon="8.0931516"><ele>150.66666666666666</ele><time>2026-04-25T08:35:09.987Z</time></trkpt><trkpt lat="45.1880098" lon="8.0933752"><ele>150.0</ele><time>2026-04-25T08:35:10.99Z</time></trkpt><trkpt lat="45.1879105" lon="8.0936038"><ele>150.0</ele><time>2026-04-25T08:35:11.988Z</time></trkpt><trkpt lat="45.187812" lon="8.0938336"><ele>150.0</ele><time>2026-04-25T08:35:13.005Z</time></trkpt><trkpt lat="45.1877118" lon="8.0940637"><ele>150.0</ele><time>2026-04-25T08:35:13.989Z</time></trkpt><trkpt lat="45.1876099" lon="8.0942958"><ele>150.33333333333334</ele><time>2026-04-25T08:35:14.984Z</time></trkpt><trkpt lat="45.1875097" lon="8.0945259"><ele>150.66666666666669</ele><time>2026-04-25T08:35:15.99Z</time></trkpt><trkpt lat="45.1874111" lon="8.0947573"><ele>151.0</ele><time>2026-04-25T08:35:16.992Z</time></trkpt><trkpt lat="45.1873125" lon="8.0949898"><ele>151.0</ele><time>2026-04-25T08:35:17.986Z</time></trkpt><trkpt lat="45.187214" lon="8.0952215"><ele>151.0</ele><time>2026-04-25T08:35:19.019Z</time></trkpt><trkpt lat="45.1871179" lon="8.0954532"><ele>151.0</ele><time>2026-04-25T08:35:19.986Z</time></trkpt><trkpt lat="45.1870264" lon="8.0956856"><ele>151.0</ele><time>2026-04-25T08:35:20.988Z</time></trkpt><trkpt lat="45.1869385" lon="8.0959171"><ele>151.0</ele><time>2026-04-25T08:35:21.987Z</time></trkpt><trkpt lat="45.1868542" lon="8.0961495"><ele>151.0</ele><time>2026-04-25T08:35:22.987Z</time></trkpt><trkpt lat="45.1867731" lon="8.096381"><ele>151.0</ele><time>2026-04-25T08:35:23.985Z</time></trkpt><trkpt lat="45.1866933" lon="8.0966122"><ele>151.0</ele><time>2026-04-25T08:35:25.01Z</time></trkpt><trkpt lat="45.1866159" lon="8.0968427"><ele>151.0</ele><time>2026-04-25T08:35:25.988Z</time></trkpt><trkpt lat="45.186541" lon="8.097065"><ele>151.0</ele><time>2026-04-25T08:35:26.986Z</time></trkpt><trkpt lat="45.186471" lon="8.0972698"><ele>151.0</ele><time>2026-04-25T08:35:27.989Z</time></trkpt><trkpt lat="45.1864069" lon="8.0974605"><ele>151.0</ele><time>2026-04-25T08:35:28.992Z</time></trkpt><trkpt lat="45.18635" lon="8.0976371"><ele>151.0</ele><time>2026-04-25T08:35:29.987Z</time></trkpt><trkpt lat="45.1862997" lon="8.0977994"><ele>151.0</ele><time>2026-04-25T08:35:31.019Z</time></trkpt><trkpt lat="45.1862471" lon="8.0979383"><ele>151.0</ele><time>2026-04-25T08:35:31.987Z</time></trkpt><trkpt lat="45.1861837" lon="8.0980508"><ele>151.0</ele><time>2026-04-25T08:35:32.988Z</time></trkpt><trkpt lat="45.1861075" lon="8.0981376"><ele>151.0</ele><time>2026-04-25T08:35:33.987Z</time></trkpt><trkpt lat="45.1860172" lon="8.0981909"><ele>151.0</ele><time>2026-04-25T08:35:34.996Z</time></trkpt><trkpt lat="45.1859224" lon="8.0982006"><ele>151.0</ele><time>2026-04-25T08:35:35.984Z</time></trkpt><trkpt lat="45.1858293" lon="8.0981926"><ele>151.0</ele><time>2026-04-25T08:35:37.005Z</time></trkpt><trkpt lat="45.1857343" lon="8.098203"><ele>151.0</ele><time>2026-04-25T08:35:37.991Z</time></trkpt><trkpt lat="45.1856444" lon="8.0982458"><ele>151.0</ele><time>2026-04-25T08:35:38.984Z</time></trkpt><trkpt lat="45.1855668" lon="8.0983225"><ele>151.0</ele><time>2026-04-25T08:35:39.989Z</time></trkpt><trkpt lat="45.1855075" lon="8.0984284"><ele>150.75</ele><time>2026-04-25T08:35:40.987Z</time></trkpt><trkpt lat="45.1854707" lon="8.098559"><ele>150.5</ele><time>2026-04-25T08:35:42.01Z</time></trkpt><trkpt lat="45.1854537" lon="8.0987122"><ele>150.25</ele><time>2026-04-25T08:35:42.99Z</time></trkpt><trkpt lat="45.1854477" lon="8.0988857"><ele>150.0</ele><time>2026-04-25T08:35:43.988Z</time></trkpt><trkpt lat="45.185443" lon="8.0990776"><ele>150.66666666666666</ele><time>2026-04-25T08:35:44.984Z</time></trkpt><trkpt lat="45.1854362" lon="8.0992852"><ele>151.33333333333331</ele><time>2026-04-25T08:35:45.99Z</time></trkpt><trkpt lat="45.1854291" lon="8.099501"><ele>152.0</ele><time>2026-04-25T08:35:46.986Z</time></trkpt><trkpt lat="45.1854224" lon="8.0997237"><ele>151.75</ele><time>2026-04-25T08:35:47.985Z</time></trkpt><trkpt lat="45.1854163" lon="8.0999366"><ele>151.5</ele><time>2026-04-25T08:35:48.987Z</time></trkpt><trkpt lat="45.1854107" lon="8.1001284"><ele>151.25</ele><time>2026-04-25T08:35:49.989Z</time></trkpt><trkpt lat="45.1854049" lon="8.1003006"><ele>151.0</ele><time>2026-04-25T08:35:50.992Z</time></trkpt><trkpt lat="45.185398" lon="8.1004521"><ele>151.0</ele><time>2026-04-25T08:35:52.01Z</time></trkpt><trkpt lat="45.1853816" lon="8.1005753"><ele>151.0</ele><time>2026-04-25T08:35:52.983Z</time></trkpt><trkpt lat="45.18534" lon="8.1006952"><ele>151.0</ele><time>2026-04-25T08:35:54.985Z</time></trkpt><trkpt lat="45.1852961" lon="8.1007643"><ele>151.0</ele><time>2026-04-25T08:35:56.991Z</time></trkpt><trkpt lat="45.1852408" lon="8.1008716"><ele>151.0</ele><time>2026-04-25T08:35:58.989Z</time></trkpt><trkpt lat="45.1851886" lon="8.100934"><ele>151.0</ele><time>2026-04-25T08:35:59.991Z</time></trkpt><trkpt lat="45.1851266" lon="8.1009762"><ele>151.0</ele><time>2026-04-25T08:36:00.992Z</time></trkpt><trkpt lat="45.1850505" lon="8.1009926"><ele>151.0</ele><time>2026-04-25T08:36:01.99Z</time></trkpt><trkpt lat="45.1849557" lon="8.1009863"><ele>151.0</ele><time>2026-04-25T08:36:02.987Z</time></trkpt><trkpt lat="45.1848383" lon="8.1009611"><ele>151.0</ele><time>2026-04-25T08:36:03.989Z</time></trkpt><trkpt lat="45.1846973" lon="8.1009373"><ele>151.0</ele><time>2026-04-25T08:36:05.015Z</time></trkpt><trkpt lat="45.1845395" lon="8.1009092"><ele>151.0</ele><time>2026-04-25T08:36:05.988Z</time></trkpt><trkpt lat="45.1843624" lon="8.1008656"><ele>151.0</ele><time>2026-04-25T08:36:06.988Z</time></trkpt><trkpt lat="45.1841737" lon="8.1008168"><ele>151.0</ele><time>2026-04-25T08:36:07.986Z</time></trkpt><trkpt lat="45.183972" lon="8.1007662"><ele>152.66666666666669</ele><time>2026-04-25T08:36:08.989Z</time></trkpt><trkpt lat="45.1837666" lon="8.1007105"><ele>154.33333333333334</ele><time>2026-04-25T08:36:09.985Z</time></trkpt><trkpt lat="45.1835464" lon="8.1006525"><ele>156.0</ele><time>2026-04-25T08:36:11.021Z</time></trkpt><trkpt lat="45.1833137" lon="8.1005993"><ele>156.5</ele><time>2026-04-25T08:36:11.989Z</time></trkpt><trkpt lat="45.1830736" lon="8.1005454"><ele>157.0</ele><time>2026-04-25T08:36:12.988Z</time></trkpt><trkpt lat="45.1828327" lon="8.1004892"><ele>157.0</ele><time>2026-04-25T08:36:13.985Z</time></trkpt><trkpt lat="45.1825898" lon="8.1004311"><ele>157.0</ele><time>2026-04-25T08:36:14.988Z</time></trkpt><trkpt lat="45.1823497" lon="8.1003748"><ele>155.5</ele><time>2026-04-25T08:36:15.988Z</time></trkpt><trkpt lat="45.1821147" lon="8.1003176"><ele>154.0</ele><time>2026-04-25T08:36:16.987Z</time></trkpt><trkpt lat="45.1818826" lon="8.1002622"><ele>154.0</ele><time>2026-04-25T08:36:18.004Z</time></trkpt><trkpt lat="45.1816583" lon="8.1002084"><ele>154.0</ele><time>2026-04-25T08:36:18.991Z</time></trkpt><trkpt lat="45.1814484" lon="8.1001595"><ele>154.0</ele><time>2026-04-25T08:36:19.983Z</time></trkpt><trkpt lat="45.1812451" lon="8.1001128"><ele>153.33333333333334</ele><time>2026-04-25T08:36:20.985Z</time></trkpt><trkpt lat="45.1810513" lon="8.1000671"><ele>152.66666666666666</ele><time>2026-04-25T08:36:21.989Z</time></trkpt><trkpt lat="45.1808669" lon="8.1000239"><ele>152.0</ele><time>2026-04-25T08:36:22.986Z</time></trkpt><trkpt lat="45.1806948" lon="8.099982"><ele>151.75</ele><time>2026-04-25T08:36:24.022Z</time></trkpt><trkpt lat="45.1805355" lon="8.0999453"><ele>151.5</ele><time>2026-04-25T08:36:24.987Z</time></trkpt><trkpt lat="45.1803907" lon="8.0999118"><ele>151.25</ele><time>2026-04-25T08:36:25.989Z</time></trkpt><trkpt lat="45.1802573" lon="8.0998801"><ele>151.0</ele><time>2026-04-25T08:36:26.987Z</time></trkpt><trkpt lat="45.1801341" lon="8.0998504"><ele>150.8</ele><time>2026-04-25T08:36:27.985Z</time></trkpt><trkpt lat="45.180019" lon="8.099822"><ele>150.6</ele><time>2026-04-25T08:36:28.987Z</time></trkpt><trkpt lat="45.1799097" lon="8.0997942"><ele>150.4</ele><time>2026-04-25T08:36:29.987Z</time></trkpt><trkpt lat="45.1798069" lon="8.099771"><ele>150.2</ele><time>2026-04-25T08:36:30.988Z</time></trkpt><trkpt lat="45.179711" lon="8.099749"><ele>150.0</ele><time>2026-04-25T08:36:31.988Z</time></trkpt><trkpt lat="45.1796225" lon="8.0997269"><ele>149.5</ele><time>2026-04-25T08:36:32.99Z</time></trkpt><trkpt lat="45.1795406" lon="8.0997063"><ele>149.0</ele><time>2026-04-25T08:36:33.991Z</time></trkpt><trkpt lat="45.1794671" lon="8.0996887"><ele>148.5</ele><time>2026-04-25T08:36:34.988Z</time></trkpt><trkpt lat="45.1794012" lon="8.0996721"><ele>148.0</ele><time>2026-04-25T08:36:35.986Z</time></trkpt><trkpt lat="45.179288" lon="8.0996453"><ele>147.5</ele><time>2026-04-25T08:36:37.985Z</time></trkpt><trkpt lat="45.1791957" lon="8.0996245"><ele>147.0</ele><time>2026-04-25T08:36:39.993Z</time></trkpt><trkpt lat="45.1791253" lon="8.0996069"><ele>147.0</ele><time>2026-04-25T08:36:41.989Z</time></trkpt><trkpt lat="45.1790489" lon="8.0995876"><ele>147.0</ele><time>2026-04-25T08:36:44.989Z</time></trkpt><trkpt lat="45.1789417" lon="8.0995668"><ele>147.0</ele><time>2026-04-25T08:36:50.989Z</time></trkpt><trkpt lat="45.1788289" lon="8.0995489"><ele>147.0</ele><time>2026-04-25T08:37:15.99Z</time></trkpt><trkpt lat="45.1787382" lon="8.0995169"><ele>147.0</ele><time>2026-04-25T08:37:17.992Z</time></trkpt><trkpt lat="45.1786724" lon="8.0995035"><ele>147.16666666666666</ele><time>2026-04-25T08:37:18.991Z</time></trkpt><trkpt lat="45.178598" lon="8.099484"><ele>147.33333333333334</ele><time>2026-04-25T08:37:19.989Z</time></trkpt><trkpt lat="45.1785179" lon="8.099467"><ele>147.5</ele><time>2026-04-25T08:37:20.992Z</time></trkpt><trkpt lat="45.1784328" lon="8.0994446"><ele>147.66666666666669</ele><time>2026-04-25T08:37:21.992Z</time></trkpt><trkpt lat="45.1783442" lon="8.0994247"><ele>147.83333333333334</ele><time>2026-04-25T08:37:22.986Z</time></trkpt><trkpt lat="45.1782526" lon="8.0994018"><ele>148.0</ele><time>2026-04-25T08:37:24.012Z</time></trkpt><trkpt lat="45.1781585" lon="8.0993788"><ele>148.0</ele><time>2026-04-25T08:37:24.995Z</time></trkpt><trkpt lat="45.1780546" lon="8.0993534"><ele>148.0</ele><time>2026-04-25T08:37:25.988Z</time></trkpt><trkpt lat="45.177939" lon="8.0993249"><ele>148.0</ele><time>2026-04-25T08:37:26.985Z</time></trkpt><trkpt lat="45.1778157" lon="8.0992977"><ele>148.0</ele><time>2026-04-25T08:37:27.993Z</time></trkpt><trkpt lat="45.1776943" lon="8.0992701"><ele>148.0</ele><time>2026-04-25T08:37:28.987Z</time></trkpt><trkpt lat="45.1775767" lon="8.0992423"><ele>148.0</ele><time>2026-04-25T08:37:29.99Z</time></trkpt><trkpt lat="45.1774644" lon="8.0992159"><ele>148.0</ele><time>2026-04-25T08:37:30.988Z</time></trkpt><trkpt lat="45.1773535" lon="8.0991898"><ele>148.0</ele><time>2026-04-25T08:37:31.997Z</time></trkpt><trkpt lat="45.1772434" lon="8.0991645"><ele>148.0</ele><time>2026-04-25T08:37:32.989Z</time></trkpt><trkpt lat="45.1771358" lon="8.09914"><ele>148.0</ele><time>2026-04-25T08:37:33.989Z</time></trkpt><trkpt lat="45.1770278" lon="8.0991131"><ele>148.0</ele><time>2026-04-25T08:37:34.988Z</time></trkpt><trkpt lat="45.1769225" lon="8.099091"><ele>148.0</ele><time>2026-04-25T08:37:35.991Z</time></trkpt><trkpt lat="45.1768203" lon="8.0990715"><ele>148.0</ele><time>2026-04-25T08:37:36.987Z</time></trkpt><trkpt lat="45.1767146" lon="8.0990498"><ele>148.0</ele><time>2026-04-25T08:37:37.987Z</time></trkpt><trkpt lat="45.1766093" lon="8.0990222"><ele>148.0</ele><time>2026-04-25T08:37:38.987Z</time></trkpt><trkpt lat="45.1765022" lon="8.0989947"><ele>148.0</ele><time>2026-04-25T08:37:39.988Z</time></trkpt><trkpt lat="45.1763891" lon="8.0989703"><ele>148.0</ele><time>2026-04-25T08:37:40.987Z</time></trkpt><trkpt lat="45.1762737" lon="8.0989422"><ele>148.0</ele><time>2026-04-25T08:37:41.993Z</time></trkpt><trkpt lat="45.1761585" lon="8.0989125"><ele>148.6</ele><time>2026-04-25T08:37:42.987Z</time></trkpt><trkpt lat="45.1760544" lon="8.0988896"><ele>149.20000000000002</ele><time>2026-04-25T08:37:43.986Z</time></trkpt><trkpt lat="45.1759619" lon="8.0988658"><ele>149.8</ele><time>2026-04-25T08:37:44.989Z</time></trkpt><trkpt lat="45.1758766" lon="8.0988413"><ele>150.4</ele><time>2026-04-25T08:37:45.983Z</time></trkpt><trkpt lat="45.1757901" lon="8.098824"><ele>151.0</ele><time>2026-04-25T08:37:46.99Z</time></trkpt><trkpt lat="45.1756984" lon="8.0988062"><ele>152.0</ele><time>2026-04-25T08:37:47.986Z</time></trkpt><trkpt lat="45.1756032" lon="8.0987874"><ele>153.0</ele><time>2026-04-25T08:37:48.988Z</time></trkpt><trkpt lat="45.1755066" lon="8.0987678"><ele>154.0</ele><time>2026-04-25T08:37:49.992Z</time></trkpt><trkpt lat="45.1754083" lon="8.0987491"><ele>155.0</ele><time>2026-04-25T08:37:50.99Z</time></trkpt><trkpt lat="45.1753066" lon="8.0987295"><ele>156.0</ele><time>2026-04-25T08:37:52.02Z</time></trkpt><trkpt lat="45.1752014" lon="8.0987074"><ele>156.0</ele><time>2026-04-25T08:37:52.987Z</time></trkpt><trkpt lat="45.1750885" lon="8.0986843"><ele>156.0</ele><time>2026-04-25T08:37:53.987Z</time></trkpt><trkpt lat="45.1749698" lon="8.0986574"><ele>156.0</ele><time>2026-04-25T08:37:54.984Z</time></trkpt><trkpt lat="45.1748462" lon="8.0986258"><ele>156.0</ele><time>2026-04-25T08:37:55.984Z</time></trkpt><trkpt lat="45.1747215" lon="8.0985853"><ele>158.0</ele><time>2026-04-25T08:37:56.991Z</time></trkpt><trkpt lat="45.1746018" lon="8.0985343"><ele>160.0</ele><time>2026-04-25T08:37:57.988Z</time></trkpt><trkpt lat="45.174492" lon="8.0984764"><ele>162.0</ele><time>2026-04-25T08:37:58.985Z</time></trkpt><trkpt lat="45.1743916" lon="8.0984127"><ele>164.0</ele><time>2026-04-25T08:38:00.006Z</time></trkpt><trkpt lat="45.1743019" lon="8.0983444"><ele>164.0</ele><time>2026-04-25T08:38:00.983Z</time></trkpt><trkpt lat="45.1742203" lon="8.0982732"><ele>164.0</ele><time>2026-04-25T08:38:01.985Z</time></trkpt><trkpt lat="45.1741471" lon="8.0982028"><ele>164.0</ele><time>2026-04-25T08:38:02.99Z</time></trkpt><trkpt lat="45.1740804" lon="8.0981329"><ele>164.0</ele><time>2026-04-25T08:38:03.989Z</time></trkpt><trkpt lat="45.1740225" lon="8.098076"><ele>164.0</ele><time>2026-04-25T08:38:04.989Z</time></trkpt><trkpt lat="45.1739078" lon="8.0980652"><ele>164.2</ele><time>2026-04-25T08:38:06.988Z</time></trkpt><trkpt lat="45.1738178" lon="8.0982034"><ele>164.39999999999998</ele><time>2026-04-25T08:38:08.987Z</time></trkpt><trkpt lat="45.1737729" lon="8.0983152"><ele>164.6</ele><time>2026-04-25T08:38:09.989Z</time></trkpt><trkpt lat="45.1737078" lon="8.0984229"><ele>164.8</ele><time>2026-04-25T08:38:10.985Z</time></trkpt><trkpt lat="45.1736215" lon="8.0985092"><ele>165.0</ele><time>2026-04-25T08:38:11.986Z</time></trkpt><trkpt lat="45.1735106" lon="8.0985664"><ele>165.0</ele><time>2026-04-25T08:38:12.988Z</time></trkpt><trkpt lat="45.1733897" lon="8.0985825"><ele>165.0</ele><time>2026-04-25T08:38:14.006Z</time></trkpt><trkpt lat="45.1732598" lon="8.0985566"><ele>165.0</ele><time>2026-04-25T08:38:14.988Z</time></trkpt><trkpt lat="45.1731231" lon="8.0985022"><ele>165.0</ele><time>2026-04-25T08:38:15.983Z</time></trkpt><trkpt lat="45.1729959" lon="8.0984572"><ele>167.4</ele><time>2026-04-25T08:38:16.985Z</time></trkpt><trkpt lat="45.172878" lon="8.0984388"><ele>169.8</ele><time>2026-04-25T08:38:17.986Z</time></trkpt><trkpt lat="45.1727665" lon="8.0984518"><ele>172.2</ele><time>2026-04-25T08:38:19.009Z</time></trkpt><trkpt lat="45.1726678" lon="8.0984865"><ele>174.6</ele><time>2026-04-25T08:38:19.984Z</time></trkpt><trkpt lat="45.1725853" lon="8.0985395"><ele>177.0</ele><time>2026-04-25T08:38:20.987Z</time></trkpt><trkpt lat="45.1725221" lon="8.0986125"><ele>177.0</ele><time>2026-04-25T08:38:21.987Z</time></trkpt><trkpt lat="45.1724653" lon="8.0986928"><ele>177.0</ele><time>2026-04-25T08:38:22.988Z</time></trkpt><trkpt lat="45.1724535" lon="8.0988075"><ele>177.0</ele><time>2026-04-25T08:38:23.983Z</time></trkpt><trkpt lat="45.172466" lon="8.0989221"><ele>177.0</ele><time>2026-04-25T08:38:24.982Z</time></trkpt><trkpt lat="45.1724969" lon="8.0990469"><ele>177.0</ele><time>2026-04-25T08:38:25.986Z</time></trkpt><trkpt lat="45.1725151" lon="8.099177"><ele>177.0</ele><time>2026-04-25T08:38:26.993Z</time></trkpt><trkpt lat="45.1725063" lon="8.0993121"><ele>176.0</ele><time>2026-04-25T08:38:27.989Z</time></trkpt><trkpt lat="45.1724678" lon="8.0994586"><ele>175.0</ele><time>2026-04-25T08:38:28.986Z</time></trkpt><trkpt lat="45.172411" lon="8.0996151"><ele>174.0</ele><time>2026-04-25T08:38:29.985Z</time></trkpt><trkpt lat="45.1723403" lon="8.0997844"><ele>173.0</ele><time>2026-04-25T08:38:30.984Z</time></trkpt><trkpt lat="45.1722576" lon="8.0999624"><ele>175.66666666666666</ele><time>2026-04-25T08:38:31.987Z</time></trkpt><trkpt lat="45.1721506" lon="8.1001463"><ele>178.33333333333334</ele><time>2026-04-25T08:38:32.982Z</time></trkpt><trkpt lat="45.1720222" lon="8.1003171"><ele>181.0</ele><time>2026-04-25T08:38:34.026Z</time></trkpt><trkpt lat="45.1718821" lon="8.100468"><ele>181.0</ele><time>2026-04-25T08:38:34.983Z</time></trkpt><trkpt lat="45.171747" lon="8.1005892"><ele>181.0</ele><time>2026-04-25T08:38:35.98Z</time></trkpt><trkpt lat="45.17162" lon="8.100675"><ele>181.0</ele><time>2026-04-25T08:38:36.983Z</time></trkpt><trkpt lat="45.1715066" lon="8.1007428"><ele>181.0</ele><time>2026-04-25T08:38:37.985Z</time></trkpt><trkpt lat="45.1714081" lon="8.1008106"><ele>182.33333333333334</ele><time>2026-04-25T08:38:38.988Z</time></trkpt><trkpt lat="45.1713364" lon="8.1008816"><ele>183.66666666666669</ele><time>2026-04-25T08:38:39.986Z</time></trkpt><trkpt lat="45.1712933" lon="8.1009589"><ele>185.0</ele><time>2026-04-25T08:38:40.995Z</time></trkpt><trkpt lat="45.1713067" lon="8.1011214"><ele>186.33333333333334</ele><time>2026-04-25T08:38:42.988Z</time></trkpt><trkpt lat="45.1713568" lon="8.1011815"><ele>187.66666666666666</ele><time>2026-04-25T08:38:43.991Z</time></trkpt><trkpt lat="45.1714096" lon="8.1012421"><ele>189.0</ele><time>2026-04-25T08:38:44.992Z</time></trkpt><trkpt lat="45.1714382" lon="8.101327"><ele>189.0</ele><time>2026-04-25T08:38:46.011Z</time></trkpt><trkpt lat="45.1714325" lon="8.1014227"><ele>189.0</ele><time>2026-04-25T08:38:46.991Z</time></trkpt><trkpt lat="45.1714218" lon="8.1015258"><ele>189.0</ele><time>2026-04-25T08:38:47.987Z</time></trkpt><trkpt lat="45.1713492" lon="8.101603"><ele>189.0</ele><time>2026-04-25T08:38:48.99Z</time></trkpt><trkpt lat="45.1712626" lon="8.1016479"><ele>189.0</ele><time>2026-04-25T08:38:49.987Z</time></trkpt><trkpt lat="45.1711601" lon="8.1016829"><ele>189.0</ele><time>2026-04-25T08:38:51.008Z</time></trkpt><trkpt lat="45.1710398" lon="8.1016472"><ele>189.0</ele><time>2026-04-25T08:38:51.987Z</time></trkpt><trkpt lat="45.1709178" lon="8.1015714"><ele>189.0</ele><time>2026-04-25T08:38:52.987Z</time></trkpt><trkpt lat="45.1707899" lon="8.1014754"><ele>189.0</ele><time>2026-04-25T08:38:53.988Z</time></trkpt><trkpt lat="45.170665" lon="8.1013814"><ele>189.0</ele><time>2026-04-25T08:38:54.988Z</time></trkpt><trkpt lat="45.1705503" lon="8.1013109"><ele>192.6</ele><time>2026-04-25T08:38:55.985Z</time></trkpt><trkpt lat="45.1704481" lon="8.1012813"><ele>196.2</ele><time>2026-04-25T08:38:56.989Z</time></trkpt><trkpt lat="45.1703557" lon="8.1012943"><ele>199.79999999999998</ele><time>2026-04-25T08:38:57.983Z</time></trkpt><trkpt lat="45.1702694" lon="8.1013477"><ele>203.39999999999998</ele><time>2026-04-25T08:38:59.002Z</time></trkpt><trkpt lat="45.170208" lon="8.1014364"><ele>207.0</ele><time>2026-04-25T08:38:59.983Z</time></trkpt><trkpt lat="45.1701689" lon="8.1015564"><ele>208.0</ele><time>2026-04-25T08:39:00.988Z</time></trkpt><trkpt lat="45.1701629" lon="8.1017015"><ele>209.0</ele><time>2026-04-25T08:39:01.984Z</time></trkpt><trkpt lat="45.170186" lon="8.1018573"><ele>210.0</ele><time>2026-04-25T08:39:02.989Z</time></trkpt><trkpt lat="45.1702338" lon="8.1020189"><ele>211.0</ele><time>2026-04-25T08:39:03.988Z</time></trkpt><trkpt lat="45.170299" lon="8.1021777"><ele>211.0</ele><time>2026-04-25T08:39:04.99Z</time></trkpt><trkpt lat="45.1703597" lon="8.1023262"><ele>211.0</ele><time>2026-04-25T08:39:05.996Z</time></trkpt><trkpt lat="45.1704009" lon="8.1024757"><ele>211.0</ele><time>2026-04-25T08:39:06.983Z</time></trkpt><trkpt lat="45.1704121" lon="8.1026282"><ele>211.0</ele><time>2026-04-25T08:39:07.988Z</time></trkpt><trkpt lat="45.1703934" lon="8.1027868"><ele>211.0</ele><time>2026-04-25T08:39:08.99Z</time></trkpt><trkpt lat="45.1703502" lon="8.1029471"><ele>211.0</ele><time>2026-04-25T08:39:09.987Z</time></trkpt><trkpt lat="45.1702904" lon="8.1031072"><ele>211.0</ele><time>2026-04-25T08:39:10.989Z</time></trkpt><trkpt lat="45.1702179" lon="8.1032602"><ele>211.0</ele><time>2026-04-25T08:39:11.989Z</time></trkpt><trkpt lat="45.1701394" lon="8.1033945"><ele>212.0</ele><time>2026-04-25T08:39:12.99Z</time></trkpt><trkpt lat="45.1700543" lon="8.103497"><ele>213.0</ele><time>2026-04-25T08:39:13.989Z</time></trkpt><trkpt lat="45.1699666" lon="8.1035679"><ele>214.00000000000003</ele><time>2026-04-25T08:39:14.99Z</time></trkpt><trkpt lat="45.1698834" lon="8.1036164"><ele>215.0</ele><time>2026-04-25T08:39:15.992Z</time></trkpt><trkpt lat="45.1698134" lon="8.1036488"><ele>216.0</ele><time>2026-04-25T08:39:17.012Z</time></trkpt><trkpt lat="45.16971" lon="8.103665"><ele>218.8</ele><time>2026-04-25T08:39:18.988Z</time></trkpt><trkpt lat="45.1696425" lon="8.1036757"><ele>221.60000000000002</ele><time>2026-04-25T08:39:19.994Z</time></trkpt><trkpt lat="45.1695562" lon="8.1036962"><ele>224.4</ele><time>2026-04-25T08:39:20.993Z</time></trkpt><trkpt lat="45.1694575" lon="8.1037401"><ele>227.2</ele><time>2026-04-25T08:39:21.988Z</time></trkpt><trkpt lat="45.1693459" lon="8.1037948"><ele>230.0</ele><time>2026-04-25T08:39:23.005Z</time></trkpt><trkpt lat="45.169241" lon="8.1039202"><ele>230.0</ele><time>2026-04-25T08:39:23.99Z</time></trkpt><trkpt lat="45.169151" lon="8.1040579"><ele>230.0</ele><time>2026-04-25T08:39:24.987Z</time></trkpt><trkpt lat="45.1690877" lon="8.1042122"><ele>230.0</ele><time>2026-04-25T08:39:25.992Z</time></trkpt><trkpt lat="45.1690512" lon="8.1043902"><ele>230.0</ele><time>2026-04-25T08:39:26.987Z</time></trkpt><trkpt lat="45.1690258" lon="8.104595"><ele>229.75</ele><time>2026-04-25T08:39:28.015Z</time></trkpt><trkpt lat="45.1690001" lon="8.1047946"><ele>229.5</ele><time>2026-04-25T08:39:29.005Z</time></trkpt><trkpt lat="45.1689728" lon="8.104975"><ele>229.25</ele><time>2026-04-25T08:39:29.992Z</time></trkpt><trkpt lat="45.168947" lon="8.1051395"><ele>229.0</ele><time>2026-04-25T08:39:30.988Z</time></trkpt><trkpt lat="45.1688839" lon="8.1052648"><ele>229.0</ele><time>2026-04-25T08:39:31.987Z</time></trkpt><trkpt lat="45.168794" lon="8.1053685"><ele>229.0</ele><time>2026-04-25T08:39:32.992Z</time></trkpt><trkpt lat="45.1686804" lon="8.1054414"><ele>229.0</ele><time>2026-04-25T08:39:34.013Z</time></trkpt><trkpt lat="45.1685528" lon="8.1054923"><ele>229.0</ele><time>2026-04-25T08:39:34.988Z</time></trkpt><trkpt lat="45.168408" lon="8.1055195"><ele>229.0</ele><time>2026-04-25T08:39:35.988Z</time></trkpt><trkpt lat="45.1682528" lon="8.1055251"><ele>229.0</ele><time>2026-04-25T08:39:36.989Z</time></trkpt><trkpt lat="45.1680885" lon="8.1055098"><ele>229.0</ele><time>2026-04-25T08:39:37.99Z</time></trkpt><trkpt lat="45.1679151" lon="8.1054842"><ele>231.66666666666666</ele><time>2026-04-25T08:39:38.991Z</time></trkpt><trkpt lat="45.167731" lon="8.1054467"><ele>234.33333333333331</ele><time>2026-04-25T08:39:40.017Z</time></trkpt><trkpt lat="45.167546" lon="8.1053903"><ele>237.0</ele><time>2026-04-25T08:39:40.987Z</time></trkpt><trkpt lat="45.1673762" lon="8.1053283"><ele>237.66666666666669</ele><time>2026-04-25T08:39:41.99Z</time></trkpt><trkpt lat="45.1672191" lon="8.1052744"><ele>238.33333333333334</ele><time>2026-04-25T08:39:42.988Z</time></trkpt><trkpt lat="45.1670649" lon="8.1052467"><ele>239.0</ele><time>2026-04-25T08:39:43.99Z</time></trkpt><trkpt lat="45.1669121" lon="8.1052426"><ele>239.0</ele><time>2026-04-25T08:39:44.99Z</time></trkpt><trkpt lat="45.1667628" lon="8.105264"><ele>239.0</ele><time>2026-04-25T08:39:45.99Z</time></trkpt><trkpt lat="45.1666294" lon="8.1053062"><ele>239.0</ele><time>2026-04-25T08:39:46.991Z</time></trkpt><trkpt lat="45.1665145" lon="8.1053509"><ele>239.0</ele><time>2026-04-25T08:39:47.994Z</time></trkpt><trkpt lat="45.1664098" lon="8.1053846"><ele>238.79999999999998</ele><time>2026-04-25T08:39:48.988Z</time></trkpt><trkpt lat="45.1663083" lon="8.1053797"><ele>238.59999999999997</ele><time>2026-04-25T08:39:50.006Z</time></trkpt><trkpt lat="45.1662116" lon="8.1053258"><ele>238.4</ele><time>2026-04-25T08:39:50.99Z</time></trkpt><trkpt lat="45.1661214" lon="8.1052366"><ele>238.2</ele><time>2026-04-25T08:39:51.986Z</time></trkpt><trkpt lat="45.1660302" lon="8.1051286"><ele>238.0</ele><time>2026-04-25T08:39:52.989Z</time></trkpt><trkpt lat="45.1659315" lon="8.1050158"><ele>239.25</ele><time>2026-04-25T08:39:53.991Z</time></trkpt><trkpt lat="45.1658176" lon="8.1049125"><ele>240.5</ele><time>2026-04-25T08:39:54.988Z</time></trkpt><trkpt lat="45.1656929" lon="8.1048316"><ele>241.75</ele><time>2026-04-25T08:39:56.009Z</time></trkpt><trkpt lat="45.1655657" lon="8.1047649"><ele>243.0</ele><time>2026-04-25T08:39:56.996Z</time></trkpt><trkpt lat="45.1654524" lon="8.1046998"><ele>243.0</ele><time>2026-04-25T08:39:57.991Z</time></trkpt><trkpt lat="45.1653566" lon="8.1046166"><ele>243.0</ele><time>2026-04-25T08:39:58.99Z</time></trkpt><trkpt lat="45.1652758" lon="8.1045049"><ele>243.0</ele><time>2026-04-25T08:39:59.987Z</time></trkpt><trkpt lat="45.1652102" lon="8.104369"><ele>243.0</ele><time>2026-04-25T08:40:00.987Z</time></trkpt><trkpt lat="45.1651511" lon="8.1042269"><ele>243.0</ele><time>2026-04-25T08:40:02.002Z</time></trkpt><trkpt lat="45.1650877" lon="8.1040883"><ele>243.0</ele><time>2026-04-25T08:40:02.985Z</time></trkpt><trkpt lat="45.1650175" lon="8.1039649"><ele>243.0</ele><time>2026-04-25T08:40:03.987Z</time></trkpt><trkpt lat="45.1649427" lon="8.1038726"><ele>243.0</ele><time>2026-04-25T08:40:04.987Z</time></trkpt><trkpt lat="45.1648633" lon="8.1038238"><ele>243.0</ele><time>2026-04-25T08:40:05.993Z</time></trkpt><trkpt lat="45.1647746" lon="8.1038192"><ele>246.4</ele><time>2026-04-25T08:40:06.984Z</time></trkpt><trkpt lat="45.1646806" lon="8.1038486"><ele>249.8</ele><time>2026-04-25T08:40:07.994Z</time></trkpt><trkpt lat="45.1645812" lon="8.1038909"><ele>253.2</ele><time>2026-04-25T08:40:08.988Z</time></trkpt><trkpt lat="45.1644781" lon="8.1039333"><ele>256.6</ele><time>2026-04-25T08:40:09.986Z</time></trkpt><trkpt lat="45.1643681" lon="8.1039677"><ele>260.0</ele><time>2026-04-25T08:40:10.993Z</time></trkpt><trkpt lat="45.1642511" lon="8.1039832"><ele>260.0</ele><time>2026-04-25T08:40:11.991Z</time></trkpt><trkpt lat="45.1641246" lon="8.103978"><ele>260.0</ele><time>2026-04-25T08:40:12.994Z</time></trkpt><trkpt lat="45.1639884" lon="8.1039661"><ele>260.0</ele><time>2026-04-25T08:40:13.99Z</time></trkpt><trkpt lat="45.1638455" lon="8.1039723"><ele>260.0</ele><time>2026-04-25T08:40:15.006Z</time></trkpt><trkpt lat="45.1637001" lon="8.1040086"><ele>260.25</ele><time>2026-04-25T08:40:15.987Z</time></trkpt><trkpt lat="45.163565" lon="8.1040691"><ele>260.5</ele><time>2026-04-25T08:40:16.985Z</time></trkpt><trkpt lat="45.1634457" lon="8.1041328"><ele>260.75</ele><time>2026-04-25T08:40:17.988Z</time></trkpt><trkpt lat="45.1633361" lon="8.1041764"><ele>261.0</ele><time>2026-04-25T08:40:18.995Z</time></trkpt><trkpt lat="45.1632323" lon="8.1042101"><ele>259.2</ele><time>2026-04-25T08:40:19.992Z</time></trkpt><trkpt lat="45.1631434" lon="8.1041844"><ele>257.40000000000003</ele><time>2026-04-25T08:40:20.99Z</time></trkpt><trkpt lat="45.1630614" lon="8.1041257"><ele>255.6</ele><time>2026-04-25T08:40:22.002Z</time></trkpt><trkpt lat="45.1630024" lon="8.1040317"><ele>253.8</ele><time>2026-04-25T08:40:22.99Z</time></trkpt><trkpt lat="45.1629623" lon="8.10391"><ele>252.0</ele><time>2026-04-25T08:40:23.988Z</time></trkpt><trkpt lat="45.1629417" lon="8.1037623"><ele>250.5</ele><time>2026-04-25T08:40:24.987Z</time></trkpt><trkpt lat="45.162934" lon="8.1035947"><ele>249.0</ele><time>2026-04-25T08:40:25.987Z</time></trkpt><trkpt lat="45.1629275" lon="8.1034054"><ele>247.5</ele><time>2026-04-25T08:40:26.993Z</time></trkpt><trkpt lat="45.1629393" lon="8.1031854"><ele>246.0</ele><time>2026-04-25T08:40:27.989Z</time></trkpt><trkpt lat="45.1629602" lon="8.1029584"><ele>246.0</ele><time>2026-04-25T08:40:29.007Z</time></trkpt><trkpt lat="45.1629897" lon="8.1027099"><ele>246.0</ele><time>2026-04-25T08:40:29.993Z</time></trkpt><trkpt lat="45.1630308" lon="8.1024414"><ele>246.0</ele><time>2026-04-25T08:40:30.992Z</time></trkpt><trkpt lat="45.1630725" lon="8.102158"><ele>246.0</ele><time>2026-04-25T08:40:31.989Z</time></trkpt><trkpt lat="45.1631122" lon="8.1018686"><ele>246.0</ele><time>2026-04-25T08:40:32.994Z</time></trkpt><trkpt lat="45.1631532" lon="8.1015703"><ele>246.0</ele><time>2026-04-25T08:40:33.99Z</time></trkpt><trkpt lat="45.1632008" lon="8.1012537"><ele>253.0</ele><time>2026-04-25T08:40:34.988Z</time></trkpt><trkpt lat="45.163243" lon="8.1009359"><ele>260.0</ele><time>2026-04-25T08:40:35.988Z</time></trkpt><trkpt lat="45.1632886" lon="8.1006123"><ele>260.0</ele><time>2026-04-25T08:40:36.991Z</time></trkpt><trkpt lat="45.1633367" lon="8.1002816"><ele>260.0</ele><time>2026-04-25T08:40:37.987Z</time></trkpt><trkpt lat="45.1633851" lon="8.0999615"><ele>259.33333333333337</ele><time>2026-04-25T08:40:38.989Z</time></trkpt><trkpt lat="45.1634308" lon="8.0996748"><ele>258.6666666666667</ele><time>2026-04-25T08:40:39.989Z</time></trkpt><trkpt lat="45.1634697" lon="8.0994159"><ele>258.0</ele><time>2026-04-25T08:40:40.987Z</time></trkpt><trkpt lat="45.1635038" lon="8.0991696"><ele>257.75</ele><time>2026-04-25T08:40:42.007Z</time></trkpt><trkpt lat="45.1635391" lon="8.0989459"><ele>257.5</ele><time>2026-04-25T08:40:42.988Z</time></trkpt><trkpt lat="45.163569" lon="8.0987412"><ele>257.25</ele><time>2026-04-25T08:40:43.989Z</time></trkpt><trkpt lat="45.1635941" lon="8.0985514"><ele>257.0</ele><time>2026-04-25T08:40:44.985Z</time></trkpt><trkpt lat="45.1636027" lon="8.0983804"><ele>257.25</ele><time>2026-04-25T08:40:45.989Z</time></trkpt><trkpt lat="45.1635886" lon="8.0982173"><ele>257.5</ele><time>2026-04-25T08:40:46.993Z</time></trkpt><trkpt lat="45.1635423" lon="8.098061"><ele>257.75</ele><time>2026-04-25T08:40:47.986Z</time></trkpt><trkpt lat="45.1634636" lon="8.0979085"><ele>258.0</ele><time>2026-04-25T08:40:49.012Z</time></trkpt><trkpt lat="45.1633577" lon="8.0977453"><ele>258.0</ele><time>2026-04-25T08:40:49.989Z</time></trkpt><trkpt lat="45.1632392" lon="8.0975578"><ele>258.0</ele><time>2026-04-25T08:40:50.985Z</time></trkpt><trkpt lat="45.1631174" lon="8.0973588"><ele>258.0</ele><time>2026-04-25T08:40:51.984Z</time></trkpt><trkpt lat="45.1629875" lon="8.0971459"><ele>258.3333333333333</ele><time>2026-04-25T08:40:52.987Z</time></trkpt><trkpt lat="45.1628611" lon="8.0969366"><ele>258.66666666666663</ele><time>2026-04-25T08:40:53.99Z</time></trkpt><trkpt lat="45.1627404" lon="8.0967456"><ele>259.0</ele><time>2026-04-25T08:40:54.989Z</time></trkpt><trkpt lat="45.1626106" lon="8.0965671"><ele>260.0</ele><time>2026-04-25T08:40:55.989Z</time></trkpt><trkpt lat="45.1624624" lon="8.0964026"><ele>261.0</ele><time>2026-04-25T08:40:57.012Z</time></trkpt><trkpt lat="45.1623023" lon="8.0962449"><ele>262.0</ele><time>2026-04-25T08:40:57.992Z</time></trkpt><trkpt lat="45.1621513" lon="8.0961043"><ele>262.0</ele><time>2026-04-25T08:40:58.986Z</time></trkpt><trkpt lat="45.1620236" lon="8.0959797"><ele>262.0</ele><time>2026-04-25T08:40:59.984Z</time></trkpt><trkpt lat="45.1619102" lon="8.0958726"><ele>262.0</ele><time>2026-04-25T08:41:00.987Z</time></trkpt><trkpt lat="45.1617954" lon="8.0957938"><ele>262.0</ele><time>2026-04-25T08:41:01.989Z</time></trkpt><trkpt lat="45.1616659" lon="8.095746"><ele>260.0</ele><time>2026-04-25T08:41:03.008Z</time></trkpt><trkpt lat="45.1615227" lon="8.0957229"><ele>258.0</ele><time>2026-04-25T08:41:03.991Z</time></trkpt><trkpt lat="45.1613787" lon="8.0957036"><ele>256.0</ele><time>2026-04-25T08:41:04.986Z</time></trkpt><trkpt lat="45.1612151" lon="8.0956956"><ele>256.0</ele><time>2026-04-25T08:41:05.989Z</time></trkpt><trkpt lat="45.1610474" lon="8.095697"><ele>256.0</ele><time>2026-04-25T08:41:06.991Z</time></trkpt><trkpt lat="45.1608846" lon="8.0957077"><ele>256.0</ele><time>2026-04-25T08:41:08.006Z</time></trkpt><trkpt lat="45.1607395" lon="8.0957044"><ele>258.75</ele><time>2026-04-25T08:41:08.989Z</time></trkpt><trkpt lat="45.1605977" lon="8.0956953"><ele>261.5</ele><time>2026-04-25T08:41:09.991Z</time></trkpt><trkpt lat="45.1604584" lon="8.095665"><ele>264.25</ele><time>2026-04-25T08:41:10.988Z</time></trkpt><trkpt lat="45.160313" lon="8.0956041"><ele>267.0</ele><time>2026-04-25T08:41:11.987Z</time></trkpt><trkpt lat="45.1601689" lon="8.0955096"><ele>267.0</ele><time>2026-04-25T08:41:12.996Z</time></trkpt><trkpt lat="45.1600217" lon="8.0953909"><ele>267.0</ele><time>2026-04-25T08:41:13.988Z</time></trkpt><trkpt lat="45.159868" lon="8.0952494"><ele>267.0</ele><time>2026-04-25T08:41:14.991Z</time></trkpt><trkpt lat="45.1597074" lon="8.095103"><ele>268.3333333333333</ele><time>2026-04-25T08:41:15.986Z</time></trkpt><trkpt lat="45.1595422" lon="8.0949441"><ele>269.66666666666663</ele><time>2026-04-25T08:41:16.989Z</time></trkpt><trkpt lat="45.1593725" lon="8.094783"><ele>271.0</ele><time>2026-04-25T08:41:17.987Z</time></trkpt><trkpt lat="45.1591996" lon="8.0946211"><ele>273.0</ele><time>2026-04-25T08:41:18.993Z</time></trkpt><trkpt lat="45.1590259" lon="8.0944753"><ele>275.0</ele><time>2026-04-25T08:41:19.989Z</time></trkpt><trkpt lat="45.1588659" lon="8.0943533"><ele>277.0</ele><time>2026-04-25T08:41:20.99Z</time></trkpt><trkpt lat="45.1587234" lon="8.0942529"><ele>277.0</ele><time>2026-04-25T08:41:21.99Z</time></trkpt><trkpt lat="45.1586131" lon="8.0941794"><ele>277.0</ele><time>2026-04-25T08:41:22.99Z</time></trkpt><trkpt lat="45.1585242" lon="8.0941168"><ele>277.0</ele><time>2026-04-25T08:41:23.99Z</time></trkpt><trkpt lat="45.158466" lon="8.0940703"><ele>277.0</ele><time>2026-04-25T08:41:24.986Z</time></trkpt><trkpt lat="45.1584086" lon="8.0939855"><ele>277.0</ele><time>2026-04-25T08:41:26.988Z</time></trkpt><trkpt lat="45.15835" lon="8.0938192"><ele>277.4</ele><time>2026-04-25T08:41:28.986Z</time></trkpt><trkpt lat="45.1583172" lon="8.0937129"><ele>277.79999999999995</ele><time>2026-04-25T08:41:30.008Z</time></trkpt><trkpt lat="45.1582832" lon="8.0935977"><ele>278.2</ele><time>2026-04-25T08:41:30.988Z</time></trkpt><trkpt lat="45.1582459" lon="8.0934714"><ele>278.59999999999997</ele><time>2026-04-25T08:41:31.986Z</time></trkpt><trkpt lat="45.1582105" lon="8.0933383"><ele>279.0</ele><time>2026-04-25T08:41:32.986Z</time></trkpt><trkpt lat="45.158183" lon="8.0932039"><ele>279.0</ele><time>2026-04-25T08:41:33.986Z</time></trkpt><trkpt lat="45.1581494" lon="8.0930782"><ele>279.0</ele><time>2026-04-25T08:41:34.986Z</time></trkpt><trkpt lat="45.1581078" lon="8.0929408"><ele>279.0</ele><time>2026-04-25T08:41:35.991Z</time></trkpt><trkpt lat="45.1580673" lon="8.0928341"><ele>279.0</ele><time>2026-04-25T08:41:36.992Z</time></trkpt><trkpt lat="45.1580279" lon="8.0926964"><ele>279.0</ele><time>2026-04-25T08:41:38.014Z</time></trkpt><trkpt lat="45.1579945" lon="8.0925771"><ele>279.0</ele><time>2026-04-25T08:41:38.991Z</time></trkpt><trkpt lat="45.1579478" lon="8.0924709"><ele>279.0</ele><time>2026-04-25T08:41:39.988Z</time></trkpt><trkpt lat="45.1578773" lon="8.0923743"><ele>279.0</ele><time>2026-04-25T08:41:40.994Z</time></trkpt><trkpt lat="45.1578202" lon="8.0922606"><ele>279.0</ele><time>2026-04-25T08:41:41.987Z</time></trkpt><trkpt lat="45.1577445" lon="8.0921601"><ele>279.0</ele><time>2026-04-25T08:41:43.024Z</time></trkpt><trkpt lat="45.1576755" lon="8.0920639"><ele>276.8333333333333</ele><time>2026-04-25T08:41:43.989Z</time></trkpt><trkpt lat="45.1576238" lon="8.091975"><ele>274.6666666666667</ele><time>2026-04-25T08:41:44.994Z</time></trkpt><trkpt lat="45.15757" lon="8.0918998"><ele>272.5</ele><time>2026-04-25T08:41:45.992Z</time></trkpt><trkpt lat="45.1575254" lon="8.0918191"><ele>270.33333333333337</ele><time>2026-04-25T08:41:46.991Z</time></trkpt><trkpt lat="45.1574865" lon="8.0917231"><ele>268.1666666666667</ele><time>2026-04-25T08:41:48.01Z</time></trkpt><trkpt lat="45.1574615" lon="8.0916222"><ele>266.0</ele><time>2026-04-25T08:41:48.988Z</time></trkpt><trkpt lat="45.1574424" lon="8.0915261"><ele>266.2</ele><time>2026-04-25T08:41:49.986Z</time></trkpt><trkpt lat="45.1574264" lon="8.0914352"><ele>266.40000000000003</ele><time>2026-04-25T08:41:50.992Z</time></trkpt><trkpt lat="45.1573913" lon="8.0912826"><ele>266.6</ele><time>2026-04-25T08:41:53.008Z</time></trkpt><trkpt lat="45.1572767" lon="8.0911691"><ele>266.8</ele><time>2026-04-25T08:41:54.988Z</time></trkpt><trkpt lat="45.1572142" lon="8.0910972"><ele>267.0</ele><time>2026-04-25T08:41:55.989Z</time></trkpt><trkpt lat="45.1571653" lon="8.091019"><ele>267.0</ele><time>2026-04-25T08:41:56.989Z</time></trkpt><trkpt lat="45.1571314" lon="8.0909276"><ele>267.0</ele><time>2026-04-25T08:41:58.005Z</time></trkpt><trkpt lat="45.1571128" lon="8.090807"><ele>267.0</ele><time>2026-04-25T08:41:58.987Z</time></trkpt><trkpt lat="45.1570901" lon="8.0906757"><ele>267.0</ele><time>2026-04-25T08:41:59.99Z</time></trkpt><trkpt lat="45.1570532" lon="8.0905431"><ele>267.0</ele><time>2026-04-25T08:42:00.986Z</time></trkpt><trkpt lat="45.1570083" lon="8.0904146"><ele>266.0</ele><time>2026-04-25T08:42:01.987Z</time></trkpt><trkpt lat="45.156963" lon="8.0902911"><ele>265.0</ele><time>2026-04-25T08:42:02.989Z</time></trkpt><trkpt lat="45.1569319" lon="8.0901577"><ele>264.0</ele><time>2026-04-25T08:42:03.993Z</time></trkpt><trkpt lat="45.1569145" lon="8.090027"><ele>263.0</ele><time>2026-04-25T08:42:05.007Z</time></trkpt><trkpt lat="45.1568913" lon="8.0899087"><ele>262.0</ele><time>2026-04-25T08:42:05.987Z</time></trkpt><trkpt lat="45.1568599" lon="8.0898009"><ele>260.8</ele><time>2026-04-25T08:42:06.991Z</time></trkpt><trkpt lat="45.1568146" lon="8.0896963"><ele>259.6</ele><time>2026-04-25T08:42:07.99Z</time></trkpt><trkpt lat="45.1567639" lon="8.0895884"><ele>258.40000000000003</ele><time>2026-04-25T08:42:08.991Z</time></trkpt><trkpt lat="45.1567103" lon="8.0894768"><ele>257.2</ele><time>2026-04-25T08:42:09.988Z</time></trkpt><trkpt lat="45.1566569" lon="8.0893573"><ele>256.0</ele><time>2026-04-25T08:42:11.016Z</time></trkpt><trkpt lat="45.1566081" lon="8.0892174"><ele>256.0</ele><time>2026-04-25T08:42:11.994Z</time></trkpt><trkpt lat="45.1565623" lon="8.089062"><ele>256.0</ele><time>2026-04-25T08:42:12.985Z</time></trkpt><trkpt lat="45.1565206" lon="8.0889174"><ele>256.0</ele><time>2026-04-25T08:42:13.987Z</time></trkpt><trkpt lat="45.1564776" lon="8.0887857"><ele>256.0</ele><time>2026-04-25T08:42:14.992Z</time></trkpt><trkpt lat="45.1564346" lon="8.0886644"><ele>256.0</ele><time>2026-04-25T08:42:15.993Z</time></trkpt><trkpt lat="45.1563834" lon="8.0885457"><ele>255.99999999999997</ele><time>2026-04-25T08:42:17.048Z</time></trkpt><trkpt lat="45.1563258" lon="8.0884279"><ele>256.0</ele><time>2026-04-25T08:42:17.994Z</time></trkpt><trkpt lat="45.1562696" lon="8.0883212"><ele>256.0</ele><time>2026-04-25T08:42:18.989Z</time></trkpt><trkpt lat="45.1562187" lon="8.0882264"><ele>256.0</ele><time>2026-04-25T08:42:19.987Z</time></trkpt><trkpt lat="45.156174" lon="8.0881435"><ele>255.99999999999997</ele><time>2026-04-25T08:42:20.993Z</time></trkpt><trkpt lat="45.1561278" lon="8.0880577"><ele>256.0</ele><time>2026-04-25T08:42:21.992Z</time></trkpt><trkpt lat="45.1560752" lon="8.0879634"><ele>254.99999999999997</ele><time>2026-04-25T08:42:23.011Z</time></trkpt><trkpt lat="45.156024" lon="8.0878636"><ele>254.0</ele><time>2026-04-25T08:42:23.987Z</time></trkpt><trkpt lat="45.1559775" lon="8.0877703"><ele>253.0</ele><time>2026-04-25T08:42:24.988Z</time></trkpt><trkpt lat="45.1559355" lon="8.0876792"><ele>252.0</ele><time>2026-04-25T08:42:25.995Z</time></trkpt><trkpt lat="45.1558992" lon="8.0876051"><ele>250.99999999999997</ele><time>2026-04-25T08:42:26.988Z</time></trkpt><trkpt lat="45.1558857" lon="8.0874811"><ele>250.0</ele><time>2026-04-25T08:42:28.013Z</time></trkpt><trkpt lat="45.1558757" lon="8.0873426"><ele>249.25</ele><time>2026-04-25T08:42:28.983Z</time></trkpt><trkpt lat="45.1558546" lon="8.087195"><ele>248.5</ele><time>2026-04-25T08:42:29.99Z</time></trkpt><trkpt lat="45.1558095" lon="8.0870258"><ele>247.75</ele><time>2026-04-25T08:42:30.991Z</time></trkpt><trkpt lat="45.1557488" lon="8.0868548"><ele>247.0</ele><time>2026-04-25T08:42:31.985Z</time></trkpt><trkpt lat="45.1556785" lon="8.0866738"><ele>250.0</ele><time>2026-04-25T08:42:33.017Z</time></trkpt><trkpt lat="45.1556149" lon="8.086478"><ele>253.0</ele><time>2026-04-25T08:42:33.989Z</time></trkpt><trkpt lat="45.1555593" lon="8.086304"><ele>256.0</ele><time>2026-04-25T08:42:34.99Z</time></trkpt><trkpt lat="45.1555077" lon="8.0861539"><ele>259.0</ele><time>2026-04-25T08:42:35.99Z</time></trkpt><trkpt lat="45.1554642" lon="8.0860266"><ele>259.0</ele><time>2026-04-25T08:42:36.991Z</time></trkpt><trkpt lat="45.1554256" lon="8.0859157"><ele>259.0</ele><time>2026-04-25T08:42:37.988Z</time></trkpt><trkpt lat="45.1553927" lon="8.0858274"><ele>259.0</ele><time>2026-04-25T08:42:38.987Z</time></trkpt><trkpt lat="45.1553475" lon="8.0857278"><ele>259.0</ele><time>2026-04-25T08:42:40.987Z</time></trkpt><trkpt lat="45.1552701" lon="8.0857759"><ele>259.0</ele><time>2026-04-25T08:42:43.989Z</time></trkpt><trkpt lat="45.1552533" lon="8.0858669"><ele>259.0</ele><time>2026-04-25T08:42:44.988Z</time></trkpt><trkpt lat="45.1552361" lon="8.0859964"><ele>259.0</ele><time>2026-04-25T08:42:45.985Z</time></trkpt><trkpt lat="45.1552242" lon="8.0861542"><ele>259.0</ele><time>2026-04-25T08:42:46.987Z</time></trkpt><trkpt lat="45.1552255" lon="8.0863463"><ele>259.0</ele><time>2026-04-25T08:42:47.994Z</time></trkpt><trkpt lat="45.1552352" lon="8.0865557"><ele>259.0</ele><time>2026-04-25T08:42:48.987Z</time></trkpt><trkpt lat="45.1552435" lon="8.0867516"><ele>258.75</ele><time>2026-04-25T08:42:50.007Z</time></trkpt><trkpt lat="45.15524" lon="8.0869357"><ele>258.5</ele><time>2026-04-25T08:42:50.987Z</time></trkpt><trkpt lat="45.1552186" lon="8.0871073"><ele>258.25</ele><time>2026-04-25T08:42:51.986Z</time></trkpt><trkpt lat="45.1551737" lon="8.087269"><ele>258.0</ele><time>2026-04-25T08:42:52.988Z</time></trkpt><trkpt lat="45.1551017" lon="8.0874191"><ele>258.75</ele><time>2026-04-25T08:42:53.991Z</time></trkpt><trkpt lat="45.1550067" lon="8.087558"><ele>259.5</ele><time>2026-04-25T08:42:55.007Z</time></trkpt><trkpt lat="45.1549115" lon="8.0876817"><ele>260.25</ele><time>2026-04-25T08:42:55.992Z</time></trkpt><trkpt lat="45.1548425" lon="8.0878091"><ele>261.0</ele><time>2026-04-25T08:42:56.989Z</time></trkpt><trkpt lat="45.1548002" lon="8.0879516"><ele>261.0</ele><time>2026-04-25T08:42:57.991Z</time></trkpt><trkpt lat="45.1547888" lon="8.0881044"><ele>261.0</ele><time>2026-04-25T08:42:58.993Z</time></trkpt><trkpt lat="45.1548093" lon="8.088264"><ele>261.0</ele><time>2026-04-25T08:42:59.989Z</time></trkpt><trkpt lat="45.15486" lon="8.0884251"><ele>261.0</ele><time>2026-04-25T08:43:00.991Z</time></trkpt><trkpt lat="45.1549361" lon="8.0885938"><ele>261.0</ele><time>2026-04-25T08:43:01.988Z</time></trkpt><trkpt lat="45.1550254" lon="8.0887785"><ele>261.0</ele><time>2026-04-25T08:43:02.994Z</time></trkpt><trkpt lat="45.1551247" lon="8.0889848"><ele>261.0</ele><time>2026-04-25T08:43:03.989Z</time></trkpt><trkpt lat="45.1552341" lon="8.0892059"><ele>263.6666666666667</ele><time>2026-04-25T08:43:04.995Z</time></trkpt><trkpt lat="45.155348" lon="8.089432"><ele>266.33333333333337</ele><time>2026-04-25T08:43:05.985Z</time></trkpt><trkpt lat="45.1554633" lon="8.0896582"><ele>269.0</ele><time>2026-04-25T08:43:07.01Z</time></trkpt><trkpt lat="45.1555829" lon="8.0898423"><ele>269.6666666666667</ele><time>2026-04-25T08:43:07.994Z</time></trkpt><trkpt lat="45.1557064" lon="8.0899969"><ele>270.3333333333333</ele><time>2026-04-25T08:43:08.987Z</time></trkpt><trkpt lat="45.1558222" lon="8.0901376"><ele>271.0</ele><time>2026-04-25T08:43:09.988Z</time></trkpt><trkpt lat="45.1559352" lon="8.0902734"><ele>271.0</ele><time>2026-04-25T08:43:10.99Z</time></trkpt><trkpt lat="45.1560383" lon="8.0904521"><ele>271.0</ele><time>2026-04-25T08:43:12.013Z</time></trkpt><trkpt lat="45.1561401" lon="8.0906353"><ele>271.0</ele><time>2026-04-25T08:43:12.989Z</time></trkpt><trkpt lat="45.1562457" lon="8.0908343"><ele>269.66666666666663</ele><time>2026-04-25T08:43:13.99Z</time></trkpt><trkpt lat="45.1563469" lon="8.0910424"><ele>268.3333333333333</ele><time>2026-04-25T08:43:14.99Z</time></trkpt><trkpt lat="45.1564484" lon="8.0912366"><ele>267.0</ele><time>2026-04-25T08:43:15.989Z</time></trkpt><trkpt lat="45.1565433" lon="8.0914116"><ele>267.0</ele><time>2026-04-25T08:43:16.988Z</time></trkpt><trkpt lat="45.1566225" lon="8.0915796"><ele>267.0</ele><time>2026-04-25T08:43:17.992Z</time></trkpt><trkpt lat="45.1566963" lon="8.0917681"><ele>267.0</ele><time>2026-04-25T08:43:18.993Z</time></trkpt><trkpt lat="45.1567621" lon="8.0919671"><ele>270.6666666666667</ele><time>2026-04-25T08:43:19.988Z</time></trkpt><trkpt lat="45.1568338" lon="8.09217"><ele>274.33333333333337</ele><time>2026-04-25T08:43:21.004Z</time></trkpt><trkpt lat="45.1569153" lon="8.0923586"><ele>278.0</ele><time>2026-04-25T08:43:21.984Z</time></trkpt><trkpt lat="45.156997" lon="8.0925286"><ele>280.0</ele><time>2026-04-25T08:43:22.987Z</time></trkpt><trkpt lat="45.1570731" lon="8.0926832"><ele>282.0</ele><time>2026-04-25T08:43:23.986Z</time></trkpt><trkpt lat="45.1571344" lon="8.0928248"><ele>284.0</ele><time>2026-04-25T08:43:24.988Z</time></trkpt><trkpt lat="45.1571784" lon="8.0929444"><ele>286.0</ele><time>2026-04-25T08:43:25.99Z</time></trkpt><trkpt lat="45.1572036" lon="8.0930547"><ele>288.0</ele><time>2026-04-25T08:43:26.991Z</time></trkpt><trkpt lat="45.1572077" lon="8.0931489"><ele>288.2</ele><time>2026-04-25T08:43:28.01Z</time></trkpt><trkpt lat="45.1571685" lon="8.09327"><ele>288.4</ele><time>2026-04-25T08:43:29.986Z</time></trkpt><trkpt lat="45.1571226" lon="8.0933517"><ele>288.59999999999997</ele><time>2026-04-25T08:43:31.985Z</time></trkpt><trkpt lat="45.1569871" lon="8.093402"><ele>288.8</ele><time>2026-04-25T08:43:33.985Z</time></trkpt><trkpt lat="45.156881" lon="8.0934214"><ele>289.0</ele><time>2026-04-25T08:43:34.987Z</time></trkpt><trkpt lat="45.1567543" lon="8.0934373"><ele>289.0</ele><time>2026-04-25T08:43:35.987Z</time></trkpt><trkpt lat="45.1566267" lon="8.093451"><ele>289.0</ele><time>2026-04-25T08:43:36.989Z</time></trkpt><trkpt lat="45.1565036" lon="8.0934664"><ele>289.0</ele><time>2026-04-25T08:43:37.986Z</time></trkpt><trkpt lat="45.1563755" lon="8.0934749"><ele>289.0</ele><time>2026-04-25T08:43:38.991Z</time></trkpt><trkpt lat="45.1562436" lon="8.0934939"><ele>290.0</ele><time>2026-04-25T08:43:39.99Z</time></trkpt><trkpt lat="45.1561167" lon="8.0935089"><ele>291.0</ele><time>2026-04-25T08:43:40.988Z</time></trkpt><trkpt lat="45.1559897" lon="8.0935292"><ele>292.0</ele><time>2026-04-25T08:43:41.988Z</time></trkpt><trkpt lat="45.1558669" lon="8.0935451"><ele>293.0</ele><time>2026-04-25T08:43:42.988Z</time></trkpt><trkpt lat="45.1557381" lon="8.0935706"><ele>294.0</ele><time>2026-04-25T08:43:44.031Z</time></trkpt><trkpt lat="45.1556144" lon="8.0935933"><ele>295.0</ele><time>2026-04-25T08:43:44.988Z</time></trkpt><trkpt lat="45.155495" lon="8.0936105"><ele>296.0</ele><time>2026-04-25T08:43:45.99Z</time></trkpt><trkpt lat="45.155387" lon="8.0936245"><ele>297.0</ele><time>2026-04-25T08:43:46.987Z</time></trkpt><trkpt lat="45.1552915" lon="8.0936461"><ele>297.0</ele><time>2026-04-25T08:43:47.987Z</time></trkpt><trkpt lat="45.1552098" lon="8.0936735"><ele>297.0</ele><time>2026-04-25T08:43:49.002Z</time></trkpt><trkpt lat="45.1551392" lon="8.093721"><ele>297.0</ele><time>2026-04-25T08:43:49.991Z</time></trkpt><trkpt lat="45.1550843" lon="8.093804"><ele>297.0</ele><time>2026-04-25T08:43:50.99Z</time></trkpt><trkpt lat="45.1550492" lon="8.0939182"><ele>297.0</ele><time>2026-04-25T08:43:51.99Z</time></trkpt><trkpt lat="45.1550225" lon="8.0940548"><ele>297.0</ele><time>2026-04-25T08:43:52.986Z</time></trkpt><trkpt lat="45.1549881" lon="8.0942075"><ele>297.0</ele><time>2026-04-25T08:43:54.005Z</time></trkpt><trkpt lat="45.1549494" lon="8.0943629"><ele>297.0</ele><time>2026-04-25T08:43:54.991Z</time></trkpt><trkpt lat="45.1549109" lon="8.0945172"><ele>297.0</ele><time>2026-04-25T08:43:55.99Z</time></trkpt><trkpt lat="45.154878" lon="8.0946562"><ele>297.0</ele><time>2026-04-25T08:43:56.99Z</time></trkpt><trkpt lat="45.1548482" lon="8.0947775"><ele>297.0</ele><time>2026-04-25T08:43:57.995Z</time></trkpt><trkpt lat="45.1548245" lon="8.0948785"><ele>296.2</ele><time>2026-04-25T08:43:58.992Z</time></trkpt><trkpt lat="45.1547992" lon="8.0949658"><ele>295.4</ele><time>2026-04-25T08:44:00.008Z</time></trkpt><trkpt lat="45.1547669" lon="8.0950433"><ele>294.6</ele><time>2026-04-25T08:44:00.989Z</time></trkpt><trkpt lat="45.1546531" lon="8.0951247"><ele>293.8</ele><time>2026-04-25T08:44:02.986Z</time></trkpt><trkpt lat="45.1545622" lon="8.0951353"><ele>293.0</ele><time>2026-04-25T08:44:03.988Z</time></trkpt><trkpt lat="45.1544595" lon="8.0951327"><ele>293.0</ele><time>2026-04-25T08:44:05.009Z</time></trkpt><trkpt lat="45.1543404" lon="8.0951101"><ele>293.0</ele><time>2026-04-25T08:44:05.989Z</time></trkpt><trkpt lat="45.1542172" lon="8.0950686"><ele>293.0</ele><time>2026-04-25T08:44:06.993Z</time></trkpt><trkpt lat="45.1541071" lon="8.0950432"><ele>293.0</ele><time>2026-04-25T08:44:07.985Z</time></trkpt><trkpt lat="45.1539951" lon="8.0950453"><ele>295.25</ele><time>2026-04-25T08:44:08.988Z</time></trkpt><trkpt lat="45.1538739" lon="8.095087"><ele>297.5</ele><time>2026-04-25T08:44:09.989Z</time></trkpt><trkpt lat="45.1537403" lon="8.0951619"><ele>299.75</ele><time>2026-04-25T08:44:10.99Z</time></trkpt><trkpt lat="45.153603" lon="8.0952578"><ele>302.0</ele><time>2026-04-25T08:44:11.991Z</time></trkpt><trkpt lat="45.1534769" lon="8.0953492"><ele>302.0</ele><time>2026-04-25T08:44:12.988Z</time></trkpt><trkpt lat="45.1533694" lon="8.0954359"><ele>302.0</ele><time>2026-04-25T08:44:14.007Z</time></trkpt><trkpt lat="45.1532815" lon="8.0955339"><ele>302.0</ele><time>2026-04-25T08:44:14.988Z</time></trkpt><trkpt lat="45.1532117" lon="8.0956566"><ele>302.0</ele><time>2026-04-25T08:44:15.985Z</time></trkpt><trkpt lat="45.1531568" lon="8.0958042"><ele>303.0</ele><time>2026-04-25T08:44:16.987Z</time></trkpt><trkpt lat="45.1531099" lon="8.0959654"><ele>304.0</ele><time>2026-04-25T08:44:17.987Z</time></trkpt><trkpt lat="45.1530632" lon="8.096117"><ele>305.0</ele><time>2026-04-25T08:44:18.992Z</time></trkpt><trkpt lat="45.1530003" lon="8.0962659"><ele>306.0</ele><time>2026-04-25T08:44:19.987Z</time></trkpt><trkpt lat="45.1529157" lon="8.0964202"><ele>304.3333333333333</ele><time>2026-04-25T08:44:21.005Z</time></trkpt><trkpt lat="45.1528117" lon="8.0965956"><ele>302.66666666666663</ele><time>2026-04-25T08:44:21.99Z</time></trkpt><trkpt lat="45.1527082" lon="8.0968002"><ele>301.0</ele><time>2026-04-25T08:44:22.985Z</time></trkpt><trkpt lat="45.1526124" lon="8.0970316"><ele>301.0</ele><time>2026-04-25T08:44:23.99Z</time></trkpt><trkpt lat="45.1525214" lon="8.0972833"><ele>301.0</ele><time>2026-04-25T08:44:24.989Z</time></trkpt><trkpt lat="45.152442" lon="8.0975128"><ele>301.0</ele><time>2026-04-25T08:44:25.993Z</time></trkpt><trkpt lat="45.1523729" lon="8.0977035"><ele>300.75</ele><time>2026-04-25T08:44:26.992Z</time></trkpt><trkpt lat="45.1523105" lon="8.0978703"><ele>300.5</ele><time>2026-04-25T08:44:28.02Z</time></trkpt><trkpt lat="45.1522516" lon="8.0980208"><ele>300.25</ele><time>2026-04-25T08:44:28.996Z</time></trkpt><trkpt lat="45.1521872" lon="8.0981496"><ele>300.0</ele><time>2026-04-25T08:44:29.99Z</time></trkpt><trkpt lat="45.1521182" lon="8.0982527"><ele>300.4</ele><time>2026-04-25T08:44:30.997Z</time></trkpt><trkpt lat="45.1520392" lon="8.0983255"><ele>300.8</ele><time>2026-04-25T08:44:31.987Z</time></trkpt><trkpt lat="45.1519495" lon="8.0983664"><ele>301.2</ele><time>2026-04-25T08:44:33.002Z</time></trkpt><trkpt lat="45.1518437" lon="8.0983813"><ele>301.6</ele><time>2026-04-25T08:44:33.987Z</time></trkpt><trkpt lat="45.1517222" lon="8.0983807"><ele>302.0</ele><time>2026-04-25T08:44:34.99Z</time></trkpt><trkpt lat="45.1515983" lon="8.0983714"><ele>302.4</ele><time>2026-04-25T08:44:35.988Z</time></trkpt><trkpt lat="45.1514851" lon="8.0983645"><ele>302.79999999999995</ele><time>2026-04-25T08:44:36.99Z</time></trkpt><trkpt lat="45.1513843" lon="8.0983702"><ele>303.2</ele><time>2026-04-25T08:44:37.987Z</time></trkpt><trkpt lat="45.1512914" lon="8.0984053"><ele>303.59999999999997</ele><time>2026-04-25T08:44:38.989Z</time></trkpt><trkpt lat="45.1512028" lon="8.098474"><ele>304.0</ele><time>2026-04-25T08:44:39.99Z</time></trkpt><trkpt lat="45.1511133" lon="8.0985718"><ele>304.0</ele><time>2026-04-25T08:44:40.988Z</time></trkpt><trkpt lat="45.1510181" lon="8.0986723"><ele>304.0</ele><time>2026-04-25T08:44:41.986Z</time></trkpt><trkpt lat="45.1509262" lon="8.0987562"><ele>304.0</ele><time>2026-04-25T08:44:43.008Z</time></trkpt><trkpt lat="45.1508377" lon="8.0988178"><ele>304.0</ele><time>2026-04-25T08:44:43.989Z</time></trkpt><trkpt lat="45.150743" lon="8.0988645"><ele>304.0</ele><time>2026-04-25T08:44:44.99Z</time></trkpt><trkpt lat="45.1506464" lon="8.0988971"><ele>304.2</ele><time>2026-04-25T08:44:45.99Z</time></trkpt><trkpt lat="45.1505649" lon="8.0989143"><ele>304.4</ele><time>2026-04-25T08:44:46.992Z</time></trkpt><trkpt lat="45.1505019" lon="8.0989274"><ele>304.6</ele><time>2026-04-25T08:44:47.989Z</time></trkpt><trkpt lat="45.1504219" lon="8.0990019"><ele>304.8</ele><time>2026-04-25T08:44:49.987Z</time></trkpt><trkpt lat="45.1503524" lon="8.0991845"><ele>305.0</ele><time>2026-04-25T08:44:51.992Z</time></trkpt><trkpt lat="45.150308" lon="8.0993249"><ele>306.0</ele><time>2026-04-25T08:44:52.993Z</time></trkpt><trkpt lat="45.1502456" lon="8.0994826"><ele>307.0</ele><time>2026-04-25T08:44:53.989Z</time></trkpt><trkpt lat="45.1501727" lon="8.0996528"><ele>308.0</ele><time>2026-04-25T08:44:54.988Z</time></trkpt><trkpt lat="45.1500929" lon="8.0998151"><ele>309.0</ele><time>2026-04-25T08:44:55.994Z</time></trkpt><trkpt lat="45.1500203" lon="8.0999591"><ele>309.0</ele><time>2026-04-25T08:44:56.985Z</time></trkpt><trkpt lat="45.1499559" lon="8.1000876"><ele>309.0</ele><time>2026-04-25T08:44:58.001Z</time></trkpt><trkpt lat="45.149883" lon="8.1002087"><ele>309.0</ele><time>2026-04-25T08:44:58.988Z</time></trkpt><trkpt lat="45.149816" lon="8.1003281"><ele>309.0</ele><time>2026-04-25T08:44:59.993Z</time></trkpt><trkpt lat="45.1497379" lon="8.1004194"><ele>309.0</ele><time>2026-04-25T08:45:00.987Z</time></trkpt><trkpt lat="45.1496698" lon="8.1005168"><ele>312.79999999999995</ele><time>2026-04-25T08:45:01.989Z</time></trkpt><trkpt lat="45.1496201" lon="8.1006245"><ele>316.59999999999997</ele><time>2026-04-25T08:45:02.988Z</time></trkpt><trkpt lat="45.1495786" lon="8.1007423"><ele>320.4</ele><time>2026-04-25T08:45:03.984Z</time></trkpt><trkpt lat="45.149573" lon="8.1008704"><ele>324.2</ele><time>2026-04-25T08:45:04.991Z</time></trkpt><trkpt lat="45.1495976" lon="8.1010266"><ele>328.0</ele><time>2026-04-25T08:45:05.989Z</time></trkpt><trkpt lat="45.1496226" lon="8.1011768"><ele>328.0</ele><time>2026-04-25T08:45:06.999Z</time></trkpt><trkpt lat="45.1496162" lon="8.1013205"><ele>328.0</ele><time>2026-04-25T08:45:07.983Z</time></trkpt><trkpt lat="45.1496025" lon="8.1014613"><ele>328.0</ele><time>2026-04-25T08:45:08.987Z</time></trkpt><trkpt lat="45.1495682" lon="8.1016039"><ele>328.0</ele><time>2026-04-25T08:45:09.982Z</time></trkpt><trkpt lat="45.1495437" lon="8.101714"><ele>328.0</ele><time>2026-04-25T08:45:10.991Z</time></trkpt><trkpt lat="45.1495009" lon="8.1018316"><ele>327.0</ele><time>2026-04-25T08:45:11.982Z</time></trkpt><trkpt lat="45.1494254" lon="8.1019256"><ele>326.0</ele><time>2026-04-25T08:45:12.986Z</time></trkpt><trkpt lat="45.1493506" lon="8.1020505"><ele>325.0</ele><time>2026-04-25T08:45:13.986Z</time></trkpt><trkpt lat="45.1492844" lon="8.1021775"><ele>324.0</ele><time>2026-04-25T08:45:14.988Z</time></trkpt><trkpt lat="45.1492457" lon="8.1023206"><ele>323.0</ele><time>2026-04-25T08:45:15.986Z</time></trkpt><trkpt lat="45.1492132" lon="8.1024325"><ele>320.2</ele><time>2026-04-25T08:45:16.984Z</time></trkpt><trkpt lat="45.1491944" lon="8.1025234"><ele>317.4</ele><time>2026-04-25T08:45:17.998Z</time></trkpt><trkpt lat="45.1491671" lon="8.1026454"><ele>314.59999999999997</ele><time>2026-04-25T08:45:19.986Z</time></trkpt><trkpt lat="45.1491377" lon="8.1028408"><ele>311.79999999999995</ele><time>2026-04-25T08:45:29.989Z</time></trkpt><trkpt lat="45.1491109" lon="8.1029647"><ele>309.0</ele><time>2026-04-25T08:45:31.992Z</time></trkpt><trkpt lat="45.1490605" lon="8.1031198"><ele>308.6666666666667</ele><time>2026-04-25T08:45:33.987Z</time></trkpt><trkpt lat="45.1490284" lon="8.1031992"><ele>308.3333333333333</ele><time>2026-04-25T08:45:34.992Z</time></trkpt><trkpt lat="45.1489964" lon="8.1032804"><ele>308.0</ele><time>2026-04-25T08:45:35.987Z</time></trkpt><trkpt lat="45.1489681" lon="8.1033614"><ele>307.66666666666663</ele><time>2026-04-25T08:45:36.983Z</time></trkpt><trkpt lat="45.1489038" lon="8.1035119"><ele>307.3333333333333</ele><time>2026-04-25T08:45:38.986Z</time></trkpt><trkpt lat="45.148864" lon="8.1035971"><ele>307.0</ele><time>2026-04-25T08:45:39.986Z</time></trkpt><trkpt lat="45.1488316" lon="8.1036841"><ele>304.3333333333333</ele><time>2026-04-25T08:45:40.986Z</time></trkpt><trkpt lat="45.1487894" lon="8.1037661"><ele>301.66666666666663</ele><time>2026-04-25T08:45:41.987Z</time></trkpt><trkpt lat="45.1487464" lon="8.1038439"><ele>299.0</ele><time>2026-04-25T08:45:42.992Z</time></trkpt><trkpt lat="45.1486969" lon="8.1039258"><ele>296.3333333333333</ele><time>2026-04-25T08:45:43.991Z</time></trkpt><trkpt lat="45.1486425" lon="8.1040065"><ele>293.6666666666667</ele><time>2026-04-25T08:45:44.984Z</time></trkpt><trkpt lat="45.1485823" lon="8.1040875"><ele>291.0</ele><time>2026-04-25T08:45:45.993Z</time></trkpt><trkpt lat="45.1485289" lon="8.1041665"><ele>290.0</ele><time>2026-04-25T08:45:46.991Z</time></trkpt><trkpt lat="45.1484654" lon="8.1042454"><ele>289.0</ele><time>2026-04-25T08:45:47.99Z</time></trkpt><trkpt lat="45.1484039" lon="8.1043194"><ele>288.0</ele><time>2026-04-25T08:45:48.987Z</time></trkpt><trkpt lat="45.1483541" lon="8.1043995"><ele>287.0</ele><time>2026-04-25T08:45:49.985Z</time></trkpt><trkpt lat="45.1483113" lon="8.104485"><ele>286.0</ele><time>2026-04-25T08:45:50.992Z</time></trkpt><trkpt lat="45.148267" lon="8.1046041"><ele>285.0</ele><time>2026-04-25T08:45:51.989Z</time></trkpt><trkpt lat="45.1482221" lon="8.1047529"><ele>283.1666666666667</ele><time>2026-04-25T08:45:52.987Z</time></trkpt><trkpt lat="45.1481835" lon="8.1048748"><ele>281.3333333333333</ele><time>2026-04-25T08:45:53.997Z</time></trkpt><trkpt lat="45.1481524" lon="8.1049871"><ele>279.5</ele><time>2026-04-25T08:45:54.993Z</time></trkpt><trkpt lat="45.1481288" lon="8.1051121"><ele>277.66666666666663</ele><time>2026-04-25T08:45:55.986Z</time></trkpt><trkpt lat="45.148111" lon="8.1052352"><ele>275.8333333333333</ele><time>2026-04-25T08:45:56.987Z</time></trkpt><trkpt lat="45.1480893" lon="8.1053437"><ele>274.0</ele><time>2026-04-25T08:45:57.986Z</time></trkpt><trkpt lat="45.1480547" lon="8.1054471"><ele>273.4</ele><time>2026-04-25T08:45:58.989Z</time></trkpt><trkpt lat="45.1480187" lon="8.10556"><ele>272.79999999999995</ele><time>2026-04-25T08:45:59.984Z</time></trkpt><trkpt lat="45.1479592" lon="8.1056662"><ele>272.20000000000005</ele><time>2026-04-25T08:46:00.996Z</time></trkpt><trkpt lat="45.1478893" lon="8.1057864"><ele>271.6</ele><time>2026-04-25T08:46:01.99Z</time></trkpt><trkpt lat="45.1478325" lon="8.1059147"><ele>271.0</ele><time>2026-04-25T08:46:02.988Z</time></trkpt><trkpt lat="45.1477842" lon="8.1060182"><ele>271.0</ele><time>2026-04-25T08:46:03.988Z</time></trkpt><trkpt lat="45.1477352" lon="8.1061109"><ele>271.0</ele><time>2026-04-25T08:46:04.985Z</time></trkpt><trkpt lat="45.1476649" lon="8.1061925"><ele>271.0</ele><time>2026-04-25T08:46:05.991Z</time></trkpt><trkpt lat="45.1475925" lon="8.1062718"><ele>271.0</ele><time>2026-04-25T08:46:06.982Z</time></trkpt><trkpt lat="45.1475079" lon="8.106336"><ele>271.0</ele><time>2026-04-25T08:46:07.987Z</time></trkpt><trkpt lat="45.1474314" lon="8.1063843"><ele>271.0</ele><time>2026-04-25T08:46:08.985Z</time></trkpt><trkpt lat="45.1473615" lon="8.1064117"><ele>271.0</ele><time>2026-04-25T08:46:09.986Z</time></trkpt><trkpt lat="45.1472755" lon="8.1064336"><ele>271.0</ele><time>2026-04-25T08:46:10.986Z</time></trkpt><trkpt lat="45.1471863" lon="8.106482"><ele>271.0</ele><time>2026-04-25T08:46:11.985Z</time></trkpt><trkpt lat="45.1471185" lon="8.1065533"><ele>271.0</ele><time>2026-04-25T08:46:12.989Z</time></trkpt><trkpt lat="45.1470552" lon="8.1066366"><ele>271.0</ele><time>2026-04-25T08:46:13.983Z</time></trkpt><trkpt lat="45.1470422" lon="8.1067445"><ele>271.0</ele><time>2026-04-25T08:46:14.988Z</time></trkpt><trkpt lat="45.1470405" lon="8.1068916"><ele>273.40000000000003</ele><time>2026-04-25T08:46:15.989Z</time></trkpt><trkpt lat="45.1470375" lon="8.1070545"><ele>275.8</ele><time>2026-04-25T08:46:16.988Z</time></trkpt><trkpt lat="45.1470207" lon="8.1072109"><ele>278.20000000000005</ele><time>2026-04-25T08:46:17.992Z</time></trkpt><trkpt lat="45.1470157" lon="8.1073414"><ele>280.6</ele><time>2026-04-25T08:46:18.989Z</time></trkpt><trkpt lat="45.1470166" lon="8.1074763"><ele>283.0</ele><time>2026-04-25T08:46:19.989Z</time></trkpt><trkpt lat="45.1470419" lon="8.1076172"><ele>286.2</ele><time>2026-04-25T08:46:20.986Z</time></trkpt><trkpt lat="45.1470579" lon="8.1077309"><ele>289.4</ele><time>2026-04-25T08:46:21.984Z</time></trkpt><trkpt lat="45.1470097" lon="8.1078482"><ele>292.59999999999997</ele><time>2026-04-25T08:46:23.986Z</time></trkpt><trkpt lat="45.1469026" lon="8.1078841"><ele>295.8</ele><time>2026-04-25T08:46:25.982Z</time></trkpt><trkpt lat="45.1468185" lon="8.107848"><ele>299.0</ele><time>2026-04-25T08:46:26.986Z</time></trkpt><trkpt lat="45.1467164" lon="8.1078212"><ele>299.0</ele><time>2026-04-25T08:46:27.983Z</time></trkpt><trkpt lat="45.1466151" lon="8.1078025"><ele>299.0</ele><time>2026-04-25T08:46:28.986Z</time></trkpt><trkpt lat="45.1465258" lon="8.1077657"><ele>299.0</ele><time>2026-04-25T08:46:29.991Z</time></trkpt><trkpt lat="45.1464453" lon="8.1077313"><ele>299.0</ele><time>2026-04-25T08:46:30.987Z</time></trkpt><trkpt lat="45.1463921" lon="8.10768"><ele>299.0</ele><time>2026-04-25T08:46:31.996Z</time></trkpt><trkpt lat="45.1462906" lon="8.1076002"><ele>298.0</ele><time>2026-04-25T08:46:33.987Z</time></trkpt><trkpt lat="45.1462234" lon="8.1076206"><ele>297.0</ele><time>2026-04-25T08:46:34.985Z</time></trkpt><trkpt lat="45.1461637" lon="8.1076671"><ele>296.0</ele><time>2026-04-25T08:46:35.987Z</time></trkpt><trkpt lat="45.1460973" lon="8.1077157"><ele>295.0</ele><time>2026-04-25T08:46:36.986Z</time></trkpt><trkpt lat="45.1460445" lon="8.1078057"><ele>294.0</ele><time>2026-04-25T08:46:37.982Z</time></trkpt><trkpt lat="45.1460066" lon="8.1079157"><ele>293.0</ele><time>2026-04-25T08:46:38.995Z</time></trkpt><trkpt lat="45.145973" lon="8.1080396"><ele>293.0</ele><time>2026-04-25T08:46:39.991Z</time></trkpt><trkpt lat="45.1459554" lon="8.1081728"><ele>293.0</ele><time>2026-04-25T08:46:40.988Z</time></trkpt><trkpt lat="45.1459482" lon="8.1082887"><ele>293.0</ele><time>2026-04-25T08:46:41.98Z</time></trkpt><trkpt lat="45.1459392" lon="8.1083983"><ele>293.0</ele><time>2026-04-25T08:46:42.982Z</time></trkpt><trkpt lat="45.1459454" lon="8.1085058"><ele>293.0</ele><time>2026-04-25T08:46:43.983Z</time></trkpt><trkpt lat="45.1459649" lon="8.1086154"><ele>293.0</ele><time>2026-04-25T08:46:44.988Z</time></trkpt><trkpt lat="45.1460019" lon="8.1087282"><ele>293.0</ele><time>2026-04-25T08:46:46.012Z</time></trkpt><trkpt lat="45.1460445" lon="8.1088345"><ele>293.0</ele><time>2026-04-25T08:46:46.987Z</time></trkpt><trkpt lat="45.1460933" lon="8.108943"><ele>293.0</ele><time>2026-04-25T08:46:47.98Z</time></trkpt><trkpt lat="45.1461609" lon="8.1090488"><ele>293.0</ele><time>2026-04-25T08:46:48.981Z</time></trkpt><trkpt lat="45.1462303" lon="8.1091457"><ele>293.0</ele><time>2026-04-25T08:46:49.984Z</time></trkpt><trkpt lat="45.1462935" lon="8.1092289"><ele>291.33333333333337</ele><time>2026-04-25T08:46:50.983Z</time></trkpt><trkpt lat="45.146353" lon="8.1093132"><ele>289.6666666666667</ele><time>2026-04-25T08:46:51.986Z</time></trkpt><trkpt lat="45.1464012" lon="8.1093942"><ele>288.0</ele><time>2026-04-25T08:46:52.988Z</time></trkpt><trkpt lat="45.1464094" lon="8.1094898"><ele>286.3333333333333</ele><time>2026-04-25T08:46:53.989Z</time></trkpt><trkpt lat="45.1464125" lon="8.1096047"><ele>284.66666666666663</ele><time>2026-04-25T08:46:54.981Z</time></trkpt><trkpt lat="45.1464246" lon="8.1097191"><ele>283.0</ele><time>2026-04-25T08:46:55.986Z</time></trkpt><trkpt lat="45.1464383" lon="8.1098291"><ele>281.8333333333333</ele><time>2026-04-25T08:46:56.98Z</time></trkpt><trkpt lat="45.1464776" lon="8.109933"><ele>280.66666666666663</ele><time>2026-04-25T08:46:57.985Z</time></trkpt><trkpt lat="45.1465237" lon="8.1100296"><ele>279.5</ele><time>2026-04-25T08:46:58.983Z</time></trkpt><trkpt lat="45.1465378" lon="8.1101426"><ele>278.3333333333333</ele><time>2026-04-25T08:46:59.985Z</time></trkpt><trkpt lat="45.1465431" lon="8.1102406"><ele>277.1666666666667</ele><time>2026-04-25T08:47:00.983Z</time></trkpt><trkpt lat="45.1465361" lon="8.1103307"><ele>276.0</ele><time>2026-04-25T08:47:01.983Z</time></trkpt><trkpt lat="45.1465115" lon="8.1104256"><ele>276.0</ele><time>2026-04-25T08:47:02.984Z</time></trkpt><trkpt lat="45.1464706" lon="8.1105015"><ele>276.0</ele><time>2026-04-25T08:47:03.986Z</time></trkpt><trkpt lat="45.1464112" lon="8.1105523"><ele>276.0</ele><time>2026-04-25T08:47:04.987Z</time></trkpt><trkpt lat="45.1463361" lon="8.1106116"><ele>276.0</ele><time>2026-04-25T08:47:05.986Z</time></trkpt><trkpt lat="45.1462586" lon="8.1106605"><ele>276.0</ele><time>2026-04-25T08:47:07.003Z</time></trkpt><trkpt lat="45.1461842" lon="8.1107132"><ele>276.0</ele><time>2026-04-25T08:47:07.983Z</time></trkpt><trkpt lat="45.1461056" lon="8.1107587"><ele>277.1666666666667</ele><time>2026-04-25T08:47:08.987Z</time></trkpt><trkpt lat="45.1460371" lon="8.1108159"><ele>278.3333333333333</ele><time>2026-04-25T08:47:09.986Z</time></trkpt><trkpt lat="45.145969" lon="8.1108664"><ele>279.5</ele><time>2026-04-25T08:47:10.988Z</time></trkpt><trkpt lat="45.1459164" lon="8.1109367"><ele>280.66666666666663</ele><time>2026-04-25T08:47:11.986Z</time></trkpt><trkpt lat="45.1458642" lon="8.1110111"><ele>281.8333333333333</ele><time>2026-04-25T08:47:12.999Z</time></trkpt><trkpt lat="45.1458" lon="8.1110973"><ele>283.0</ele><time>2026-04-25T08:47:13.986Z</time></trkpt><trkpt lat="45.1457383" lon="8.1111745"><ele>281.8</ele><time>2026-04-25T08:47:14.989Z</time></trkpt><trkpt lat="45.1456744" lon="8.1112408"><ele>280.6</ele><time>2026-04-25T08:47:15.986Z</time></trkpt><trkpt lat="45.1456" lon="8.1112855"><ele>279.4</ele><time>2026-04-25T08:47:16.994Z</time></trkpt><trkpt lat="45.1455059" lon="8.1113219"><ele>278.2</ele><time>2026-04-25T08:47:17.99Z</time></trkpt><trkpt lat="45.1453999" lon="8.11135"><ele>277.0</ele><time>2026-04-25T08:47:18.992Z</time></trkpt><trkpt lat="45.1452953" lon="8.11136"><ele>277.0</ele><time>2026-04-25T08:47:19.987Z</time></trkpt><trkpt lat="45.1451934" lon="8.1113652"><ele>277.0</ele><time>2026-04-25T08:47:20.991Z</time></trkpt><trkpt lat="45.1450899" lon="8.111327"><ele>277.0</ele><time>2026-04-25T08:47:21.991Z</time></trkpt><trkpt lat="45.144987" lon="8.1112909"><ele>277.0</ele><time>2026-04-25T08:47:23.005Z</time></trkpt><trkpt lat="45.1449127" lon="8.1112527"><ele>277.0</ele><time>2026-04-25T08:47:23.984Z</time></trkpt><trkpt lat="45.1448472" lon="8.1112304"><ele>278.5</ele><time>2026-04-25T08:47:24.985Z</time></trkpt><trkpt lat="45.1447737" lon="8.1112093"><ele>280.0</ele><time>2026-04-25T08:47:25.983Z</time></trkpt><trkpt lat="45.1447039" lon="8.1111886"><ele>281.5</ele><time>2026-04-25T08:47:26.989Z</time></trkpt><trkpt lat="45.1446294" lon="8.1111619"><ele>283.0</ele><time>2026-04-25T08:47:27.988Z</time></trkpt><trkpt lat="45.1445521" lon="8.1111096"><ele>284.5</ele><time>2026-04-25T08:47:29.009Z</time></trkpt><trkpt lat="45.144477" lon="8.1110328"><ele>286.0</ele><time>2026-04-25T08:47:29.983Z</time></trkpt><trkpt lat="45.1444058" lon="8.1109557"><ele>286.0</ele><time>2026-04-25T08:47:30.984Z</time></trkpt><trkpt lat="45.1443419" lon="8.1108727"><ele>286.0</ele><time>2026-04-25T08:47:31.987Z</time></trkpt><trkpt lat="45.1442884" lon="8.1107826"><ele>286.0</ele><time>2026-04-25T08:47:32.987Z</time></trkpt><trkpt lat="45.14425" lon="8.110687"><ele>286.0</ele><time>2026-04-25T08:47:33.986Z</time></trkpt><trkpt lat="45.1442136" lon="8.1105811"><ele>286.0</ele><time>2026-04-25T08:47:34.989Z</time></trkpt><trkpt lat="45.1441759" lon="8.1104802"><ele>286.0</ele><time>2026-04-25T08:47:35.989Z</time></trkpt><trkpt lat="45.1441377" lon="8.1103829"><ele>284.4285714285714</ele><time>2026-04-25T08:47:36.999Z</time></trkpt><trkpt lat="45.144104" lon="8.1102935"><ele>282.85714285714283</ele><time>2026-04-25T08:47:37.986Z</time></trkpt><trkpt lat="45.144069" lon="8.110203"><ele>281.2857142857143</ele><time>2026-04-25T08:47:38.986Z</time></trkpt><trkpt lat="45.1440377" lon="8.1101115"><ele>279.71428571428567</ele><time>2026-04-25T08:47:39.987Z</time></trkpt><trkpt lat="45.1440032" lon="8.1100201"><ele>278.1428571428571</ele><time>2026-04-25T08:47:40.989Z</time></trkpt><trkpt lat="45.1439558" lon="8.1099287"><ele>276.57142857142856</ele><time>2026-04-25T08:47:41.986Z</time></trkpt><trkpt lat="45.1439094" lon="8.109846"><ele>275.0</ele><time>2026-04-25T08:47:43.016Z</time></trkpt><trkpt lat="45.1438424" lon="8.109756"><ele>272.8</ele><time>2026-04-25T08:47:43.989Z</time></trkpt><trkpt lat="45.1437837" lon="8.1096786"><ele>270.6</ele><time>2026-04-25T08:47:44.99Z</time></trkpt><trkpt lat="45.1437332" lon="8.1096013"><ele>268.4</ele><time>2026-04-25T08:47:45.984Z</time></trkpt><trkpt lat="45.1436476" lon="8.1094832"><ele>266.2</ele><time>2026-04-25T08:47:48.001Z</time></trkpt><trkpt lat="45.1435388" lon="8.1094194"><ele>264.0</ele><time>2026-04-25T08:47:49.983Z</time></trkpt><trkpt lat="45.1434211" lon="8.1094365"><ele>264.0</ele><time>2026-04-25T08:47:51.993Z</time></trkpt><trkpt lat="45.1433316" lon="8.1095324"><ele>264.0</ele><time>2026-04-25T08:47:54.009Z</time></trkpt><trkpt lat="45.1432751" lon="8.1096742"><ele>264.0</ele><time>2026-04-25T08:47:55.984Z</time></trkpt><trkpt lat="45.1432899" lon="8.1098631"><ele>264.0</ele><time>2026-04-25T08:47:57.985Z</time></trkpt><trkpt lat="45.1433015" lon="8.1099681"><ele>264.0</ele><time>2026-04-25T08:47:58.999Z</time></trkpt><trkpt lat="45.1433139" lon="8.1100754"><ele>266.0</ele><time>2026-04-25T08:47:59.987Z</time></trkpt><trkpt lat="45.1433201" lon="8.1101859"><ele>268.0</ele><time>2026-04-25T08:48:00.987Z</time></trkpt><trkpt lat="45.1433189" lon="8.110305"><ele>270.0</ele><time>2026-04-25T08:48:01.986Z</time></trkpt><trkpt lat="45.1433103" lon="8.1104342"><ele>272.0</ele><time>2026-04-25T08:48:02.987Z</time></trkpt><trkpt lat="45.1432901" lon="8.1105752"><ele>274.0</ele><time>2026-04-25T08:48:04.003Z</time></trkpt><trkpt lat="45.143269" lon="8.110707"><ele>273.42857142857144</ele><time>2026-04-25T08:48:04.983Z</time></trkpt><trkpt lat="45.1432435" lon="8.1108127"><ele>272.8571428571429</ele><time>2026-04-25T08:48:05.983Z</time></trkpt><trkpt lat="45.1432029" lon="8.1108882"><ele>272.2857142857143</ele><time>2026-04-25T08:48:06.99Z</time></trkpt><trkpt lat="45.1431454" lon="8.1109332"><ele>271.7142857142857</ele><time>2026-04-25T08:48:07.99Z</time></trkpt><trkpt lat="45.143074" lon="8.1109563"><ele>271.1428571428571</ele><time>2026-04-25T08:48:09.007Z</time></trkpt><trkpt lat="45.1429965" lon="8.1109658"><ele>270.57142857142856</ele><time>2026-04-25T08:48:09.981Z</time></trkpt><trkpt lat="45.1429185" lon="8.1109569"><ele>270.0</ele><time>2026-04-25T08:48:10.982Z</time></trkpt><trkpt lat="45.1428399" lon="8.1109317"><ele>266.8</ele><time>2026-04-25T08:48:11.985Z</time></trkpt><trkpt lat="45.142755" lon="8.1108924"><ele>263.6</ele><time>2026-04-25T08:48:12.983Z</time></trkpt><trkpt lat="45.142662" lon="8.1108431"><ele>260.4</ele><time>2026-04-25T08:48:14.019Z</time></trkpt><trkpt lat="45.1425668" lon="8.1107798"><ele>257.2</ele><time>2026-04-25T08:48:14.985Z</time></trkpt><trkpt lat="45.1424751" lon="8.1107052"><ele>254.0</ele><time>2026-04-25T08:48:15.99Z</time></trkpt><trkpt lat="45.1423856" lon="8.1106257"><ele>251.39999999999998</ele><time>2026-04-25T08:48:16.986Z</time></trkpt><trkpt lat="45.142304" lon="8.1105426"><ele>248.79999999999998</ele><time>2026-04-25T08:48:17.983Z</time></trkpt><trkpt lat="45.1422318" lon="8.1104522"><ele>246.20000000000002</ele><time>2026-04-25T08:48:18.986Z</time></trkpt><trkpt lat="45.1421669" lon="8.1103488"><ele>243.60000000000002</ele><time>2026-04-25T08:48:19.984Z</time></trkpt><trkpt lat="45.1421093" lon="8.1102371"><ele>241.0</ele><time>2026-04-25T08:48:20.982Z</time></trkpt><trkpt lat="45.1420586" lon="8.1101288"><ele>240.99999999999997</ele><time>2026-04-25T08:48:21.999Z</time></trkpt><trkpt lat="45.1420143" lon="8.1100285"><ele>241.0</ele><time>2026-04-25T08:48:22.981Z</time></trkpt><trkpt lat="45.1419824" lon="8.1099265"><ele>241.0</ele><time>2026-04-25T08:48:23.986Z</time></trkpt><trkpt lat="45.1419505" lon="8.1098249"><ele>241.0</ele><time>2026-04-25T08:48:24.98Z</time></trkpt><trkpt lat="45.1419531" lon="8.1097001"><ele>240.99999999999997</ele><time>2026-04-25T08:48:25.98Z</time></trkpt><trkpt lat="45.1419641" lon="8.1095623"><ele>241.0</ele><time>2026-04-25T08:48:26.986Z</time></trkpt><trkpt lat="45.1419715" lon="8.1094198"><ele>240.0</ele><time>2026-04-25T08:48:27.981Z</time></trkpt><trkpt lat="45.1419671" lon="8.1092758"><ele>239.00000000000003</ele><time>2026-04-25T08:48:28.995Z</time></trkpt><trkpt lat="45.1419489" lon="8.1091237"><ele>238.00000000000003</ele><time>2026-04-25T08:48:29.985Z</time></trkpt><trkpt lat="45.1419244" lon="8.1089709"><ele>237.0</ele><time>2026-04-25T08:48:30.987Z</time></trkpt><trkpt lat="45.1418927" lon="8.1088181"><ele>236.0</ele><time>2026-04-25T08:48:31.986Z</time></trkpt><trkpt lat="45.1418577" lon="8.108666"><ele>234.5</ele><time>2026-04-25T08:48:32.983Z</time></trkpt><trkpt lat="45.141815" lon="8.1085166"><ele>233.0</ele><time>2026-04-25T08:48:34.006Z</time></trkpt><trkpt lat="45.1417652" lon="8.1083663"><ele>231.5</ele><time>2026-04-25T08:48:34.987Z</time></trkpt><trkpt lat="45.1417078" lon="8.1082085"><ele>230.0</ele><time>2026-04-25T08:48:35.981Z</time></trkpt><trkpt lat="45.1416392" lon="8.108037"><ele>228.0</ele><time>2026-04-25T08:48:36.989Z</time></trkpt><trkpt lat="45.1415694" lon="8.1078641"><ele>226.0</ele><time>2026-04-25T08:48:37.983Z</time></trkpt><trkpt lat="45.1415002" lon="8.1077042"><ele>224.0</ele><time>2026-04-25T08:48:39.036Z</time></trkpt><trkpt lat="45.1414314" lon="8.1075546"><ele>222.0</ele><time>2026-04-25T08:48:39.983Z</time></trkpt><trkpt lat="45.1413627" lon="8.1074226"><ele>224.5</ele><time>2026-04-25T08:48:40.982Z</time></trkpt><trkpt lat="45.1412972" lon="8.1073182"><ele>227.0</ele><time>2026-04-25T08:48:41.981Z</time></trkpt><trkpt lat="45.141233" lon="8.1072513"><ele>229.5</ele><time>2026-04-25T08:48:42.982Z</time></trkpt><trkpt lat="45.1411617" lon="8.1072149"><ele>232.0</ele><time>2026-04-25T08:48:43.982Z</time></trkpt><trkpt lat="45.14108" lon="8.1072134"><ele>234.5</ele><time>2026-04-25T08:48:44.984Z</time></trkpt><trkpt lat="45.1409833" lon="8.1072393"><ele>237.0</ele><time>2026-04-25T08:48:45.985Z</time></trkpt><trkpt lat="45.1408791" lon="8.10727"><ele>237.0</ele><time>2026-04-25T08:48:46.983Z</time></trkpt><trkpt lat="45.1407566" lon="8.1073185"><ele>237.0</ele><time>2026-04-25T08:48:47.982Z</time></trkpt><trkpt lat="45.1406303" lon="8.1073885"><ele>237.0</ele><time>2026-04-25T08:48:49.005Z</time></trkpt><trkpt lat="45.1405072" lon="8.1074899"><ele>237.0</ele><time>2026-04-25T08:48:49.985Z</time></trkpt><trkpt lat="45.1403832" lon="8.1076221"><ele>232.0</ele><time>2026-04-25T08:48:50.987Z</time></trkpt><trkpt lat="45.1402562" lon="8.1077823"><ele>227.0</ele><time>2026-04-25T08:48:51.984Z</time></trkpt><trkpt lat="45.1401254" lon="8.1079569"><ele>222.0</ele><time>2026-04-25T08:48:52.985Z</time></trkpt><trkpt lat="45.139998" lon="8.1081183"><ele>220.0</ele><time>2026-04-25T08:48:54.006Z</time></trkpt><trkpt lat="45.1398729" lon="8.1082638"><ele>218.0</ele><time>2026-04-25T08:48:54.986Z</time></trkpt><trkpt lat="45.1397419" lon="8.108393"><ele>216.0</ele><time>2026-04-25T08:48:55.987Z</time></trkpt><trkpt lat="45.1396129" lon="8.1084898"><ele>216.0</ele><time>2026-04-25T08:48:56.983Z</time></trkpt><trkpt lat="45.139499" lon="8.1085557"><ele>216.0</ele><time>2026-04-25T08:48:57.986Z</time></trkpt><trkpt lat="45.1393982" lon="8.1086207"><ele>216.0</ele><time>2026-04-25T08:48:58.986Z</time></trkpt><trkpt lat="45.1393035" lon="8.1086993"><ele>216.0</ele><time>2026-04-25T08:48:59.987Z</time></trkpt><trkpt lat="45.139215" lon="8.1087867"><ele>216.0</ele><time>2026-04-25T08:49:01.013Z</time></trkpt><trkpt lat="45.1391267" lon="8.1088788"><ele>216.0</ele><time>2026-04-25T08:49:01.983Z</time></trkpt><trkpt lat="45.1390478" lon="8.1089846"><ele>216.0</ele><time>2026-04-25T08:49:02.99Z</time></trkpt><trkpt lat="45.138969" lon="8.1091073"><ele>216.0</ele><time>2026-04-25T08:49:03.991Z</time></trkpt><trkpt lat="45.1388874" lon="8.1092395"><ele>215.75</ele><time>2026-04-25T08:49:04.986Z</time></trkpt><trkpt lat="45.1388047" lon="8.1093869"><ele>215.5</ele><time>2026-04-25T08:49:05.981Z</time></trkpt><trkpt lat="45.1387158" lon="8.1095352"><ele>215.25</ele><time>2026-04-25T08:49:06.979Z</time></trkpt><trkpt lat="45.1386147" lon="8.109692"><ele>215.0</ele><time>2026-04-25T08:49:07.981Z</time></trkpt><trkpt lat="45.1384955" lon="8.1098156"><ele>215.66666666666669</ele><time>2026-04-25T08:49:08.985Z</time></trkpt><trkpt lat="45.1383739" lon="8.1099307"><ele>216.33333333333331</ele><time>2026-04-25T08:49:09.98Z</time></trkpt><trkpt lat="45.1382503" lon="8.1100489"><ele>217.0</ele><time>2026-04-25T08:49:11.007Z</time></trkpt><trkpt lat="45.1381163" lon="8.1101644"><ele>215.75</ele><time>2026-04-25T08:49:11.986Z</time></trkpt><trkpt lat="45.1379775" lon="8.110269"><ele>214.5</ele><time>2026-04-25T08:49:12.986Z</time></trkpt><trkpt lat="45.1378439" lon="8.1103641"><ele>213.25</ele><time>2026-04-25T08:49:13.991Z</time></trkpt><trkpt lat="45.1377247" lon="8.1104334"><ele>212.0</ele><time>2026-04-25T08:49:14.984Z</time></trkpt><trkpt lat="45.1376129" lon="8.1104647"><ele>212.0</ele><time>2026-04-25T08:49:16.004Z</time></trkpt><trkpt lat="45.1375099" lon="8.1104838"><ele>212.0</ele><time>2026-04-25T08:49:16.984Z</time></trkpt><trkpt lat="45.1374146" lon="8.1105125"><ele>212.0</ele><time>2026-04-25T08:49:17.984Z</time></trkpt><trkpt lat="45.1373248" lon="8.1105618"><ele>212.0</ele><time>2026-04-25T08:49:18.985Z</time></trkpt><trkpt lat="45.1372471" lon="8.1106349"><ele>212.0</ele><time>2026-04-25T08:49:19.987Z</time></trkpt><trkpt lat="45.1371799" lon="8.1107242"><ele>211.2</ele><time>2026-04-25T08:49:20.988Z</time></trkpt><trkpt lat="45.1371236" lon="8.1108199"><ele>210.39999999999998</ele><time>2026-04-25T08:49:21.982Z</time></trkpt><trkpt lat="45.1370744" lon="8.1109146"><ele>209.60000000000002</ele><time>2026-04-25T08:49:23.003Z</time></trkpt><trkpt lat="45.1370346" lon="8.1110251"><ele>208.8</ele><time>2026-04-25T08:49:23.984Z</time></trkpt><trkpt lat="45.136999" lon="8.1111494"><ele>208.0</ele><time>2026-04-25T08:49:24.984Z</time></trkpt><trkpt lat="45.13696" lon="8.1112836"><ele>208.0</ele><time>2026-04-25T08:49:25.986Z</time></trkpt><trkpt lat="45.1369097" lon="8.111432"><ele>208.0</ele><time>2026-04-25T08:49:26.985Z</time></trkpt><trkpt lat="45.1368518" lon="8.1115656"><ele>208.0</ele><time>2026-04-25T08:49:27.999Z</time></trkpt><trkpt lat="45.1367946" lon="8.1116654"><ele>208.0</ele><time>2026-04-25T08:49:28.985Z</time></trkpt><trkpt lat="45.1367291" lon="8.1117342"><ele>208.0</ele><time>2026-04-25T08:49:29.983Z</time></trkpt><trkpt lat="45.1366678" lon="8.1117927"><ele>207.49999999999997</ele><time>2026-04-25T08:49:30.988Z</time></trkpt><trkpt lat="45.1365938" lon="8.111854"><ele>207.0</ele><time>2026-04-25T08:49:31.989Z</time></trkpt><trkpt lat="45.1365173" lon="8.1119164"><ele>206.5</ele><time>2026-04-25T08:49:32.984Z</time></trkpt><trkpt lat="45.1364434" lon="8.1119725"><ele>206.0</ele><time>2026-04-25T08:49:33.983Z</time></trkpt><trkpt lat="45.1363767" lon="8.1120174"><ele>205.49999999999997</ele><time>2026-04-25T08:49:34.982Z</time></trkpt><trkpt lat="45.1363161" lon="8.1120671"><ele>205.0</ele><time>2026-04-25T08:49:36.002Z</time></trkpt><trkpt lat="45.136208" lon="8.1121045"><ele>204.99999999999997</ele><time>2026-04-25T08:49:37.982Z</time></trkpt><trkpt lat="45.13611" lon="8.1120241"><ele>205.0</ele><time>2026-04-25T08:49:39.989Z</time></trkpt><trkpt lat="45.1360654" lon="8.1119362"><ele>205.0</ele><time>2026-04-25T08:49:40.985Z</time></trkpt><trkpt lat="45.1360065" lon="8.1118641"><ele>205.0</ele><time>2026-04-25T08:49:41.984Z</time></trkpt><trkpt lat="45.1359476" lon="8.1117978"><ele>204.99999999999997</ele><time>2026-04-25T08:49:42.982Z</time></trkpt><trkpt lat="45.1358885" lon="8.1117342"><ele>205.0</ele><time>2026-04-25T08:49:43.979Z</time></trkpt><trkpt lat="45.1358213" lon="8.111688"><ele>204.99999999999997</ele><time>2026-04-25T08:49:44.982Z</time></trkpt><trkpt lat="45.1357535" lon="8.1116495"><ele>205.0</ele><time>2026-04-25T08:49:45.983Z</time></trkpt><trkpt lat="45.1356828" lon="8.1116249"><ele>205.0</ele><time>2026-04-25T08:49:46.986Z</time></trkpt><trkpt lat="45.1356004" lon="8.1116121"><ele>205.0</ele><time>2026-04-25T08:49:47.987Z</time></trkpt><trkpt lat="45.1355202" lon="8.1116014"><ele>204.99999999999997</ele><time>2026-04-25T08:49:48.987Z</time></trkpt><trkpt lat="45.1354515" lon="8.1116015"><ele>205.0</ele><time>2026-04-25T08:49:49.982Z</time></trkpt><trkpt lat="45.1353727" lon="8.1115948"><ele>206.6</ele><time>2026-04-25T08:49:51.983Z</time></trkpt><trkpt lat="45.1353434" lon="8.1114932"><ele>208.2</ele><time>2026-04-25T08:49:53.987Z</time></trkpt><trkpt lat="45.1353449" lon="8.1113303"><ele>209.8</ele><time>2026-04-25T08:49:55.986Z</time></trkpt><trkpt lat="45.1353284" lon="8.1112412"><ele>211.4</ele><time>2026-04-25T08:49:56.98Z</time></trkpt><trkpt lat="45.1352435" lon="8.111119"><ele>213.0</ele><time>2026-04-25T08:49:58.984Z</time></trkpt><trkpt lat="45.1351228" lon="8.1110486"><ele>213.0</ele><time>2026-04-25T08:50:00.981Z</time></trkpt><trkpt lat="45.1350116" lon="8.1110205"><ele>213.0</ele><time>2026-04-25T08:50:01.983Z</time></trkpt><trkpt lat="45.134869" lon="8.111019"><ele>213.0</ele><time>2026-04-25T08:50:02.981Z</time></trkpt><trkpt lat="45.1347296" lon="8.1109842"><ele>213.0</ele><time>2026-04-25T08:50:03.983Z</time></trkpt><trkpt lat="45.1346209" lon="8.1109459"><ele>212.83333333333334</ele><time>2026-04-25T08:50:04.988Z</time></trkpt><trkpt lat="45.1345424" lon="8.1109103"><ele>212.66666666666669</ele><time>2026-04-25T08:50:05.984Z</time></trkpt><trkpt lat="45.1344761" lon="8.1108817"><ele>212.5</ele><time>2026-04-25T08:50:06.983Z</time></trkpt><trkpt lat="45.1344123" lon="8.1108301"><ele>212.33333333333334</ele><time>2026-04-25T08:50:08.006Z</time></trkpt><trkpt lat="45.1343503" lon="8.1107607"><ele>212.16666666666669</ele><time>2026-04-25T08:50:08.983Z</time></trkpt><trkpt lat="45.1342993" lon="8.1106577"><ele>212.0</ele><time>2026-04-25T08:50:09.981Z</time></trkpt><trkpt lat="45.1342542" lon="8.1105535"><ele>212.0</ele><time>2026-04-25T08:50:10.982Z</time></trkpt><trkpt lat="45.1342073" lon="8.1104526"><ele>212.0</ele><time>2026-04-25T08:50:11.983Z</time></trkpt><trkpt lat="45.1341462" lon="8.1103575"><ele>212.0</ele><time>2026-04-25T08:50:12.982Z</time></trkpt><trkpt lat="45.1340744" lon="8.1102498"><ele>212.0</ele><time>2026-04-25T08:50:13.985Z</time></trkpt><trkpt lat="45.1339919" lon="8.1101318"><ele>212.0</ele><time>2026-04-25T08:50:14.985Z</time></trkpt><trkpt lat="45.133937" lon="8.110001"><ele>211.0</ele><time>2026-04-25T08:50:15.981Z</time></trkpt><trkpt lat="45.1338868" lon="8.1098854"><ele>210.0</ele><time>2026-04-25T08:50:17.012Z</time></trkpt><trkpt lat="45.1338568" lon="8.1097542"><ele>209.0</ele><time>2026-04-25T08:50:17.984Z</time></trkpt><trkpt lat="45.1338401" lon="8.1096166"><ele>208.0</ele><time>2026-04-25T08:50:18.987Z</time></trkpt><trkpt lat="45.1338378" lon="8.1094424"><ele>207.0</ele><time>2026-04-25T08:50:19.983Z</time></trkpt><trkpt lat="45.133842" lon="8.1092735"><ele>207.0</ele><time>2026-04-25T08:50:20.988Z</time></trkpt><trkpt lat="45.1338264" lon="8.109146"><ele>207.0</ele><time>2026-04-25T08:50:21.983Z</time></trkpt><trkpt lat="45.1337965" lon="8.1090355"><ele>207.0</ele><time>2026-04-25T08:50:22.981Z</time></trkpt><trkpt lat="45.1337462" lon="8.1089336"><ele>207.0</ele><time>2026-04-25T08:50:23.986Z</time></trkpt><trkpt lat="45.1336692" lon="8.1088291"><ele>207.0</ele><time>2026-04-25T08:50:24.986Z</time></trkpt><trkpt lat="45.1335868" lon="8.108723"><ele>206.8</ele><time>2026-04-25T08:50:25.981Z</time></trkpt><trkpt lat="45.1335095" lon="8.1086178"><ele>206.6</ele><time>2026-04-25T08:50:26.983Z</time></trkpt><trkpt lat="45.1334349" lon="8.1085156"><ele>206.4</ele><time>2026-04-25T08:50:27.982Z</time></trkpt><trkpt lat="45.1333636" lon="8.1084245"><ele>206.20000000000002</ele><time>2026-04-25T08:50:28.979Z</time></trkpt><trkpt lat="45.1332915" lon="8.1083368"><ele>206.0</ele><time>2026-04-25T08:50:30.007Z</time></trkpt><trkpt lat="45.1332137" lon="8.1082423"><ele>206.0</ele><time>2026-04-25T08:50:30.984Z</time></trkpt><trkpt lat="45.1331389" lon="8.108139"><ele>206.0</ele><time>2026-04-25T08:50:31.987Z</time></trkpt><trkpt lat="45.1330705" lon="8.1080499"><ele>206.0</ele><time>2026-04-25T08:50:32.986Z</time></trkpt><trkpt lat="45.1330089" lon="8.1079424"><ele>206.0</ele><time>2026-04-25T08:50:33.984Z</time></trkpt><trkpt lat="45.1329546" lon="8.1078317"><ele>206.0</ele><time>2026-04-25T08:50:35.002Z</time></trkpt><trkpt lat="45.1329131" lon="8.107706"><ele>206.0</ele><time>2026-04-25T08:50:35.987Z</time></trkpt><trkpt lat="45.1328652" lon="8.1075797"><ele>206.0</ele><time>2026-04-25T08:50:36.984Z</time></trkpt><trkpt lat="45.1328079" lon="8.1074452"><ele>206.0</ele><time>2026-04-25T08:50:37.992Z</time></trkpt><trkpt lat="45.1327632" lon="8.1072891"><ele>206.0</ele><time>2026-04-25T08:50:38.985Z</time></trkpt><trkpt lat="45.1327051" lon="8.1071575"><ele>206.0</ele><time>2026-04-25T08:50:40.005Z</time></trkpt><trkpt lat="45.1326561" lon="8.1070358"><ele>206.8</ele><time>2026-04-25T08:50:40.989Z</time></trkpt><trkpt lat="45.1326143" lon="8.1069211"><ele>207.60000000000002</ele><time>2026-04-25T08:50:41.985Z</time></trkpt><trkpt lat="45.1325855" lon="8.1068049"><ele>208.4</ele><time>2026-04-25T08:50:42.982Z</time></trkpt><trkpt lat="45.1325588" lon="8.1066745"><ele>209.2</ele><time>2026-04-25T08:50:43.982Z</time></trkpt><trkpt lat="45.1325275" lon="8.1065401"><ele>210.0</ele><time>2026-04-25T08:50:44.987Z</time></trkpt><trkpt lat="45.1325041" lon="8.106398"><ele>210.6</ele><time>2026-04-25T08:50:45.985Z</time></trkpt><trkpt lat="45.1324799" lon="8.1062705"><ele>211.2</ele><time>2026-04-25T08:50:46.984Z</time></trkpt><trkpt lat="45.1324662" lon="8.1061504"><ele>211.8</ele><time>2026-04-25T08:50:48Z</time></trkpt><trkpt lat="45.1324672" lon="8.1060361"><ele>212.4</ele><time>2026-04-25T08:50:48.986Z</time></trkpt><trkpt lat="45.1324816" lon="8.1059071"><ele>213.0</ele><time>2026-04-25T08:50:49.989Z</time></trkpt><trkpt lat="45.1325087" lon="8.1057656"><ele>214.4</ele><time>2026-04-25T08:50:50.983Z</time></trkpt><trkpt lat="45.1325332" lon="8.1056206"><ele>215.8</ele><time>2026-04-25T08:50:51.988Z</time></trkpt><trkpt lat="45.1325412" lon="8.1054856"><ele>217.2</ele><time>2026-04-25T08:50:52.982Z</time></trkpt><trkpt lat="45.1325347" lon="8.1053506"><ele>218.6</ele><time>2026-04-25T08:50:53.984Z</time></trkpt><trkpt lat="45.132515" lon="8.1052226"><ele>220.0</ele><time>2026-04-25T08:50:54.984Z</time></trkpt><trkpt lat="45.1324966" lon="8.1050946"><ele>219.99999999999997</ele><time>2026-04-25T08:50:55.988Z</time></trkpt><trkpt lat="45.1324798" lon="8.1049786"><ele>220.0</ele><time>2026-04-25T08:50:56.985Z</time></trkpt><trkpt lat="45.1324629" lon="8.1048695"><ele>220.0</ele><time>2026-04-25T08:50:57.99Z</time></trkpt><trkpt lat="45.1324583" lon="8.1047433"><ele>220.0</ele><time>2026-04-25T08:50:58.982Z</time></trkpt><trkpt lat="45.1324478" lon="8.1046208"><ele>219.99999999999997</ele><time>2026-04-25T08:50:59.987Z</time></trkpt><trkpt lat="45.1324435" lon="8.104491"><ele>220.0</ele><time>2026-04-25T08:51:00.986Z</time></trkpt><trkpt lat="45.1324449" lon="8.1043531"><ele>220.83333333333331</ele><time>2026-04-25T08:51:01.985Z</time></trkpt><trkpt lat="45.1324472" lon="8.104229"><ele>221.66666666666666</ele><time>2026-04-25T08:51:03.006Z</time></trkpt><trkpt lat="45.1324462" lon="8.1041299"><ele>222.5</ele><time>2026-04-25T08:51:03.988Z</time></trkpt><trkpt lat="45.1324623" lon="8.1040129"><ele>223.33333333333331</ele><time>2026-04-25T08:51:05.988Z</time></trkpt><trkpt lat="45.1325614" lon="8.1040139"><ele>224.16666666666666</ele><time>2026-04-25T08:51:08.99Z</time></trkpt><trkpt lat="45.1326235" lon="8.1040868"><ele>225.0</ele><time>2026-04-25T08:51:09.988Z</time></trkpt><trkpt lat="45.1326883" lon="8.1041666"><ele>225.0</ele><time>2026-04-25T08:51:10.989Z</time></trkpt><trkpt lat="45.1327773" lon="8.1042411"><ele>225.0</ele><time>2026-04-25T08:51:11.986Z</time></trkpt><trkpt lat="45.1328821" lon="8.1043153"><ele>225.0</ele><time>2026-04-25T08:51:12.986Z</time></trkpt><trkpt lat="45.1329763" lon="8.1043918"><ele>225.0</ele><time>2026-04-25T08:51:13.985Z</time></trkpt><trkpt lat="45.1330656" lon="8.1044755"><ele>225.0</ele><time>2026-04-25T08:51:14.986Z</time></trkpt><trkpt lat="45.1331504" lon="8.1045646"><ele>227.5</ele><time>2026-04-25T08:51:15.985Z</time></trkpt><trkpt lat="45.1332254" lon="8.1046447"><ele>230.0</ele><time>2026-04-25T08:51:16.985Z</time></trkpt><trkpt lat="45.133296" lon="8.104714"><ele>232.5</ele><time>2026-04-25T08:51:17.99Z</time></trkpt><trkpt lat="45.1333652" lon="8.1047684"><ele>235.0</ele><time>2026-04-25T08:51:18.985Z</time></trkpt><trkpt lat="45.1334372" lon="8.10481"><ele>237.5</ele><time>2026-04-25T08:51:19.984Z</time></trkpt><trkpt lat="45.1335001" lon="8.1048451"><ele>240.0</ele><time>2026-04-25T08:51:21.008Z</time></trkpt><trkpt lat="45.133603" lon="8.1048421"><ele>240.0</ele><time>2026-04-25T08:51:22.986Z</time></trkpt><trkpt lat="45.1337041" lon="8.1047978"><ele>240.0</ele><time>2026-04-25T08:51:24.99Z</time></trkpt><trkpt lat="45.1338014" lon="8.1046733"><ele>240.0</ele><time>2026-04-25T08:51:27.002Z</time></trkpt><trkpt lat="45.1338492" lon="8.1045795"><ele>240.0</ele><time>2026-04-25T08:51:27.987Z</time></trkpt><trkpt lat="45.1338901" lon="8.1044756"><ele>240.0</ele><time>2026-04-25T08:51:28.982Z</time></trkpt><trkpt lat="45.1339288" lon="8.1043705"><ele>240.0</ele><time>2026-04-25T08:51:29.987Z</time></trkpt><trkpt lat="45.1339683" lon="8.1042784"><ele>240.0</ele><time>2026-04-25T08:51:30.988Z</time></trkpt><trkpt lat="45.1340074" lon="8.1041856"><ele>240.0</ele><time>2026-04-25T08:51:32.004Z</time></trkpt><trkpt lat="45.1340472" lon="8.1040852"><ele>240.0</ele><time>2026-04-25T08:51:32.984Z</time></trkpt><trkpt lat="45.1340826" lon="8.1039808"><ele>240.0</ele><time>2026-04-25T08:51:33.988Z</time></trkpt><trkpt lat="45.1341187" lon="8.1038738"><ele>240.0</ele><time>2026-04-25T08:51:34.988Z</time></trkpt><trkpt lat="45.1341399" lon="8.1037686"><ele>244.6</ele><time>2026-04-25T08:51:35.986Z</time></trkpt><trkpt lat="45.1341544" lon="8.1036573"><ele>249.2</ele><time>2026-04-25T08:51:36.982Z</time></trkpt><trkpt lat="45.1341605" lon="8.1035392"><ele>253.8</ele><time>2026-04-25T08:51:37.987Z</time></trkpt><trkpt lat="45.1341666" lon="8.1034125"><ele>258.4</ele><time>2026-04-25T08:51:39Z</time></trkpt><trkpt lat="45.1341766" lon="8.1032684"><ele>263.0</ele><time>2026-04-25T08:51:39.984Z</time></trkpt><trkpt lat="45.1341845" lon="8.1031172"><ele>263.83333333333337</ele><time>2026-04-25T08:51:40.984Z</time></trkpt><trkpt lat="45.1341957" lon="8.1029601"><ele>264.6666666666667</ele><time>2026-04-25T08:51:41.987Z</time></trkpt><trkpt lat="45.1342037" lon="8.102825"><ele>265.5</ele><time>2026-04-25T08:51:42.986Z</time></trkpt><trkpt lat="45.134213" lon="8.102713"><ele>266.3333333333333</ele><time>2026-04-25T08:51:43.988Z</time></trkpt><trkpt lat="45.1342301" lon="8.1026164"><ele>267.16666666666663</ele><time>2026-04-25T08:51:44.987Z</time></trkpt><trkpt lat="45.1342555" lon="8.1025331"><ele>268.0</ele><time>2026-04-25T08:51:46.001Z</time></trkpt><trkpt lat="45.1343399" lon="8.1024418"><ele>268.0</ele><time>2026-04-25T08:51:47.983Z</time></trkpt><trkpt lat="45.1344365" lon="8.1024442"><ele>268.0</ele><time>2026-04-25T08:51:49.987Z</time></trkpt><trkpt lat="45.1345028" lon="8.1024925"><ele>268.0</ele><time>2026-04-25T08:51:51.002Z</time></trkpt><trkpt lat="45.1345793" lon="8.1025504"><ele>268.0</ele><time>2026-04-25T08:51:51.984Z</time></trkpt><trkpt lat="45.1346607" lon="8.102607"><ele>268.0</ele><time>2026-04-25T08:51:52.979Z</time></trkpt><trkpt lat="45.1347481" lon="8.1026408"><ele>268.0</ele><time>2026-04-25T08:51:53.984Z</time></trkpt><trkpt lat="45.1348206" lon="8.1026621"><ele>270.3333333333333</ele><time>2026-04-25T08:51:54.985Z</time></trkpt><trkpt lat="45.1349377" lon="8.1026476"><ele>272.66666666666663</ele><time>2026-04-25T08:51:56.981Z</time></trkpt><trkpt lat="45.1349971" lon="8.1026125"><ele>275.0</ele><time>2026-04-25T08:51:57.984Z</time></trkpt><trkpt lat="45.135051" lon="8.1025567"><ele>277.3333333333333</ele><time>2026-04-25T08:51:58.984Z</time></trkpt><trkpt lat="45.1350996" lon="8.1024853"><ele>279.6666666666667</ele><time>2026-04-25T08:51:59.985Z</time></trkpt><trkpt lat="45.1351434" lon="8.1024029"><ele>282.0</ele><time>2026-04-25T08:52:00.99Z</time></trkpt><trkpt lat="45.1351721" lon="8.1023077"><ele>283.0</ele><time>2026-04-25T08:52:01.982Z</time></trkpt><trkpt lat="45.1352004" lon="8.102215"><ele>284.0</ele><time>2026-04-25T08:52:03.024Z</time></trkpt><trkpt lat="45.1351957" lon="8.1021228"><ele>285.0</ele><time>2026-04-25T08:52:03.989Z</time></trkpt><trkpt lat="45.1351292" lon="8.102"><ele>286.0</ele><time>2026-04-25T08:52:05.982Z</time></trkpt><trkpt lat="45.1350269" lon="8.1019369"><ele>287.0</ele><time>2026-04-25T08:52:07.984Z</time></trkpt><trkpt lat="45.1349759" lon="8.1018406"><ele>288.0</ele><time>2026-04-25T08:52:09.988Z</time></trkpt><trkpt lat="45.1350144" lon="8.1017033"><ele>288.0</ele><time>2026-04-25T08:52:11.994Z</time></trkpt><trkpt lat="45.1350405" lon="8.1016204"><ele>288.0</ele><time>2026-04-25T08:52:12.984Z</time></trkpt><trkpt lat="45.135064" lon="8.1015193"><ele>288.0</ele><time>2026-04-25T08:52:14.007Z</time></trkpt><trkpt lat="45.1350994" lon="8.1014069"><ele>288.0</ele><time>2026-04-25T08:52:14.987Z</time></trkpt><trkpt lat="45.1351439" lon="8.1012959"><ele>288.0</ele><time>2026-04-25T08:52:15.985Z</time></trkpt><trkpt lat="45.135188" lon="8.1011801"><ele>288.0</ele><time>2026-04-25T08:52:16.983Z</time></trkpt><trkpt lat="45.1352139" lon="8.1010678"><ele>288.5</ele><time>2026-04-25T08:52:17.983Z</time></trkpt><trkpt lat="45.1352267" lon="8.1009649"><ele>289.0</ele><time>2026-04-25T08:52:18.987Z</time></trkpt><trkpt lat="45.1352273" lon="8.1008756"><ele>289.5</ele><time>2026-04-25T08:52:19.987Z</time></trkpt><trkpt lat="45.1352122" lon="8.1007305"><ele>290.0</ele><time>2026-04-25T08:52:21.983Z</time></trkpt><trkpt lat="45.1351866" lon="8.100612"><ele>290.5</ele><time>2026-04-25T08:52:23.988Z</time></trkpt><trkpt lat="45.1351704" lon="8.1005149"><ele>291.0</ele><time>2026-04-25T08:52:26.007Z</time></trkpt><trkpt lat="45.1351494" lon="8.1003964"><ele>291.3333333333333</ele><time>2026-04-25T08:52:49.992Z</time></trkpt><trkpt lat="45.1351299" lon="8.1002618"><ele>291.6666666666667</ele><time>2026-04-25T08:52:51.987Z</time></trkpt><trkpt lat="45.1351148" lon="8.1001559"><ele>292.0</ele><time>2026-04-25T08:52:52.987Z</time></trkpt><trkpt lat="45.1350986" lon="8.1000479"><ele>292.33333333333337</ele><time>2026-04-25T08:52:53.993Z</time></trkpt><trkpt lat="45.1350872" lon="8.0999443"><ele>292.6666666666667</ele><time>2026-04-25T08:52:54.98Z</time></trkpt><trkpt lat="45.1350831" lon="8.099852"><ele>293.0</ele><time>2026-04-25T08:52:55.985Z</time></trkpt><trkpt lat="45.1351104" lon="8.0996739"><ele>291.8</ele><time>2026-04-25T08:52:57.98Z</time></trkpt><trkpt lat="45.1351493" lon="8.0995625"><ele>290.6</ele><time>2026-04-25T08:52:58.978Z</time></trkpt><trkpt lat="45.1352021" lon="8.0994461"><ele>289.4</ele><time>2026-04-25T08:52:59.984Z</time></trkpt><trkpt lat="45.1352685" lon="8.0993269"><ele>288.2</ele><time>2026-04-25T08:53:00.982Z</time></trkpt><trkpt lat="45.1353328" lon="8.0992233"><ele>287.0</ele><time>2026-04-25T08:53:01.983Z</time></trkpt><trkpt lat="45.1353813" lon="8.0991229"><ele>286.6</ele><time>2026-04-25T08:53:02.988Z</time></trkpt><trkpt lat="45.1354073" lon="8.099012"><ele>286.2</ele><time>2026-04-25T08:53:03.987Z</time></trkpt><trkpt lat="45.1354079" lon="8.0988931"><ele>285.8</ele><time>2026-04-25T08:53:04.984Z</time></trkpt><trkpt lat="45.1353821" lon="8.0987654"><ele>285.4</ele><time>2026-04-25T08:53:05.984Z</time></trkpt><trkpt lat="45.1353401" lon="8.0986294"><ele>285.0</ele><time>2026-04-25T08:53:06.986Z</time></trkpt><trkpt lat="45.1353" lon="8.0984967"><ele>285.0</ele><time>2026-04-25T08:53:07.983Z</time></trkpt><trkpt lat="45.1352656" lon="8.0983782"><ele>285.0</ele><time>2026-04-25T08:53:08.982Z</time></trkpt><trkpt lat="45.1352441" lon="8.0982691"><ele>285.0</ele><time>2026-04-25T08:53:09.988Z</time></trkpt><trkpt lat="45.1352253" lon="8.0981709"><ele>285.0</ele><time>2026-04-25T08:53:10.989Z</time></trkpt><trkpt lat="45.1352331" lon="8.0980477"><ele>285.0</ele><time>2026-04-25T08:53:11.982Z</time></trkpt><trkpt lat="45.1352437" lon="8.0979313"><ele>285.0</ele><time>2026-04-25T08:53:12.979Z</time></trkpt><trkpt lat="45.1352778" lon="8.0978404"><ele>284.5</ele><time>2026-04-25T08:53:13.987Z</time></trkpt><trkpt lat="45.1353314" lon="8.0977742"><ele>284.0</ele><time>2026-04-25T08:53:14.984Z</time></trkpt><trkpt lat="45.1353989" lon="8.0977312"><ele>283.5</ele><time>2026-04-25T08:53:15.983Z</time></trkpt><trkpt lat="45.1354703" lon="8.0976921"><ele>283.0</ele><time>2026-04-25T08:53:16.985Z</time></trkpt><trkpt lat="45.1355688" lon="8.0977055"><ele>282.5</ele><time>2026-04-25T08:53:17.982Z</time></trkpt><trkpt lat="45.13567" lon="8.0977178"><ele>282.0</ele><time>2026-04-25T08:53:18.988Z</time></trkpt><trkpt lat="45.1357822" lon="8.097732"><ele>285.2</ele><time>2026-04-25T08:53:19.984Z</time></trkpt><trkpt lat="45.1358863" lon="8.0977208"><ele>288.4</ele><time>2026-04-25T08:53:20.986Z</time></trkpt><trkpt lat="45.1359821" lon="8.0977049"><ele>291.6</ele><time>2026-04-25T08:53:21.986Z</time></trkpt><trkpt lat="45.1360727" lon="8.0977023"><ele>294.8</ele><time>2026-04-25T08:53:22.984Z</time></trkpt><trkpt lat="45.1361575" lon="8.0977032"><ele>298.0</ele><time>2026-04-25T08:53:23.991Z</time></trkpt><trkpt lat="45.1362497" lon="8.0977267"><ele>298.0</ele><time>2026-04-25T08:53:24.985Z</time></trkpt><trkpt lat="45.1363386" lon="8.0977236"><ele>298.0</ele><time>2026-04-25T08:53:25.982Z</time></trkpt><trkpt lat="45.1364279" lon="8.0976852"><ele>298.0</ele><time>2026-04-25T08:53:26.985Z</time></trkpt><trkpt lat="45.1365114" lon="8.0976169"><ele>298.0</ele><time>2026-04-25T08:53:27.984Z</time></trkpt><trkpt lat="45.1365974" lon="8.0975341"><ele>298.0</ele><time>2026-04-25T08:53:28.984Z</time></trkpt><trkpt lat="45.1366847" lon="8.0974393"><ele>297.4</ele><time>2026-04-25T08:53:29.993Z</time></trkpt><trkpt lat="45.1367689" lon="8.0973295"><ele>296.8</ele><time>2026-04-25T08:53:30.984Z</time></trkpt><trkpt lat="45.1368488" lon="8.0972136"><ele>296.2</ele><time>2026-04-25T08:53:31.986Z</time></trkpt><trkpt lat="45.1369203" lon="8.0971035"><ele>295.6</ele><time>2026-04-25T08:53:32.989Z</time></trkpt><trkpt lat="45.136995" lon="8.0970113"><ele>295.0</ele><time>2026-04-25T08:53:33.985Z</time></trkpt><trkpt lat="45.1370798" lon="8.0969296"><ele>295.0</ele><time>2026-04-25T08:53:34.992Z</time></trkpt><trkpt lat="45.1371703" lon="8.0968486"><ele>295.0</ele><time>2026-04-25T08:53:35.991Z</time></trkpt><trkpt lat="45.1372531" lon="8.0967582"><ele>295.0</ele><time>2026-04-25T08:53:36.987Z</time></trkpt><trkpt lat="45.137336" lon="8.0966605"><ele>295.0</ele><time>2026-04-25T08:53:37.989Z</time></trkpt><trkpt lat="45.137431" lon="8.0965658"><ele>295.0</ele><time>2026-04-25T08:53:38.986Z</time></trkpt><trkpt lat="45.1375243" lon="8.0964707"><ele>301.0</ele><time>2026-04-25T08:53:39.99Z</time></trkpt><trkpt lat="45.1376088" lon="8.0963631"><ele>307.0</ele><time>2026-04-25T08:53:40.984Z</time></trkpt><trkpt lat="45.1376828" lon="8.0962423"><ele>313.0</ele><time>2026-04-25T08:53:41.986Z</time></trkpt><trkpt lat="45.1377483" lon="8.0961076"><ele>319.0</ele><time>2026-04-25T08:53:42.984Z</time></trkpt><trkpt lat="45.1378094" lon="8.0959638"><ele>319.0</ele><time>2026-04-25T08:53:43.984Z</time></trkpt><trkpt lat="45.1378716" lon="8.0958204"><ele>319.0</ele><time>2026-04-25T08:53:44.984Z</time></trkpt><trkpt lat="45.1379356" lon="8.0956793"><ele>319.0</ele><time>2026-04-25T08:53:45.984Z</time></trkpt><trkpt lat="45.1379975" lon="8.0955446"><ele>319.0</ele><time>2026-04-25T08:53:46.986Z</time></trkpt><trkpt lat="45.1380641" lon="8.0954159"><ele>319.2</ele><time>2026-04-25T08:53:47.987Z</time></trkpt><trkpt lat="45.1381359" lon="8.0952966"><ele>319.4</ele><time>2026-04-25T08:53:48.986Z</time></trkpt><trkpt lat="45.1382196" lon="8.0951926"><ele>319.6</ele><time>2026-04-25T08:53:49.981Z</time></trkpt><trkpt lat="45.1382996" lon="8.0950927"><ele>319.8</ele><time>2026-04-25T08:53:50.985Z</time></trkpt><trkpt lat="45.1383738" lon="8.0950062"><ele>320.0</ele><time>2026-04-25T08:53:51.99Z</time></trkpt><trkpt lat="45.1384331" lon="8.0949095"><ele>320.0</ele><time>2026-04-25T08:53:52.99Z</time></trkpt><trkpt lat="45.1384914" lon="8.0948297"><ele>320.0</ele><time>2026-04-25T08:53:53.984Z</time></trkpt><trkpt lat="45.1385565" lon="8.0947804"><ele>320.0</ele><time>2026-04-25T08:53:54.984Z</time></trkpt><trkpt lat="45.1386212" lon="8.0947782"><ele>320.0</ele><time>2026-04-25T08:53:55.987Z</time></trkpt><trkpt lat="45.1386835" lon="8.0948263"><ele>320.0</ele><time>2026-04-25T08:53:56.994Z</time></trkpt><trkpt lat="45.138744" lon="8.0948774"><ele>320.0</ele><time>2026-04-25T08:53:57.99Z</time></trkpt><trkpt lat="45.1388036" lon="8.0949402"><ele>320.0</ele><time>2026-04-25T08:53:58.979Z</time></trkpt><trkpt lat="45.1388731" lon="8.0949949"><ele>321.6</ele><time>2026-04-25T08:53:59.984Z</time></trkpt><trkpt lat="45.138953" lon="8.0950311"><ele>323.2</ele><time>2026-04-25T08:54:00.986Z</time></trkpt><trkpt lat="45.139047" lon="8.0950314"><ele>324.79999999999995</ele><time>2026-04-25T08:54:01.986Z</time></trkpt><trkpt lat="45.1391432" lon="8.0949998"><ele>326.4</ele><time>2026-04-25T08:54:02.985Z</time></trkpt><trkpt lat="45.1392501" lon="8.0949557"><ele>328.0</ele><time>2026-04-25T08:54:03.987Z</time></trkpt><trkpt lat="45.1393627" lon="8.094913"><ele>332.5</ele><time>2026-04-25T08:54:04.988Z</time></trkpt><trkpt lat="45.139486" lon="8.0948805"><ele>337.0</ele><time>2026-04-25T08:54:05.983Z</time></trkpt><trkpt lat="45.1396114" lon="8.0948523"><ele>341.5</ele><time>2026-04-25T08:54:06.987Z</time></trkpt><trkpt lat="45.1397415" lon="8.0948088"><ele>346.0</ele><time>2026-04-25T08:54:07.982Z</time></trkpt><trkpt lat="45.1398666" lon="8.0947673"><ele>350.25</ele><time>2026-04-25T08:54:08.98Z</time></trkpt><trkpt lat="45.1399882" lon="8.0947222"><ele>354.5</ele><time>2026-04-25T08:54:09.983Z</time></trkpt><trkpt lat="45.1401109" lon="8.09469"><ele>358.75</ele><time>2026-04-25T08:54:10.983Z</time></trkpt><trkpt lat="45.1402359" lon="8.0946599"><ele>363.0</ele><time>2026-04-25T08:54:12.009Z</time></trkpt><trkpt lat="45.1403622" lon="8.0946341"><ele>363.0</ele><time>2026-04-25T08:54:12.98Z</time></trkpt><trkpt lat="45.140494" lon="8.094644"><ele>363.0</ele><time>2026-04-25T08:54:13.98Z</time></trkpt><trkpt lat="45.1406228" lon="8.0946525"><ele>363.0</ele><time>2026-04-25T08:54:14.985Z</time></trkpt><trkpt lat="45.140738" lon="8.094673"><ele>363.0</ele><time>2026-04-25T08:54:15.985Z</time></trkpt><trkpt lat="45.1408382" lon="8.0946993"><ele>363.1666666666667</ele><time>2026-04-25T08:54:16.984Z</time></trkpt><trkpt lat="45.1409165" lon="8.0947176"><ele>363.3333333333333</ele><time>2026-04-25T08:54:17.987Z</time></trkpt><trkpt lat="45.1409826" lon="8.0947249"><ele>363.5</ele><time>2026-04-25T08:54:18.999Z</time></trkpt><trkpt lat="45.1411028" lon="8.0947324"><ele>363.66666666666663</ele><time>2026-04-25T08:54:20.984Z</time></trkpt><trkpt lat="45.1411964" lon="8.0947317"><ele>363.8333333333333</ele><time>2026-04-25T08:54:22.987Z</time></trkpt><trkpt lat="45.1412608" lon="8.0947214"><ele>364.0</ele><time>2026-04-25T08:54:24.986Z</time></trkpt><trkpt lat="45.1413785" lon="8.0946851"><ele>364.0</ele><time>2026-04-25T08:54:26.979Z</time></trkpt><trkpt lat="45.1414604" lon="8.0947174"><ele>364.0</ele><time>2026-04-25T08:54:27.985Z</time></trkpt><trkpt lat="45.1415563" lon="8.0947628"><ele>364.0</ele><time>2026-04-25T08:54:29Z</time></trkpt><trkpt lat="45.1416433" lon="8.0948298"><ele>364.0</ele><time>2026-04-25T08:54:29.985Z</time></trkpt><trkpt lat="45.141704" lon="8.094876"><ele>364.0</ele><time>2026-04-25T08:54:30.986Z</time></trkpt><trkpt lat="45.1417551" lon="8.0949364"><ele>364.0</ele><time>2026-04-25T08:54:31.986Z</time></trkpt><trkpt lat="45.1418073" lon="8.0950005"><ele>364.3333333333333</ele><time>2026-04-25T08:54:32.981Z</time></trkpt><trkpt lat="45.1418713" lon="8.0950687"><ele>364.66666666666663</ele><time>2026-04-25T08:54:33.987Z</time></trkpt><trkpt lat="45.1419359" lon="8.0951483"><ele>365.0</ele><time>2026-04-25T08:54:34.987Z</time></trkpt><trkpt lat="45.141994" lon="8.0952394"><ele>365.3333333333333</ele><time>2026-04-25T08:54:35.982Z</time></trkpt><trkpt lat="45.1420586" lon="8.0953404"><ele>365.6666666666667</ele><time>2026-04-25T08:54:36.979Z</time></trkpt><trkpt lat="45.1421159" lon="8.0954215"><ele>366.0</ele><time>2026-04-25T08:54:37.983Z</time></trkpt><trkpt lat="45.1421711" lon="8.095513"><ele>366.0</ele><time>2026-04-25T08:54:38.98Z</time></trkpt><trkpt lat="45.1422224" lon="8.0956025"><ele>366.0</ele><time>2026-04-25T08:54:39.987Z</time></trkpt><trkpt lat="45.1422553" lon="8.0956866"><ele>366.0</ele><time>2026-04-25T08:54:40.983Z</time></trkpt><trkpt lat="45.1422758" lon="8.095773"><ele>366.0</ele><time>2026-04-25T08:54:41.981Z</time></trkpt><trkpt lat="45.1423073" lon="8.0959215"><ele>366.0</ele><time>2026-04-25T08:54:43.983Z</time></trkpt><trkpt lat="45.1423385" lon="8.0960086"><ele>366.0</ele><time>2026-04-25T08:54:44.987Z</time></trkpt><trkpt lat="45.1423967" lon="8.0961553"><ele>366.8</ele><time>2026-04-25T08:54:46.99Z</time></trkpt><trkpt lat="45.1424135" lon="8.0963075"><ele>367.6</ele><time>2026-04-25T08:54:48.987Z</time></trkpt><trkpt lat="45.1423902" lon="8.0964718"><ele>368.4</ele><time>2026-04-25T08:54:50.986Z</time></trkpt><trkpt lat="45.1423393" lon="8.0966112"><ele>369.2</ele><time>2026-04-25T08:54:52.985Z</time></trkpt><trkpt lat="45.142304" lon="8.0966915"><ele>370.0</ele><time>2026-04-25T08:54:53.993Z</time></trkpt><trkpt lat="45.1422693" lon="8.0967816"><ele>364.6</ele><time>2026-04-25T08:54:54.985Z</time></trkpt><trkpt lat="45.1422598" lon="8.096873"><ele>359.2</ele><time>2026-04-25T08:54:56.009Z</time></trkpt><trkpt lat="45.1422532" lon="8.096963"><ele>353.79999999999995</ele><time>2026-04-25T08:54:56.987Z</time></trkpt><trkpt lat="45.1422313" lon="8.0971351"><ele>348.4</ele><time>2026-04-25T08:54:58.98Z</time></trkpt><trkpt lat="45.1421707" lon="8.0972496"><ele>343.0</ele><time>2026-04-25T08:55:00.984Z</time></trkpt><trkpt lat="45.1421221" lon="8.0973697"><ele>342.79999999999995</ele><time>2026-04-25T08:55:02.983Z</time></trkpt><trkpt lat="45.1421297" lon="8.0975273"><ele>342.6</ele><time>2026-04-25T08:55:04.991Z</time></trkpt><trkpt lat="45.1421205" lon="8.0976718"><ele>342.4</ele><time>2026-04-25T08:55:06.987Z</time></trkpt><trkpt lat="45.1420982" lon="8.0978187"><ele>342.20000000000005</ele><time>2026-04-25T08:55:08.992Z</time></trkpt><trkpt lat="45.1421018" lon="8.0979561"><ele>342.0</ele><time>2026-04-25T08:55:10.988Z</time></trkpt><trkpt lat="45.1421167" lon="8.0980948"><ele>342.0</ele><time>2026-04-25T08:55:12.991Z</time></trkpt><trkpt lat="45.1421255" lon="8.0982177"><ele>342.0</ele><time>2026-04-25T08:55:14.987Z</time></trkpt><trkpt lat="45.1421354" lon="8.0983336"><ele>342.0</ele><time>2026-04-25T08:55:16.987Z</time></trkpt><trkpt lat="45.1421701" lon="8.0984185"><ele>342.0</ele><time>2026-04-25T08:55:18.988Z</time></trkpt><trkpt lat="45.1422225" lon="8.0985332"><ele>342.0</ele><time>2026-04-25T08:55:20.991Z</time></trkpt><trkpt lat="45.1422553" lon="8.09868"><ele>342.0</ele><time>2026-04-25T08:55:22.995Z</time></trkpt><trkpt lat="45.1423033" lon="8.0988223"><ele>339.8</ele><time>2026-04-25T08:55:24.986Z</time></trkpt><trkpt lat="45.1423669" lon="8.0989567"><ele>337.6</ele><time>2026-04-25T08:55:26.989Z</time></trkpt><trkpt lat="45.1424117" lon="8.0990892"><ele>335.40000000000003</ele><time>2026-04-25T08:55:28.99Z</time></trkpt><trkpt lat="45.1424535" lon="8.0992271"><ele>333.20000000000005</ele><time>2026-04-25T08:55:30.989Z</time></trkpt><trkpt lat="45.1424727" lon="8.0993197"><ele>331.0</ele><time>2026-04-25T08:55:31.986Z</time></trkpt><trkpt lat="45.1425091" lon="8.0994834"><ele>331.0</ele><time>2026-04-25T08:55:33.985Z</time></trkpt><trkpt lat="45.1425404" lon="8.0996279"><ele>331.0</ele><time>2026-04-25T08:55:35.987Z</time></trkpt><trkpt lat="45.1425489" lon="8.0997531"><ele>331.0</ele><time>2026-04-25T08:55:37.99Z</time></trkpt><trkpt lat="45.1425519" lon="8.0998957"><ele>331.0</ele><time>2026-04-25T08:55:39.989Z</time></trkpt><trkpt lat="45.1425554" lon="8.1000206"><ele>331.0</ele><time>2026-04-25T08:55:41.983Z</time></trkpt><trkpt lat="45.1425526" lon="8.1001426"><ele>329.20000000000005</ele><time>2026-04-25T08:55:43.983Z</time></trkpt><trkpt lat="45.1425388" lon="8.1003015"><ele>327.40000000000003</ele><time>2026-04-25T08:55:45.991Z</time></trkpt><trkpt lat="45.1425306" lon="8.1004036"><ele>325.6</ele><time>2026-04-25T08:55:46.986Z</time></trkpt><trkpt lat="45.1425155" lon="8.1005339"><ele>323.8</ele><time>2026-04-25T08:55:47.983Z</time></trkpt><trkpt lat="45.1425029" lon="8.1006463"><ele>322.0</ele><time>2026-04-25T08:55:48.979Z</time></trkpt><trkpt lat="45.1424805" lon="8.1008191"><ele>320.16666666666663</ele><time>2026-04-25T08:55:50.983Z</time></trkpt><trkpt lat="45.1424683" lon="8.100971"><ele>318.3333333333333</ele><time>2026-04-25T08:55:52.995Z</time></trkpt><trkpt lat="45.1424315" lon="8.1011343"><ele>316.5</ele><time>2026-04-25T08:55:54.991Z</time></trkpt><trkpt lat="45.1423916" lon="8.1012068"><ele>314.6666666666667</ele><time>2026-04-25T08:55:55.983Z</time></trkpt><trkpt lat="45.1423471" lon="8.1012742"><ele>312.83333333333337</ele><time>2026-04-25T08:55:56.981Z</time></trkpt><trkpt lat="45.1422756" lon="8.1013502"><ele>311.0</ele><time>2026-04-25T08:55:58.985Z</time></trkpt><trkpt lat="45.1421879" lon="8.1013542"><ele>307.5</ele><time>2026-04-25T08:56:01.987Z</time></trkpt><trkpt lat="45.1420751" lon="8.1013539"><ele>304.0</ele><time>2026-04-25T08:56:04.985Z</time></trkpt><trkpt lat="45.1419713" lon="8.1014348"><ele>300.5</ele><time>2026-04-25T08:56:06.982Z</time></trkpt><trkpt lat="45.1418827" lon="8.101551"><ele>297.0</ele><time>2026-04-25T08:56:08.99Z</time></trkpt><trkpt lat="45.1418004" lon="8.1016822"><ele>297.0</ele><time>2026-04-25T08:56:10.984Z</time></trkpt><trkpt lat="45.141731" lon="8.1018049"><ele>297.0</ele><time>2026-04-25T08:56:12.979Z</time></trkpt><trkpt lat="45.1416607" lon="8.1019266"><ele>297.0</ele><time>2026-04-25T08:56:14.986Z</time></trkpt><trkpt lat="45.1416092" lon="8.1020024"><ele>297.0</ele><time>2026-04-25T08:56:15.987Z</time></trkpt><trkpt lat="45.1415636" lon="8.1020874"><ele>297.0</ele><time>2026-04-25T08:56:16.986Z</time></trkpt><trkpt lat="45.1415204" lon="8.1021719"><ele>297.0</ele><time>2026-04-25T08:56:17.982Z</time></trkpt><trkpt lat="45.1414822" lon="8.1022638"><ele>295.14285714285717</ele><time>2026-04-25T08:56:18.986Z</time></trkpt><trkpt lat="45.1414509" lon="8.1023539"><ele>293.28571428571433</ele><time>2026-04-25T08:56:19.987Z</time></trkpt><trkpt lat="45.1414236" lon="8.1024619"><ele>291.42857142857144</ele><time>2026-04-25T08:56:20.978Z</time></trkpt><trkpt lat="45.1413946" lon="8.1025602"><ele>289.57142857142856</ele><time>2026-04-25T08:56:22.005Z</time></trkpt><trkpt lat="45.1413633" lon="8.1026534"><ele>287.71428571428567</ele><time>2026-04-25T08:56:22.982Z</time></trkpt><trkpt lat="45.1413339" lon="8.1027435"><ele>285.85714285714283</ele><time>2026-04-25T08:56:23.982Z</time></trkpt><trkpt lat="45.1413003" lon="8.1028322"><ele>284.0</ele><time>2026-04-25T08:56:24.983Z</time></trkpt><trkpt lat="45.141257" lon="8.1029313"><ele>284.0</ele><time>2026-04-25T08:56:25.983Z</time></trkpt><trkpt lat="45.1412143" lon="8.103028"><ele>284.0</ele><time>2026-04-25T08:56:26.98Z</time></trkpt><trkpt lat="45.1411801" lon="8.1031154"><ele>284.0</ele><time>2026-04-25T08:56:27.989Z</time></trkpt><trkpt lat="45.1411348" lon="8.1032771"><ele>284.0</ele><time>2026-04-25T08:56:30.012Z</time></trkpt><trkpt lat="45.1411303" lon="8.1034635"><ele>284.0</ele><time>2026-04-25T08:56:31.982Z</time></trkpt><trkpt lat="45.1411129" lon="8.103556"><ele>284.5</ele><time>2026-04-25T08:56:32.989Z</time></trkpt><trkpt lat="45.141087" lon="8.1036382"><ele>285.0</ele><time>2026-04-25T08:56:33.988Z</time></trkpt><trkpt lat="45.1410276" lon="8.1037738"><ele>285.5</ele><time>2026-04-25T08:56:35.989Z</time></trkpt><trkpt lat="45.1409676" lon="8.1038468"><ele>286.0</ele><time>2026-04-25T08:56:37.99Z</time></trkpt><trkpt lat="45.1409052" lon="8.1038934"><ele>286.5</ele><time>2026-04-25T08:56:39.988Z</time></trkpt><trkpt lat="45.1408294" lon="8.103951"><ele>287.0</ele><time>2026-04-25T08:56:42.007Z</time></trkpt><trkpt lat="45.1407424" lon="8.1039996"><ele>285.83333333333337</ele><time>2026-04-25T08:56:43.994Z</time></trkpt><trkpt lat="45.1406263" lon="8.1040425"><ele>284.6666666666667</ele><time>2026-04-25T08:56:45.982Z</time></trkpt><trkpt lat="45.1405623" lon="8.1040694"><ele>283.5</ele><time>2026-04-25T08:56:46.982Z</time></trkpt><trkpt lat="45.1404955" lon="8.1041005"><ele>282.3333333333333</ele><time>2026-04-25T08:56:47.989Z</time></trkpt><trkpt lat="45.1404297" lon="8.1041298"><ele>281.16666666666663</ele><time>2026-04-25T08:56:48.988Z</time></trkpt><trkpt lat="45.1403629" lon="8.1041516"><ele>280.0</ele><time>2026-04-25T08:56:49.984Z</time></trkpt><trkpt lat="45.1402982" lon="8.104188"><ele>280.0</ele><time>2026-04-25T08:56:51.015Z</time></trkpt><trkpt lat="45.1402421" lon="8.1042349"><ele>280.0</ele><time>2026-04-25T08:56:51.983Z</time></trkpt><trkpt lat="45.1401627" lon="8.1043158"><ele>280.0</ele><time>2026-04-25T08:56:53.979Z</time></trkpt><trkpt lat="45.1401038" lon="8.104373"><ele>280.0</ele><time>2026-04-25T08:56:55.99Z</time></trkpt><trkpt lat="45.140036" lon="8.104434"><ele>280.0</ele><time>2026-04-25T08:56:58.985Z</time></trkpt><trkpt lat="45.1400028" lon="8.1045175"><ele>280.0</ele><time>2026-04-25T08:57:00.986Z</time></trkpt><trkpt lat="45.1399572" lon="8.1045912"><ele>277.0</ele><time>2026-04-25T08:57:02.986Z</time></trkpt><trkpt lat="45.1398683" lon="8.104678"><ele>274.0</ele><time>2026-04-25T08:57:04.984Z</time></trkpt><trkpt lat="45.1398207" lon="8.1047828"><ele>271.0</ele><time>2026-04-25T08:57:06.983Z</time></trkpt><trkpt lat="45.1398186" lon="8.1049172"><ele>268.0</ele><time>2026-04-25T08:57:08.985Z</time></trkpt><trkpt lat="45.1398194" lon="8.1050619"><ele>265.0</ele><time>2026-04-25T08:57:10.993Z</time></trkpt><trkpt lat="45.1397455" lon="8.1051653"><ele>265.0</ele><time>2026-04-25T08:57:12.984Z</time></trkpt><trkpt lat="45.1396977" lon="8.1052242"><ele>265.0</ele><time>2026-04-25T08:57:13.985Z</time></trkpt><trkpt lat="45.139645" lon="8.1052953"><ele>265.0</ele><time>2026-04-25T08:57:14.988Z</time></trkpt><trkpt lat="45.1395909" lon="8.1053609"><ele>265.0</ele><time>2026-04-25T08:57:15.984Z</time></trkpt><trkpt lat="45.1395359" lon="8.1054199"><ele>265.0</ele><time>2026-04-25T08:57:16.982Z</time></trkpt><trkpt lat="45.1394454" lon="8.1055"><ele>265.0</ele><time>2026-04-25T08:57:18.989Z</time></trkpt><trkpt lat="45.1393762" lon="8.1055686"><ele>265.0</ele><time>2026-04-25T08:57:20.983Z</time></trkpt><trkpt lat="45.1393324" lon="8.1056645"><ele>265.0</ele><time>2026-04-25T08:57:23Z</time></trkpt><trkpt lat="45.1392411" lon="8.1057123"><ele>265.0</ele><time>2026-04-25T08:57:24.984Z</time></trkpt><trkpt lat="45.1391785" lon="8.1057417"><ele>265.0</ele><time>2026-04-25T08:57:25.982Z</time></trkpt><trkpt lat="45.1391123" lon="8.1057674"><ele>265.0</ele><time>2026-04-25T08:57:26.982Z</time></trkpt><trkpt lat="45.1390372" lon="8.105795"><ele>265.0</ele><time>2026-04-25T08:57:27.989Z</time></trkpt><trkpt lat="45.1389572" lon="8.1058192"><ele>265.8333333333333</ele><time>2026-04-25T08:57:28.98Z</time></trkpt><trkpt lat="45.1388765" lon="8.1058384"><ele>266.66666666666663</ele><time>2026-04-25T08:57:30.005Z</time></trkpt><trkpt lat="45.1387588" lon="8.1059122"><ele>267.5</ele><time>2026-04-25T08:57:31.988Z</time></trkpt><trkpt lat="45.1387042" lon="8.1059651"><ele>268.3333333333333</ele><time>2026-04-25T08:57:32.987Z</time></trkpt><trkpt lat="45.1386425" lon="8.1060258"><ele>269.1666666666667</ele><time>2026-04-25T08:57:33.986Z</time></trkpt><trkpt lat="45.1385839" lon="8.1060895"><ele>270.0</ele><time>2026-04-25T08:57:34.985Z</time></trkpt><trkpt lat="45.1384965" lon="8.1061938"><ele>270.0</ele><time>2026-04-25T08:57:36.989Z</time></trkpt><trkpt lat="45.1384202" lon="8.1063072"><ele>270.0</ele><time>2026-04-25T08:57:39.009Z</time></trkpt><trkpt lat="45.138365" lon="8.106357"><ele>270.0</ele><time>2026-04-25T08:57:39.986Z</time></trkpt><trkpt lat="45.1383045" lon="8.1064021"><ele>270.0</ele><time>2026-04-25T08:57:40.983Z</time></trkpt><trkpt lat="45.1382523" lon="8.1064572"><ele>270.0</ele><time>2026-04-25T08:57:41.983Z</time></trkpt><trkpt lat="45.1382129" lon="8.106528"><ele>270.0</ele><time>2026-04-25T08:57:42.976Z</time></trkpt><trkpt lat="45.138176" lon="8.1066047"><ele>270.0</ele><time>2026-04-25T08:57:44.007Z</time></trkpt><trkpt lat="45.1381402" lon="8.1066817"><ele>267.42857142857144</ele><time>2026-04-25T08:57:44.985Z</time></trkpt><trkpt lat="45.1381001" lon="8.106759"><ele>264.85714285714283</ele><time>2026-04-25T08:57:45.98Z</time></trkpt><trkpt lat="45.1380468" lon="8.1068289"><ele>262.2857142857143</ele><time>2026-04-25T08:57:46.989Z</time></trkpt><trkpt lat="45.137995" lon="8.1068876"><ele>259.7142857142857</ele><time>2026-04-25T08:57:47.982Z</time></trkpt><trkpt lat="45.1379372" lon="8.106931"><ele>257.1428571428571</ele><time>2026-04-25T08:57:49.01Z</time></trkpt><trkpt lat="45.1378763" lon="8.1069615"><ele>254.57142857142856</ele><time>2026-04-25T08:57:49.986Z</time></trkpt><trkpt lat="45.137814" lon="8.1070083"><ele>252.0</ele><time>2026-04-25T08:57:50.98Z</time></trkpt><trkpt lat="45.1377513" lon="8.1070713"><ele>252.0</ele><time>2026-04-25T08:57:51.992Z</time></trkpt><trkpt lat="45.137688" lon="8.1071236"><ele>252.0</ele><time>2026-04-25T08:57:52.984Z</time></trkpt><trkpt lat="45.1376259" lon="8.1071593"><ele>252.0</ele><time>2026-04-25T08:57:53.985Z</time></trkpt><trkpt lat="45.1375203" lon="8.1072481"><ele>252.0</ele><time>2026-04-25T08:57:55.987Z</time></trkpt><trkpt lat="45.1374272" lon="8.1073449"><ele>252.0</ele><time>2026-04-25T08:57:57.984Z</time></trkpt><trkpt lat="45.1373172" lon="8.1074422"><ele>252.16666666666666</ele><time>2026-04-25T08:58:00.01Z</time></trkpt><trkpt lat="45.1372553" lon="8.1074917"><ele>252.33333333333331</ele><time>2026-04-25T08:58:00.983Z</time></trkpt><trkpt lat="45.1372001" lon="8.1075394"><ele>252.5</ele><time>2026-04-25T08:58:01.983Z</time></trkpt><trkpt lat="45.1371457" lon="8.1075881"><ele>252.66666666666666</ele><time>2026-04-25T08:58:02.984Z</time></trkpt><trkpt lat="45.1370908" lon="8.1076321"><ele>252.83333333333331</ele><time>2026-04-25T08:58:03.981Z</time></trkpt><trkpt lat="45.1369829" lon="8.107701"><ele>253.0</ele><time>2026-04-25T08:58:06.007Z</time></trkpt><trkpt lat="45.136913" lon="8.1077493"><ele>252.99999999999997</ele><time>2026-04-25T08:58:07.992Z</time></trkpt><trkpt lat="45.1368527" lon="8.1078269"><ele>253.0</ele><time>2026-04-25T08:58:09.993Z</time></trkpt><trkpt lat="45.136776" lon="8.1079249"><ele>253.0</ele><time>2026-04-25T08:58:12.006Z</time></trkpt><trkpt lat="45.13672" lon="8.1080077"><ele>253.0</ele><time>2026-04-25T08:58:13.987Z</time></trkpt><trkpt lat="45.1366642" lon="8.1081121"><ele>252.99999999999997</ele><time>2026-04-25T08:58:16.986Z</time></trkpt><trkpt lat="45.1366254" lon="8.1082038"><ele>253.0</ele><time>2026-04-25T08:58:18.986Z</time></trkpt><trkpt lat="45.1365891" lon="8.1083013"><ele>252.66666666666666</ele><time>2026-04-25T08:58:20.998Z</time></trkpt><trkpt lat="45.1365564" lon="8.1083931"><ele>252.33333333333331</ele><time>2026-04-25T08:58:22.984Z</time></trkpt><trkpt lat="45.1365209" lon="8.1085157"><ele>252.0</ele><time>2026-04-25T08:58:24.984Z</time></trkpt><trkpt lat="45.136485" lon="8.1086346"><ele>251.66666666666669</ele><time>2026-04-25T08:58:26.984Z</time></trkpt><trkpt lat="45.1364491" lon="8.108709"><ele>251.33333333333334</ele><time>2026-04-25T08:58:27.983Z</time></trkpt><trkpt lat="45.1364036" lon="8.1087818"><ele>251.0</ele><time>2026-04-25T08:58:28.987Z</time></trkpt><trkpt lat="45.136338" lon="8.1088553"><ele>250.0</ele><time>2026-04-25T08:58:29.986Z</time></trkpt><trkpt lat="45.1362649" lon="8.1089139"><ele>249.00000000000003</ele><time>2026-04-25T08:58:31.018Z</time></trkpt><trkpt lat="45.1362031" lon="8.1089606"><ele>248.00000000000003</ele><time>2026-04-25T08:58:31.988Z</time></trkpt><trkpt lat="45.1361054" lon="8.109019"><ele>247.0</ele><time>2026-04-25T08:58:33.983Z</time></trkpt><trkpt lat="45.136019" lon="8.1090512"><ele>246.0</ele><time>2026-04-25T08:58:36.001Z</time></trkpt><trkpt lat="45.1359118" lon="8.1090595"><ele>246.0</ele><time>2026-04-25T08:58:37.984Z</time></trkpt><trkpt lat="45.1358037" lon="8.109052"><ele>246.0</ele><time>2026-04-25T08:58:39.983Z</time></trkpt><trkpt lat="45.1356838" lon="8.1090239"><ele>246.0</ele><time>2026-04-25T08:58:41.982Z</time></trkpt><trkpt lat="45.1356213" lon="8.1090113"><ele>246.0</ele><time>2026-04-25T08:58:42.98Z</time></trkpt><trkpt lat="45.1355486" lon="8.108996"><ele>246.0</ele><time>2026-04-25T08:58:43.989Z</time></trkpt><trkpt lat="45.1354693" lon="8.1089773"><ele>246.0</ele><time>2026-04-25T08:58:44.99Z</time></trkpt><trkpt lat="45.1353874" lon="8.1089586"><ele>242.8</ele><time>2026-04-25T08:58:45.998Z</time></trkpt><trkpt lat="45.1353128" lon="8.1089405"><ele>239.60000000000002</ele><time>2026-04-25T08:58:46.989Z</time></trkpt><trkpt lat="45.1352452" lon="8.108924"><ele>236.4</ele><time>2026-04-25T08:58:47.986Z</time></trkpt><trkpt lat="45.13514" lon="8.1088921"><ele>233.2</ele><time>2026-04-25T08:58:49.993Z</time></trkpt><trkpt lat="45.1350381" lon="8.1088463"><ele>230.0</ele><time>2026-04-25T08:58:51.984Z</time></trkpt><trkpt lat="45.1349521" lon="8.1087938"><ele>227.83333333333334</ele><time>2026-04-25T08:58:53.982Z</time></trkpt><trkpt lat="45.134876" lon="8.1087216"><ele>225.66666666666669</ele><time>2026-04-25T08:58:55.986Z</time></trkpt><trkpt lat="45.1348068" lon="8.1086611"><ele>223.5</ele><time>2026-04-25T08:58:57.982Z</time></trkpt><trkpt lat="45.1347265" lon="8.1086452"><ele>221.33333333333331</ele><time>2026-04-25T08:58:59.986Z</time></trkpt><trkpt lat="45.1346469" lon="8.1086495"><ele>219.16666666666666</ele><time>2026-04-25T08:59:01.986Z</time></trkpt><trkpt lat="45.1345669" lon="8.1086581"><ele>217.0</ele><time>2026-04-25T08:59:03.987Z</time></trkpt><trkpt lat="45.1344987" lon="8.1086596"><ele>217.0</ele><time>2026-04-25T08:59:05.984Z</time></trkpt><trkpt lat="45.1344136" lon="8.108676"><ele>217.0</ele><time>2026-04-25T08:59:07.99Z</time></trkpt><trkpt lat="45.1343059" lon="8.1087056"><ele>217.0</ele><time>2026-04-25T08:59:09.997Z</time></trkpt><trkpt lat="45.134214" lon="8.1087455"><ele>217.0</ele><time>2026-04-25T08:59:11.99Z</time></trkpt><trkpt lat="45.1341234" lon="8.1087851"><ele>217.0</ele><time>2026-04-25T08:59:13.979Z</time></trkpt><trkpt lat="45.1340369" lon="8.1088142"><ele>215.99999999999997</ele><time>2026-04-25T08:59:16Z</time></trkpt><trkpt lat="45.1339774" lon="8.108849"><ele>215.0</ele><time>2026-04-25T08:59:16.99Z</time></trkpt><trkpt lat="45.1339188" lon="8.1089009"><ele>214.0</ele><time>2026-04-25T08:59:17.981Z</time></trkpt><trkpt lat="45.1338525" lon="8.109005"><ele>213.0</ele><time>2026-04-25T08:59:19.99Z</time></trkpt><trkpt lat="45.1338223" lon="8.109118"><ele>211.99999999999997</ele><time>2026-04-25T08:59:22.01Z</time></trkpt><trkpt lat="45.1338415" lon="8.1092775"><ele>211.0</ele><time>2026-04-25T08:59:23.982Z</time></trkpt><trkpt lat="45.1338473" lon="8.1093863"><ele>210.33333333333331</ele><time>2026-04-25T08:59:24.983Z</time></trkpt><trkpt lat="45.1338462" lon="8.1095046"><ele>209.66666666666666</ele><time>2026-04-25T08:59:25.988Z</time></trkpt><trkpt lat="45.1338438" lon="8.1096174"><ele>209.0</ele><time>2026-04-25T08:59:26.987Z</time></trkpt><trkpt lat="45.1338538" lon="8.1097302"><ele>208.33333333333331</ele><time>2026-04-25T08:59:27.981Z</time></trkpt><trkpt lat="45.1338751" lon="8.109844"><ele>207.66666666666666</ele><time>2026-04-25T08:59:28.985Z</time></trkpt><trkpt lat="45.1339103" lon="8.1099607"><ele>207.0</ele><time>2026-04-25T08:59:29.984Z</time></trkpt><trkpt lat="45.1339627" lon="8.1100755"><ele>206.6</ele><time>2026-04-25T08:59:31.003Z</time></trkpt><trkpt lat="45.1340266" lon="8.1101911"><ele>206.2</ele><time>2026-04-25T08:59:31.985Z</time></trkpt><trkpt lat="45.1340895" lon="8.1102995"><ele>205.8</ele><time>2026-04-25T08:59:32.982Z</time></trkpt><trkpt lat="45.1341501" lon="8.1104058"><ele>205.4</ele><time>2026-04-25T08:59:33.983Z</time></trkpt><trkpt lat="45.1342095" lon="8.1105073"><ele>205.0</ele><time>2026-04-25T08:59:34.983Z</time></trkpt><trkpt lat="45.1342637" lon="8.1106061"><ele>205.49999999999997</ele><time>2026-04-25T08:59:36.004Z</time></trkpt><trkpt lat="45.1343116" lon="8.1106979"><ele>206.0</ele><time>2026-04-25T08:59:36.986Z</time></trkpt><trkpt lat="45.1343568" lon="8.1107846"><ele>206.5</ele><time>2026-04-25T08:59:37.982Z</time></trkpt><trkpt lat="45.13442" lon="8.1108532"><ele>207.0</ele><time>2026-04-25T08:59:38.981Z</time></trkpt><trkpt lat="45.1344829" lon="8.1109127"><ele>207.49999999999997</ele><time>2026-04-25T08:59:39.984Z</time></trkpt><trkpt lat="45.1345669" lon="8.1109477"><ele>208.0</ele><time>2026-04-25T08:59:41.017Z</time></trkpt><trkpt lat="45.1346639" lon="8.1109705"><ele>208.0</ele><time>2026-04-25T08:59:41.986Z</time></trkpt><trkpt lat="45.1347618" lon="8.110993"><ele>208.0</ele><time>2026-04-25T08:59:42.984Z</time></trkpt><trkpt lat="45.1348658" lon="8.1110172"><ele>208.0</ele><time>2026-04-25T08:59:43.984Z</time></trkpt><trkpt lat="45.1349614" lon="8.1110422"><ele>208.0</ele><time>2026-04-25T08:59:44.982Z</time></trkpt><trkpt lat="45.1350493" lon="8.1110644"><ele>208.0</ele><time>2026-04-25T08:59:45.981Z</time></trkpt><trkpt lat="45.1351199" lon="8.1110791"><ele>207.60000000000002</ele><time>2026-04-25T08:59:46.984Z</time></trkpt><trkpt lat="45.1352291" lon="8.1111224"><ele>207.20000000000002</ele><time>2026-04-25T08:59:48.981Z</time></trkpt><trkpt lat="45.1353101" lon="8.1112438"><ele>206.8</ele><time>2026-04-25T08:59:50.987Z</time></trkpt><trkpt lat="45.1353437" lon="8.1114182"><ele>206.4</ele><time>2026-04-25T08:59:52.981Z</time></trkpt><trkpt lat="45.1353387" lon="8.1115206"><ele>206.0</ele><time>2026-04-25T08:59:53.985Z</time></trkpt><trkpt lat="45.1353231" lon="8.1116089"><ele>206.00000000000003</ele><time>2026-04-25T08:59:54.981Z</time></trkpt><trkpt lat="45.1352679" lon="8.1117505"><ele>206.0</ele><time>2026-04-25T08:59:56.982Z</time></trkpt><trkpt lat="45.1352154" lon="8.1118009"><ele>206.0</ele><time>2026-04-25T08:59:57.988Z</time></trkpt><trkpt lat="45.135145" lon="8.1118545"><ele>206.0</ele><time>2026-04-25T08:59:58.983Z</time></trkpt><trkpt lat="45.1350738" lon="8.1119166"><ele>206.00000000000003</ele><time>2026-04-25T08:59:59.983Z</time></trkpt><trkpt lat="45.1350189" lon="8.1119816"><ele>206.0</ele><time>2026-04-25T09:00:00.984Z</time></trkpt><trkpt lat="45.1349814" lon="8.1120631"><ele>206.0</ele><time>2026-04-25T09:00:01.986Z</time></trkpt><trkpt lat="45.1349433" lon="8.1121526"><ele>206.0</ele><time>2026-04-25T09:00:02.984Z</time></trkpt><trkpt lat="45.1349397" lon="8.1122739"><ele>206.0</ele><time>2026-04-25T09:00:03.983Z</time></trkpt><trkpt lat="45.1349496" lon="8.1124106"><ele>206.0</ele><time>2026-04-25T09:00:04.989Z</time></trkpt><trkpt lat="45.1349713" lon="8.1125681"><ele>206.0</ele><time>2026-04-25T09:00:05.983Z</time></trkpt><trkpt lat="45.1349924" lon="8.1127321"><ele>206.25</ele><time>2026-04-25T09:00:07.009Z</time></trkpt><trkpt lat="45.135009" lon="8.1128971"><ele>206.5</ele><time>2026-04-25T09:00:07.986Z</time></trkpt><trkpt lat="45.1350229" lon="8.1130597"><ele>206.75</ele><time>2026-04-25T09:00:08.984Z</time></trkpt><trkpt lat="45.1350368" lon="8.1132233"><ele>207.0</ele><time>2026-04-25T09:00:09.986Z</time></trkpt><trkpt lat="45.1350499" lon="8.1133866"><ele>208.25</ele><time>2026-04-25T09:00:10.981Z</time></trkpt><trkpt lat="45.1350622" lon="8.1135486"><ele>209.5</ele><time>2026-04-25T09:00:12.006Z</time></trkpt><trkpt lat="45.1350771" lon="8.113711"><ele>210.75</ele><time>2026-04-25T09:00:12.99Z</time></trkpt><trkpt lat="45.1350915" lon="8.1138723"><ele>212.0</ele><time>2026-04-25T09:00:13.982Z</time></trkpt><trkpt lat="45.1351058" lon="8.1140338"><ele>212.25</ele><time>2026-04-25T09:00:14.984Z</time></trkpt><trkpt lat="45.1351233" lon="8.1142005"><ele>212.5</ele><time>2026-04-25T09:00:15.983Z</time></trkpt><trkpt lat="45.1351398" lon="8.1143691"><ele>212.75</ele><time>2026-04-25T09:00:17.003Z</time></trkpt><trkpt lat="45.1351556" lon="8.1145298"><ele>213.0</ele><time>2026-04-25T09:00:17.984Z</time></trkpt><trkpt lat="45.1351755" lon="8.1146771"><ele>213.0</ele><time>2026-04-25T09:00:18.986Z</time></trkpt><trkpt lat="45.1351908" lon="8.1148175"><ele>213.0</ele><time>2026-04-25T09:00:19.988Z</time></trkpt><trkpt lat="45.1352091" lon="8.1149517"><ele>213.0</ele><time>2026-04-25T09:00:20.981Z</time></trkpt><trkpt lat="45.135241" lon="8.1150851"><ele>213.0</ele><time>2026-04-25T09:00:21.982Z</time></trkpt><trkpt lat="45.1352751" lon="8.1151842"><ele>213.0</ele><time>2026-04-25T09:00:23.007Z</time></trkpt><trkpt lat="45.135322" lon="8.1152686"><ele>212.83333333333334</ele><time>2026-04-25T09:00:23.984Z</time></trkpt><trkpt lat="45.1353653" lon="8.115346"><ele>212.66666666666669</ele><time>2026-04-25T09:00:24.979Z</time></trkpt><trkpt lat="45.1354379" lon="8.1153786"><ele>212.5</ele><time>2026-04-25T09:00:25.982Z</time></trkpt><trkpt lat="45.1355139" lon="8.1154101"><ele>212.33333333333334</ele><time>2026-04-25T09:00:26.983Z</time></trkpt><trkpt lat="45.1355916" lon="8.1154385"><ele>212.16666666666669</ele><time>2026-04-25T09:00:27.984Z</time></trkpt><trkpt lat="45.1356561" lon="8.1154615"><ele>212.0</ele><time>2026-04-25T09:00:28.98Z</time></trkpt><trkpt lat="45.1357328" lon="8.1155309"><ele>213.6</ele><time>2026-04-25T09:00:30.986Z</time></trkpt><trkpt lat="45.1357365" lon="8.1156677"><ele>215.2</ele><time>2026-04-25T09:00:32.985Z</time></trkpt><trkpt lat="45.1357243" lon="8.1157673"><ele>216.8</ele><time>2026-04-25T09:00:33.982Z</time></trkpt><trkpt lat="45.1357233" lon="8.1158868"><ele>218.4</ele><time>2026-04-25T09:00:34.98Z</time></trkpt><trkpt lat="45.135738" lon="8.1160302"><ele>220.0</ele><time>2026-04-25T09:00:35.982Z</time></trkpt><trkpt lat="45.1357595" lon="8.1161865"><ele>220.0</ele><time>2026-04-25T09:00:36.986Z</time></trkpt><trkpt lat="45.1357791" lon="8.11634"><ele>220.0</ele><time>2026-04-25T09:00:37.984Z</time></trkpt><trkpt lat="45.1358077" lon="8.1164885"><ele>220.0</ele><time>2026-04-25T09:00:39.012Z</time></trkpt><trkpt lat="45.1358502" lon="8.116636"><ele>220.0</ele><time>2026-04-25T09:00:39.979Z</time></trkpt><trkpt lat="45.135905" lon="8.1167847"><ele>220.0</ele><time>2026-04-25T09:00:40.981Z</time></trkpt><trkpt lat="45.1359668" lon="8.116937"><ele>219.5</ele><time>2026-04-25T09:00:41.98Z</time></trkpt><trkpt lat="45.1360321" lon="8.117093"><ele>219.0</ele><time>2026-04-25T09:00:42.987Z</time></trkpt><trkpt lat="45.1360858" lon="8.117254"><ele>218.5</ele><time>2026-04-25T09:00:43.983Z</time></trkpt><trkpt lat="45.1361373" lon="8.1174116"><ele>218.0</ele><time>2026-04-25T09:00:45.014Z</time></trkpt><trkpt lat="45.136151" lon="8.1175838"><ele>217.25</ele><time>2026-04-25T09:00:45.983Z</time></trkpt><trkpt lat="45.136144" lon="8.117766"><ele>216.5</ele><time>2026-04-25T09:00:46.98Z</time></trkpt><trkpt lat="45.1361298" lon="8.1179647"><ele>215.75</ele><time>2026-04-25T09:00:47.982Z</time></trkpt><trkpt lat="45.1361142" lon="8.1181795"><ele>215.0</ele><time>2026-04-25T09:00:48.983Z</time></trkpt><trkpt lat="45.1361019" lon="8.1183993"><ele>213.25</ele><time>2026-04-25T09:00:49.983Z</time></trkpt><trkpt lat="45.1360907" lon="8.1186045"><ele>211.5</ele><time>2026-04-25T09:00:50.985Z</time></trkpt><trkpt lat="45.1360874" lon="8.118795"><ele>209.75</ele><time>2026-04-25T09:00:51.983Z</time></trkpt><trkpt lat="45.1360996" lon="8.1189781"><ele>208.0</ele><time>2026-04-25T09:00:52.981Z</time></trkpt><trkpt lat="45.1361333" lon="8.1191643"><ele>206.33333333333331</ele><time>2026-04-25T09:00:53.988Z</time></trkpt><trkpt lat="45.1361861" lon="8.1193545"><ele>204.66666666666669</ele><time>2026-04-25T09:00:54.982Z</time></trkpt><trkpt lat="45.136253" lon="8.1195516"><ele>203.0</ele><time>2026-04-25T09:00:56.008Z</time></trkpt><trkpt lat="45.136327" lon="8.1197562"><ele>203.0</ele><time>2026-04-25T09:00:56.988Z</time></trkpt><trkpt lat="45.1364064" lon="8.1199688"><ele>203.0</ele><time>2026-04-25T09:00:57.984Z</time></trkpt><trkpt lat="45.1364918" lon="8.1201874"><ele>203.0</ele><time>2026-04-25T09:00:58.985Z</time></trkpt><trkpt lat="45.1365827" lon="8.1204154"><ele>203.0</ele><time>2026-04-25T09:00:59.987Z</time></trkpt><trkpt lat="45.1366735" lon="8.1206434"><ele>203.0</ele><time>2026-04-25T09:01:00.983Z</time></trkpt><trkpt lat="45.1367587" lon="8.1208575"><ele>203.0</ele><time>2026-04-25T09:01:01.985Z</time></trkpt><trkpt lat="45.136838" lon="8.121059"><ele>202.0</ele><time>2026-04-25T09:01:03.003Z</time></trkpt><trkpt lat="45.13691" lon="8.1212485"><ele>201.0</ele><time>2026-04-25T09:01:03.978Z</time></trkpt><trkpt lat="45.136977" lon="8.1214248"><ele>200.0</ele><time>2026-04-25T09:01:04.983Z</time></trkpt><trkpt lat="45.1370425" lon="8.1215912"><ele>199.0</ele><time>2026-04-25T09:01:05.982Z</time></trkpt><trkpt lat="45.1371067" lon="8.121749"><ele>198.5</ele><time>2026-04-25T09:01:06.986Z</time></trkpt><trkpt lat="45.1371711" lon="8.1219035"><ele>198.0</ele><time>2026-04-25T09:01:07.981Z</time></trkpt><trkpt lat="45.1372391" lon="8.1220488"><ele>197.5</ele><time>2026-04-25T09:01:08.982Z</time></trkpt><trkpt lat="45.1373101" lon="8.1221824"><ele>197.0</ele><time>2026-04-25T09:01:09.979Z</time></trkpt><trkpt lat="45.1373833" lon="8.1223075"><ele>197.0</ele><time>2026-04-25T09:01:10.986Z</time></trkpt><trkpt lat="45.1374613" lon="8.1224308"><ele>197.0</ele><time>2026-04-25T09:01:11.985Z</time></trkpt><trkpt lat="45.1375432" lon="8.1225519"><ele>197.0</ele><time>2026-04-25T09:01:12.977Z</time></trkpt><trkpt lat="45.1376261" lon="8.122676"><ele>197.0</ele><time>2026-04-25T09:01:13.986Z</time></trkpt><trkpt lat="45.1377042" lon="8.122799"><ele>197.0</ele><time>2026-04-25T09:01:14.982Z</time></trkpt><trkpt lat="45.137778" lon="8.122914"><ele>197.0</ele><time>2026-04-25T09:01:16.001Z</time></trkpt><trkpt lat="45.1378511" lon="8.1230294"><ele>197.0</ele><time>2026-04-25T09:01:16.983Z</time></trkpt><trkpt lat="45.1379293" lon="8.1231482"><ele>197.0</ele><time>2026-04-25T09:01:17.985Z</time></trkpt><trkpt lat="45.1380158" lon="8.1232741"><ele>196.5</ele><time>2026-04-25T09:01:18.982Z</time></trkpt><trkpt lat="45.1381088" lon="8.1234094"><ele>196.0</ele><time>2026-04-25T09:01:19.983Z</time></trkpt><trkpt lat="45.1382043" lon="8.1235551"><ele>195.5</ele><time>2026-04-25T09:01:20.982Z</time></trkpt><trkpt lat="45.1383124" lon="8.123702"><ele>195.0</ele><time>2026-04-25T09:01:21.986Z</time></trkpt><trkpt lat="45.1384464" lon="8.1238493"><ele>195.0</ele><time>2026-04-25T09:01:23Z</time></trkpt><trkpt lat="45.1386054" lon="8.1239973"><ele>195.0</ele><time>2026-04-25T09:01:23.982Z</time></trkpt><trkpt lat="45.1387779" lon="8.1241443"><ele>195.0</ele><time>2026-04-25T09:01:24.982Z</time></trkpt><trkpt lat="45.1389616" lon="8.124302"><ele>191.5</ele><time>2026-04-25T09:01:25.987Z</time></trkpt><trkpt lat="45.1391527" lon="8.1244698"><ele>188.0</ele><time>2026-04-25T09:01:26.982Z</time></trkpt><trkpt lat="45.1393475" lon="8.1246383"><ele>188.0</ele><time>2026-04-25T09:01:28.015Z</time></trkpt><trkpt lat="45.1395449" lon="8.1247906"><ele>188.0</ele><time>2026-04-25T09:01:28.985Z</time></trkpt><trkpt lat="45.1397436" lon="8.1249177"><ele>188.0</ele><time>2026-04-25T09:01:29.983Z</time></trkpt><trkpt lat="45.1399333" lon="8.1250217"><ele>185.66666666666666</ele><time>2026-04-25T09:01:30.986Z</time></trkpt><trkpt lat="45.140121" lon="8.1251046"><ele>183.33333333333334</ele><time>2026-04-25T09:01:31.983Z</time></trkpt><trkpt lat="45.1403141" lon="8.1251671"><ele>181.0</ele><time>2026-04-25T09:01:33.001Z</time></trkpt><trkpt lat="45.1405144" lon="8.1252176"><ele>180.66666666666669</ele><time>2026-04-25T09:01:33.985Z</time></trkpt><trkpt lat="45.1407191" lon="8.1252636"><ele>180.33333333333334</ele><time>2026-04-25T09:01:34.983Z</time></trkpt><trkpt lat="45.1409255" lon="8.1253097"><ele>180.0</ele><time>2026-04-25T09:01:35.982Z</time></trkpt><trkpt lat="45.1411337" lon="8.1253503"><ele>180.0</ele><time>2026-04-25T09:01:36.983Z</time></trkpt><trkpt lat="45.1413431" lon="8.1253809"><ele>180.0</ele><time>2026-04-25T09:01:37.982Z</time></trkpt><trkpt lat="45.1415524" lon="8.1254061"><ele>180.0</ele><time>2026-04-25T09:01:38.982Z</time></trkpt><trkpt lat="45.1417604" lon="8.1254353"><ele>180.0</ele><time>2026-04-25T09:01:39.98Z</time></trkpt><trkpt lat="45.1419669" lon="8.1254727"><ele>180.0</ele><time>2026-04-25T09:01:40.981Z</time></trkpt><trkpt lat="45.1421638" lon="8.1255171"><ele>180.0</ele><time>2026-04-25T09:01:41.987Z</time></trkpt><trkpt lat="45.1423442" lon="8.1255708"><ele>180.66666666666666</ele><time>2026-04-25T09:01:42.988Z</time></trkpt><trkpt lat="45.1425094" lon="8.1256431"><ele>181.33333333333331</ele><time>2026-04-25T09:01:44.015Z</time></trkpt><trkpt lat="45.1426674" lon="8.1257439"><ele>182.0</ele><time>2026-04-25T09:01:44.991Z</time></trkpt><trkpt lat="45.1428238" lon="8.1258664"><ele>182.66666666666666</ele><time>2026-04-25T09:01:45.989Z</time></trkpt><trkpt lat="45.1429826" lon="8.1260022"><ele>183.33333333333334</ele><time>2026-04-25T09:01:46.982Z</time></trkpt><trkpt lat="45.1431445" lon="8.1261439"><ele>184.0</ele><time>2026-04-25T09:01:47.988Z</time></trkpt><trkpt lat="45.1433057" lon="8.126283"><ele>184.0</ele><time>2026-04-25T09:01:48.986Z</time></trkpt><trkpt lat="45.1434761" lon="8.1264244"><ele>184.0</ele><time>2026-04-25T09:01:49.987Z</time></trkpt><trkpt lat="45.1436502" lon="8.1265653"><ele>184.0</ele><time>2026-04-25T09:01:50.981Z</time></trkpt><trkpt lat="45.1438207" lon="8.126717"><ele>182.0</ele><time>2026-04-25T09:01:51.981Z</time></trkpt><trkpt lat="45.1439988" lon="8.1268613"><ele>180.0</ele><time>2026-04-25T09:01:52.987Z</time></trkpt><trkpt lat="45.1441635" lon="8.1269911"><ele>178.0</ele><time>2026-04-25T09:01:53.987Z</time></trkpt><trkpt lat="45.1443203" lon="8.1271164"><ele>178.0</ele><time>2026-04-25T09:01:54.986Z</time></trkpt><trkpt lat="45.1444683" lon="8.1272356"><ele>178.0</ele><time>2026-04-25T09:01:55.984Z</time></trkpt><trkpt lat="45.1446085" lon="8.1273524"><ele>178.0</ele><time>2026-04-25T09:01:57.008Z</time></trkpt><trkpt lat="45.1447376" lon="8.1274629"><ele>177.0</ele><time>2026-04-25T09:01:57.981Z</time></trkpt><trkpt lat="45.1448641" lon="8.1275687"><ele>176.0</ele><time>2026-04-25T09:01:58.981Z</time></trkpt><trkpt lat="45.1449907" lon="8.1276673"><ele>175.0</ele><time>2026-04-25T09:01:59.987Z</time></trkpt><trkpt lat="45.1451233" lon="8.1277603"><ele>174.0</ele><time>2026-04-25T09:02:00.987Z</time></trkpt><trkpt lat="45.1452512" lon="8.1278568"><ele>174.0</ele><time>2026-04-25T09:02:01.982Z</time></trkpt><trkpt lat="45.1453737" lon="8.1279491"><ele>174.0</ele><time>2026-04-25T09:02:03.002Z</time></trkpt><trkpt lat="45.1454931" lon="8.1280329"><ele>174.0</ele><time>2026-04-25T09:02:03.979Z</time></trkpt><trkpt lat="45.1456106" lon="8.1281056"><ele>174.0</ele><time>2026-04-25T09:02:04.985Z</time></trkpt><trkpt lat="45.1457112" lon="8.1281709"><ele>173.2</ele><time>2026-04-25T09:02:05.982Z</time></trkpt><trkpt lat="45.1457837" lon="8.1282432"><ele>172.39999999999998</ele><time>2026-04-25T09:02:06.983Z</time></trkpt><trkpt lat="45.1458357" lon="8.1283374"><ele>171.6</ele><time>2026-04-25T09:02:08.018Z</time></trkpt><trkpt lat="45.1458711" lon="8.1284676"><ele>170.8</ele><time>2026-04-25T09:02:08.986Z</time></trkpt><trkpt lat="45.1459069" lon="8.1286299"><ele>170.0</ele><time>2026-04-25T09:02:09.983Z</time></trkpt><trkpt lat="45.1459538" lon="8.1288212"><ele>170.0</ele><time>2026-04-25T09:02:10.982Z</time></trkpt><trkpt lat="45.146011" lon="8.1290414"><ele>170.0</ele><time>2026-04-25T09:02:11.979Z</time></trkpt><trkpt lat="45.1460773" lon="8.129277"><ele>170.0</ele><time>2026-04-25T09:02:13.006Z</time></trkpt><trkpt lat="45.1461408" lon="8.1294935"><ele>169.5</ele><time>2026-04-25T09:02:13.982Z</time></trkpt><trkpt lat="45.1462006" lon="8.1296974"><ele>169.0</ele><time>2026-04-25T09:02:14.983Z</time></trkpt><trkpt lat="45.1462544" lon="8.1298867"><ele>168.5</ele><time>2026-04-25T09:02:15.981Z</time></trkpt><trkpt lat="45.1463026" lon="8.130061"><ele>168.0</ele><time>2026-04-25T09:02:16.985Z</time></trkpt><trkpt lat="45.1463481" lon="8.1302173"><ele>168.8</ele><time>2026-04-25T09:02:17.983Z</time></trkpt><trkpt lat="45.1463915" lon="8.1303581"><ele>169.60000000000002</ele><time>2026-04-25T09:02:18.983Z</time></trkpt><trkpt lat="45.1464273" lon="8.1304861"><ele>170.39999999999998</ele><time>2026-04-25T09:02:19.99Z</time></trkpt><trkpt lat="45.1464567" lon="8.1305986"><ele>171.2</ele><time>2026-04-25T09:02:20.984Z</time></trkpt><trkpt lat="45.1464763" lon="8.130695"><ele>172.0</ele><time>2026-04-25T09:02:21.986Z</time></trkpt><trkpt lat="45.1464579" lon="8.130836"><ele>173.5</ele><time>2026-04-25T09:02:23.987Z</time></trkpt><trkpt lat="45.1463358" lon="8.1308707"><ele>175.0</ele><time>2026-04-25T09:02:25.979Z</time></trkpt><trkpt lat="45.1462358" lon="8.1308492"><ele>176.5</ele><time>2026-04-25T09:02:26.986Z</time></trkpt><trkpt lat="45.1461235" lon="8.130817"><ele>178.0</ele><time>2026-04-25T09:02:27.981Z</time></trkpt><trkpt lat="45.1459922" lon="8.130803"><ele>178.0</ele><time>2026-04-25T09:02:28.982Z</time></trkpt><trkpt lat="45.1458574" lon="8.1308153"><ele>178.0</ele><time>2026-04-25T09:02:29.984Z</time></trkpt><trkpt lat="45.1457139" lon="8.1308616"><ele>178.0</ele><time>2026-04-25T09:02:30.981Z</time></trkpt><trkpt lat="45.1455572" lon="8.1309283"><ele>178.0</ele><time>2026-04-25T09:02:32.002Z</time></trkpt><trkpt lat="45.1453844" lon="8.1310067"><ele>179.0</ele><time>2026-04-25T09:02:32.987Z</time></trkpt><trkpt lat="45.1452028" lon="8.1310776"><ele>180.0</ele><time>2026-04-25T09:02:33.98Z</time></trkpt><trkpt lat="45.145012" lon="8.1311374"><ele>181.0</ele><time>2026-04-25T09:02:34.985Z</time></trkpt><trkpt lat="45.1448209" lon="8.1311848"><ele>182.66666666666669</ele><time>2026-04-25T09:02:35.986Z</time></trkpt><trkpt lat="45.1446508" lon="8.1312249"><ele>184.33333333333334</ele><time>2026-04-25T09:02:37.016Z</time></trkpt><trkpt lat="45.1445023" lon="8.1312594"><ele>186.0</ele><time>2026-04-25T09:02:37.99Z</time></trkpt><trkpt lat="45.1443715" lon="8.131285"><ele>186.0</ele><time>2026-04-25T09:02:38.985Z</time></trkpt><trkpt lat="45.1442627" lon="8.1313178"><ele>186.0</ele><time>2026-04-25T09:02:39.987Z</time></trkpt><trkpt lat="45.1441745" lon="8.1313779"><ele>186.0</ele><time>2026-04-25T09:02:40.985Z</time></trkpt><trkpt lat="45.144097" lon="8.1314756"><ele>186.0</ele><time>2026-04-25T09:02:41.987Z</time></trkpt><trkpt lat="45.1440259" lon="8.1315932"><ele>186.0</ele><time>2026-04-25T09:02:42.981Z</time></trkpt><trkpt lat="45.1439484" lon="8.1316999"><ele>188.5</ele><time>2026-04-25T09:02:43.988Z</time></trkpt><trkpt lat="45.1438572" lon="8.1318018"><ele>191.0</ele><time>2026-04-25T09:02:44.992Z</time></trkpt><trkpt lat="45.1437451" lon="8.1318729"><ele>193.5</ele><time>2026-04-25T09:02:45.985Z</time></trkpt><trkpt lat="45.1436097" lon="8.1319585"><ele>196.0</ele><time>2026-04-25T09:02:47Z</time></trkpt><trkpt lat="45.1434664" lon="8.1320519"><ele>196.0</ele><time>2026-04-25T09:02:47.987Z</time></trkpt><trkpt lat="45.1433373" lon="8.1321214"><ele>196.0</ele><time>2026-04-25T09:02:48.984Z</time></trkpt><trkpt lat="45.1432268" lon="8.1321608"><ele>196.0</ele><time>2026-04-25T09:02:49.983Z</time></trkpt><trkpt lat="45.1431176" lon="8.1321719"><ele>196.0</ele><time>2026-04-25T09:02:50.985Z</time></trkpt><trkpt lat="45.14301" lon="8.1321706"><ele>197.0</ele><time>2026-04-25T09:02:51.982Z</time></trkpt><trkpt lat="45.1429162" lon="8.1321708"><ele>198.0</ele><time>2026-04-25T09:02:52.983Z</time></trkpt><trkpt lat="45.1428243" lon="8.1321911"><ele>199.0</ele><time>2026-04-25T09:02:53.984Z</time></trkpt><trkpt lat="45.1427328" lon="8.1322353"><ele>200.0</ele><time>2026-04-25T09:02:54.983Z</time></trkpt><trkpt lat="45.1426438" lon="8.1323103"><ele>201.0</ele><time>2026-04-25T09:02:56.008Z</time></trkpt><trkpt lat="45.1425591" lon="8.1324136"><ele>202.4</ele><time>2026-04-25T09:02:56.985Z</time></trkpt><trkpt lat="45.1424759" lon="8.1325197"><ele>203.8</ele><time>2026-04-25T09:02:57.986Z</time></trkpt><trkpt lat="45.1423951" lon="8.1326125"><ele>205.20000000000002</ele><time>2026-04-25T09:02:58.99Z</time></trkpt><trkpt lat="45.1423085" lon="8.1326532"><ele>206.60000000000002</ele><time>2026-04-25T09:02:59.983Z</time></trkpt><trkpt lat="45.1422327" lon="8.1326319"><ele>208.0</ele><time>2026-04-25T09:03:01.009Z</time></trkpt><trkpt lat="45.1421443" lon="8.1326265"><ele>211.0</ele><time>2026-04-25T09:03:02.983Z</time></trkpt><trkpt lat="45.1421269" lon="8.1327161"><ele>214.0</ele><time>2026-04-25T09:03:04.983Z</time></trkpt><trkpt lat="45.1421718" lon="8.1328493"><ele>217.0</ele><time>2026-04-25T09:03:06.976Z</time></trkpt><trkpt lat="45.1422166" lon="8.1329606"><ele>220.0</ele><time>2026-04-25T09:03:07.993Z</time></trkpt><trkpt lat="45.1422522" lon="8.1330881"><ele>223.0</ele><time>2026-04-25T09:03:08.981Z</time></trkpt><trkpt lat="45.1422673" lon="8.1332356"><ele>225.60000000000002</ele><time>2026-04-25T09:03:09.983Z</time></trkpt><trkpt lat="45.1422638" lon="8.1333733"><ele>228.20000000000002</ele><time>2026-04-25T09:03:10.98Z</time></trkpt><trkpt lat="45.1422644" lon="8.1335254"><ele>230.8</ele><time>2026-04-25T09:03:11.988Z</time></trkpt><trkpt lat="45.1422867" lon="8.1336781"><ele>233.4</ele><time>2026-04-25T09:03:12.981Z</time></trkpt><trkpt lat="45.1423147" lon="8.1338039"><ele>236.0</ele><time>2026-04-25T09:03:13.986Z</time></trkpt><trkpt lat="45.1423402" lon="8.1339199"><ele>236.0</ele><time>2026-04-25T09:03:14.985Z</time></trkpt><trkpt lat="45.14235" lon="8.1340259"><ele>236.00000000000003</ele><time>2026-04-25T09:03:15.983Z</time></trkpt><trkpt lat="45.142327" lon="8.1341597"><ele>236.00000000000003</ele><time>2026-04-25T09:03:17.982Z</time></trkpt><trkpt lat="45.1422416" lon="8.1341641"><ele>236.0</ele><time>2026-04-25T09:03:19.982Z</time></trkpt><trkpt lat="45.1421569" lon="8.1340618"><ele>236.0</ele><time>2026-04-25T09:03:21.982Z</time></trkpt><trkpt lat="45.1421098" lon="8.1339571"><ele>236.00000000000003</ele><time>2026-04-25T09:03:22.993Z</time></trkpt><trkpt lat="45.1420527" lon="8.1338327"><ele>236.0</ele><time>2026-04-25T09:03:23.988Z</time></trkpt><trkpt lat="45.1420002" lon="8.1337237"><ele>236.0</ele><time>2026-04-25T09:03:24.984Z</time></trkpt><trkpt lat="45.1419445" lon="8.133621"><ele>236.0</ele><time>2026-04-25T09:03:25.986Z</time></trkpt><trkpt lat="45.1418953" lon="8.1335454"><ele>236.00000000000003</ele><time>2026-04-25T09:03:26.985Z</time></trkpt><trkpt lat="45.1418199" lon="8.1335045"><ele>236.0</ele><time>2026-04-25T09:03:27.986Z</time></trkpt><trkpt lat="45.141732" lon="8.1334969"><ele>236.00000000000003</ele><time>2026-04-25T09:03:28.986Z</time></trkpt><trkpt lat="45.1416425" lon="8.1335003"><ele>236.0</ele><time>2026-04-25T09:03:29.997Z</time></trkpt><trkpt lat="45.141566" lon="8.1334767"><ele>236.0</ele><time>2026-04-25T09:03:30.986Z</time></trkpt><trkpt lat="45.1415003" lon="8.1334541"><ele>236.0</ele><time>2026-04-25T09:03:31.984Z</time></trkpt><trkpt lat="45.1414646" lon="8.1333768"><ele>236.00000000000003</ele><time>2026-04-25T09:03:32.986Z</time></trkpt><trkpt lat="45.1414499" lon="8.1332642"><ele>236.0</ele><time>2026-04-25T09:03:33.983Z</time></trkpt><trkpt lat="45.1414578" lon="8.1331454"><ele>236.00000000000003</ele><time>2026-04-25T09:03:35.008Z</time></trkpt><trkpt lat="45.1414754" lon="8.1330355"><ele>236.0</ele><time>2026-04-25T09:03:35.982Z</time></trkpt><trkpt lat="45.1414517" lon="8.1329379"><ele>236.0</ele><time>2026-04-25T09:03:36.985Z</time></trkpt><trkpt lat="45.1414108" lon="8.132838"><ele>236.0</ele><time>2026-04-25T09:03:37.989Z</time></trkpt><trkpt lat="45.14135" lon="8.1327708"><ele>236.00000000000003</ele><time>2026-04-25T09:03:38.984Z</time></trkpt><trkpt lat="45.1412695" lon="8.1327359"><ele>236.0</ele><time>2026-04-25T09:03:39.986Z</time></trkpt><trkpt lat="45.1411779" lon="8.1327271"><ele>236.0</ele><time>2026-04-25T09:03:40.984Z</time></trkpt><trkpt lat="45.1410762" lon="8.1327369"><ele>236.00000000000003</ele><time>2026-04-25T09:03:42.002Z</time></trkpt><trkpt lat="45.1409775" lon="8.1327543"><ele>236.00000000000003</ele><time>2026-04-25T09:03:42.982Z</time></trkpt><trkpt lat="45.1408752" lon="8.1327928"><ele>236.0</ele><time>2026-04-25T09:03:43.984Z</time></trkpt><trkpt lat="45.1407726" lon="8.132851"><ele>236.0</ele><time>2026-04-25T09:03:44.985Z</time></trkpt><trkpt lat="45.1406721" lon="8.1329436"><ele>239.25</ele><time>2026-04-25T09:03:45.984Z</time></trkpt><trkpt lat="45.1405551" lon="8.1330557"><ele>242.5</ele><time>2026-04-25T09:03:46.987Z</time></trkpt><trkpt lat="45.1404296" lon="8.1331487"><ele>245.75</ele><time>2026-04-25T09:03:47.986Z</time></trkpt><trkpt lat="45.1403216" lon="8.1332277"><ele>249.0</ele><time>2026-04-25T09:03:49.008Z</time></trkpt><trkpt lat="45.140225" lon="8.133265"><ele>250.33333333333334</ele><time>2026-04-25T09:03:49.991Z</time></trkpt><trkpt lat="45.1401482" lon="8.1332886"><ele>251.66666666666669</ele><time>2026-04-25T09:03:50.982Z</time></trkpt><trkpt lat="45.1400806" lon="8.1333388"><ele>253.0</ele><time>2026-04-25T09:03:51.981Z</time></trkpt><trkpt lat="45.1400108" lon="8.1333825"><ele>254.33333333333334</ele><time>2026-04-25T09:03:52.986Z</time></trkpt><trkpt lat="45.1399452" lon="8.1334643"><ele>255.66666666666669</ele><time>2026-04-25T09:03:53.984Z</time></trkpt><trkpt lat="45.1398939" lon="8.1335789"><ele>257.0</ele><time>2026-04-25T09:03:55.001Z</time></trkpt><trkpt lat="45.1398492" lon="8.1336941"><ele>261.2</ele><time>2026-04-25T09:03:55.988Z</time></trkpt><trkpt lat="45.1398117" lon="8.1337831"><ele>265.4</ele><time>2026-04-25T09:03:56.983Z</time></trkpt><trkpt lat="45.1397282" lon="8.1338764"><ele>269.6</ele><time>2026-04-25T09:03:58.984Z</time></trkpt><trkpt lat="45.1396374" lon="8.1337999"><ele>273.8</ele><time>2026-04-25T09:04:00.99Z</time></trkpt><trkpt lat="45.1395969" lon="8.1337106"><ele>278.0</ele><time>2026-04-25T09:04:01.98Z</time></trkpt><trkpt lat="45.1395359" lon="8.1335982"><ele>278.0</ele><time>2026-04-25T09:04:02.986Z</time></trkpt><trkpt lat="45.1394724" lon="8.1334683"><ele>278.0</ele><time>2026-04-25T09:04:03.986Z</time></trkpt><trkpt lat="45.1394064" lon="8.133311"><ele>278.0</ele><time>2026-04-25T09:04:04.983Z</time></trkpt><trkpt lat="45.1393505" lon="8.1331529"><ele>278.0</ele><time>2026-04-25T09:04:06.008Z</time></trkpt><trkpt lat="45.1393231" lon="8.1330063"><ele>276.4</ele><time>2026-04-25T09:04:06.985Z</time></trkpt><trkpt lat="45.1393038" lon="8.1328489"><ele>274.8</ele><time>2026-04-25T09:04:07.986Z</time></trkpt><trkpt lat="45.1392789" lon="8.132707"><ele>273.2</ele><time>2026-04-25T09:04:08.984Z</time></trkpt><trkpt lat="45.1392584" lon="8.1325737"><ele>271.6</ele><time>2026-04-25T09:04:09.984Z</time></trkpt><trkpt lat="45.1392363" lon="8.1324602"><ele>270.0</ele><time>2026-04-25T09:04:10.992Z</time></trkpt><trkpt lat="45.1391948" lon="8.1323759"><ele>268.0</ele><time>2026-04-25T09:04:11.983Z</time></trkpt><trkpt lat="45.1391296" lon="8.1323224"><ele>266.0</ele><time>2026-04-25T09:04:13Z</time></trkpt><trkpt lat="45.1390507" lon="8.1322793"><ele>264.0</ele><time>2026-04-25T09:04:13.98Z</time></trkpt><trkpt lat="45.138983" lon="8.1323037"><ele>262.0</ele><time>2026-04-25T09:04:14.986Z</time></trkpt><trkpt lat="45.138893" lon="8.1323925"><ele>260.0</ele><time>2026-04-25T09:04:16.987Z</time></trkpt><trkpt lat="45.1388696" lon="8.1325797"><ele>259.2</ele><time>2026-04-25T09:04:18.991Z</time></trkpt><trkpt lat="45.138868" lon="8.1327057"><ele>258.4</ele><time>2026-04-25T09:04:19.992Z</time></trkpt><trkpt lat="45.1388775" lon="8.1328403"><ele>257.6</ele><time>2026-04-25T09:04:20.992Z</time></trkpt><trkpt lat="45.1389017" lon="8.1329853"><ele>256.8</ele><time>2026-04-25T09:04:21.99Z</time></trkpt><trkpt lat="45.1389155" lon="8.1331446"><ele>256.0</ele><time>2026-04-25T09:04:23.012Z</time></trkpt><trkpt lat="45.138931" lon="8.1333194"><ele>258.5</ele><time>2026-04-25T09:04:23.986Z</time></trkpt><trkpt lat="45.1389326" lon="8.1334808"><ele>261.0</ele><time>2026-04-25T09:04:24.987Z</time></trkpt><trkpt lat="45.1389223" lon="8.1336452"><ele>263.5</ele><time>2026-04-25T09:04:25.983Z</time></trkpt><trkpt lat="45.1389002" lon="8.1338051"><ele>266.0</ele><time>2026-04-25T09:04:26.987Z</time></trkpt><trkpt lat="45.1388549" lon="8.1339731"><ele>269.0</ele><time>2026-04-25T09:04:27.985Z</time></trkpt><trkpt lat="45.1388068" lon="8.13413"><ele>272.0</ele><time>2026-04-25T09:04:28.989Z</time></trkpt><trkpt lat="45.1387527" lon="8.1342654"><ele>275.0</ele><time>2026-04-25T09:04:29.987Z</time></trkpt><trkpt lat="45.1386999" lon="8.1343909"><ele>278.0</ele><time>2026-04-25T09:04:30.987Z</time></trkpt><trkpt lat="45.1386354" lon="8.13451"><ele>281.0</ele><time>2026-04-25T09:04:32Z</time></trkpt><trkpt lat="45.1385568" lon="8.1346474"><ele>281.0</ele><time>2026-04-25T09:04:32.988Z</time></trkpt><trkpt lat="45.1384595" lon="8.1347911"><ele>281.0</ele><time>2026-04-25T09:04:33.982Z</time></trkpt><trkpt lat="45.1383825" lon="8.1348876"><ele>281.0</ele><time>2026-04-25T09:04:34.99Z</time></trkpt><trkpt lat="45.1383207" lon="8.134969"><ele>281.0</ele><time>2026-04-25T09:04:35.986Z</time></trkpt><trkpt lat="45.1382696" lon="8.135059"><ele>281.0</ele><time>2026-04-25T09:04:37.031Z</time></trkpt><trkpt lat="45.1382369" lon="8.1351987"><ele>280.6</ele><time>2026-04-25T09:04:37.985Z</time></trkpt><trkpt lat="45.1382216" lon="8.1353317"><ele>280.20000000000005</ele><time>2026-04-25T09:04:38.983Z</time></trkpt><trkpt lat="45.1381872" lon="8.1354319"><ele>279.79999999999995</ele><time>2026-04-25T09:04:39.989Z</time></trkpt><trkpt lat="45.1381205" lon="8.1355241"><ele>279.4</ele><time>2026-04-25T09:04:40.99Z</time></trkpt><trkpt lat="45.1380127" lon="8.1355713"><ele>279.0</ele><time>2026-04-25T09:04:41.997Z</time></trkpt><trkpt lat="45.1378997" lon="8.1356055"><ele>279.0</ele><time>2026-04-25T09:04:42.991Z</time></trkpt><trkpt lat="45.1378" lon="8.1356388"><ele>279.0</ele><time>2026-04-25T09:04:43.985Z</time></trkpt><trkpt lat="45.137703" lon="8.1356689"><ele>279.0</ele><time>2026-04-25T09:04:44.985Z</time></trkpt><trkpt lat="45.1376323" lon="8.1357405"><ele>279.0</ele><time>2026-04-25T09:04:45.983Z</time></trkpt><trkpt lat="45.1375829" lon="8.1358365"><ele>279.0</ele><time>2026-04-25T09:04:46.995Z</time></trkpt><trkpt lat="45.1375416" lon="8.1359628"><ele>279.59999999999997</ele><time>2026-04-25T09:04:47.993Z</time></trkpt><trkpt lat="45.1374948" lon="8.1361252"><ele>280.2</ele><time>2026-04-25T09:04:48.997Z</time></trkpt><trkpt lat="45.1374421" lon="8.136267"><ele>280.79999999999995</ele><time>2026-04-25T09:04:49.983Z</time></trkpt><trkpt lat="45.1373861" lon="8.1363742"><ele>281.4</ele><time>2026-04-25T09:04:50.989Z</time></trkpt><trkpt lat="45.1373253" lon="8.1364484"><ele>282.0</ele><time>2026-04-25T09:04:51.984Z</time></trkpt><trkpt lat="45.1372666" lon="8.1365111"><ele>282.0</ele><time>2026-04-25T09:04:52.985Z</time></trkpt><trkpt lat="45.1371738" lon="8.1365436"><ele>282.0</ele><time>2026-04-25T09:04:53.988Z</time></trkpt><trkpt lat="45.1370525" lon="8.1365661"><ele>282.0</ele><time>2026-04-25T09:04:54.99Z</time></trkpt><trkpt lat="45.1369274" lon="8.1365772"><ele>282.0</ele><time>2026-04-25T09:04:55.986Z</time></trkpt><trkpt lat="45.1368202" lon="8.1365866"><ele>285.3333333333333</ele><time>2026-04-25T09:04:57.005Z</time></trkpt><trkpt lat="45.1367444" lon="8.1366042"><ele>288.6666666666667</ele><time>2026-04-25T09:04:57.987Z</time></trkpt><trkpt lat="45.13666" lon="8.1366721"><ele>292.0</ele><time>2026-04-25T09:04:59.985Z</time></trkpt><trkpt lat="45.1366436" lon="8.1368416"><ele>295.33333333333337</ele><time>2026-04-25T09:05:01.985Z</time></trkpt><trkpt lat="45.1366252" lon="8.1369385"><ele>298.6666666666667</ele><time>2026-04-25T09:05:02.988Z</time></trkpt><trkpt lat="45.1365992" lon="8.1370487"><ele>302.0</ele><time>2026-04-25T09:05:03.989Z</time></trkpt><trkpt lat="45.1365742" lon="8.1371478"><ele>302.6</ele><time>2026-04-25T09:05:05.01Z</time></trkpt><trkpt lat="45.1365508" lon="8.1372846"><ele>303.2</ele><time>2026-04-25T09:05:06.983Z</time></trkpt><trkpt lat="45.1365836" lon="8.1373926"><ele>303.8</ele><time>2026-04-25T09:05:08.988Z</time></trkpt><trkpt lat="45.1366935" lon="8.13744"><ele>304.4</ele><time>2026-04-25T09:05:10.987Z</time></trkpt><trkpt lat="45.1367713" lon="8.1374585"><ele>305.0</ele><time>2026-04-25T09:05:11.993Z</time></trkpt><trkpt lat="45.1368588" lon="8.1374815"><ele>305.1666666666667</ele><time>2026-04-25T09:05:12.987Z</time></trkpt><trkpt lat="45.1369379" lon="8.1375025"><ele>305.33333333333337</ele><time>2026-04-25T09:05:13.99Z</time></trkpt><trkpt lat="45.1370023" lon="8.1375179"><ele>305.5</ele><time>2026-04-25T09:05:14.987Z</time></trkpt><trkpt lat="45.1370644" lon="8.1375347"><ele>305.6666666666667</ele><time>2026-04-25T09:05:15.988Z</time></trkpt><trkpt lat="45.137161" lon="8.1376441"><ele>305.8333333333333</ele><time>2026-04-25T09:05:17.99Z</time></trkpt><trkpt lat="45.137203" lon="8.1377226"><ele>306.0</ele><time>2026-04-25T09:05:18.988Z</time></trkpt><trkpt lat="45.1372348" lon="8.137855"><ele>306.0</ele><time>2026-04-25T09:05:19.985Z</time></trkpt><trkpt lat="45.1372776" lon="8.137998"><ele>306.0</ele><time>2026-04-25T09:05:20.991Z</time></trkpt><trkpt lat="45.137327" lon="8.1381384"><ele>306.0</ele><time>2026-04-25T09:05:21.988Z</time></trkpt><trkpt lat="45.1373747" lon="8.1382782"><ele>306.0</ele><time>2026-04-25T09:05:22.983Z</time></trkpt><trkpt lat="45.1374202" lon="8.1384059"><ele>306.0</ele><time>2026-04-25T09:05:24.03Z</time></trkpt><trkpt lat="45.1374782" lon="8.1385161"><ele>305.0</ele><time>2026-04-25T09:05:24.987Z</time></trkpt><trkpt lat="45.1375309" lon="8.138628"><ele>304.0</ele><time>2026-04-25T09:05:25.982Z</time></trkpt><trkpt lat="45.137559" lon="8.13874"><ele>303.0</ele><time>2026-04-25T09:05:26.988Z</time></trkpt><trkpt lat="45.1375842" lon="8.1388447"><ele>302.0</ele><time>2026-04-25T09:05:27.987Z</time></trkpt><trkpt lat="45.1376315" lon="8.1389785"><ele>301.0</ele><time>2026-04-25T09:05:30.006Z</time></trkpt><trkpt lat="45.1377372" lon="8.1390573"><ele>299.5</ele><time>2026-04-25T09:05:31.986Z</time></trkpt><trkpt lat="45.1378035" lon="8.1391001"><ele>298.0</ele><time>2026-04-25T09:05:32.988Z</time></trkpt><trkpt lat="45.1379156" lon="8.1391436"><ele>296.5</ele><time>2026-04-25T09:05:34.989Z</time></trkpt><trkpt lat="45.1379794" lon="8.1391366"><ele>295.0</ele><time>2026-04-25T09:05:35.991Z</time></trkpt><trkpt lat="45.1380436" lon="8.1391318"><ele>293.5</ele><time>2026-04-25T09:05:36.984Z</time></trkpt><trkpt lat="45.138139" lon="8.1390991"><ele>292.0</ele><time>2026-04-25T09:05:38.986Z</time></trkpt><trkpt lat="45.138224" lon="8.1390744"><ele>292.0</ele><time>2026-04-25T09:05:41.986Z</time></trkpt><trkpt lat="45.1382998" lon="8.1390363"><ele>292.0</ele><time>2026-04-25T09:05:44.984Z</time></trkpt><trkpt lat="45.1383942" lon="8.1389783"><ele>292.0</ele><time>2026-04-25T09:05:47.985Z</time></trkpt><trkpt lat="45.138462" lon="8.138983"><ele>292.0</ele><time>2026-04-25T09:05:48.988Z</time></trkpt><trkpt lat="45.1385355" lon="8.1390211"><ele>292.0</ele><time>2026-04-25T09:05:50Z</time></trkpt><trkpt lat="45.1386367" lon="8.1390765"><ele>292.0</ele><time>2026-04-25T09:05:50.986Z</time></trkpt><trkpt lat="45.1387357" lon="8.1391338"><ele>292.0</ele><time>2026-04-25T09:05:51.983Z</time></trkpt><trkpt lat="45.1388142" lon="8.1391736"><ele>292.0</ele><time>2026-04-25T09:05:52.982Z</time></trkpt><trkpt lat="45.1388781" lon="8.1391937"><ele>292.0</ele><time>2026-04-25T09:05:53.98Z</time></trkpt><trkpt lat="45.1389815" lon="8.1392447"><ele>292.0</ele><time>2026-04-25T09:05:55.983Z</time></trkpt><trkpt lat="45.1390245" lon="8.1394129"><ele>292.0</ele><time>2026-04-25T09:05:57.981Z</time></trkpt><trkpt lat="45.1390094" lon="8.1395468"><ele>292.0</ele><time>2026-04-25T09:05:58.987Z</time></trkpt><trkpt lat="45.1389761" lon="8.1396792"><ele>292.0</ele><time>2026-04-25T09:05:59.981Z</time></trkpt><trkpt lat="45.1389359" lon="8.1397898"><ele>292.0</ele><time>2026-04-25T09:06:00.981Z</time></trkpt><trkpt lat="45.1389023" lon="8.139908"><ele>292.0</ele><time>2026-04-25T09:06:01.984Z</time></trkpt><trkpt lat="45.1388701" lon="8.1400258"><ele>292.0</ele><time>2026-04-25T09:06:02.992Z</time></trkpt><trkpt lat="45.1388336" lon="8.1401387"><ele>290.66666666666663</ele><time>2026-04-25T09:06:03.985Z</time></trkpt><trkpt lat="45.1387989" lon="8.140259"><ele>289.3333333333333</ele><time>2026-04-25T09:06:05.016Z</time></trkpt><trkpt lat="45.1387724" lon="8.1403647"><ele>288.0</ele><time>2026-04-25T09:06:05.983Z</time></trkpt><trkpt lat="45.1387607" lon="8.1404678"><ele>286.6666666666667</ele><time>2026-04-25T09:06:06.99Z</time></trkpt><trkpt lat="45.1387743" lon="8.1405746"><ele>285.33333333333337</ele><time>2026-04-25T09:06:07.987Z</time></trkpt><trkpt lat="45.1387872" lon="8.1406889"><ele>284.0</ele><time>2026-04-25T09:06:08.986Z</time></trkpt><trkpt lat="45.1388238" lon="8.1408199"><ele>283.0</ele><time>2026-04-25T09:06:09.983Z</time></trkpt><trkpt lat="45.1388648" lon="8.14096"><ele>282.0</ele><time>2026-04-25T09:06:10.986Z</time></trkpt><trkpt lat="45.1389066" lon="8.1410977"><ele>281.0</ele><time>2026-04-25T09:06:11.987Z</time></trkpt><trkpt lat="45.138938" lon="8.1412409"><ele>280.0</ele><time>2026-04-25T09:06:12.988Z</time></trkpt><trkpt lat="45.1389441" lon="8.1413539"><ele>279.0</ele><time>2026-04-25T09:06:14.026Z</time></trkpt><trkpt lat="45.1389618" lon="8.1414654"><ele>277.1666666666667</ele><time>2026-04-25T09:06:14.984Z</time></trkpt><trkpt lat="45.1390038" lon="8.1415777"><ele>275.3333333333333</ele><time>2026-04-25T09:06:15.991Z</time></trkpt><trkpt lat="45.1390488" lon="8.1417168"><ele>273.5</ele><time>2026-04-25T09:06:16.987Z</time></trkpt><trkpt lat="45.1390877" lon="8.1418382"><ele>271.66666666666663</ele><time>2026-04-25T09:06:17.998Z</time></trkpt><trkpt lat="45.1391182" lon="8.1419521"><ele>269.8333333333333</ele><time>2026-04-25T09:06:18.993Z</time></trkpt><trkpt lat="45.1391411" lon="8.1420449"><ele>268.0</ele><time>2026-04-25T09:06:20.007Z</time></trkpt><trkpt lat="45.1391689" lon="8.1421912"><ele>270.57142857142856</ele><time>2026-04-25T09:06:21.984Z</time></trkpt><trkpt lat="45.1392278" lon="8.1423272"><ele>273.1428571428571</ele><time>2026-04-25T09:06:23.985Z</time></trkpt><trkpt lat="45.139292" lon="8.1423682"><ele>275.71428571428567</ele><time>2026-04-25T09:06:24.987Z</time></trkpt><trkpt lat="45.1393577" lon="8.1423933"><ele>278.2857142857143</ele><time>2026-04-25T09:06:25.982Z</time></trkpt><trkpt lat="45.139423" lon="8.1423894"><ele>280.85714285714283</ele><time>2026-04-25T09:06:26.997Z</time></trkpt><trkpt lat="45.1394907" lon="8.1423918"><ele>283.4285714285714</ele><time>2026-04-25T09:06:27.983Z</time></trkpt><trkpt lat="45.1395546" lon="8.142401"><ele>286.0</ele><time>2026-04-25T09:06:28.979Z</time></trkpt><trkpt lat="45.1396257" lon="8.1424115"><ele>286.0</ele><time>2026-04-25T09:06:29.99Z</time></trkpt><trkpt lat="45.1396974" lon="8.1424175"><ele>286.0</ele><time>2026-04-25T09:06:30.99Z</time></trkpt><trkpt lat="45.1397681" lon="8.1423999"><ele>286.0</ele><time>2026-04-25T09:06:31.985Z</time></trkpt><trkpt lat="45.1398446" lon="8.1423633"><ele>286.0</ele><time>2026-04-25T09:06:32.985Z</time></trkpt><trkpt lat="45.139931" lon="8.1422901"><ele>286.0</ele><time>2026-04-25T09:06:33.984Z</time></trkpt><trkpt lat="45.1400071" lon="8.1421783"><ele>286.0</ele><time>2026-04-25T09:06:34.989Z</time></trkpt><trkpt lat="45.1400876" lon="8.1421001"><ele>286.8</ele><time>2026-04-25T09:06:35.981Z</time></trkpt><trkpt lat="45.1401461" lon="8.1420439"><ele>287.6</ele><time>2026-04-25T09:06:36.987Z</time></trkpt><trkpt lat="45.140237" lon="8.1419731"><ele>288.4</ele><time>2026-04-25T09:06:38.99Z</time></trkpt><trkpt lat="45.1403425" lon="8.141997"><ele>289.2</ele><time>2026-04-25T09:06:40.986Z</time></trkpt><trkpt lat="45.1404153" lon="8.1420667"><ele>290.0</ele><time>2026-04-25T09:06:41.983Z</time></trkpt><trkpt lat="45.1404912" lon="8.1421506"><ele>290.0</ele><time>2026-04-25T09:06:42.983Z</time></trkpt><trkpt lat="45.1405496" lon="8.1422402"><ele>290.0</ele><time>2026-04-25T09:06:43.987Z</time></trkpt><trkpt lat="45.1406084" lon="8.1423549"><ele>290.0</ele><time>2026-04-25T09:06:44.986Z</time></trkpt><trkpt lat="45.1406611" lon="8.1424825"><ele>290.0</ele><time>2026-04-25T09:06:45.992Z</time></trkpt><trkpt lat="45.1407182" lon="8.1426394"><ele>290.0</ele><time>2026-04-25T09:06:46.984Z</time></trkpt><trkpt lat="45.1407681" lon="8.1428387"><ele>287.25</ele><time>2026-04-25T09:06:47.988Z</time></trkpt><trkpt lat="45.1408154" lon="8.1430456"><ele>284.5</ele><time>2026-04-25T09:06:48.986Z</time></trkpt><trkpt lat="45.1408602" lon="8.1432329"><ele>281.75</ele><time>2026-04-25T09:06:49.987Z</time></trkpt><trkpt lat="45.1408958" lon="8.1433802"><ele>279.0</ele><time>2026-04-25T09:06:50.987Z</time></trkpt><trkpt lat="45.140925" lon="8.1434997"><ele>277.4</ele><time>2026-04-25T09:06:51.982Z</time></trkpt><trkpt lat="45.1409493" lon="8.1435968"><ele>275.79999999999995</ele><time>2026-04-25T09:06:53.02Z</time></trkpt><trkpt lat="45.1409722" lon="8.1436978"><ele>274.20000000000005</ele><time>2026-04-25T09:06:53.986Z</time></trkpt><trkpt lat="45.1410403" lon="8.1438317"><ele>272.6</ele><time>2026-04-25T09:06:55.987Z</time></trkpt><trkpt lat="45.1411387" lon="8.1438873"><ele>271.0</ele><time>2026-04-25T09:06:57.98Z</time></trkpt><trkpt lat="45.1412595" lon="8.1438195"><ele>271.0</ele><time>2026-04-25T09:06:59.982Z</time></trkpt><trkpt lat="45.1413325" lon="8.1437496"><ele>271.0</ele><time>2026-04-25T09:07:00.983Z</time></trkpt><trkpt lat="45.1414119" lon="8.1436517"><ele>271.0</ele><time>2026-04-25T09:07:02.008Z</time></trkpt><trkpt lat="45.1415" lon="8.1435476"><ele>271.0</ele><time>2026-04-25T09:07:02.984Z</time></trkpt><trkpt lat="45.1415829" lon="8.1434494"><ele>271.0</ele><time>2026-04-25T09:07:03.981Z</time></trkpt><trkpt lat="45.1416704" lon="8.1433621"><ele>271.6</ele><time>2026-04-25T09:07:04.985Z</time></trkpt><trkpt lat="45.1417567" lon="8.14327"><ele>272.20000000000005</ele><time>2026-04-25T09:07:05.985Z</time></trkpt><trkpt lat="45.1418419" lon="8.1431799"><ele>272.79999999999995</ele><time>2026-04-25T09:07:06.986Z</time></trkpt><trkpt lat="45.1419271" lon="8.1431021"><ele>273.4</ele><time>2026-04-25T09:07:08.005Z</time></trkpt><trkpt lat="45.142007" lon="8.1430342"><ele>274.0</ele><time>2026-04-25T09:07:08.983Z</time></trkpt><trkpt lat="45.1420868" lon="8.1429861"><ele>275.8571428571429</ele><time>2026-04-25T09:07:09.984Z</time></trkpt><trkpt lat="45.1421645" lon="8.1429547"><ele>277.7142857142857</ele><time>2026-04-25T09:07:10.99Z</time></trkpt><trkpt lat="45.1422407" lon="8.1429439"><ele>279.57142857142856</ele><time>2026-04-25T09:07:11.986Z</time></trkpt><trkpt lat="45.1423136" lon="8.1429631"><ele>281.42857142857144</ele><time>2026-04-25T09:07:13.003Z</time></trkpt><trkpt lat="45.1423786" lon="8.1429962"><ele>283.2857142857143</ele><time>2026-04-25T09:07:13.987Z</time></trkpt><trkpt lat="45.1424411" lon="8.1430441"><ele>285.14285714285717</ele><time>2026-04-25T09:07:14.983Z</time></trkpt><trkpt lat="45.1424967" lon="8.1430873"><ele>287.0</ele><time>2026-04-25T09:07:15.987Z</time></trkpt><trkpt lat="45.1425793" lon="8.1432043"><ele>285.0</ele><time>2026-04-25T09:07:18.009Z</time></trkpt><trkpt lat="45.1426168" lon="8.1433036"><ele>283.0</ele><time>2026-04-25T09:07:18.977Z</time></trkpt><trkpt lat="45.1426495" lon="8.1434125"><ele>281.0</ele><time>2026-04-25T09:07:19.984Z</time></trkpt><trkpt lat="45.1426715" lon="8.1435297"><ele>279.0</ele><time>2026-04-25T09:07:20.985Z</time></trkpt><trkpt lat="45.1426933" lon="8.1436427"><ele>277.0</ele><time>2026-04-25T09:07:21.988Z</time></trkpt><trkpt lat="45.1427082" lon="8.1437636"><ele>275.0</ele><time>2026-04-25T09:07:23Z</time></trkpt><trkpt lat="45.1427257" lon="8.1438707"><ele>275.0</ele><time>2026-04-25T09:07:23.983Z</time></trkpt><trkpt lat="45.1427415" lon="8.1439735"><ele>275.0</ele><time>2026-04-25T09:07:24.988Z</time></trkpt><trkpt lat="45.142773" lon="8.1440644"><ele>275.0</ele><time>2026-04-25T09:07:25.986Z</time></trkpt><trkpt lat="45.1428049" lon="8.1441434"><ele>275.0</ele><time>2026-04-25T09:07:26.983Z</time></trkpt><trkpt lat="45.1428437" lon="8.1442148"><ele>275.0</ele><time>2026-04-25T09:07:27.986Z</time></trkpt><trkpt lat="45.1428898" lon="8.1442875"><ele>275.0</ele><time>2026-04-25T09:07:28.981Z</time></trkpt><trkpt lat="45.1429408" lon="8.1443566"><ele>275.0</ele><time>2026-04-25T09:07:30.002Z</time></trkpt><trkpt lat="45.1430291" lon="8.1444782"><ele>274.6666666666667</ele><time>2026-04-25T09:07:31.982Z</time></trkpt><trkpt lat="45.1430718" lon="8.1445519"><ele>274.33333333333337</ele><time>2026-04-25T09:07:32.985Z</time></trkpt><trkpt lat="45.1431169" lon="8.1446394"><ele>274.0</ele><time>2026-04-25T09:07:33.986Z</time></trkpt><trkpt lat="45.1431571" lon="8.144746"><ele>273.6666666666667</ele><time>2026-04-25T09:07:34.986Z</time></trkpt><trkpt lat="45.1431942" lon="8.1448422"><ele>273.3333333333333</ele><time>2026-04-25T09:07:35.986Z</time></trkpt><trkpt lat="45.1432334" lon="8.14493"><ele>273.0</ele><time>2026-04-25T09:07:36.984Z</time></trkpt><trkpt lat="45.1432712" lon="8.1450209"><ele>277.3333333333333</ele><time>2026-04-25T09:07:37.989Z</time></trkpt><trkpt lat="45.1433071" lon="8.1451282"><ele>281.6666666666667</ele><time>2026-04-25T09:07:38.986Z</time></trkpt><trkpt lat="45.1433352" lon="8.1452405"><ele>286.0</ele><time>2026-04-25T09:07:39.986Z</time></trkpt><trkpt lat="45.143363" lon="8.1453607"><ele>290.33333333333337</ele><time>2026-04-25T09:07:40.986Z</time></trkpt><trkpt lat="45.1433905" lon="8.1454772"><ele>294.6666666666667</ele><time>2026-04-25T09:07:41.986Z</time></trkpt><trkpt lat="45.143414" lon="8.1455909"><ele>299.0</ele><time>2026-04-25T09:07:42.986Z</time></trkpt><trkpt lat="45.1434276" lon="8.1456974"><ele>297.83333333333337</ele><time>2026-04-25T09:07:43.985Z</time></trkpt><trkpt lat="45.1434269" lon="8.1458159"><ele>296.6666666666667</ele><time>2026-04-25T09:07:44.979Z</time></trkpt><trkpt lat="45.1434187" lon="8.1459314"><ele>295.5</ele><time>2026-04-25T09:07:45.983Z</time></trkpt><trkpt lat="45.1434111" lon="8.1460444"><ele>294.3333333333333</ele><time>2026-04-25T09:07:46.983Z</time></trkpt><trkpt lat="45.1433953" lon="8.146166"><ele>293.16666666666663</ele><time>2026-04-25T09:07:47.979Z</time></trkpt><trkpt lat="45.1433772" lon="8.1463046"><ele>292.0</ele><time>2026-04-25T09:07:49.002Z</time></trkpt><trkpt lat="45.1433579" lon="8.1464194"><ele>292.0</ele><time>2026-04-25T09:07:49.981Z</time></trkpt><trkpt lat="45.1433437" lon="8.1465119"><ele>292.0</ele><time>2026-04-25T09:07:50.983Z</time></trkpt><trkpt lat="45.1433808" lon="8.146625"><ele>292.0</ele><time>2026-04-25T09:07:52.986Z</time></trkpt><trkpt lat="45.1435127" lon="8.1466944"><ele>292.0</ele><time>2026-04-25T09:07:55.005Z</time></trkpt><trkpt lat="45.1435951" lon="8.1467191"><ele>292.0</ele><time>2026-04-25T09:07:55.983Z</time></trkpt><trkpt lat="45.1436932" lon="8.1467494"><ele>291.5</ele><time>2026-04-25T09:07:56.985Z</time></trkpt><trkpt lat="45.1437871" lon="8.1467864"><ele>291.0</ele><time>2026-04-25T09:07:57.987Z</time></trkpt><trkpt lat="45.1438657" lon="8.1468257"><ele>290.5</ele><time>2026-04-25T09:07:58.983Z</time></trkpt><trkpt lat="45.1439412" lon="8.1468693"><ele>290.0</ele><time>2026-04-25T09:08:00.002Z</time></trkpt><trkpt lat="45.1440152" lon="8.1469127"><ele>289.5</ele><time>2026-04-25T09:08:00.98Z</time></trkpt><trkpt lat="45.1440828" lon="8.1469512"><ele>289.0</ele><time>2026-04-25T09:08:01.983Z</time></trkpt><trkpt lat="45.1441433" lon="8.1469815"><ele>288.0</ele><time>2026-04-25T09:08:02.982Z</time></trkpt><trkpt lat="45.1442046" lon="8.1470177"><ele>287.0</ele><time>2026-04-25T09:08:03.984Z</time></trkpt><trkpt lat="45.1442671" lon="8.1470562"><ele>286.0</ele><time>2026-04-25T09:08:04.982Z</time></trkpt><trkpt lat="45.1443316" lon="8.147089"><ele>285.0</ele><time>2026-04-25T09:08:05.986Z</time></trkpt><trkpt lat="45.1444467" lon="8.1471746"><ele>284.0</ele><time>2026-04-25T09:08:07.983Z</time></trkpt><trkpt lat="45.1445068" lon="8.1473003"><ele>283.0</ele><time>2026-04-25T09:08:09.986Z</time></trkpt><trkpt lat="45.144517" lon="8.1474588"><ele>283.0</ele><time>2026-04-25T09:08:11.987Z</time></trkpt><trkpt lat="45.1445632" lon="8.1475377"><ele>283.0</ele><time>2026-04-25T09:08:12.986Z</time></trkpt><trkpt lat="45.1446149" lon="8.1476229"><ele>283.0</ele><time>2026-04-25T09:08:13.985Z</time></trkpt><trkpt lat="45.144667" lon="8.1476833"><ele>283.0</ele><time>2026-04-25T09:08:14.987Z</time></trkpt><trkpt lat="45.1447173" lon="8.1477461"><ele>283.0</ele><time>2026-04-25T09:08:15.989Z</time></trkpt><trkpt lat="45.1447697" lon="8.1478222"><ele>283.0</ele><time>2026-04-25T09:08:17.001Z</time></trkpt><trkpt lat="45.1448162" lon="8.1479006"><ele>283.0</ele><time>2026-04-25T09:08:17.986Z</time></trkpt><trkpt lat="45.1448551" lon="8.1479787"><ele>281.16666666666663</ele><time>2026-04-25T09:08:18.984Z</time></trkpt><trkpt lat="45.1448919" lon="8.1480774"><ele>279.3333333333333</ele><time>2026-04-25T09:08:19.993Z</time></trkpt><trkpt lat="45.1449299" lon="8.148179"><ele>277.5</ele><time>2026-04-25T09:08:20.991Z</time></trkpt><trkpt lat="45.1449689" lon="8.1482906"><ele>275.6666666666667</ele><time>2026-04-25T09:08:22.009Z</time></trkpt><trkpt lat="45.145005" lon="8.1484056"><ele>273.83333333333337</ele><time>2026-04-25T09:08:22.993Z</time></trkpt><trkpt lat="45.1450487" lon="8.1485198"><ele>272.0</ele><time>2026-04-25T09:08:23.987Z</time></trkpt><trkpt lat="45.1450954" lon="8.1486069"><ele>271.5</ele><time>2026-04-25T09:08:24.986Z</time></trkpt><trkpt lat="45.1451386" lon="8.1486835"><ele>271.0</ele><time>2026-04-25T09:08:25.989Z</time></trkpt><trkpt lat="45.1451977" lon="8.1487548"><ele>270.5</ele><time>2026-04-25T09:08:27.008Z</time></trkpt><trkpt lat="45.1452526" lon="8.1488183"><ele>270.0</ele><time>2026-04-25T09:08:27.983Z</time></trkpt><trkpt lat="45.1453069" lon="8.1488662"><ele>269.5</ele><time>2026-04-25T09:08:28.987Z</time></trkpt><trkpt lat="45.1453583" lon="8.1489214"><ele>269.0</ele><time>2026-04-25T09:08:29.988Z</time></trkpt><trkpt lat="45.1454209" lon="8.149066"><ele>267.8</ele><time>2026-04-25T09:08:31.983Z</time></trkpt><trkpt lat="45.1454323" lon="8.1492508"><ele>266.59999999999997</ele><time>2026-04-25T09:08:33.99Z</time></trkpt><trkpt lat="45.14543" lon="8.1493475"><ele>265.4</ele><time>2026-04-25T09:08:34.985Z</time></trkpt><trkpt lat="45.1454255" lon="8.1494395"><ele>264.2</ele><time>2026-04-25T09:08:36.007Z</time></trkpt><trkpt lat="45.1454195" lon="8.1495294"><ele>263.0</ele><time>2026-04-25T09:08:36.99Z</time></trkpt><trkpt lat="45.1454174" lon="8.1497167"><ele>263.0</ele><time>2026-04-25T09:08:38.984Z</time></trkpt><trkpt lat="45.1454217" lon="8.1498136"><ele>263.0</ele><time>2026-04-25T09:08:39.985Z</time></trkpt><trkpt lat="45.1454346" lon="8.1499041"><ele>263.0</ele><time>2026-04-25T09:08:41.009Z</time></trkpt><trkpt lat="45.1454487" lon="8.1499946"><ele>263.0</ele><time>2026-04-25T09:08:41.984Z</time></trkpt><trkpt lat="45.145461" lon="8.1500923"><ele>263.0</ele><time>2026-04-25T09:08:42.985Z</time></trkpt><trkpt lat="45.1454726" lon="8.1502039"><ele>263.0</ele><time>2026-04-25T09:08:43.986Z</time></trkpt><trkpt lat="45.145492" lon="8.1503253"><ele>263.0</ele><time>2026-04-25T09:08:44.983Z</time></trkpt><trkpt lat="45.1455201" lon="8.1504475"><ele>261.83333333333337</ele><time>2026-04-25T09:08:45.991Z</time></trkpt><trkpt lat="45.1455514" lon="8.1505687"><ele>260.6666666666667</ele><time>2026-04-25T09:08:46.982Z</time></trkpt><trkpt lat="45.1455811" lon="8.1506706"><ele>259.5</ele><time>2026-04-25T09:08:47.997Z</time></trkpt><trkpt lat="45.1456144" lon="8.1507726"><ele>258.3333333333333</ele><time>2026-04-25T09:08:48.985Z</time></trkpt><trkpt lat="45.1456464" lon="8.1508637"><ele>257.16666666666663</ele><time>2026-04-25T09:08:49.989Z</time></trkpt><trkpt lat="45.145673" lon="8.1509524"><ele>256.0</ele><time>2026-04-25T09:08:50.987Z</time></trkpt><trkpt lat="45.1456805" lon="8.151073"><ele>255.83333333333331</ele><time>2026-04-25T09:08:51.988Z</time></trkpt><trkpt lat="45.1456835" lon="8.1511808"><ele>255.66666666666666</ele><time>2026-04-25T09:08:52.987Z</time></trkpt><trkpt lat="45.1456748" lon="8.1512793"><ele>255.5</ele><time>2026-04-25T09:08:53.986Z</time></trkpt><trkpt lat="45.1456627" lon="8.1513953"><ele>255.33333333333331</ele><time>2026-04-25T09:08:54.992Z</time></trkpt><trkpt lat="45.1456514" lon="8.1515142"><ele>255.16666666666666</ele><time>2026-04-25T09:08:55.987Z</time></trkpt><trkpt lat="45.1456362" lon="8.151622"><ele>255.0</ele><time>2026-04-25T09:08:57.005Z</time></trkpt><trkpt lat="45.1456198" lon="8.1517215"><ele>255.5</ele><time>2026-04-25T09:08:57.987Z</time></trkpt><trkpt lat="45.1455937" lon="8.1518179"><ele>256.0</ele><time>2026-04-25T09:08:58.986Z</time></trkpt><trkpt lat="45.1455642" lon="8.151917"><ele>256.5</ele><time>2026-04-25T09:08:59.983Z</time></trkpt><trkpt lat="45.145539" lon="8.1520122"><ele>257.0</ele><time>2026-04-25T09:09:00.986Z</time></trkpt><trkpt lat="45.1455139" lon="8.1521257"><ele>257.5</ele><time>2026-04-25T09:09:01.987Z</time></trkpt><trkpt lat="45.1455011" lon="8.1522471"><ele>258.0</ele><time>2026-04-25T09:09:02.992Z</time></trkpt><trkpt lat="45.1455057" lon="8.1523796"><ele>258.2</ele><time>2026-04-25T09:09:04Z</time></trkpt><trkpt lat="45.1455243" lon="8.1525147"><ele>258.4</ele><time>2026-04-25T09:09:04.983Z</time></trkpt><trkpt lat="45.1455586" lon="8.1526548"><ele>258.59999999999997</ele><time>2026-04-25T09:09:05.985Z</time></trkpt><trkpt lat="45.1455918" lon="8.1527943"><ele>258.8</ele><time>2026-04-25T09:09:06.994Z</time></trkpt><trkpt lat="45.1456175" lon="8.1529212"><ele>259.0</ele><time>2026-04-25T09:09:07.986Z</time></trkpt><trkpt lat="45.1456361" lon="8.1530383"><ele>259.0</ele><time>2026-04-25T09:09:09.012Z</time></trkpt><trkpt lat="45.1456413" lon="8.1531433"><ele>259.0</ele><time>2026-04-25T09:09:09.985Z</time></trkpt><trkpt lat="45.1456394" lon="8.1532475"><ele>259.0</ele><time>2026-04-25T09:09:10.986Z</time></trkpt><trkpt lat="45.1456539" lon="8.1533411"><ele>259.0</ele><time>2026-04-25T09:09:11.992Z</time></trkpt><trkpt lat="45.1456846" lon="8.1534869"><ele>259.0</ele><time>2026-04-25T09:09:12.987Z</time></trkpt><trkpt lat="45.1457203" lon="8.1536323"><ele>259.0</ele><time>2026-04-25T09:09:14.005Z</time></trkpt><trkpt lat="45.1457509" lon="8.1537576"><ele>260.8</ele><time>2026-04-25T09:09:14.987Z</time></trkpt><trkpt lat="45.1457701" lon="8.1538803"><ele>262.59999999999997</ele><time>2026-04-25T09:09:15.985Z</time></trkpt><trkpt lat="45.1457862" lon="8.153996"><ele>264.4</ele><time>2026-04-25T09:09:16.989Z</time></trkpt><trkpt lat="45.1457996" lon="8.1541236"><ele>266.2</ele><time>2026-04-25T09:09:17.984Z</time></trkpt><trkpt lat="45.1458058" lon="8.1542716"><ele>268.0</ele><time>2026-04-25T09:09:18.987Z</time></trkpt><trkpt lat="45.1458026" lon="8.1544078"><ele>268.4</ele><time>2026-04-25T09:09:19.985Z</time></trkpt><trkpt lat="45.1457908" lon="8.1545471"><ele>268.8</ele><time>2026-04-25T09:09:20.986Z</time></trkpt><trkpt lat="45.1457702" lon="8.1546996"><ele>269.2</ele><time>2026-04-25T09:09:21.99Z</time></trkpt><trkpt lat="45.1457462" lon="8.1548595"><ele>269.6</ele><time>2026-04-25T09:09:23.01Z</time></trkpt><trkpt lat="45.1457285" lon="8.1550056"><ele>270.0</ele><time>2026-04-25T09:09:23.988Z</time></trkpt><trkpt lat="45.1457184" lon="8.155149"><ele>268.6</ele><time>2026-04-25T09:09:24.988Z</time></trkpt><trkpt lat="45.1457117" lon="8.1552885"><ele>267.2</ele><time>2026-04-25T09:09:25.991Z</time></trkpt><trkpt lat="45.1457165" lon="8.1554146"><ele>265.8</ele><time>2026-04-25T09:09:26.987Z</time></trkpt><trkpt lat="45.1457385" lon="8.1555512"><ele>264.4</ele><time>2026-04-25T09:09:27.986Z</time></trkpt><trkpt lat="45.1457718" lon="8.1557008"><ele>263.0</ele><time>2026-04-25T09:09:28.989Z</time></trkpt><trkpt lat="45.1458119" lon="8.1558616"><ele>262.4</ele><time>2026-04-25T09:09:29.988Z</time></trkpt><trkpt lat="45.1458507" lon="8.1560058"><ele>261.8</ele><time>2026-04-25T09:09:30.986Z</time></trkpt><trkpt lat="45.1458926" lon="8.1561338"><ele>261.2</ele><time>2026-04-25T09:09:31.99Z</time></trkpt><trkpt lat="45.1459416" lon="8.15625"><ele>260.6</ele><time>2026-04-25T09:09:32.983Z</time></trkpt><trkpt lat="45.1460035" lon="8.1563567"><ele>260.0</ele><time>2026-04-25T09:09:34.008Z</time></trkpt><trkpt lat="45.1460586" lon="8.1564497"><ele>259.6</ele><time>2026-04-25T09:09:34.987Z</time></trkpt><trkpt lat="45.1461112" lon="8.1565902"><ele>259.2</ele><time>2026-04-25T09:09:36.986Z</time></trkpt><trkpt lat="45.1461128" lon="8.1567568"><ele>258.8</ele><time>2026-04-25T09:09:38.983Z</time></trkpt><trkpt lat="45.1460395" lon="8.1568883"><ele>258.4</ele><time>2026-04-25T09:09:40.987Z</time></trkpt><trkpt lat="45.1459716" lon="8.1569434"><ele>258.0</ele><time>2026-04-25T09:09:41.985Z</time></trkpt><trkpt lat="45.1459137" lon="8.1569894"><ele>258.0</ele><time>2026-04-25T09:09:42.991Z</time></trkpt><trkpt lat="45.145842" lon="8.1570807"><ele>258.0</ele><time>2026-04-25T09:09:45.006Z</time></trkpt><trkpt lat="45.1458504" lon="8.1571784"><ele>258.0</ele><time>2026-04-25T09:09:45.984Z</time></trkpt><trkpt lat="45.1458612" lon="8.1572959"><ele>258.0</ele><time>2026-04-25T09:09:46.986Z</time></trkpt><trkpt lat="45.1458779" lon="8.1574457"><ele>258.0</ele><time>2026-04-25T09:09:47.984Z</time></trkpt><trkpt lat="45.1458919" lon="8.1575857"><ele>256.6</ele><time>2026-04-25T09:09:48.982Z</time></trkpt><trkpt lat="45.1459052" lon="8.157707"><ele>255.20000000000002</ele><time>2026-04-25T09:09:49.983Z</time></trkpt><trkpt lat="45.1459157" lon="8.1578071"><ele>253.8</ele><time>2026-04-25T09:09:50.984Z</time></trkpt><trkpt lat="45.1459247" lon="8.1579529"><ele>252.4</ele><time>2026-04-25T09:09:52.986Z</time></trkpt><trkpt lat="45.1458728" lon="8.1580256"><ele>251.0</ele><time>2026-04-25T09:09:54.984Z</time></trkpt><trkpt lat="45.1457592" lon="8.1580627"><ele>247.20000000000002</ele><time>2026-04-25T09:09:56.987Z</time></trkpt><trkpt lat="45.1456388" lon="8.1580819"><ele>243.40000000000003</ele><time>2026-04-25T09:09:59.003Z</time></trkpt><trkpt lat="45.1455199" lon="8.1580559"><ele>239.6</ele><time>2026-04-25T09:10:00.98Z</time></trkpt><trkpt lat="45.1454399" lon="8.1579704"><ele>235.8</ele><time>2026-04-25T09:10:02.988Z</time></trkpt><trkpt lat="45.1454182" lon="8.1578857"><ele>232.0</ele><time>2026-04-25T09:10:03.986Z</time></trkpt><trkpt lat="45.1453872" lon="8.1577877"><ele>232.00000000000003</ele><time>2026-04-25T09:10:05.033Z</time></trkpt><trkpt lat="45.1453559" lon="8.1577002"><ele>232.0</ele><time>2026-04-25T09:10:05.985Z</time></trkpt><trkpt lat="45.1453219" lon="8.157622"><ele>232.00000000000003</ele><time>2026-04-25T09:10:06.984Z</time></trkpt><trkpt lat="45.1452801" lon="8.1575475"><ele>232.00000000000003</ele><time>2026-04-25T09:10:07.983Z</time></trkpt><trkpt lat="45.1452327" lon="8.1574753"><ele>232.0</ele><time>2026-04-25T09:10:08.984Z</time></trkpt><trkpt lat="45.1451862" lon="8.1574106"><ele>232.00000000000003</ele><time>2026-04-25T09:10:09.987Z</time></trkpt><trkpt lat="45.1451352" lon="8.1573534"><ele>232.00000000000003</ele><time>2026-04-25T09:10:10.979Z</time></trkpt><trkpt lat="45.1450832" lon="8.1572953"><ele>233.33333333333331</ele><time>2026-04-25T09:10:12.003Z</time></trkpt><trkpt lat="45.1450205" lon="8.1572402"><ele>234.66666666666666</ele><time>2026-04-25T09:10:12.983Z</time></trkpt><trkpt lat="45.1449491" lon="8.1571937"><ele>236.0</ele><time>2026-04-25T09:10:13.98Z</time></trkpt><trkpt lat="45.1448826" lon="8.1571513"><ele>237.33333333333331</ele><time>2026-04-25T09:10:14.985Z</time></trkpt><trkpt lat="45.1448214" lon="8.1571076"><ele>238.66666666666666</ele><time>2026-04-25T09:10:15.983Z</time></trkpt><trkpt lat="45.1447157" lon="8.1570191"><ele>240.0</ele><time>2026-04-25T09:10:17.985Z</time></trkpt><trkpt lat="45.1446445" lon="8.157001"><ele>234.8</ele><time>2026-04-25T09:10:19.989Z</time></trkpt><trkpt lat="45.1445768" lon="8.1570553"><ele>229.6</ele><time>2026-04-25T09:10:22.004Z</time></trkpt><trkpt lat="45.1445391" lon="8.157208"><ele>224.39999999999998</ele><time>2026-04-25T09:10:23.987Z</time></trkpt><trkpt lat="45.1445188" lon="8.1573183"><ele>219.2</ele><time>2026-04-25T09:10:24.986Z</time></trkpt><trkpt lat="45.1444972" lon="8.1574479"><ele>214.0</ele><time>2026-04-25T09:10:25.99Z</time></trkpt><trkpt lat="45.1444757" lon="8.1575804"><ele>214.33333333333331</ele><time>2026-04-25T09:10:26.983Z</time></trkpt><trkpt lat="45.1444557" lon="8.1577029"><ele>214.66666666666666</ele><time>2026-04-25T09:10:27.985Z</time></trkpt><trkpt lat="45.1444362" lon="8.1578191"><ele>215.0</ele><time>2026-04-25T09:10:28.99Z</time></trkpt><trkpt lat="45.1444171" lon="8.1579278"><ele>215.33333333333331</ele><time>2026-04-25T09:10:29.987Z</time></trkpt><trkpt lat="45.1443974" lon="8.1580294"><ele>215.66666666666666</ele><time>2026-04-25T09:10:30.979Z</time></trkpt><trkpt lat="45.1443814" lon="8.1581182"><ele>216.0</ele><time>2026-04-25T09:10:31.982Z</time></trkpt><trkpt lat="45.1443346" lon="8.1582493"><ele>216.0</ele><time>2026-04-25T09:10:33.98Z</time></trkpt><trkpt lat="45.1442578" lon="8.1583026"><ele>216.00000000000003</ele><time>2026-04-25T09:10:35.984Z</time></trkpt><trkpt lat="45.1441642" lon="8.1583034"><ele>216.00000000000003</ele><time>2026-04-25T09:10:38.003Z</time></trkpt><trkpt lat="45.1440679" lon="8.1582703"><ele>216.0</ele><time>2026-04-25T09:10:39.983Z</time></trkpt><trkpt lat="45.1439927" lon="8.1582317"><ele>216.0</ele><time>2026-04-25T09:10:41.982Z</time></trkpt><trkpt lat="45.1438976" lon="8.1581529"><ele>211.20000000000002</ele><time>2026-04-25T09:10:43.982Z</time></trkpt><trkpt lat="45.1438122" lon="8.1580603"><ele>206.40000000000003</ele><time>2026-04-25T09:10:45.981Z</time></trkpt><trkpt lat="45.1437256" lon="8.1579714"><ele>201.6</ele><time>2026-04-25T09:10:47.988Z</time></trkpt><trkpt lat="45.1436117" lon="8.157933"><ele>196.8</ele><time>2026-04-25T09:10:50.008Z</time></trkpt><trkpt lat="45.1435236" lon="8.157949"><ele>192.0</ele><time>2026-04-25T09:10:50.985Z</time></trkpt><trkpt lat="45.1434499" lon="8.1579698"><ele>191.99999999999997</ele><time>2026-04-25T09:10:51.983Z</time></trkpt><trkpt lat="45.1433867" lon="8.1579941"><ele>192.0</ele><time>2026-04-25T09:10:52.982Z</time></trkpt><trkpt lat="45.1433261" lon="8.1580188"><ele>192.0</ele><time>2026-04-25T09:10:53.982Z</time></trkpt><trkpt lat="45.1432673" lon="8.158054"><ele>192.0</ele><time>2026-04-25T09:10:55.01Z</time></trkpt><trkpt lat="45.1432104" lon="8.1581069"><ele>192.0</ele><time>2026-04-25T09:10:55.992Z</time></trkpt><trkpt lat="45.1431539" lon="8.1581726"><ele>191.99999999999997</ele><time>2026-04-25T09:10:56.984Z</time></trkpt><trkpt lat="45.1431029" lon="8.158244"><ele>192.0</ele><time>2026-04-25T09:10:57.985Z</time></trkpt><trkpt lat="45.1430528" lon="8.1583149"><ele>190.6</ele><time>2026-04-25T09:10:58.981Z</time></trkpt><trkpt lat="45.1430034" lon="8.1583831"><ele>189.2</ele><time>2026-04-25T09:10:59.994Z</time></trkpt><trkpt lat="45.1429027" lon="8.1584493"><ele>187.8</ele><time>2026-04-25T09:11:01.986Z</time></trkpt><trkpt lat="45.1428086" lon="8.1585237"><ele>186.4</ele><time>2026-04-25T09:11:03.983Z</time></trkpt><trkpt lat="45.1427666" lon="8.1586797"><ele>185.0</ele><time>2026-04-25T09:11:05.988Z</time></trkpt><trkpt lat="45.1427437" lon="8.1588115"><ele>185.0</ele><time>2026-04-25T09:11:07.989Z</time></trkpt><trkpt lat="45.1426731" lon="8.1588836"><ele>185.0</ele><time>2026-04-25T09:11:10.983Z</time></trkpt><trkpt lat="45.1426073" lon="8.1589"><ele>185.0</ele><time>2026-04-25T09:11:11.985Z</time></trkpt><trkpt lat="45.1425406" lon="8.1589509"><ele>185.0</ele><time>2026-04-25T09:11:12.984Z</time></trkpt><trkpt lat="45.1424561" lon="8.1590091"><ele>185.0</ele><time>2026-04-25T09:11:13.994Z</time></trkpt><trkpt lat="45.142368" lon="8.1590211"><ele>185.0</ele><time>2026-04-25T09:11:14.987Z</time></trkpt><trkpt lat="45.1422769" lon="8.1590455"><ele>184.16666666666666</ele><time>2026-04-25T09:11:15.983Z</time></trkpt><trkpt lat="45.1421835" lon="8.1590452"><ele>183.33333333333331</ele><time>2026-04-25T09:11:16.982Z</time></trkpt><trkpt lat="45.1420991" lon="8.1590499"><ele>182.5</ele><time>2026-04-25T09:11:17.983Z</time></trkpt><trkpt lat="45.1420162" lon="8.1590591"><ele>181.66666666666666</ele><time>2026-04-25T09:11:19.025Z</time></trkpt><trkpt lat="45.1419444" lon="8.1590558"><ele>180.83333333333334</ele><time>2026-04-25T09:11:19.987Z</time></trkpt><trkpt lat="45.141873" lon="8.1590529"><ele>180.0</ele><time>2026-04-25T09:11:20.984Z</time></trkpt><trkpt lat="45.1418089" lon="8.1590506"><ele>180.0</ele><time>2026-04-25T09:11:21.979Z</time></trkpt><trkpt lat="45.1416875" lon="8.1590702"><ele>180.0</ele><time>2026-04-25T09:11:24.004Z</time></trkpt><trkpt lat="45.1416096" lon="8.159128"><ele>180.0</ele><time>2026-04-25T09:11:25.984Z</time></trkpt><trkpt lat="45.1415671" lon="8.159255"><ele>180.0</ele><time>2026-04-25T09:11:27.986Z</time></trkpt><trkpt lat="45.1415504" lon="8.1593702"><ele>180.0</ele><time>2026-04-25T09:11:28.983Z</time></trkpt><trkpt lat="45.1415312" lon="8.1594989"><ele>180.0</ele><time>2026-04-25T09:11:29.984Z</time></trkpt><trkpt lat="45.141523" lon="8.1596488"><ele>180.0</ele><time>2026-04-25T09:11:30.981Z</time></trkpt><trkpt lat="45.1415148" lon="8.1597842"><ele>180.0</ele><time>2026-04-25T09:11:31.985Z</time></trkpt><trkpt lat="45.1415075" lon="8.1598993"><ele>180.0</ele><time>2026-04-25T09:11:32.983Z</time></trkpt><trkpt lat="45.1415173" lon="8.160066"><ele>180.0</ele><time>2026-04-25T09:11:34.991Z</time></trkpt><trkpt lat="45.1415288" lon="8.160164"><ele>180.0</ele><time>2026-04-25T09:11:35.982Z</time></trkpt><trkpt lat="45.1415495" lon="8.1602924"><ele>180.0</ele><time>2026-04-25T09:11:36.983Z</time></trkpt><trkpt lat="45.1415871" lon="8.1604406"><ele>180.0</ele><time>2026-04-25T09:11:37.984Z</time></trkpt><trkpt lat="45.1416238" lon="8.1605956"><ele>180.0</ele><time>2026-04-25T09:11:38.981Z</time></trkpt><trkpt lat="45.1416609" lon="8.1607256"><ele>180.0</ele><time>2026-04-25T09:11:39.983Z</time></trkpt><trkpt lat="45.1416874" lon="8.1608389"><ele>179.66666666666666</ele><time>2026-04-25T09:11:40.992Z</time></trkpt><trkpt lat="45.1416882" lon="8.1609359"><ele>179.33333333333334</ele><time>2026-04-25T09:11:41.985Z</time></trkpt><trkpt lat="45.1416615" lon="8.1610193"><ele>179.0</ele><time>2026-04-25T09:11:43.002Z</time></trkpt><trkpt lat="45.1416094" lon="8.1610977"><ele>178.66666666666669</ele><time>2026-04-25T09:11:43.984Z</time></trkpt><trkpt lat="45.1415325" lon="8.1611694"><ele>178.33333333333334</ele><time>2026-04-25T09:11:44.983Z</time></trkpt><trkpt lat="45.1414298" lon="8.161246"><ele>178.0</ele><time>2026-04-25T09:11:45.985Z</time></trkpt><trkpt lat="45.1413107" lon="8.1613339"><ele>176.0</ele><time>2026-04-25T09:11:46.982Z</time></trkpt><trkpt lat="45.1411821" lon="8.1614338"><ele>174.0</ele><time>2026-04-25T09:11:48.012Z</time></trkpt><trkpt lat="45.1410392" lon="8.1615484"><ele>172.0</ele><time>2026-04-25T09:11:48.987Z</time></trkpt><trkpt lat="45.1408918" lon="8.1616653"><ele>171.66666666666669</ele><time>2026-04-25T09:11:49.988Z</time></trkpt><trkpt lat="45.1407483" lon="8.1617768"><ele>171.33333333333334</ele><time>2026-04-25T09:11:50.983Z</time></trkpt><trkpt lat="45.1406165" lon="8.1618817"><ele>171.0</ele><time>2026-04-25T09:11:51.983Z</time></trkpt><trkpt lat="45.1404948" lon="8.161977"><ele>171.4</ele><time>2026-04-25T09:11:52.982Z</time></trkpt><trkpt lat="45.1403824" lon="8.1620634"><ele>171.8</ele><time>2026-04-25T09:11:53.979Z</time></trkpt><trkpt lat="45.1402785" lon="8.1621432"><ele>172.20000000000002</ele><time>2026-04-25T09:11:54.993Z</time></trkpt><trkpt lat="45.140186" lon="8.1622153"><ele>172.60000000000002</ele><time>2026-04-25T09:11:55.982Z</time></trkpt><trkpt lat="45.140109" lon="8.1622743"><ele>173.0</ele><time>2026-04-25T09:11:56.98Z</time></trkpt><trkpt lat="45.140044" lon="8.1623273"><ele>173.2</ele><time>2026-04-25T09:11:57.98Z</time></trkpt><trkpt lat="45.1399637" lon="8.1624147"><ele>173.4</ele><time>2026-04-25T09:11:59.987Z</time></trkpt><trkpt lat="45.1399112" lon="8.1624978"><ele>173.6</ele><time>2026-04-25T09:12:07.982Z</time></trkpt><trkpt lat="45.1398469" lon="8.1626551"><ele>173.79999999999998</ele><time>2026-04-25T09:12:09.982Z</time></trkpt><trkpt lat="45.1398028" lon="8.1627826"><ele>174.0</ele><time>2026-04-25T09:12:10.987Z</time></trkpt><trkpt lat="45.1397549" lon="8.1629278"><ele>174.5</ele><time>2026-04-25T09:12:11.991Z</time></trkpt><trkpt lat="45.1397003" lon="8.163099"><ele>175.0</ele><time>2026-04-25T09:12:12.985Z</time></trkpt><trkpt lat="45.1396371" lon="8.1632892"><ele>175.5</ele><time>2026-04-25T09:12:13.986Z</time></trkpt><trkpt lat="45.1395671" lon="8.1634923"><ele>176.0</ele><time>2026-04-25T09:12:14.983Z</time></trkpt><trkpt lat="45.1394865" lon="8.1637125"><ele>176.0</ele><time>2026-04-25T09:12:15.989Z</time></trkpt><trkpt lat="45.1393939" lon="8.1639363"><ele>176.0</ele><time>2026-04-25T09:12:16.985Z</time></trkpt><trkpt lat="45.1392839" lon="8.1641526"><ele>176.0</ele><time>2026-04-25T09:12:18.004Z</time></trkpt><trkpt lat="45.1391562" lon="8.1643546"><ele>177.0</ele><time>2026-04-25T09:12:18.987Z</time></trkpt><trkpt lat="45.1390254" lon="8.1645383"><ele>178.0</ele><time>2026-04-25T09:12:19.987Z</time></trkpt><trkpt lat="45.1388983" lon="8.1647148"><ele>179.0</ele><time>2026-04-25T09:12:20.985Z</time></trkpt><trkpt lat="45.1387811" lon="8.1648956"><ele>180.0</ele><time>2026-04-25T09:12:21.984Z</time></trkpt><trkpt lat="45.1386763" lon="8.1650957"><ele>181.0</ele><time>2026-04-25T09:12:22.986Z</time></trkpt><trkpt lat="45.1385748" lon="8.1653112"><ele>182.0</ele><time>2026-04-25T09:12:23.986Z</time></trkpt><trkpt lat="45.1384965" lon="8.1655506"><ele>185.66666666666666</ele><time>2026-04-25T09:12:24.997Z</time></trkpt><trkpt lat="45.1384157" lon="8.1658097"><ele>189.33333333333331</ele><time>2026-04-25T09:12:25.983Z</time></trkpt><trkpt lat="45.1383316" lon="8.166067"><ele>193.0</ele><time>2026-04-25T09:12:26.986Z</time></trkpt><trkpt lat="45.138248" lon="8.1663171"><ele>194.33333333333331</ele><time>2026-04-25T09:12:27.989Z</time></trkpt><trkpt lat="45.1381676" lon="8.1665621"><ele>195.66666666666669</ele><time>2026-04-25T09:12:28.982Z</time></trkpt><trkpt lat="45.1380945" lon="8.1668042"><ele>197.0</ele><time>2026-04-25T09:12:30Z</time></trkpt><trkpt lat="45.1380315" lon="8.1670442"><ele>197.0</ele><time>2026-04-25T09:12:30.981Z</time></trkpt><trkpt lat="45.1379802" lon="8.1672748"><ele>197.0</ele><time>2026-04-25T09:12:31.987Z</time></trkpt><trkpt lat="45.137938" lon="8.1674867"><ele>197.0</ele><time>2026-04-25T09:12:32.982Z</time></trkpt><trkpt lat="45.1378939" lon="8.1676857"><ele>198.5</ele><time>2026-04-25T09:12:33.983Z</time></trkpt><trkpt lat="45.1378289" lon="8.1678653"><ele>200.0</ele><time>2026-04-25T09:12:34.983Z</time></trkpt><trkpt lat="45.1377401" lon="8.1680187"><ele>201.5</ele><time>2026-04-25T09:12:35.984Z</time></trkpt><trkpt lat="45.1376309" lon="8.1681538"><ele>203.0</ele><time>2026-04-25T09:12:36.986Z</time></trkpt><trkpt lat="45.1375106" lon="8.1682799"><ele>205.0</ele><time>2026-04-25T09:12:37.987Z</time></trkpt><trkpt lat="45.1373885" lon="8.1684048"><ele>207.0</ele><time>2026-04-25T09:12:38.981Z</time></trkpt><trkpt lat="45.1372773" lon="8.1685176"><ele>209.0</ele><time>2026-04-25T09:12:39.979Z</time></trkpt><trkpt lat="45.1371716" lon="8.168609"><ele>211.0</ele><time>2026-04-25T09:12:40.982Z</time></trkpt><trkpt lat="45.1370689" lon="8.1686559"><ele>213.0</ele><time>2026-04-25T09:12:41.986Z</time></trkpt><trkpt lat="45.1369704" lon="8.1686478"><ele>215.0</ele><time>2026-04-25T09:12:42.98Z</time></trkpt><trkpt lat="45.13688" lon="8.168587"><ele>217.00000000000003</ele><time>2026-04-25T09:12:43.998Z</time></trkpt><trkpt lat="45.1368099" lon="8.1684793"><ele>219.0</ele><time>2026-04-25T09:12:44.984Z</time></trkpt><trkpt lat="45.1367545" lon="8.1683489"><ele>221.0</ele><time>2026-04-25T09:12:45.981Z</time></trkpt><trkpt lat="45.1366975" lon="8.1682427"><ele>220.16666666666669</ele><time>2026-04-25T09:12:46.985Z</time></trkpt><trkpt lat="45.1366317" lon="8.1681822"><ele>219.33333333333334</ele><time>2026-04-25T09:12:47.988Z</time></trkpt><trkpt lat="45.1365614" lon="8.168172"><ele>218.5</ele><time>2026-04-25T09:12:48.987Z</time></trkpt><trkpt lat="45.136498" lon="8.1682108"><ele>217.66666666666669</ele><time>2026-04-25T09:12:50Z</time></trkpt><trkpt lat="45.1364532" lon="8.1682993"><ele>216.83333333333334</ele><time>2026-04-25T09:12:50.983Z</time></trkpt><trkpt lat="45.1364344" lon="8.1684287"><ele>216.0</ele><time>2026-04-25T09:12:51.98Z</time></trkpt><trkpt lat="45.1364482" lon="8.1685915"><ele>221.33333333333331</ele><time>2026-04-25T09:12:52.984Z</time></trkpt><trkpt lat="45.1364897" lon="8.1687819"><ele>226.66666666666666</ele><time>2026-04-25T09:12:53.979Z</time></trkpt><trkpt lat="45.1365454" lon="8.1689934"><ele>232.0</ele><time>2026-04-25T09:12:54.982Z</time></trkpt><trkpt lat="45.1366377" lon="8.1692082"><ele>232.0</ele><time>2026-04-25T09:12:55.98Z</time></trkpt><trkpt lat="45.1367455" lon="8.1693922"><ele>232.0</ele><time>2026-04-25T09:12:57.001Z</time></trkpt><trkpt lat="45.1368533" lon="8.1695563"><ele>232.0</ele><time>2026-04-25T09:12:57.982Z</time></trkpt><trkpt lat="45.136953" lon="8.1696625"><ele>232.0</ele><time>2026-04-25T09:12:58.983Z</time></trkpt><trkpt lat="45.1370397" lon="8.1697414"><ele>232.0</ele><time>2026-04-25T09:12:59.983Z</time></trkpt><trkpt lat="45.1371392" lon="8.1697698"><ele>232.0</ele><time>2026-04-25T09:13:00.98Z</time></trkpt><trkpt lat="45.1372607" lon="8.1697626"><ele>232.0</ele><time>2026-04-25T09:13:02.007Z</time></trkpt><trkpt lat="45.1373899" lon="8.1696967"><ele>230.6</ele><time>2026-04-25T09:13:02.983Z</time></trkpt><trkpt lat="45.1374997" lon="8.1696398"><ele>229.2</ele><time>2026-04-25T09:13:03.984Z</time></trkpt><trkpt lat="45.1376031" lon="8.1696057"><ele>227.8</ele><time>2026-04-25T09:13:04.987Z</time></trkpt><trkpt lat="45.1376981" lon="8.1696103"><ele>226.4</ele><time>2026-04-25T09:13:05.982Z</time></trkpt><trkpt lat="45.1377827" lon="8.1696512"><ele>225.0</ele><time>2026-04-25T09:13:07.007Z</time></trkpt><trkpt lat="45.137857" lon="8.1697301"><ele>225.0</ele><time>2026-04-25T09:13:07.983Z</time></trkpt><trkpt lat="45.137936" lon="8.1698241"><ele>225.0</ele><time>2026-04-25T09:13:08.983Z</time></trkpt><trkpt lat="45.1380207" lon="8.1699211"><ele>225.0</ele><time>2026-04-25T09:13:09.986Z</time></trkpt><trkpt lat="45.1381111" lon="8.1700113"><ele>225.0</ele><time>2026-04-25T09:13:10.985Z</time></trkpt><trkpt lat="45.1382123" lon="8.1700841"><ele>225.0</ele><time>2026-04-25T09:13:11.99Z</time></trkpt><trkpt lat="45.1383168" lon="8.1701291"><ele>226.4</ele><time>2026-04-25T09:13:12.984Z</time></trkpt><trkpt lat="45.1384111" lon="8.1701343"><ele>227.8</ele><time>2026-04-25T09:13:14.002Z</time></trkpt><trkpt lat="45.1384983" lon="8.1700963"><ele>229.2</ele><time>2026-04-25T09:13:14.983Z</time></trkpt><trkpt lat="45.1385754" lon="8.1700197"><ele>230.6</ele><time>2026-04-25T09:13:15.985Z</time></trkpt><trkpt lat="45.138639" lon="8.1699129"><ele>232.0</ele><time>2026-04-25T09:13:16.986Z</time></trkpt><trkpt lat="45.1386945" lon="8.169801"><ele>231.99999999999997</ele><time>2026-04-25T09:13:17.982Z</time></trkpt><trkpt lat="45.1387508" lon="8.1697067"><ele>232.0</ele><time>2026-04-25T09:13:19.01Z</time></trkpt><trkpt lat="45.1388173" lon="8.169638"><ele>232.0</ele><time>2026-04-25T09:13:19.987Z</time></trkpt><trkpt lat="45.1388926" lon="8.1696163"><ele>232.0</ele><time>2026-04-25T09:13:20.978Z</time></trkpt><trkpt lat="45.1389667" lon="8.1696458"><ele>231.99999999999997</ele><time>2026-04-25T09:13:21.987Z</time></trkpt><trkpt lat="45.1390193" lon="8.1697178"><ele>232.0</ele><time>2026-04-25T09:13:22.984Z</time></trkpt><trkpt lat="45.1390386" lon="8.1698182"><ele>234.5</ele><time>2026-04-25T09:13:24.014Z</time></trkpt><trkpt lat="45.1390255" lon="8.1699412"><ele>237.0</ele><time>2026-04-25T09:13:24.987Z</time></trkpt><trkpt lat="45.1389836" lon="8.1700856"><ele>239.5</ele><time>2026-04-25T09:13:25.983Z</time></trkpt><trkpt lat="45.1389194" lon="8.1702546"><ele>242.0</ele><time>2026-04-25T09:13:26.983Z</time></trkpt><trkpt lat="45.1388468" lon="8.1704358"><ele>242.0</ele><time>2026-04-25T09:13:27.981Z</time></trkpt><trkpt lat="45.1387735" lon="8.1706351"><ele>242.0</ele><time>2026-04-25T09:13:28.985Z</time></trkpt><trkpt lat="45.1387098" lon="8.1708186"><ele>242.0</ele><time>2026-04-25T09:13:29.984Z</time></trkpt><trkpt lat="45.138641" lon="8.1709675"><ele>242.0</ele><time>2026-04-25T09:13:30.983Z</time></trkpt><trkpt lat="45.1385532" lon="8.1710813"><ele>245.25</ele><time>2026-04-25T09:13:32.003Z</time></trkpt><trkpt lat="45.1384457" lon="8.1711568"><ele>248.5</ele><time>2026-04-25T09:13:32.985Z</time></trkpt><trkpt lat="45.1383246" lon="8.1711909"><ele>251.75</ele><time>2026-04-25T09:13:33.985Z</time></trkpt><trkpt lat="45.1381993" lon="8.1711968"><ele>255.0</ele><time>2026-04-25T09:13:34.988Z</time></trkpt><trkpt lat="45.1380712" lon="8.1712032"><ele>255.0</ele><time>2026-04-25T09:13:35.981Z</time></trkpt><trkpt lat="45.1379403" lon="8.1712303"><ele>255.0</ele><time>2026-04-25T09:13:36.998Z</time></trkpt><trkpt lat="45.1378096" lon="8.171281"><ele>255.0</ele><time>2026-04-25T09:13:37.982Z</time></trkpt><trkpt lat="45.1376784" lon="8.1713481"><ele>255.0</ele><time>2026-04-25T09:13:38.975Z</time></trkpt><trkpt lat="45.1375487" lon="8.1714245"><ele>255.0</ele><time>2026-04-25T09:13:39.983Z</time></trkpt><trkpt lat="45.1374212" lon="8.1715053"><ele>255.0</ele><time>2026-04-25T09:13:40.986Z</time></trkpt><trkpt lat="45.1372976" lon="8.1715802"><ele>255.0</ele><time>2026-04-25T09:13:41.98Z</time></trkpt><trkpt lat="45.1371749" lon="8.1716388"><ele>255.0</ele><time>2026-04-25T09:13:42.991Z</time></trkpt><trkpt lat="45.1370569" lon="8.1716684"><ele>257.5</ele><time>2026-04-25T09:13:43.987Z</time></trkpt><trkpt lat="45.1369428" lon="8.1716572"><ele>260.0</ele><time>2026-04-25T09:13:44.986Z</time></trkpt><trkpt lat="45.13683" lon="8.1716409"><ele>262.5</ele><time>2026-04-25T09:13:45.982Z</time></trkpt><trkpt lat="45.1367248" lon="8.1715477"><ele>265.0</ele><time>2026-04-25T09:13:46.981Z</time></trkpt><trkpt lat="45.1366161" lon="8.1714429"><ele>271.25</ele><time>2026-04-25T09:13:48.012Z</time></trkpt><trkpt lat="45.1364974" lon="8.1713675"><ele>277.5</ele><time>2026-04-25T09:13:48.983Z</time></trkpt><trkpt lat="45.1363694" lon="8.1712805"><ele>283.75</ele><time>2026-04-25T09:13:49.982Z</time></trkpt><trkpt lat="45.1362239" lon="8.1712381"><ele>290.0</ele><time>2026-04-25T09:13:50.982Z</time></trkpt><trkpt lat="45.1360726" lon="8.1711815"><ele>290.0</ele><time>2026-04-25T09:13:51.983Z</time></trkpt><trkpt lat="45.1359189" lon="8.1711098"><ele>290.0</ele><time>2026-04-25T09:13:52.998Z</time></trkpt><trkpt lat="45.1357726" lon="8.1710002"><ele>290.0</ele><time>2026-04-25T09:13:53.986Z</time></trkpt><trkpt lat="45.1356384" lon="8.1708603"><ele>293.6666666666667</ele><time>2026-04-25T09:13:54.979Z</time></trkpt><trkpt lat="45.1355252" lon="8.1706987"><ele>297.3333333333333</ele><time>2026-04-25T09:13:55.985Z</time></trkpt><trkpt lat="45.1354146" lon="8.1705391"><ele>301.0</ele><time>2026-04-25T09:13:56.98Z</time></trkpt><trkpt lat="45.1352944" lon="8.1703911"><ele>301.0</ele><time>2026-04-25T09:13:57.995Z</time></trkpt><trkpt lat="45.1351808" lon="8.1702438"><ele>301.0</ele><time>2026-04-25T09:13:58.982Z</time></trkpt><trkpt lat="45.1350839" lon="8.1701056"><ele>301.0</ele><time>2026-04-25T09:13:59.984Z</time></trkpt><trkpt lat="45.135003" lon="8.1699878"><ele>301.0</ele><time>2026-04-25T09:14:00.983Z</time></trkpt><trkpt lat="45.1349277" lon="8.169869"><ele>299.40000000000003</ele><time>2026-04-25T09:14:01.989Z</time></trkpt><trkpt lat="45.134859" lon="8.1697518"><ele>297.8</ele><time>2026-04-25T09:14:02.98Z</time></trkpt><trkpt lat="45.1347992" lon="8.1696519"><ele>296.20000000000005</ele><time>2026-04-25T09:14:04Z</time></trkpt><trkpt lat="45.1347497" lon="8.1695738"><ele>294.6</ele><time>2026-04-25T09:14:04.987Z</time></trkpt><trkpt lat="45.1346582" lon="8.1695588"><ele>293.0</ele><time>2026-04-25T09:14:06.983Z</time></trkpt><trkpt lat="45.1345916" lon="8.1696934"><ele>293.0</ele><time>2026-04-25T09:14:08.992Z</time></trkpt><trkpt lat="45.1345624" lon="8.1697861"><ele>293.0</ele><time>2026-04-25T09:14:09.986Z</time></trkpt><trkpt lat="45.1345186" lon="8.1698802"><ele>293.0</ele><time>2026-04-25T09:14:10.996Z</time></trkpt><trkpt lat="45.134458" lon="8.1699774"><ele>293.0</ele><time>2026-04-25T09:14:11.986Z</time></trkpt><trkpt lat="45.1343945" lon="8.1700806"><ele>293.0</ele><time>2026-04-25T09:14:12.982Z</time></trkpt><trkpt lat="45.1343393" lon="8.1701887"><ele>293.0</ele><time>2026-04-25T09:14:13.981Z</time></trkpt><trkpt lat="45.1342948" lon="8.1703033"><ele>293.6666666666667</ele><time>2026-04-25T09:14:14.985Z</time></trkpt><trkpt lat="45.1342569" lon="8.1704177"><ele>294.33333333333337</ele><time>2026-04-25T09:14:15.981Z</time></trkpt><trkpt lat="45.1342187" lon="8.1705215"><ele>295.0</ele><time>2026-04-25T09:14:16.993Z</time></trkpt><trkpt lat="45.1341819" lon="8.1706114"><ele>295.6666666666667</ele><time>2026-04-25T09:14:17.987Z</time></trkpt><trkpt lat="45.1341235" lon="8.1706674"><ele>296.3333333333333</ele><time>2026-04-25T09:14:18.992Z</time></trkpt><trkpt lat="45.1340533" lon="8.170676"><ele>297.0</ele><time>2026-04-25T09:14:19.985Z</time></trkpt><trkpt lat="45.1339809" lon="8.1707003"><ele>293.6666666666667</ele><time>2026-04-25T09:14:20.976Z</time></trkpt><trkpt lat="45.1339135" lon="8.1707264"><ele>290.3333333333333</ele><time>2026-04-25T09:14:21.981Z</time></trkpt><trkpt lat="45.1338006" lon="8.1707987"><ele>287.0</ele><time>2026-04-25T09:14:24.004Z</time></trkpt><trkpt lat="45.1337547" lon="8.1708658"><ele>283.66666666666663</ele><time>2026-04-25T09:14:24.983Z</time></trkpt><trkpt lat="45.1337275" lon="8.1709516"><ele>280.3333333333333</ele><time>2026-04-25T09:14:25.983Z</time></trkpt><trkpt lat="45.133702" lon="8.1710489"><ele>277.0</ele><time>2026-04-25T09:14:26.981Z</time></trkpt><trkpt lat="45.133683" lon="8.1711495"><ele>277.0</ele><time>2026-04-25T09:14:27.983Z</time></trkpt><trkpt lat="45.1336646" lon="8.1712449"><ele>277.0</ele><time>2026-04-25T09:14:28.999Z</time></trkpt><trkpt lat="45.133656" lon="8.171337"><ele>277.0</ele><time>2026-04-25T09:14:29.984Z</time></trkpt><trkpt lat="45.1336926" lon="8.1715019"><ele>277.0</ele><time>2026-04-25T09:14:31.983Z</time></trkpt><trkpt lat="45.1337244" lon="8.1715826"><ele>277.0</ele><time>2026-04-25T09:14:32.994Z</time></trkpt><trkpt lat="45.1337872" lon="8.1716615"><ele>277.0</ele><time>2026-04-25T09:14:33.987Z</time></trkpt><trkpt lat="45.1338439" lon="8.1717664"><ele>276.4</ele><time>2026-04-25T09:14:34.983Z</time></trkpt><trkpt lat="45.1339105" lon="8.1718642"><ele>275.79999999999995</ele><time>2026-04-25T09:14:35.988Z</time></trkpt><trkpt lat="45.1339703" lon="8.1719708"><ele>275.2</ele><time>2026-04-25T09:14:36.991Z</time></trkpt><trkpt lat="45.1340336" lon="8.1720683"><ele>274.59999999999997</ele><time>2026-04-25T09:14:37.984Z</time></trkpt><trkpt lat="45.1340941" lon="8.1721688"><ele>274.0</ele><time>2026-04-25T09:14:39.006Z</time></trkpt><trkpt lat="45.1341496" lon="8.1722731"><ele>275.2</ele><time>2026-04-25T09:14:39.986Z</time></trkpt><trkpt lat="45.1342046" lon="8.1723783"><ele>276.4</ele><time>2026-04-25T09:14:40.989Z</time></trkpt><trkpt lat="45.1342524" lon="8.1724851"><ele>277.6</ele><time>2026-04-25T09:14:41.984Z</time></trkpt><trkpt lat="45.1342873" lon="8.1726068"><ele>278.8</ele><time>2026-04-25T09:14:42.983Z</time></trkpt><trkpt lat="45.1343161" lon="8.1727265"><ele>280.0</ele><time>2026-04-25T09:14:43.987Z</time></trkpt><trkpt lat="45.1343345" lon="8.1728526"><ele>280.0</ele><time>2026-04-25T09:14:44.987Z</time></trkpt><trkpt lat="45.1343502" lon="8.172983"><ele>280.0</ele><time>2026-04-25T09:14:45.982Z</time></trkpt><trkpt lat="45.1343705" lon="8.1731106"><ele>280.0</ele><time>2026-04-25T09:14:46.991Z</time></trkpt><trkpt lat="45.1343944" lon="8.1732321"><ele>280.0</ele><time>2026-04-25T09:14:47.992Z</time></trkpt><trkpt lat="45.1344165" lon="8.1733457"><ele>280.0</ele><time>2026-04-25T09:14:48.986Z</time></trkpt><trkpt lat="45.134425" lon="8.1734499"><ele>280.0</ele><time>2026-04-25T09:14:49.992Z</time></trkpt><trkpt lat="45.1344266" lon="8.1735471"><ele>278.0</ele><time>2026-04-25T09:14:50.986Z</time></trkpt><trkpt lat="45.1344379" lon="8.1736396"><ele>276.0</ele><time>2026-04-25T09:14:52.008Z</time></trkpt><trkpt lat="45.1344686" lon="8.1737255"><ele>274.0</ele><time>2026-04-25T09:14:52.994Z</time></trkpt><trkpt lat="45.1345177" lon="8.1738016"><ele>272.0</ele><time>2026-04-25T09:14:53.987Z</time></trkpt><trkpt lat="45.1345674" lon="8.1738632"><ele>270.0</ele><time>2026-04-25T09:14:54.99Z</time></trkpt><trkpt lat="45.1346195" lon="8.1739708"><ele>268.0</ele><time>2026-04-25T09:14:56.985Z</time></trkpt><trkpt lat="45.1346207" lon="8.1741121"><ele>265.8333333333333</ele><time>2026-04-25T09:14:58.985Z</time></trkpt><trkpt lat="45.1345952" lon="8.1742063"><ele>263.66666666666663</ele><time>2026-04-25T09:14:59.99Z</time></trkpt><trkpt lat="45.1345635" lon="8.1743173"><ele>261.5</ele><time>2026-04-25T09:15:00.989Z</time></trkpt><trkpt lat="45.1345387" lon="8.1744181"><ele>259.3333333333333</ele><time>2026-04-25T09:15:01.985Z</time></trkpt><trkpt lat="45.1345215" lon="8.1745172"><ele>257.1666666666667</ele><time>2026-04-25T09:15:03.008Z</time></trkpt><trkpt lat="45.1345085" lon="8.1746884"><ele>255.0</ele><time>2026-04-25T09:15:04.987Z</time></trkpt><trkpt lat="45.1345162" lon="8.174782"><ele>251.25</ele><time>2026-04-25T09:15:05.99Z</time></trkpt><trkpt lat="45.1345615" lon="8.1749467"><ele>247.5</ele><time>2026-04-25T09:15:08.002Z</time></trkpt><trkpt lat="45.1346221" lon="8.1750963"><ele>243.75</ele><time>2026-04-25T09:15:09.988Z</time></trkpt><trkpt lat="45.1346879" lon="8.1752556"><ele>240.0</ele><time>2026-04-25T09:15:11.987Z</time></trkpt><trkpt lat="45.1347036" lon="8.175362"><ele>240.0</ele><time>2026-04-25T09:15:13.008Z</time></trkpt><trkpt lat="45.134693" lon="8.1754787"><ele>240.0</ele><time>2026-04-25T09:15:13.989Z</time></trkpt><trkpt lat="45.1346757" lon="8.1756069"><ele>240.0</ele><time>2026-04-25T09:15:14.986Z</time></trkpt><trkpt lat="45.1346605" lon="8.1757553"><ele>240.0</ele><time>2026-04-25T09:15:15.981Z</time></trkpt><trkpt lat="45.1346458" lon="8.1758962"><ele>240.0</ele><time>2026-04-25T09:15:16.982Z</time></trkpt><trkpt lat="45.1346439" lon="8.1760363"><ele>237.83333333333334</ele><time>2026-04-25T09:15:17.988Z</time></trkpt><trkpt lat="45.1346373" lon="8.1761636"><ele>235.66666666666669</ele><time>2026-04-25T09:15:18.987Z</time></trkpt><trkpt lat="45.1346325" lon="8.1762775"><ele>233.5</ele><time>2026-04-25T09:15:19.987Z</time></trkpt><trkpt lat="45.1346245" lon="8.1763701"><ele>231.33333333333334</ele><time>2026-04-25T09:15:20.98Z</time></trkpt><trkpt lat="45.1345749" lon="8.176516"><ele>229.16666666666669</ele><time>2026-04-25T09:15:22.986Z</time></trkpt><trkpt lat="45.1345243" lon="8.176579"><ele>227.0</ele><time>2026-04-25T09:15:23.983Z</time></trkpt><trkpt lat="45.134469" lon="8.1766325"><ele>227.0</ele><time>2026-04-25T09:15:24.982Z</time></trkpt><trkpt lat="45.1343525" lon="8.1766475"><ele>227.0</ele><time>2026-04-25T09:15:26.985Z</time></trkpt><trkpt lat="45.1342505" lon="8.1765563"><ele>227.0</ele><time>2026-04-25T09:15:28.99Z</time></trkpt><trkpt lat="45.1342143" lon="8.1764779"><ele>227.0</ele><time>2026-04-25T09:15:29.988Z</time></trkpt><trkpt lat="45.1341864" lon="8.1763935"><ele>227.0</ele><time>2026-04-25T09:15:30.992Z</time></trkpt><trkpt lat="45.1341309" lon="8.1762629"><ele>224.50000000000003</ele><time>2026-04-25T09:15:32.982Z</time></trkpt><trkpt lat="45.1340381" lon="8.1762001"><ele>222.0</ele><time>2026-04-25T09:15:34.993Z</time></trkpt><trkpt lat="45.133938" lon="8.1762144"><ele>219.5</ele><time>2026-04-25T09:15:37.011Z</time></trkpt><trkpt lat="45.1338563" lon="8.1763054"><ele>217.0</ele><time>2026-04-25T09:15:38.991Z</time></trkpt><trkpt lat="45.1338331" lon="8.1763964"><ele>214.50000000000003</ele><time>2026-04-25T09:15:39.987Z</time></trkpt><trkpt lat="45.1337934" lon="8.1764758"><ele>212.0</ele><time>2026-04-25T09:15:40.993Z</time></trkpt><trkpt lat="45.1337699" lon="8.1765794"><ele>210.2857142857143</ele><time>2026-04-25T09:15:41.989Z</time></trkpt><trkpt lat="45.1337467" lon="8.1766724"><ele>208.57142857142856</ele><time>2026-04-25T09:15:43.009Z</time></trkpt><trkpt lat="45.1337382" lon="8.1767741"><ele>206.85714285714286</ele><time>2026-04-25T09:15:43.991Z</time></trkpt><trkpt lat="45.1337318" lon="8.1768772"><ele>205.14285714285717</ele><time>2026-04-25T09:15:44.983Z</time></trkpt><trkpt lat="45.1337354" lon="8.1769747"><ele>203.42857142857144</ele><time>2026-04-25T09:15:45.991Z</time></trkpt><trkpt lat="45.1337564" lon="8.1770749"><ele>201.71428571428572</ele><time>2026-04-25T09:15:46.993Z</time></trkpt><trkpt lat="45.1337802" lon="8.1771687"><ele>200.0</ele><time>2026-04-25T09:15:47.988Z</time></trkpt><trkpt lat="45.1338078" lon="8.1772729"><ele>198.0</ele><time>2026-04-25T09:15:48.99Z</time></trkpt><trkpt lat="45.1338371" lon="8.1773782"><ele>196.0</ele><time>2026-04-25T09:15:49.998Z</time></trkpt><trkpt lat="45.1338606" lon="8.1774773"><ele>194.0</ele><time>2026-04-25T09:15:50.99Z</time></trkpt><trkpt lat="45.1338838" lon="8.1775645"><ele>192.0</ele><time>2026-04-25T09:15:51.987Z</time></trkpt><trkpt lat="45.1339216" lon="8.1777234"><ele>190.0</ele><time>2026-04-25T09:15:53.985Z</time></trkpt><trkpt lat="45.1339459" lon="8.1778914"><ele>190.0</ele><time>2026-04-25T09:15:55.985Z</time></trkpt><trkpt lat="45.1339265" lon="8.178"><ele>190.0</ele><time>2026-04-25T09:15:56.986Z</time></trkpt><trkpt lat="45.1338978" lon="8.1780987"><ele>190.0</ele><time>2026-04-25T09:15:57.985Z</time></trkpt><trkpt lat="45.1338716" lon="8.1781998"><ele>190.0</ele><time>2026-04-25T09:15:58.99Z</time></trkpt><trkpt lat="45.1338343" lon="8.1782912"><ele>190.0</ele><time>2026-04-25T09:15:59.983Z</time></trkpt><trkpt lat="45.1337919" lon="8.1783785"><ele>190.0</ele><time>2026-04-25T09:16:00.99Z</time></trkpt><trkpt lat="45.1337547" lon="8.1784994"><ele>189.0</ele><time>2026-04-25T09:16:01.987Z</time></trkpt><trkpt lat="45.1337059" lon="8.1786159"><ele>188.0</ele><time>2026-04-25T09:16:02.989Z</time></trkpt><trkpt lat="45.13366" lon="8.1787208"><ele>187.0</ele><time>2026-04-25T09:16:03.989Z</time></trkpt><trkpt lat="45.1336102" lon="8.1788111"><ele>186.0</ele><time>2026-04-25T09:16:04.987Z</time></trkpt><trkpt lat="45.1335562" lon="8.1788884"><ele>185.0</ele><time>2026-04-25T09:16:06.001Z</time></trkpt><trkpt lat="45.1335048" lon="8.1789433"><ele>184.0</ele><time>2026-04-25T09:16:06.985Z</time></trkpt><trkpt lat="45.1334586" lon="8.1790495"><ele>184.0</ele><time>2026-04-25T09:16:08.984Z</time></trkpt><trkpt lat="45.1334871" lon="8.179185"><ele>184.0</ele><time>2026-04-25T09:16:10.987Z</time></trkpt><trkpt lat="45.1335287" lon="8.1792657"><ele>184.0</ele><time>2026-04-25T09:16:11.992Z</time></trkpt><trkpt lat="45.1335874" lon="8.1793651"><ele>184.0</ele><time>2026-04-25T09:16:12.98Z</time></trkpt><trkpt lat="45.1336551" lon="8.1794829"><ele>184.0</ele><time>2026-04-25T09:16:13.984Z</time></trkpt><trkpt lat="45.1337271" lon="8.1796071"><ele>184.0</ele><time>2026-04-25T09:16:14.987Z</time></trkpt><trkpt lat="45.1337854" lon="8.1797511"><ele>184.0</ele><time>2026-04-25T09:16:16.012Z</time></trkpt><trkpt lat="45.1338235" lon="8.1798931"><ele>184.0</ele><time>2026-04-25T09:16:16.986Z</time></trkpt><trkpt lat="45.1338611" lon="8.1800239"><ele>184.0</ele><time>2026-04-25T09:16:17.984Z</time></trkpt><trkpt lat="45.133898" lon="8.180145"><ele>184.0</ele><time>2026-04-25T09:16:18.988Z</time></trkpt><trkpt lat="45.1339508" lon="8.1802307"><ele>183.83333333333334</ele><time>2026-04-25T09:16:19.99Z</time></trkpt><trkpt lat="45.1340125" lon="8.1802873"><ele>183.66666666666669</ele><time>2026-04-25T09:16:20.998Z</time></trkpt><trkpt lat="45.134086" lon="8.180317"><ele>183.5</ele><time>2026-04-25T09:16:21.983Z</time></trkpt><trkpt lat="45.1341722" lon="8.1803328"><ele>183.33333333333334</ele><time>2026-04-25T09:16:22.986Z</time></trkpt><trkpt lat="45.1342625" lon="8.1803396"><ele>183.16666666666666</ele><time>2026-04-25T09:16:23.979Z</time></trkpt><trkpt lat="45.1343517" lon="8.1803766"><ele>183.0</ele><time>2026-04-25T09:16:24.985Z</time></trkpt><trkpt lat="45.1344343" lon="8.1804503"><ele>182.4</ele><time>2026-04-25T09:16:25.984Z</time></trkpt><trkpt lat="45.1345106" lon="8.1805483"><ele>181.8</ele><time>2026-04-25T09:16:27.002Z</time></trkpt><trkpt lat="45.1345981" lon="8.1806452"><ele>181.2</ele><time>2026-04-25T09:16:27.985Z</time></trkpt><trkpt lat="45.1346958" lon="8.1807296"><ele>180.6</ele><time>2026-04-25T09:16:28.985Z</time></trkpt><trkpt lat="45.1347911" lon="8.1807929"><ele>180.0</ele><time>2026-04-25T09:16:29.984Z</time></trkpt><trkpt lat="45.1348902" lon="8.1808342"><ele>180.0</ele><time>2026-04-25T09:16:30.983Z</time></trkpt><trkpt lat="45.134996" lon="8.1808599"><ele>180.0</ele><time>2026-04-25T09:16:31.981Z</time></trkpt><trkpt lat="45.1351043" lon="8.1808688"><ele>180.0</ele><time>2026-04-25T09:16:32.984Z</time></trkpt><trkpt lat="45.1352129" lon="8.1808788"><ele>180.0</ele><time>2026-04-25T09:16:34.011Z</time></trkpt><trkpt lat="45.1353182" lon="8.1809102"><ele>180.0</ele><time>2026-04-25T09:16:34.982Z</time></trkpt><trkpt lat="45.1354176" lon="8.1809637"><ele>180.0</ele><time>2026-04-25T09:16:35.983Z</time></trkpt><trkpt lat="45.1355144" lon="8.1810247"><ele>180.0</ele><time>2026-04-25T09:16:36.982Z</time></trkpt><trkpt lat="45.1356068" lon="8.1810781"><ele>180.0</ele><time>2026-04-25T09:16:37.991Z</time></trkpt><trkpt lat="45.1357021" lon="8.18111"><ele>180.0</ele><time>2026-04-25T09:16:38.985Z</time></trkpt><trkpt lat="45.1357996" lon="8.1811404"><ele>180.0</ele><time>2026-04-25T09:16:39.982Z</time></trkpt><trkpt lat="45.1359061" lon="8.1811191"><ele>179.2</ele><time>2026-04-25T09:16:40.985Z</time></trkpt><trkpt lat="45.1360174" lon="8.1810862"><ele>178.4</ele><time>2026-04-25T09:16:41.991Z</time></trkpt><trkpt lat="45.1361211" lon="8.1810696"><ele>177.60000000000002</ele><time>2026-04-25T09:16:42.981Z</time></trkpt><trkpt lat="45.1362195" lon="8.1810796"><ele>176.8</ele><time>2026-04-25T09:16:43.983Z</time></trkpt><trkpt lat="45.1363154" lon="8.1811192"><ele>176.0</ele><time>2026-04-25T09:16:44.982Z</time></trkpt><trkpt lat="45.1364068" lon="8.1811771"><ele>176.0</ele><time>2026-04-25T09:16:45.985Z</time></trkpt><trkpt lat="45.1365044" lon="8.1812433"><ele>176.0</ele><time>2026-04-25T09:16:46.982Z</time></trkpt><trkpt lat="45.1366099" lon="8.1813072"><ele>176.0</ele><time>2026-04-25T09:16:47.987Z</time></trkpt><trkpt lat="45.1367243" lon="8.1813657"><ele>176.0</ele><time>2026-04-25T09:16:48.986Z</time></trkpt><trkpt lat="45.1368391" lon="8.1814189"><ele>175.5</ele><time>2026-04-25T09:16:49.985Z</time></trkpt><trkpt lat="45.1369575" lon="8.1814763"><ele>175.0</ele><time>2026-04-25T09:16:50.981Z</time></trkpt><trkpt lat="45.1370782" lon="8.1815319"><ele>174.5</ele><time>2026-04-25T09:16:51.988Z</time></trkpt><trkpt lat="45.1371977" lon="8.1815739"><ele>174.0</ele><time>2026-04-25T09:16:52.983Z</time></trkpt><trkpt lat="45.1373253" lon="8.181611"><ele>175.75</ele><time>2026-04-25T09:16:53.984Z</time></trkpt><trkpt lat="45.1374615" lon="8.1816555"><ele>177.5</ele><time>2026-04-25T09:16:54.983Z</time></trkpt><trkpt lat="45.1375999" lon="8.1816895"><ele>179.25</ele><time>2026-04-25T09:16:55.987Z</time></trkpt><trkpt lat="45.1377468" lon="8.1817168"><ele>181.0</ele><time>2026-04-25T09:16:56.985Z</time></trkpt><trkpt lat="45.1379078" lon="8.1817417"><ele>181.0</ele><time>2026-04-25T09:16:57.983Z</time></trkpt><trkpt lat="45.1380716" lon="8.1817618"><ele>181.0</ele><time>2026-04-25T09:16:58.983Z</time></trkpt><trkpt lat="45.1382395" lon="8.181775"><ele>181.0</ele><time>2026-04-25T09:16:59.986Z</time></trkpt><trkpt lat="45.1383967" lon="8.1817744"><ele>180.0</ele><time>2026-04-25T09:17:00.999Z</time></trkpt><trkpt lat="45.1385432" lon="8.1817631"><ele>179.0</ele><time>2026-04-25T09:17:01.986Z</time></trkpt><trkpt lat="45.1386834" lon="8.1817473"><ele>178.0</ele><time>2026-04-25T09:17:02.984Z</time></trkpt><trkpt lat="45.1388179" lon="8.1817277"><ele>177.0</ele><time>2026-04-25T09:17:03.986Z</time></trkpt><trkpt lat="45.1389456" lon="8.1817094"><ele>177.25</ele><time>2026-04-25T09:17:04.983Z</time></trkpt><trkpt lat="45.1390684" lon="8.1816793"><ele>177.5</ele><time>2026-04-25T09:17:06.019Z</time></trkpt><trkpt lat="45.139187" lon="8.1816332"><ele>177.75</ele><time>2026-04-25T09:17:06.983Z</time></trkpt><trkpt lat="45.1392977" lon="8.1815768"><ele>178.0</ele><time>2026-04-25T09:17:07.986Z</time></trkpt><trkpt lat="45.1394029" lon="8.1815249"><ele>176.5</ele><time>2026-04-25T09:17:08.982Z</time></trkpt><trkpt lat="45.1395079" lon="8.1814909"><ele>175.0</ele><time>2026-04-25T09:17:09.987Z</time></trkpt><trkpt lat="45.139617" lon="8.1814753"><ele>173.5</ele><time>2026-04-25T09:17:10.993Z</time></trkpt><trkpt lat="45.1397337" lon="8.1814715"><ele>172.0</ele><time>2026-04-25T09:17:11.982Z</time></trkpt><trkpt lat="45.1398582" lon="8.1814783"><ele>171.5</ele><time>2026-04-25T09:17:13.007Z</time></trkpt><trkpt lat="45.1399909" lon="8.1814971"><ele>171.0</ele><time>2026-04-25T09:17:13.983Z</time></trkpt><trkpt lat="45.1401265" lon="8.1815276"><ele>170.5</ele><time>2026-04-25T09:17:14.983Z</time></trkpt><trkpt lat="45.1402517" lon="8.1815647"><ele>170.0</ele><time>2026-04-25T09:17:15.984Z</time></trkpt><trkpt lat="45.1403772" lon="8.1815869"><ele>173.0</ele><time>2026-04-25T09:17:16.982Z</time></trkpt><trkpt lat="45.1405082" lon="8.1815894"><ele>176.0</ele><time>2026-04-25T09:17:17.983Z</time></trkpt><trkpt lat="45.1406434" lon="8.1815823"><ele>179.0</ele><time>2026-04-25T09:17:18.988Z</time></trkpt><trkpt lat="45.1407812" lon="8.1815771"><ele>182.0</ele><time>2026-04-25T09:17:19.983Z</time></trkpt><trkpt lat="45.1409185" lon="8.1815775"><ele>182.0</ele><time>2026-04-25T09:17:21.001Z</time></trkpt><trkpt lat="45.1410576" lon="8.1815857"><ele>182.0</ele><time>2026-04-25T09:17:21.98Z</time></trkpt><trkpt lat="45.1411956" lon="8.1816003"><ele>182.0</ele><time>2026-04-25T09:17:22.987Z</time></trkpt><trkpt lat="45.1413261" lon="8.1816167"><ele>182.0</ele><time>2026-04-25T09:17:23.986Z</time></trkpt><trkpt lat="45.1414427" lon="8.1816199"><ele>182.0</ele><time>2026-04-25T09:17:24.982Z</time></trkpt><trkpt lat="45.1415485" lon="8.1816012"><ele>182.0</ele><time>2026-04-25T09:17:25.98Z</time></trkpt><trkpt lat="45.1416507" lon="8.1815594"><ele>182.0</ele><time>2026-04-25T09:17:27.004Z</time></trkpt><trkpt lat="45.141751" lon="8.1815112"><ele>182.0</ele><time>2026-04-25T09:17:27.983Z</time></trkpt><trkpt lat="45.1418623" lon="8.1814454"><ele>182.0</ele><time>2026-04-25T09:17:28.984Z</time></trkpt><trkpt lat="45.141975" lon="8.1814"><ele>178.5</ele><time>2026-04-25T09:17:29.982Z</time></trkpt><trkpt lat="45.1420983" lon="8.1813616"><ele>175.0</ele><time>2026-04-25T09:17:30.986Z</time></trkpt><trkpt lat="45.1422242" lon="8.1813202"><ele>171.5</ele><time>2026-04-25T09:17:31.982Z</time></trkpt><trkpt lat="45.1423542" lon="8.1812737"><ele>168.0</ele><time>2026-04-25T09:17:32.981Z</time></trkpt><trkpt lat="45.1424914" lon="8.1812247"><ele>168.0</ele><time>2026-04-25T09:17:33.985Z</time></trkpt><trkpt lat="45.1426223" lon="8.1811752"><ele>168.0</ele><time>2026-04-25T09:17:34.984Z</time></trkpt><trkpt lat="45.1427467" lon="8.181128"><ele>168.0</ele><time>2026-04-25T09:17:36.006Z</time></trkpt><trkpt lat="45.1428696" lon="8.1810929"><ele>168.0</ele><time>2026-04-25T09:17:36.979Z</time></trkpt><trkpt lat="45.1429914" lon="8.1810706"><ele>168.0</ele><time>2026-04-25T09:17:37.986Z</time></trkpt><trkpt lat="45.1431161" lon="8.1810659"><ele>168.0</ele><time>2026-04-25T09:17:38.985Z</time></trkpt><trkpt lat="45.1432438" lon="8.1810702"><ele>168.0</ele><time>2026-04-25T09:17:39.99Z</time></trkpt><trkpt lat="45.1433742" lon="8.1810851"><ele>168.0</ele><time>2026-04-25T09:17:40.982Z</time></trkpt><trkpt lat="45.1435047" lon="8.1811055"><ele>167.5</ele><time>2026-04-25T09:17:42.004Z</time></trkpt><trkpt lat="45.1436379" lon="8.1811166"><ele>167.0</ele><time>2026-04-25T09:17:42.985Z</time></trkpt><trkpt lat="45.1437723" lon="8.1811072"><ele>166.5</ele><time>2026-04-25T09:17:43.983Z</time></trkpt><trkpt lat="45.1439094" lon="8.1810731"><ele>166.0</ele><time>2026-04-25T09:17:44.983Z</time></trkpt><trkpt lat="45.1440483" lon="8.1810251"><ele>166.0</ele><time>2026-04-25T09:17:45.986Z</time></trkpt><trkpt lat="45.144187" lon="8.1809686"><ele>166.0</ele><time>2026-04-25T09:17:46.986Z</time></trkpt><trkpt lat="45.1443284" lon="8.1809087"><ele>166.0</ele><time>2026-04-25T09:17:47.982Z</time></trkpt><trkpt lat="45.1444628" lon="8.1808533"><ele>166.0</ele><time>2026-04-25T09:17:49.006Z</time></trkpt><trkpt lat="45.1445874" lon="8.1808027"><ele>166.0</ele><time>2026-04-25T09:17:49.984Z</time></trkpt><trkpt lat="45.1447052" lon="8.1807551"><ele>166.0</ele><time>2026-04-25T09:17:50.986Z</time></trkpt><trkpt lat="45.1448102" lon="8.1807128"><ele>166.0</ele><time>2026-04-25T09:17:51.987Z</time></trkpt><trkpt lat="45.1449043" lon="8.1806826"><ele>166.0</ele><time>2026-04-25T09:17:52.983Z</time></trkpt><trkpt lat="45.1449901" lon="8.1806541"><ele>166.0</ele><time>2026-04-25T09:17:54.007Z</time></trkpt><trkpt lat="45.1450845" lon="8.1806331"><ele>166.0</ele><time>2026-04-25T09:17:54.984Z</time></trkpt><trkpt lat="45.1451788" lon="8.1806085"><ele>166.0</ele><time>2026-04-25T09:17:55.983Z</time></trkpt><trkpt lat="45.1452891" lon="8.1805728"><ele>166.0</ele><time>2026-04-25T09:17:56.99Z</time></trkpt><trkpt lat="45.1454062" lon="8.1805198"><ele>166.0</ele><time>2026-04-25T09:17:57.979Z</time></trkpt><trkpt lat="45.1455173" lon="8.1804661"><ele>166.0</ele><time>2026-04-25T09:17:59.011Z</time></trkpt><trkpt lat="45.1456264" lon="8.1804044"><ele>166.20000000000002</ele><time>2026-04-25T09:17:59.984Z</time></trkpt><trkpt lat="45.1457376" lon="8.1803395"><ele>166.4</ele><time>2026-04-25T09:18:00.988Z</time></trkpt><trkpt lat="45.1458388" lon="8.1802756"><ele>166.6</ele><time>2026-04-25T09:18:01.988Z</time></trkpt><trkpt lat="45.1459266" lon="8.1802134"><ele>166.8</ele><time>2026-04-25T09:18:02.982Z</time></trkpt><trkpt lat="45.146003" lon="8.1801466"><ele>167.0</ele><time>2026-04-25T09:18:04.006Z</time></trkpt><trkpt lat="45.1460801" lon="8.1800811"><ele>167.0</ele><time>2026-04-25T09:18:04.99Z</time></trkpt><trkpt lat="45.1461659" lon="8.1800207"><ele>167.0</ele><time>2026-04-25T09:18:05.983Z</time></trkpt><trkpt lat="45.1462475" lon="8.1799705"><ele>167.0</ele><time>2026-04-25T09:18:06.986Z</time></trkpt><trkpt lat="45.1463353" lon="8.1799331"><ele>167.0</ele><time>2026-04-25T09:18:07.987Z</time></trkpt><trkpt lat="45.1464101" lon="8.1799059"><ele>167.0</ele><time>2026-04-25T09:18:09.008Z</time></trkpt><trkpt lat="45.1464883" lon="8.1798863"><ele>167.0</ele><time>2026-04-25T09:18:09.99Z</time></trkpt><trkpt lat="45.1465691" lon="8.1798953"><ele>167.5</ele><time>2026-04-25T09:18:10.983Z</time></trkpt><trkpt lat="45.146642" lon="8.1799273"><ele>168.0</ele><time>2026-04-25T09:18:11.992Z</time></trkpt><trkpt lat="45.1467215" lon="8.1799689"><ele>168.5</ele><time>2026-04-25T09:18:12.986Z</time></trkpt><trkpt lat="45.146797" lon="8.180029"><ele>169.0</ele><time>2026-04-25T09:18:14.01Z</time></trkpt><trkpt lat="45.1468889" lon="8.1800861"><ele>169.5</ele><time>2026-04-25T09:18:14.979Z</time></trkpt><trkpt lat="45.1469835" lon="8.1800862"><ele>170.0</ele><time>2026-04-25T09:18:15.983Z</time></trkpt><trkpt lat="45.1470881" lon="8.180098"><ele>170.0</ele><time>2026-04-25T09:18:16.98Z</time></trkpt><trkpt lat="45.1471801" lon="8.1801181"><ele>170.0</ele><time>2026-04-25T09:18:17.99Z</time></trkpt><trkpt lat="45.1472735" lon="8.1801426"><ele>170.0</ele><time>2026-04-25T09:18:18.992Z</time></trkpt><trkpt lat="45.1473561" lon="8.1802009"><ele>170.0</ele><time>2026-04-25T09:18:19.989Z</time></trkpt><trkpt lat="45.1474654" lon="8.1802478"><ele>170.0</ele><time>2026-04-25T09:18:21.001Z</time></trkpt><trkpt lat="45.1475696" lon="8.180302"><ele>170.0</ele><time>2026-04-25T09:18:21.982Z</time></trkpt><trkpt lat="45.1476466" lon="8.1803552"><ele>170.0</ele><time>2026-04-25T09:18:22.979Z</time></trkpt><trkpt lat="45.1477473" lon="8.1804146"><ele>170.0</ele><time>2026-04-25T09:18:23.984Z</time></trkpt><trkpt lat="45.147839" lon="8.18046"><ele>170.0</ele><time>2026-04-25T09:18:24.981Z</time></trkpt><trkpt lat="45.1479459" lon="8.1805014"><ele>170.0</ele><time>2026-04-25T09:18:25.997Z</time></trkpt><trkpt lat="45.1480636" lon="8.1805182"><ele>170.0</ele><time>2026-04-25T09:18:26.982Z</time></trkpt><trkpt lat="45.1481693" lon="8.1805407"><ele>170.0</ele><time>2026-04-25T09:18:27.986Z</time></trkpt><trkpt lat="45.1482724" lon="8.1805534"><ele>170.0</ele><time>2026-04-25T09:18:28.986Z</time></trkpt><trkpt lat="45.1483773" lon="8.1805728"><ele>170.0</ele><time>2026-04-25T09:18:29.979Z</time></trkpt><trkpt lat="45.1484881" lon="8.180584"><ele>170.0</ele><time>2026-04-25T09:18:30.983Z</time></trkpt><trkpt lat="45.1486048" lon="8.1805789"><ele>168.5</ele><time>2026-04-25T09:18:31.988Z</time></trkpt><trkpt lat="45.1487088" lon="8.1805833"><ele>167.0</ele><time>2026-04-25T09:18:32.987Z</time></trkpt><trkpt lat="45.1488014" lon="8.1805859"><ele>165.5</ele><time>2026-04-25T09:18:33.988Z</time></trkpt><trkpt lat="45.1488829" lon="8.1805823"><ele>164.0</ele><time>2026-04-25T09:18:34.983Z</time></trkpt><trkpt lat="45.1489558" lon="8.1805693"><ele>162.5</ele><time>2026-04-25T09:18:35.986Z</time></trkpt><trkpt lat="45.1490215" lon="8.1805346"><ele>161.0</ele><time>2026-04-25T09:18:36.982Z</time></trkpt><trkpt lat="45.1491421" lon="8.1804327"><ele>160.83333333333331</ele><time>2026-04-25T09:18:38.987Z</time></trkpt><trkpt lat="45.1492133" lon="8.1803711"><ele>160.66666666666666</ele><time>2026-04-25T09:18:39.987Z</time></trkpt><trkpt lat="45.149273" lon="8.1803204"><ele>160.5</ele><time>2026-04-25T09:18:41.006Z</time></trkpt><trkpt lat="45.1493389" lon="8.1802774"><ele>160.33333333333334</ele><time>2026-04-25T09:18:41.983Z</time></trkpt><trkpt lat="45.1494178" lon="8.180274"><ele>160.16666666666669</ele><time>2026-04-25T09:18:42.985Z</time></trkpt><trkpt lat="45.149499" lon="8.1802891"><ele>160.0</ele><time>2026-04-25T09:18:43.985Z</time></trkpt><trkpt lat="45.1495688" lon="8.1803151"><ele>160.0</ele><time>2026-04-25T09:18:44.984Z</time></trkpt><trkpt lat="45.1496609" lon="8.1804037"><ele>160.0</ele><time>2026-04-25T09:18:46.982Z</time></trkpt><trkpt lat="45.1496859" lon="8.1804888"><ele>160.0</ele><time>2026-04-25T09:18:47.981Z</time></trkpt><trkpt lat="45.1496991" lon="8.1806003"><ele>160.0</ele><time>2026-04-25T09:18:48.985Z</time></trkpt><trkpt lat="45.149695" lon="8.1807535"><ele>160.0</ele><time>2026-04-25T09:18:49.981Z</time></trkpt><trkpt lat="45.1496932" lon="8.180906"><ele>162.25</ele><time>2026-04-25T09:18:50.98Z</time></trkpt><trkpt lat="45.1497044" lon="8.1810968"><ele>164.5</ele><time>2026-04-25T09:18:51.982Z</time></trkpt><trkpt lat="45.1497103" lon="8.1813063"><ele>166.75</ele><time>2026-04-25T09:18:52.985Z</time></trkpt><trkpt lat="45.1497213" lon="8.1814859"><ele>169.0</ele><time>2026-04-25T09:18:53.983Z</time></trkpt><trkpt lat="45.1497298" lon="8.1816511"><ele>170.0</ele><time>2026-04-25T09:18:54.989Z</time></trkpt><trkpt lat="45.1497399" lon="8.1818097"><ele>171.0</ele><time>2026-04-25T09:18:55.988Z</time></trkpt><trkpt lat="45.1497576" lon="8.181958"><ele>172.0</ele><time>2026-04-25T09:18:56.992Z</time></trkpt><trkpt lat="45.1497752" lon="8.1820972"><ele>173.0</ele><time>2026-04-25T09:18:57.986Z</time></trkpt><trkpt lat="45.1497841" lon="8.1822294"><ele>174.0</ele><time>2026-04-25T09:18:58.984Z</time></trkpt><trkpt lat="45.1497878" lon="8.1823571"><ele>174.2</ele><time>2026-04-25T09:18:59.982Z</time></trkpt><trkpt lat="45.1497801" lon="8.1824871"><ele>174.39999999999998</ele><time>2026-04-25T09:19:00.984Z</time></trkpt><trkpt lat="45.1497616" lon="8.1826146"><ele>174.6</ele><time>2026-04-25T09:19:01.979Z</time></trkpt><trkpt lat="45.1497306" lon="8.1827419"><ele>174.8</ele><time>2026-04-25T09:19:02.982Z</time></trkpt><trkpt lat="45.1496902" lon="8.1828739"><ele>175.0</ele><time>2026-04-25T09:19:03.985Z</time></trkpt><trkpt lat="45.1496411" lon="8.1830111"><ele>175.0</ele><time>2026-04-25T09:19:04.983Z</time></trkpt><trkpt lat="45.1495886" lon="8.1831507"><ele>175.0</ele><time>2026-04-25T09:19:05.983Z</time></trkpt><trkpt lat="45.1495353" lon="8.1832872"><ele>175.0</ele><time>2026-04-25T09:19:06.986Z</time></trkpt><trkpt lat="45.1494771" lon="8.1834219"><ele>175.0</ele><time>2026-04-25T09:19:08.004Z</time></trkpt><trkpt lat="45.1494202" lon="8.1835831"><ele>175.0</ele><time>2026-04-25T09:19:08.986Z</time></trkpt><trkpt lat="45.1493659" lon="8.1837486"><ele>175.0</ele><time>2026-04-25T09:19:09.982Z</time></trkpt><trkpt lat="45.1493169" lon="8.1839075"><ele>175.0</ele><time>2026-04-25T09:19:10.984Z</time></trkpt><trkpt lat="45.1492733" lon="8.1840618"><ele>175.0</ele><time>2026-04-25T09:19:11.986Z</time></trkpt><trkpt lat="45.1492267" lon="8.1842048"><ele>175.0</ele><time>2026-04-25T09:19:12.988Z</time></trkpt><trkpt lat="45.1491873" lon="8.1843236"><ele>175.0</ele><time>2026-04-25T09:19:13.995Z</time></trkpt><trkpt lat="45.1491308" lon="8.184424"><ele>175.0</ele><time>2026-04-25T09:19:14.984Z</time></trkpt><trkpt lat="45.1490657" lon="8.1845073"><ele>175.0</ele><time>2026-04-25T09:19:16.002Z</time></trkpt><trkpt lat="45.148991" lon="8.1845734"><ele>175.0</ele><time>2026-04-25T09:19:16.987Z</time></trkpt><trkpt lat="45.1489369" lon="8.1846231"><ele>175.0</ele><time>2026-04-25T09:19:17.987Z</time></trkpt><trkpt lat="45.1488214" lon="8.1846609"><ele>175.83333333333334</ele><time>2026-04-25T09:19:19.983Z</time></trkpt><trkpt lat="45.1487583" lon="8.1846721"><ele>176.66666666666669</ele><time>2026-04-25T09:19:21.003Z</time></trkpt><trkpt lat="45.1486793" lon="8.1846794"><ele>177.5</ele><time>2026-04-25T09:19:21.982Z</time></trkpt><trkpt lat="45.148599" lon="8.1847066"><ele>178.33333333333334</ele><time>2026-04-25T09:19:22.983Z</time></trkpt><trkpt lat="45.148514" lon="8.184743"><ele>179.16666666666666</ele><time>2026-04-25T09:19:23.986Z</time></trkpt><trkpt lat="45.1484271" lon="8.1848023"><ele>180.0</ele><time>2026-04-25T09:19:24.99Z</time></trkpt><trkpt lat="45.148337" lon="8.1848978"><ele>180.0</ele><time>2026-04-25T09:19:26.007Z</time></trkpt><trkpt lat="45.1482431" lon="8.184979"><ele>180.0</ele><time>2026-04-25T09:19:26.985Z</time></trkpt><trkpt lat="45.1481468" lon="8.1850519"><ele>180.0</ele><time>2026-04-25T09:19:27.984Z</time></trkpt><trkpt lat="45.1480618" lon="8.185121"><ele>180.0</ele><time>2026-04-25T09:19:28.983Z</time></trkpt><trkpt lat="45.1479705" lon="8.1852149"><ele>180.0</ele><time>2026-04-25T09:19:29.987Z</time></trkpt><trkpt lat="45.1478903" lon="8.1853233"><ele>180.8</ele><time>2026-04-25T09:19:30.984Z</time></trkpt><trkpt lat="45.1478461" lon="8.1854251"><ele>181.6</ele><time>2026-04-25T09:19:31.986Z</time></trkpt><trkpt lat="45.1477721" lon="8.1855298"><ele>182.39999999999998</ele><time>2026-04-25T09:19:33.019Z</time></trkpt><trkpt lat="45.1477067" lon="8.1856245"><ele>183.2</ele><time>2026-04-25T09:19:33.98Z</time></trkpt><trkpt lat="45.1476563" lon="8.1857198"><ele>184.0</ele><time>2026-04-25T09:19:34.978Z</time></trkpt><trkpt lat="45.1476046" lon="8.1858317"><ele>184.0</ele><time>2026-04-25T09:19:35.986Z</time></trkpt><trkpt lat="45.1475877" lon="8.185975"><ele>184.0</ele><time>2026-04-25T09:19:36.982Z</time></trkpt><trkpt lat="45.1475721" lon="8.1861324"><ele>184.0</ele><time>2026-04-25T09:19:38.039Z</time></trkpt><trkpt lat="45.1475689" lon="8.1862811"><ele>184.0</ele><time>2026-04-25T09:19:38.982Z</time></trkpt><trkpt lat="45.1475745" lon="8.1864111"><ele>184.0</ele><time>2026-04-25T09:19:39.979Z</time></trkpt><trkpt lat="45.1475894" lon="8.1865347"><ele>185.25</ele><time>2026-04-25T09:19:40.987Z</time></trkpt><trkpt lat="45.1476177" lon="8.1866742"><ele>186.5</ele><time>2026-04-25T09:19:41.988Z</time></trkpt><trkpt lat="45.1476502" lon="8.1868228"><ele>187.75</ele><time>2026-04-25T09:19:43.047Z</time></trkpt><trkpt lat="45.1476984" lon="8.1869902"><ele>189.0</ele><time>2026-04-25T09:19:43.984Z</time></trkpt><trkpt lat="45.147742" lon="8.1871594"><ele>189.0</ele><time>2026-04-25T09:19:44.982Z</time></trkpt><trkpt lat="45.1477757" lon="8.1873192"><ele>189.0</ele><time>2026-04-25T09:19:45.988Z</time></trkpt><trkpt lat="45.147804" lon="8.1874681"><ele>189.0</ele><time>2026-04-25T09:19:46.983Z</time></trkpt><trkpt lat="45.1478499" lon="8.1875978"><ele>189.0</ele><time>2026-04-25T09:19:48.001Z</time></trkpt><trkpt lat="45.1479051" lon="8.1877029"><ele>189.0</ele><time>2026-04-25T09:19:48.987Z</time></trkpt><trkpt lat="45.1479469" lon="8.1877875"><ele>190.5</ele><time>2026-04-25T09:19:49.982Z</time></trkpt><trkpt lat="45.1479994" lon="8.1878439"><ele>192.0</ele><time>2026-04-25T09:19:50.979Z</time></trkpt><trkpt lat="45.1480611" lon="8.1878827"><ele>193.5</ele><time>2026-04-25T09:19:51.981Z</time></trkpt><trkpt lat="45.1481284" lon="8.1878686"><ele>195.0</ele><time>2026-04-25T09:19:52.987Z</time></trkpt><trkpt lat="45.1482071" lon="8.1879033"><ele>196.5</ele><time>2026-04-25T09:19:54.98Z</time></trkpt><trkpt lat="45.1482001" lon="8.1880176"><ele>198.0</ele><time>2026-04-25T09:19:56.984Z</time></trkpt><trkpt lat="45.1481294" lon="8.1881356"><ele>198.0</ele><time>2026-04-25T09:19:58.984Z</time></trkpt><trkpt lat="45.1480705" lon="8.1881694"><ele>198.0</ele><time>2026-04-25T09:19:59.985Z</time></trkpt><trkpt lat="45.1480187" lon="8.1882606"><ele>198.0</ele><time>2026-04-25T09:20:01.982Z</time></trkpt><trkpt lat="45.1481024" lon="8.1883343"><ele>198.0</ele><time>2026-04-25T09:20:04.982Z</time></trkpt><trkpt lat="45.1481879" lon="8.1883197"><ele>198.0</ele><time>2026-04-25T09:20:05.985Z</time></trkpt><trkpt lat="45.1482858" lon="8.1882972"><ele>198.0</ele><time>2026-04-25T09:20:06.979Z</time></trkpt><trkpt lat="45.1483955" lon="8.188249"><ele>197.60000000000002</ele><time>2026-04-25T09:20:07.981Z</time></trkpt><trkpt lat="45.1485124" lon="8.188198"><ele>197.20000000000002</ele><time>2026-04-25T09:20:08.984Z</time></trkpt><trkpt lat="45.1486209" lon="8.1881477"><ele>196.8</ele><time>2026-04-25T09:20:10.009Z</time></trkpt><trkpt lat="45.1487028" lon="8.1880919"><ele>196.4</ele><time>2026-04-25T09:20:10.982Z</time></trkpt><trkpt lat="45.1487775" lon="8.1880368"><ele>196.0</ele><time>2026-04-25T09:20:11.982Z</time></trkpt><trkpt lat="45.14883" lon="8.1879536"><ele>196.0</ele><time>2026-04-25T09:20:12.985Z</time></trkpt><trkpt lat="45.1488715" lon="8.1878767"><ele>196.0</ele><time>2026-04-25T09:20:13.985Z</time></trkpt><trkpt lat="45.1489429" lon="8.1878303"><ele>196.0</ele><time>2026-04-25T09:20:16.015Z</time></trkpt><trkpt lat="45.1490057" lon="8.1879052"><ele>196.0</ele><time>2026-04-25T09:20:17.989Z</time></trkpt><trkpt lat="45.1489528" lon="8.1880776"><ele>196.0</ele><time>2026-04-25T09:20:19.987Z</time></trkpt><trkpt lat="45.1488799" lon="8.18822"><ele>198.66666666666666</ele><time>2026-04-25T09:20:21.005Z</time></trkpt><trkpt lat="45.1488012" lon="8.1883707"><ele>201.33333333333331</ele><time>2026-04-25T09:20:21.984Z</time></trkpt><trkpt lat="45.1487041" lon="8.1885531"><ele>204.0</ele><time>2026-04-25T09:20:22.98Z</time></trkpt><trkpt lat="45.148596" lon="8.1887246"><ele>204.0</ele><time>2026-04-25T09:20:23.991Z</time></trkpt><trkpt lat="45.1485109" lon="8.1888792"><ele>204.0</ele><time>2026-04-25T09:20:24.988Z</time></trkpt><trkpt lat="45.1484325" lon="8.1890049"><ele>204.0</ele><time>2026-04-25T09:20:26.012Z</time></trkpt><trkpt lat="45.1483526" lon="8.1891366"><ele>204.0</ele><time>2026-04-25T09:20:26.985Z</time></trkpt><trkpt lat="45.1482743" lon="8.1892582"><ele>207.39999999999998</ele><time>2026-04-25T09:20:27.986Z</time></trkpt><trkpt lat="45.1481845" lon="8.1893556"><ele>210.8</ele><time>2026-04-25T09:20:28.991Z</time></trkpt><trkpt lat="45.1480909" lon="8.1894379"><ele>214.20000000000002</ele><time>2026-04-25T09:20:29.984Z</time></trkpt><trkpt lat="45.1479961" lon="8.1895203"><ele>217.60000000000002</ele><time>2026-04-25T09:20:30.983Z</time></trkpt><trkpt lat="45.1478995" lon="8.189577"><ele>221.0</ele><time>2026-04-25T09:20:31.992Z</time></trkpt><trkpt lat="45.1478052" lon="8.1896048"><ele>221.0</ele><time>2026-04-25T09:20:32.987Z</time></trkpt><trkpt lat="45.1477069" lon="8.1896532"><ele>221.00000000000003</ele><time>2026-04-25T09:20:33.982Z</time></trkpt><trkpt lat="45.147613" lon="8.1896962"><ele>221.00000000000003</ele><time>2026-04-25T09:20:34.984Z</time></trkpt><trkpt lat="45.1475129" lon="8.189737"><ele>221.0</ele><time>2026-04-25T09:20:35.983Z</time></trkpt><trkpt lat="45.1474161" lon="8.1897754"><ele>221.0</ele><time>2026-04-25T09:20:37.002Z</time></trkpt><trkpt lat="45.1473345" lon="8.1898035"><ele>223.0</ele><time>2026-04-25T09:20:37.985Z</time></trkpt><trkpt lat="45.1472395" lon="8.1898391"><ele>225.00000000000003</ele><time>2026-04-25T09:20:39.99Z</time></trkpt><trkpt lat="45.1472418" lon="8.1899309"><ele>227.00000000000003</ele><time>2026-04-25T09:20:42.986Z</time></trkpt><trkpt lat="45.1473617" lon="8.1899527"><ele>229.0</ele><time>2026-04-25T09:20:44.987Z</time></trkpt><trkpt lat="45.1474893" lon="8.1899535"><ele>231.0</ele><time>2026-04-25T09:20:45.988Z</time></trkpt><trkpt lat="45.1476384" lon="8.1899507"><ele>231.66666666666669</ele><time>2026-04-25T09:20:46.998Z</time></trkpt><trkpt lat="45.1478051" lon="8.1899481"><ele>232.33333333333334</ele><time>2026-04-25T09:20:47.982Z</time></trkpt><trkpt lat="45.1479869" lon="8.1899494"><ele>233.0</ele><time>2026-04-25T09:20:48.985Z</time></trkpt><trkpt lat="45.1481598" lon="8.1899475"><ele>231.75</ele><time>2026-04-25T09:20:49.987Z</time></trkpt><trkpt lat="45.1483262" lon="8.1899472"><ele>230.5</ele><time>2026-04-25T09:20:50.988Z</time></trkpt><trkpt lat="45.148474" lon="8.189944"><ele>229.25</ele><time>2026-04-25T09:20:52.01Z</time></trkpt><trkpt lat="45.1486044" lon="8.1899293"><ele>228.0</ele><time>2026-04-25T09:20:52.983Z</time></trkpt><trkpt lat="45.1487338" lon="8.1898871"><ele>227.5</ele><time>2026-04-25T09:20:53.984Z</time></trkpt><trkpt lat="45.1488543" lon="8.1898187"><ele>227.0</ele><time>2026-04-25T09:20:54.991Z</time></trkpt><trkpt lat="45.1489707" lon="8.1897173"><ele>226.5</ele><time>2026-04-25T09:20:55.987Z</time></trkpt><trkpt lat="45.1490848" lon="8.1896029"><ele>226.0</ele><time>2026-04-25T09:20:57.003Z</time></trkpt><trkpt lat="45.1492002" lon="8.1894924"><ele>226.0</ele><time>2026-04-25T09:20:57.982Z</time></trkpt><trkpt lat="45.149316" lon="8.1893825"><ele>226.0</ele><time>2026-04-25T09:20:58.991Z</time></trkpt><trkpt lat="45.1494359" lon="8.1892769"><ele>226.0</ele><time>2026-04-25T09:20:59.983Z</time></trkpt><trkpt lat="45.1495508" lon="8.1891749"><ele>226.0</ele><time>2026-04-25T09:21:00.991Z</time></trkpt><trkpt lat="45.1496593" lon="8.1890894"><ele>226.0</ele><time>2026-04-25T09:21:01.983Z</time></trkpt><trkpt lat="45.1497714" lon="8.1890201"><ele>226.0</ele><time>2026-04-25T09:21:02.995Z</time></trkpt><trkpt lat="45.1498889" lon="8.1889743"><ele>226.0</ele><time>2026-04-25T09:21:03.991Z</time></trkpt><trkpt lat="45.150012" lon="8.1889556"><ele>226.0</ele><time>2026-04-25T09:21:04.993Z</time></trkpt><trkpt lat="45.1501365" lon="8.1889625"><ele>225.25</ele><time>2026-04-25T09:21:05.986Z</time></trkpt><trkpt lat="45.1502614" lon="8.1889812"><ele>224.5</ele><time>2026-04-25T09:21:06.992Z</time></trkpt><trkpt lat="45.1503943" lon="8.1890138"><ele>223.75</ele><time>2026-04-25T09:21:07.988Z</time></trkpt><trkpt lat="45.1505252" lon="8.1890436"><ele>223.0</ele><time>2026-04-25T09:21:08.982Z</time></trkpt><trkpt lat="45.1506644" lon="8.1890686"><ele>224.0</ele><time>2026-04-25T09:21:10.003Z</time></trkpt><trkpt lat="45.1508111" lon="8.189106"><ele>225.0</ele><time>2026-04-25T09:21:10.992Z</time></trkpt><trkpt lat="45.1509682" lon="8.1891338"><ele>226.0</ele><time>2026-04-25T09:21:11.983Z</time></trkpt><trkpt lat="45.1511316" lon="8.189161"><ele>226.0</ele><time>2026-04-25T09:21:12.988Z</time></trkpt><trkpt lat="45.1513063" lon="8.1891701"><ele>226.0</ele><time>2026-04-25T09:21:13.992Z</time></trkpt><trkpt lat="45.1514723" lon="8.1891763"><ele>226.0</ele><time>2026-04-25T09:21:15.007Z</time></trkpt><trkpt lat="45.1516317" lon="8.189182"><ele>226.5</ele><time>2026-04-25T09:21:15.985Z</time></trkpt><trkpt lat="45.1517857" lon="8.1891886"><ele>227.0</ele><time>2026-04-25T09:21:16.986Z</time></trkpt><trkpt lat="45.1519312" lon="8.1891947"><ele>227.5</ele><time>2026-04-25T09:21:17.988Z</time></trkpt><trkpt lat="45.1520661" lon="8.1892038"><ele>228.0</ele><time>2026-04-25T09:21:18.988Z</time></trkpt><trkpt lat="45.1521887" lon="8.1892171"><ele>228.0</ele><time>2026-04-25T09:21:20.001Z</time></trkpt><trkpt lat="45.1523033" lon="8.1892391"><ele>228.0</ele><time>2026-04-25T09:21:20.987Z</time></trkpt><trkpt lat="45.152412" lon="8.1892659"><ele>228.0</ele><time>2026-04-25T09:21:21.988Z</time></trkpt><trkpt lat="45.1525185" lon="8.1892885"><ele>228.0</ele><time>2026-04-25T09:21:22.991Z</time></trkpt><trkpt lat="45.1526228" lon="8.1893119"><ele>228.0</ele><time>2026-04-25T09:21:23.987Z</time></trkpt><trkpt lat="45.1527285" lon="8.1893366"><ele>228.0</ele><time>2026-04-25T09:21:25.013Z</time></trkpt><trkpt lat="45.1528319" lon="8.1893561"><ele>228.0</ele><time>2026-04-25T09:21:25.987Z</time></trkpt><trkpt lat="45.152935" lon="8.1893652"><ele>228.0</ele><time>2026-04-25T09:21:26.983Z</time></trkpt><trkpt lat="45.1530374" lon="8.1893682"><ele>228.0</ele><time>2026-04-25T09:21:27.986Z</time></trkpt><trkpt lat="45.1531368" lon="8.1893696"><ele>228.0</ele><time>2026-04-25T09:21:28.988Z</time></trkpt><trkpt lat="45.153231" lon="8.1893647"><ele>227.16666666666666</ele><time>2026-04-25T09:21:29.985Z</time></trkpt><trkpt lat="45.1533175" lon="8.1893587"><ele>226.33333333333331</ele><time>2026-04-25T09:21:31.015Z</time></trkpt><trkpt lat="45.1533982" lon="8.1893583"><ele>225.5</ele><time>2026-04-25T09:21:31.985Z</time></trkpt><trkpt lat="45.153474" lon="8.1893552"><ele>224.66666666666666</ele><time>2026-04-25T09:21:32.986Z</time></trkpt><trkpt lat="45.1535435" lon="8.1893534"><ele>223.83333333333331</ele><time>2026-04-25T09:21:33.985Z</time></trkpt><trkpt lat="45.1536082" lon="8.1893512"><ele>223.0</ele><time>2026-04-25T09:21:34.991Z</time></trkpt><trkpt lat="45.1537265" lon="8.1893548"><ele>222.99999999999997</ele><time>2026-04-25T09:21:37.006Z</time></trkpt><trkpt lat="45.1538435" lon="8.1893482"><ele>223.0</ele><time>2026-04-25T09:21:38.99Z</time></trkpt><trkpt lat="45.1539364" lon="8.1893652"><ele>223.0</ele><time>2026-04-25T09:21:40.985Z</time></trkpt><trkpt lat="45.1540194" lon="8.1893583"><ele>223.0</ele><time>2026-04-25T09:21:42.99Z</time></trkpt><trkpt lat="45.1540989" lon="8.1893685"><ele>222.99999999999997</ele><time>2026-04-25T09:21:44.987Z</time></trkpt><trkpt lat="45.154149" lon="8.189445"><ele>223.0</ele><time>2026-04-25T09:21:46.99Z</time></trkpt><trkpt lat="45.1542169" lon="8.1894682"><ele>222.66666666666666</ele><time>2026-04-25T09:35:41.964Z</time></trkpt><trkpt lat="45.1541967" lon="8.1895857"><ele>222.33333333333331</ele><time>2026-04-25T09:35:48.987Z</time></trkpt><trkpt lat="45.1542297" lon="8.1896771"><ele>222.0</ele><time>2026-04-25T09:35:50.989Z</time></trkpt><trkpt lat="45.1543019" lon="8.1897414"><ele>221.66666666666669</ele><time>2026-04-25T09:35:53.002Z</time></trkpt><trkpt lat="45.1544049" lon="8.1897989"><ele>221.33333333333334</ele><time>2026-04-25T09:35:54.996Z</time></trkpt><trkpt lat="45.154474" lon="8.1898099"><ele>221.0</ele><time>2026-04-25T09:35:55.996Z</time></trkpt><trkpt lat="45.1545456" lon="8.1898056"><ele>221.00000000000003</ele><time>2026-04-25T09:35:56.996Z</time></trkpt><trkpt lat="45.1546236" lon="8.1897945"><ele>221.0</ele><time>2026-04-25T09:35:58Z</time></trkpt><trkpt lat="45.1547063" lon="8.1897827"><ele>221.0</ele><time>2026-04-25T09:35:58.998Z</time></trkpt><trkpt lat="45.1547937" lon="8.1897699"><ele>221.0</ele><time>2026-04-25T09:36:00Z</time></trkpt><trkpt lat="45.1548873" lon="8.1897513"><ele>221.00000000000003</ele><time>2026-04-25T09:36:01Z</time></trkpt><trkpt lat="45.1549874" lon="8.189735"><ele>221.0</ele><time>2026-04-25T09:36:01.993Z</time></trkpt><trkpt lat="45.1550872" lon="8.1897195"><ele>220.60000000000002</ele><time>2026-04-25T09:36:02.997Z</time></trkpt><trkpt lat="45.1551907" lon="8.1896999"><ele>220.20000000000002</ele><time>2026-04-25T09:36:03.996Z</time></trkpt><trkpt lat="45.1552944" lon="8.1896833"><ele>219.79999999999998</ele><time>2026-04-25T09:36:04.989Z</time></trkpt><trkpt lat="45.1553924" lon="8.1896708"><ele>219.39999999999998</ele><time>2026-04-25T09:36:06Z</time></trkpt><trkpt lat="45.1554852" lon="8.1896618"><ele>219.0</ele><time>2026-04-25T09:36:06.991Z</time></trkpt><trkpt lat="45.155576" lon="8.1896669"><ele>219.0</ele><time>2026-04-25T09:36:08.01Z</time></trkpt><trkpt lat="45.1556671" lon="8.1896906"><ele>218.99999999999997</ele><time>2026-04-25T09:36:08.99Z</time></trkpt><trkpt lat="45.1557557" lon="8.1897316"><ele>218.99999999999997</ele><time>2026-04-25T09:36:09.991Z</time></trkpt><trkpt lat="45.1558416" lon="8.1897906"><ele>219.0</ele><time>2026-04-25T09:36:10.993Z</time></trkpt><trkpt lat="45.1559249" lon="8.1898587"><ele>219.0</ele><time>2026-04-25T09:36:12.004Z</time></trkpt><trkpt lat="45.156008" lon="8.1899289"><ele>220.39999999999998</ele><time>2026-04-25T09:36:12.995Z</time></trkpt><trkpt lat="45.1560922" lon="8.189999"><ele>221.79999999999998</ele><time>2026-04-25T09:36:13.997Z</time></trkpt><trkpt lat="45.1561764" lon="8.190069"><ele>223.20000000000002</ele><time>2026-04-25T09:36:14.996Z</time></trkpt><trkpt lat="45.1562604" lon="8.1901359"><ele>224.60000000000002</ele><time>2026-04-25T09:36:15.998Z</time></trkpt><trkpt lat="45.156351" lon="8.1902072"><ele>226.0</ele><time>2026-04-25T09:36:16.987Z</time></trkpt><trkpt lat="45.156439" lon="8.1902729"><ele>226.0</ele><time>2026-04-25T09:36:18Z</time></trkpt><trkpt lat="45.1565309" lon="8.1903426"><ele>226.00000000000003</ele><time>2026-04-25T09:36:18.989Z</time></trkpt><trkpt lat="45.1566191" lon="8.1904113"><ele>226.00000000000003</ele><time>2026-04-25T09:36:19.998Z</time></trkpt><trkpt lat="45.1567063" lon="8.1904833"><ele>226.0</ele><time>2026-04-25T09:36:20.992Z</time></trkpt><trkpt lat="45.1567831" lon="8.1905673"><ele>226.0</ele><time>2026-04-25T09:36:21.99Z</time></trkpt><trkpt lat="45.156841" lon="8.190669"><ele>228.0</ele><time>2026-04-25T09:36:22.994Z</time></trkpt><trkpt lat="45.1568664" lon="8.1907833"><ele>230.00000000000003</ele><time>2026-04-25T09:36:23.989Z</time></trkpt><trkpt lat="45.1568609" lon="8.1909047"><ele>232.00000000000003</ele><time>2026-04-25T09:36:24.992Z</time></trkpt><trkpt lat="45.1568313" lon="8.1910296"><ele>234.0</ele><time>2026-04-25T09:36:25.99Z</time></trkpt><trkpt lat="45.1567881" lon="8.1911604"><ele>236.0</ele><time>2026-04-25T09:36:26.996Z</time></trkpt><trkpt lat="45.1567382" lon="8.1912964"><ele>236.0</ele><time>2026-04-25T09:36:27.996Z</time></trkpt><trkpt lat="45.1566841" lon="8.1914412"><ele>236.0</ele><time>2026-04-25T09:36:28.992Z</time></trkpt><trkpt lat="45.1566274" lon="8.1915895"><ele>236.0</ele><time>2026-04-25T09:36:29.995Z</time></trkpt><trkpt lat="45.156569" lon="8.1917402"><ele>236.0</ele><time>2026-04-25T09:36:30.995Z</time></trkpt><trkpt lat="45.1565086" lon="8.1918958"><ele>235.25</ele><time>2026-04-25T09:36:32Z</time></trkpt><trkpt lat="45.1564482" lon="8.1920543"><ele>234.5</ele><time>2026-04-25T09:36:33.007Z</time></trkpt><trkpt lat="45.1563844" lon="8.1922153"><ele>233.75</ele><time>2026-04-25T09:36:33.997Z</time></trkpt><trkpt lat="45.1563191" lon="8.1923772"><ele>233.0</ele><time>2026-04-25T09:36:34.999Z</time></trkpt><trkpt lat="45.1562548" lon="8.1925407"><ele>233.0</ele><time>2026-04-25T09:36:35.999Z</time></trkpt><trkpt lat="45.15619" lon="8.1927059"><ele>233.0</ele><time>2026-04-25T09:36:37.003Z</time></trkpt><trkpt lat="45.1561228" lon="8.1928724"><ele>233.0</ele><time>2026-04-25T09:36:38.007Z</time></trkpt><trkpt lat="45.1560545" lon="8.1930375"><ele>233.0</ele><time>2026-04-25T09:36:38.997Z</time></trkpt><trkpt lat="45.1559877" lon="8.1932079"><ele>234.75</ele><time>2026-04-25T09:36:39.999Z</time></trkpt><trkpt lat="45.1559229" lon="8.1933751"><ele>236.5</ele><time>2026-04-25T09:36:40.998Z</time></trkpt><trkpt lat="45.1558662" lon="8.1935406"><ele>238.25</ele><time>2026-04-25T09:36:42Z</time></trkpt><trkpt lat="45.1558191" lon="8.1937117"><ele>240.0</ele><time>2026-04-25T09:36:42.994Z</time></trkpt><trkpt lat="45.1557906" lon="8.1938824"><ele>241.0</ele><time>2026-04-25T09:36:43.995Z</time></trkpt><trkpt lat="45.1557782" lon="8.1940621"><ele>242.0</ele><time>2026-04-25T09:36:44.993Z</time></trkpt><trkpt lat="45.1557843" lon="8.1942533"><ele>243.0</ele><time>2026-04-25T09:36:45.995Z</time></trkpt><trkpt lat="45.1558073" lon="8.1944568"><ele>244.0</ele><time>2026-04-25T09:36:46.996Z</time></trkpt><trkpt lat="45.1558416" lon="8.1946736"><ele>245.5</ele><time>2026-04-25T09:36:48.006Z</time></trkpt><trkpt lat="45.1558804" lon="8.1948981"><ele>247.0</ele><time>2026-04-25T09:36:48.989Z</time></trkpt><trkpt lat="45.155916" lon="8.195103"><ele>248.5</ele><time>2026-04-25T09:36:49.993Z</time></trkpt><trkpt lat="45.1559467" lon="8.1952833"><ele>250.0</ele><time>2026-04-25T09:36:50.99Z</time></trkpt><trkpt lat="45.1559759" lon="8.1954422"><ele>250.0</ele><time>2026-04-25T09:36:51.997Z</time></trkpt><trkpt lat="45.1560092" lon="8.195578"><ele>250.0</ele><time>2026-04-25T09:36:52.99Z</time></trkpt><trkpt lat="45.1560515" lon="8.1956956"><ele>250.0</ele><time>2026-04-25T09:36:53.995Z</time></trkpt><trkpt lat="45.1560936" lon="8.1958116"><ele>250.0</ele><time>2026-04-25T09:36:54.999Z</time></trkpt><trkpt lat="45.1561491" lon="8.1959168"><ele>250.0</ele><time>2026-04-25T09:36:55.997Z</time></trkpt><trkpt lat="45.1562099" lon="8.1960098"><ele>250.49999999999997</ele><time>2026-04-25T09:36:57.001Z</time></trkpt><trkpt lat="45.1562674" lon="8.1960992"><ele>251.0</ele><time>2026-04-25T09:36:58.004Z</time></trkpt><trkpt lat="45.1563422" lon="8.1961317"><ele>251.5</ele><time>2026-04-25T09:36:58.993Z</time></trkpt><trkpt lat="45.1564252" lon="8.1961291"><ele>252.0</ele><time>2026-04-25T09:36:59.992Z</time></trkpt><trkpt lat="45.1565057" lon="8.1960902"><ele>252.49999999999997</ele><time>2026-04-25T09:37:00.996Z</time></trkpt><trkpt lat="45.1565901" lon="8.1960405"><ele>253.0</ele><time>2026-04-25T09:37:01.994Z</time></trkpt><trkpt lat="45.1566736" lon="8.1959504"><ele>254.8</ele><time>2026-04-25T09:37:03.001Z</time></trkpt><trkpt lat="45.1567687" lon="8.1958577"><ele>256.6</ele><time>2026-04-25T09:37:03.995Z</time></trkpt><trkpt lat="45.1568661" lon="8.195782"><ele>258.4</ele><time>2026-04-25T09:37:05.001Z</time></trkpt><trkpt lat="45.1569739" lon="8.1957367"><ele>260.2</ele><time>2026-04-25T09:37:06.017Z</time></trkpt><trkpt lat="45.1570807" lon="8.1956962"><ele>262.0</ele><time>2026-04-25T09:37:06.997Z</time></trkpt><trkpt lat="45.1571926" lon="8.1957261"><ele>262.0</ele><time>2026-04-25T09:37:07.993Z</time></trkpt><trkpt lat="45.157309" lon="8.1957549"><ele>262.0</ele><time>2026-04-25T09:37:08.993Z</time></trkpt><trkpt lat="45.1574259" lon="8.1958239"><ele>262.0</ele><time>2026-04-25T09:37:10.001Z</time></trkpt><trkpt lat="45.1575467" lon="8.1959023"><ele>262.0</ele><time>2026-04-25T09:37:10.996Z</time></trkpt><trkpt lat="45.1576702" lon="8.1959951"><ele>260.75</ele><time>2026-04-25T09:37:11.995Z</time></trkpt><trkpt lat="45.1577902" lon="8.196111"><ele>259.5</ele><time>2026-04-25T09:37:13Z</time></trkpt><trkpt lat="45.1578969" lon="8.1962487"><ele>258.25</ele><time>2026-04-25T09:37:13.995Z</time></trkpt><trkpt lat="45.1580039" lon="8.1963975"><ele>257.0</ele><time>2026-04-25T09:37:14.997Z</time></trkpt><trkpt lat="45.1580861" lon="8.1965769"><ele>257.0</ele><time>2026-04-25T09:37:15.995Z</time></trkpt><trkpt lat="45.1581517" lon="8.1967755"><ele>257.0</ele><time>2026-04-25T09:37:17.025Z</time></trkpt><trkpt lat="45.1582018" lon="8.1969898"><ele>257.0</ele><time>2026-04-25T09:37:17.997Z</time></trkpt><trkpt lat="45.1582451" lon="8.197212"><ele>262.33333333333337</ele><time>2026-04-25T09:37:18.993Z</time></trkpt><trkpt lat="45.1582913" lon="8.1974369"><ele>267.6666666666667</ele><time>2026-04-25T09:37:19.993Z</time></trkpt><trkpt lat="45.1583323" lon="8.1976707"><ele>273.0</ele><time>2026-04-25T09:37:20.992Z</time></trkpt><trkpt lat="45.1583886" lon="8.1978949"><ele>273.0</ele><time>2026-04-25T09:37:22.012Z</time></trkpt><trkpt lat="45.1584507" lon="8.1981142"><ele>273.0</ele><time>2026-04-25T09:37:22.994Z</time></trkpt><trkpt lat="45.1585154" lon="8.1983233"><ele>273.0</ele><time>2026-04-25T09:37:23.997Z</time></trkpt><trkpt lat="45.1585773" lon="8.1985323"><ele>272.0</ele><time>2026-04-25T09:37:25Z</time></trkpt><trkpt lat="45.1586323" lon="8.1987364"><ele>271.0</ele><time>2026-04-25T09:37:25.991Z</time></trkpt><trkpt lat="45.1586623" lon="8.1989323"><ele>270.0</ele><time>2026-04-25T09:37:27.012Z</time></trkpt><trkpt lat="45.1586682" lon="8.1991386"><ele>269.0</ele><time>2026-04-25T09:37:27.998Z</time></trkpt><trkpt lat="45.1586539" lon="8.1993488"><ele>269.33333333333337</ele><time>2026-04-25T09:37:28.993Z</time></trkpt><trkpt lat="45.1586205" lon="8.1995647"><ele>269.6666666666667</ele><time>2026-04-25T09:37:29.993Z</time></trkpt><trkpt lat="45.1585756" lon="8.199783"><ele>270.0</ele><time>2026-04-25T09:37:30.995Z</time></trkpt><trkpt lat="45.1585252" lon="8.2000096"><ele>270.0</ele><time>2026-04-25T09:37:32Z</time></trkpt><trkpt lat="45.1584682" lon="8.2002405"><ele>270.0</ele><time>2026-04-25T09:37:32.998Z</time></trkpt><trkpt lat="45.1584002" lon="8.2004732"><ele>270.0</ele><time>2026-04-25T09:37:33.988Z</time></trkpt><trkpt lat="45.1583222" lon="8.2007018"><ele>272.0</ele><time>2026-04-25T09:37:34.988Z</time></trkpt><trkpt lat="45.1582272" lon="8.200922"><ele>274.0</ele><time>2026-04-25T09:37:35.997Z</time></trkpt><trkpt lat="45.158117" lon="8.2011306"><ele>276.0</ele><time>2026-04-25T09:37:36.994Z</time></trkpt><trkpt lat="45.1580001" lon="8.2013328"><ele>275.0</ele><time>2026-04-25T09:37:38.016Z</time></trkpt><trkpt lat="45.1578825" lon="8.2015339"><ele>274.0</ele><time>2026-04-25T09:37:38.999Z</time></trkpt><trkpt lat="45.1577647" lon="8.2017356"><ele>273.0</ele><time>2026-04-25T09:37:39.99Z</time></trkpt><trkpt lat="45.1576482" lon="8.201932"><ele>273.0</ele><time>2026-04-25T09:37:40.994Z</time></trkpt><trkpt lat="45.1575397" lon="8.2021117"><ele>273.0</ele><time>2026-04-25T09:37:41.993Z</time></trkpt><trkpt lat="45.1574483" lon="8.2022817"><ele>273.0</ele><time>2026-04-25T09:37:42.995Z</time></trkpt><trkpt lat="45.1573519" lon="8.2024206"><ele>271.0</ele><time>2026-04-25T09:37:43.992Z</time></trkpt><trkpt lat="45.1572599" lon="8.2025561"><ele>269.0</ele><time>2026-04-25T09:37:44.988Z</time></trkpt><trkpt lat="45.1571583" lon="8.2026624"><ele>267.0</ele><time>2026-04-25T09:37:45.987Z</time></trkpt><trkpt lat="45.157048" lon="8.2027429"><ele>265.0</ele><time>2026-04-25T09:37:46.991Z</time></trkpt><trkpt lat="45.1569574" lon="8.2028323"><ele>265.0</ele><time>2026-04-25T09:37:47.985Z</time></trkpt><trkpt lat="45.15687" lon="8.2029129"><ele>265.0</ele><time>2026-04-25T09:37:48.995Z</time></trkpt><trkpt lat="45.156793" lon="8.2029985"><ele>265.0</ele><time>2026-04-25T09:37:49.997Z</time></trkpt><trkpt lat="45.156715" lon="8.2030898"><ele>265.0</ele><time>2026-04-25T09:37:50.994Z</time></trkpt><trkpt lat="45.1566393" lon="8.2031953"><ele>265.0</ele><time>2026-04-25T09:37:51.995Z</time></trkpt><trkpt lat="45.156564" lon="8.2033057"><ele>261.75</ele><time>2026-04-25T09:37:52.991Z</time></trkpt><trkpt lat="45.1564861" lon="8.2034473"><ele>258.5</ele><time>2026-04-25T09:37:54.002Z</time></trkpt><trkpt lat="45.1564067" lon="8.2036103"><ele>255.25</ele><time>2026-04-25T09:37:54.989Z</time></trkpt><trkpt lat="45.1563245" lon="8.2037642"><ele>252.0</ele><time>2026-04-25T09:37:55.993Z</time></trkpt><trkpt lat="45.1562364" lon="8.203919"><ele>254.75</ele><time>2026-04-25T09:37:56.993Z</time></trkpt><trkpt lat="45.1561422" lon="8.2040838"><ele>257.5</ele><time>2026-04-25T09:37:57.994Z</time></trkpt><trkpt lat="45.1560369" lon="8.2042306"><ele>260.25</ele><time>2026-04-25T09:37:59.008Z</time></trkpt><trkpt lat="45.1559262" lon="8.2043557"><ele>263.0</ele><time>2026-04-25T09:37:59.996Z</time></trkpt><trkpt lat="45.1558184" lon="8.2044713"><ele>259.5</ele><time>2026-04-25T09:38:00.998Z</time></trkpt><trkpt lat="45.1556916" lon="8.2045478"><ele>256.0</ele><time>2026-04-25T09:38:01.992Z</time></trkpt><trkpt lat="45.1555739" lon="8.2046103"><ele>252.5</ele><time>2026-04-25T09:38:02.993Z</time></trkpt><trkpt lat="45.1554662" lon="8.20467"><ele>249.0</ele><time>2026-04-25T09:38:04.004Z</time></trkpt><trkpt lat="45.1553739" lon="8.2047441"><ele>251.5</ele><time>2026-04-25T09:38:04.991Z</time></trkpt><trkpt lat="45.1553016" lon="8.2048332"><ele>254.0</ele><time>2026-04-25T09:38:05.984Z</time></trkpt><trkpt lat="45.1552591" lon="8.2049316"><ele>256.5</ele><time>2026-04-25T09:38:06.994Z</time></trkpt><trkpt lat="45.1552505" lon="8.2050432"><ele>259.0</ele><time>2026-04-25T09:38:08Z</time></trkpt><trkpt lat="45.1552485" lon="8.2051537"><ele>261.5</ele><time>2026-04-25T09:38:08.99Z</time></trkpt><trkpt lat="45.1553019" lon="8.2052353"><ele>264.0</ele><time>2026-04-25T09:38:09.992Z</time></trkpt><trkpt lat="45.1553786" lon="8.2052992"><ele>264.0</ele><time>2026-04-25T09:38:10.995Z</time></trkpt><trkpt lat="45.1554609" lon="8.2053576"><ele>264.0</ele><time>2026-04-25T09:38:11.996Z</time></trkpt><trkpt lat="45.1555631" lon="8.2053957"><ele>264.0</ele><time>2026-04-25T09:38:13.003Z</time></trkpt><trkpt lat="45.1556733" lon="8.2054604"><ele>264.0</ele><time>2026-04-25T09:38:13.999Z</time></trkpt><trkpt lat="45.1557743" lon="8.2055387"><ele>264.0</ele><time>2026-04-25T09:38:14.998Z</time></trkpt><trkpt lat="45.1558717" lon="8.2056426"><ele>264.75</ele><time>2026-04-25T09:38:15.997Z</time></trkpt><trkpt lat="45.1559535" lon="8.2057609"><ele>265.5</ele><time>2026-04-25T09:38:16.992Z</time></trkpt><trkpt lat="45.156032" lon="8.2058828"><ele>266.25</ele><time>2026-04-25T09:38:18.004Z</time></trkpt><trkpt lat="45.1561255" lon="8.2059981"><ele>267.0</ele><time>2026-04-25T09:38:18.995Z</time></trkpt><trkpt lat="45.1562286" lon="8.2061045"><ele>267.0</ele><time>2026-04-25T09:38:19.994Z</time></trkpt><trkpt lat="45.1563372" lon="8.2062024"><ele>267.0</ele><time>2026-04-25T09:38:20.992Z</time></trkpt><trkpt lat="45.1564415" lon="8.2062968"><ele>267.0</ele><time>2026-04-25T09:38:21.994Z</time></trkpt><trkpt lat="45.1565406" lon="8.2063852"><ele>267.0</ele><time>2026-04-25T09:38:22.999Z</time></trkpt><trkpt lat="45.156634" lon="8.2064745"><ele>267.0</ele><time>2026-04-25T09:38:23.998Z</time></trkpt><trkpt lat="45.1567155" lon="8.2065772"><ele>267.0</ele><time>2026-04-25T09:38:25.007Z</time></trkpt><trkpt lat="45.1567787" lon="8.2066992"><ele>267.0</ele><time>2026-04-25T09:38:25.999Z</time></trkpt><trkpt lat="45.156819" lon="8.2068511"><ele>267.0</ele><time>2026-04-25T09:38:27.002Z</time></trkpt><trkpt lat="45.1568394" lon="8.2070203"><ele>267.0</ele><time>2026-04-25T09:38:27.999Z</time></trkpt><trkpt lat="45.1568408" lon="8.2072156"><ele>267.0</ele><time>2026-04-25T09:38:29.002Z</time></trkpt><trkpt lat="45.1568363" lon="8.2074283"><ele>267.0</ele><time>2026-04-25T09:38:29.996Z</time></trkpt><trkpt lat="45.156822" lon="8.2076657"><ele>266.3333333333333</ele><time>2026-04-25T09:38:30.997Z</time></trkpt><trkpt lat="45.1567988" lon="8.2079195"><ele>265.66666666666663</ele><time>2026-04-25T09:38:32.006Z</time></trkpt><trkpt lat="45.1567646" lon="8.2081739"><ele>265.0</ele><time>2026-04-25T09:38:32.994Z</time></trkpt><trkpt lat="45.1567217" lon="8.2084337"><ele>267.0</ele><time>2026-04-25T09:38:33.995Z</time></trkpt><trkpt lat="45.1566715" lon="8.2087029"><ele>269.0</ele><time>2026-04-25T09:38:34.998Z</time></trkpt><trkpt lat="45.1566227" lon="8.2089773"><ele>271.0</ele><time>2026-04-25T09:38:35.995Z</time></trkpt><trkpt lat="45.1565778" lon="8.209255"><ele>269.3333333333333</ele><time>2026-04-25T09:38:36.996Z</time></trkpt><trkpt lat="45.1565199" lon="8.2095309"><ele>267.6666666666667</ele><time>2026-04-25T09:38:37.995Z</time></trkpt><trkpt lat="45.1564428" lon="8.2098011"><ele>266.0</ele><time>2026-04-25T09:38:38.997Z</time></trkpt><trkpt lat="45.1563575" lon="8.21006"><ele>266.0</ele><time>2026-04-25T09:38:39.987Z</time></trkpt><trkpt lat="45.1562746" lon="8.2103096"><ele>266.0</ele><time>2026-04-25T09:38:41.012Z</time></trkpt><trkpt lat="45.156196" lon="8.2105479"><ele>266.0</ele><time>2026-04-25T09:38:41.995Z</time></trkpt><trkpt lat="45.1561242" lon="8.2107747"><ele>269.6666666666667</ele><time>2026-04-25T09:38:42.993Z</time></trkpt><trkpt lat="45.1560567" lon="8.210989"><ele>273.3333333333333</ele><time>2026-04-25T09:38:43.992Z</time></trkpt><trkpt lat="45.1559991" lon="8.2111882"><ele>277.0</ele><time>2026-04-25T09:38:44.991Z</time></trkpt><trkpt lat="45.1559564" lon="8.2113679"><ele>281.25</ele><time>2026-04-25T09:38:45.988Z</time></trkpt><trkpt lat="45.1559406" lon="8.2115374"><ele>285.5</ele><time>2026-04-25T09:38:47Z</time></trkpt><trkpt lat="45.1559562" lon="8.2117086"><ele>289.75</ele><time>2026-04-25T09:38:47.994Z</time></trkpt><trkpt lat="45.1559953" lon="8.2118786"><ele>294.0</ele><time>2026-04-25T09:38:48.999Z</time></trkpt><trkpt lat="45.1560411" lon="8.2120537"><ele>294.0</ele><time>2026-04-25T09:38:49.994Z</time></trkpt><trkpt lat="45.1560857" lon="8.2122221"><ele>294.0</ele><time>2026-04-25T09:38:50.997Z</time></trkpt><trkpt lat="45.1561403" lon="8.2124107"><ele>294.0</ele><time>2026-04-25T09:38:51.991Z</time></trkpt><trkpt lat="45.156201" lon="8.2125963"><ele>294.0</ele><time>2026-04-25T09:38:52.988Z</time></trkpt><trkpt lat="45.1562774" lon="8.2127809"><ele>293.0</ele><time>2026-04-25T09:38:54.002Z</time></trkpt><trkpt lat="45.1563599" lon="8.2129624"><ele>292.0</ele><time>2026-04-25T09:38:54.993Z</time></trkpt><trkpt lat="45.1564352" lon="8.2131337"><ele>291.0</ele><time>2026-04-25T09:38:56.003Z</time></trkpt><trkpt lat="45.1564957" lon="8.2133009"><ele>290.0</ele><time>2026-04-25T09:38:56.995Z</time></trkpt><trkpt lat="45.1565491" lon="8.2134681"><ele>290.0</ele><time>2026-04-25T09:38:57.993Z</time></trkpt><trkpt lat="45.1565897" lon="8.2136428"><ele>290.0</ele><time>2026-04-25T09:38:58.994Z</time></trkpt><trkpt lat="45.1566184" lon="8.2138315"><ele>290.0</ele><time>2026-04-25T09:38:59.993Z</time></trkpt><trkpt lat="45.1566349" lon="8.2140373"><ele>290.0</ele><time>2026-04-25T09:39:01.008Z</time></trkpt><trkpt lat="45.1566313" lon="8.2142567"><ele>291.0</ele><time>2026-04-25T09:39:01.992Z</time></trkpt><trkpt lat="45.1566035" lon="8.2144825"><ele>292.0</ele><time>2026-04-25T09:39:03.001Z</time></trkpt><trkpt lat="45.1565596" lon="8.2147084"><ele>293.0</ele><time>2026-04-25T09:39:03.999Z</time></trkpt><trkpt lat="45.1565093" lon="8.2149355"><ele>289.0</ele><time>2026-04-25T09:39:04.997Z</time></trkpt><trkpt lat="45.1564672" lon="8.2151634"><ele>285.0</ele><time>2026-04-25T09:39:06.008Z</time></trkpt><trkpt lat="45.1564417" lon="8.215384"><ele>281.0</ele><time>2026-04-25T09:39:07.006Z</time></trkpt><trkpt lat="45.1564383" lon="8.2155841"><ele>282.75</ele><time>2026-04-25T09:39:07.989Z</time></trkpt><trkpt lat="45.1564441" lon="8.215773"><ele>284.5</ele><time>2026-04-25T09:39:08.993Z</time></trkpt><trkpt lat="45.1564869" lon="8.215947"><ele>286.25</ele><time>2026-04-25T09:39:10Z</time></trkpt><trkpt lat="45.1565515" lon="8.2160924"><ele>288.0</ele><time>2026-04-25T09:39:10.989Z</time></trkpt><trkpt lat="45.1566361" lon="8.2162125"><ele>293.0</ele><time>2026-04-25T09:39:11.986Z</time></trkpt><trkpt lat="45.1567341" lon="8.216311"><ele>298.0</ele><time>2026-04-25T09:39:12.993Z</time></trkpt><trkpt lat="45.1568372" lon="8.2164163"><ele>303.0</ele><time>2026-04-25T09:39:14Z</time></trkpt><trkpt lat="45.1569255" lon="8.2165434"><ele>308.0</ele><time>2026-04-25T09:39:14.995Z</time></trkpt><trkpt lat="45.1570099" lon="8.2166886"><ele>308.75</ele><time>2026-04-25T09:39:15.995Z</time></trkpt><trkpt lat="45.1571011" lon="8.216826"><ele>309.5</ele><time>2026-04-25T09:39:17Z</time></trkpt><trkpt lat="45.1572059" lon="8.216941"><ele>310.25</ele><time>2026-04-25T09:39:17.996Z</time></trkpt><trkpt lat="45.1573257" lon="8.2170195"><ele>311.0</ele><time>2026-04-25T09:39:18.991Z</time></trkpt><trkpt lat="45.1574549" lon="8.2170587"><ele>311.0</ele><time>2026-04-25T09:39:19.985Z</time></trkpt><trkpt lat="45.1575902" lon="8.2170733"><ele>311.0</ele><time>2026-04-25T09:39:20.993Z</time></trkpt><trkpt lat="45.1577269" lon="8.217098"><ele>311.0</ele><time>2026-04-25T09:39:21.989Z</time></trkpt><trkpt lat="45.1578601" lon="8.2171279"><ele>311.0</ele><time>2026-04-25T09:39:22.991Z</time></trkpt><trkpt lat="45.1579884" lon="8.2171753"><ele>311.0</ele><time>2026-04-25T09:39:23.996Z</time></trkpt><trkpt lat="45.1581125" lon="8.2172236"><ele>311.0</ele><time>2026-04-25T09:39:24.991Z</time></trkpt><trkpt lat="45.1582288" lon="8.2173113"><ele>311.0</ele><time>2026-04-25T09:39:26.003Z</time></trkpt><trkpt lat="45.1583341" lon="8.2174035"><ele>311.0</ele><time>2026-04-25T09:39:27.002Z</time></trkpt><trkpt lat="45.1584544" lon="8.217474"><ele>314.0</ele><time>2026-04-25T09:39:28.002Z</time></trkpt><trkpt lat="45.158585" lon="8.2175391"><ele>317.0</ele><time>2026-04-25T09:39:28.997Z</time></trkpt><trkpt lat="45.15872" lon="8.2175978"><ele>320.0</ele><time>2026-04-25T09:39:29.995Z</time></trkpt><trkpt lat="45.1588601" lon="8.2176591"><ele>323.0</ele><time>2026-04-25T09:39:30.991Z</time></trkpt><trkpt lat="45.1589976" lon="8.2177062"><ele>321.75</ele><time>2026-04-25T09:39:32.001Z</time></trkpt><trkpt lat="45.1591264" lon="8.2177453"><ele>320.5</ele><time>2026-04-25T09:39:33Z</time></trkpt><trkpt lat="45.1592443" lon="8.2177912"><ele>319.25</ele><time>2026-04-25T09:39:33.998Z</time></trkpt><trkpt lat="45.1593424" lon="8.2178474"><ele>318.0</ele><time>2026-04-25T09:39:34.993Z</time></trkpt><trkpt lat="45.1594221" lon="8.2179193"><ele>318.0</ele><time>2026-04-25T09:39:36.021Z</time></trkpt><trkpt lat="45.1594965" lon="8.2179973"><ele>318.0</ele><time>2026-04-25T09:39:36.993Z</time></trkpt><trkpt lat="45.1595474" lon="8.2181264"><ele>318.0</ele><time>2026-04-25T09:39:37.996Z</time></trkpt><trkpt lat="45.1596025" lon="8.2182615"><ele>318.0</ele><time>2026-04-25T09:39:39Z</time></trkpt><trkpt lat="45.1596511" lon="8.2184074"><ele>318.0</ele><time>2026-04-25T09:39:39.999Z</time></trkpt><trkpt lat="45.1596908" lon="8.2185595"><ele>318.75</ele><time>2026-04-25T09:39:40.991Z</time></trkpt><trkpt lat="45.159709" lon="8.2187317"><ele>319.5</ele><time>2026-04-25T09:39:42.001Z</time></trkpt><trkpt lat="45.1597271" lon="8.2189061"><ele>320.25</ele><time>2026-04-25T09:39:42.991Z</time></trkpt><trkpt lat="45.1597252" lon="8.2190931"><ele>321.0</ele><time>2026-04-25T09:39:44.003Z</time></trkpt><trkpt lat="45.159715" lon="8.2192609"><ele>319.6</ele><time>2026-04-25T09:39:44.989Z</time></trkpt><trkpt lat="45.1597019" lon="8.2194236"><ele>318.20000000000005</ele><time>2026-04-25T09:39:45.997Z</time></trkpt><trkpt lat="45.1596892" lon="8.2195922"><ele>316.79999999999995</ele><time>2026-04-25T09:39:46.992Z</time></trkpt><trkpt lat="45.1596673" lon="8.2197253"><ele>315.4</ele><time>2026-04-25T09:39:47.991Z</time></trkpt><trkpt lat="45.1596399" lon="8.2198733"><ele>314.0</ele><time>2026-04-25T09:39:48.997Z</time></trkpt><trkpt lat="45.1595912" lon="8.2199892"><ele>313.4</ele><time>2026-04-25T09:39:49.996Z</time></trkpt><trkpt lat="45.159524" lon="8.2200845"><ele>312.79999999999995</ele><time>2026-04-25T09:39:50.995Z</time></trkpt><trkpt lat="45.1594446" lon="8.2201935"><ele>312.20000000000005</ele><time>2026-04-25T09:39:51.99Z</time></trkpt><trkpt lat="45.1593682" lon="8.2203089"><ele>311.6</ele><time>2026-04-25T09:39:52.992Z</time></trkpt><trkpt lat="45.1592959" lon="8.220424"><ele>311.0</ele><time>2026-04-25T09:39:54Z</time></trkpt><trkpt lat="45.1592344" lon="8.2205431"><ele>311.6</ele><time>2026-04-25T09:39:54.991Z</time></trkpt><trkpt lat="45.1591822" lon="8.2206555"><ele>312.20000000000005</ele><time>2026-04-25T09:39:55.999Z</time></trkpt><trkpt lat="45.1591536" lon="8.220764"><ele>312.79999999999995</ele><time>2026-04-25T09:39:56.994Z</time></trkpt><trkpt lat="45.159148" lon="8.220905"><ele>313.4</ele><time>2026-04-25T09:39:57.998Z</time></trkpt><trkpt lat="45.1591631" lon="8.2210422"><ele>314.0</ele><time>2026-04-25T09:39:58.989Z</time></trkpt><trkpt lat="45.159188" lon="8.2211868"><ele>314.0</ele><time>2026-04-25T09:39:59.991Z</time></trkpt><trkpt lat="45.1592081" lon="8.2213336"><ele>314.0</ele><time>2026-04-25T09:40:01Z</time></trkpt><trkpt lat="45.1592211" lon="8.2214869"><ele>314.0</ele><time>2026-04-25T09:40:01.997Z</time></trkpt><trkpt lat="45.159218" lon="8.2216462"><ele>314.0</ele><time>2026-04-25T09:40:03.036Z</time></trkpt><trkpt lat="45.1592277" lon="8.2218031"><ele>314.0</ele><time>2026-04-25T09:40:03.997Z</time></trkpt><trkpt lat="45.159265" lon="8.2219659"><ele>314.0</ele><time>2026-04-25T09:40:05.001Z</time></trkpt><trkpt lat="45.1593241" lon="8.2221326"><ele>314.0</ele><time>2026-04-25T09:40:05.993Z</time></trkpt><trkpt lat="45.1594001" lon="8.2223024"><ele>314.0</ele><time>2026-04-25T09:40:07.002Z</time></trkpt><trkpt lat="45.1594842" lon="8.2224794"><ele>314.0</ele><time>2026-04-25T09:40:08Z</time></trkpt><trkpt lat="45.1595688" lon="8.222664"><ele>314.0</ele><time>2026-04-25T09:40:09.001Z</time></trkpt><trkpt lat="45.1596597" lon="8.2228493"><ele>314.0</ele><time>2026-04-25T09:40:10.037Z</time></trkpt><trkpt lat="45.1597479" lon="8.2230284"><ele>314.0</ele><time>2026-04-25T09:40:10.988Z</time></trkpt><trkpt lat="45.1598269" lon="8.223199"><ele>314.4</ele><time>2026-04-25T09:40:11.991Z</time></trkpt><trkpt lat="45.1598885" lon="8.2233578"><ele>314.79999999999995</ele><time>2026-04-25T09:40:12.998Z</time></trkpt><trkpt lat="45.1599333" lon="8.2235021"><ele>315.20000000000005</ele><time>2026-04-25T09:40:13.996Z</time></trkpt><trkpt lat="45.1599563" lon="8.2236397"><ele>315.6</ele><time>2026-04-25T09:40:14.994Z</time></trkpt><trkpt lat="45.1599482" lon="8.2237686"><ele>316.0</ele><time>2026-04-25T09:40:15.997Z</time></trkpt><trkpt lat="45.1599373" lon="8.2238938"><ele>317.8</ele><time>2026-04-25T09:40:16.991Z</time></trkpt><trkpt lat="45.1599051" lon="8.2240247"><ele>319.6</ele><time>2026-04-25T09:40:18Z</time></trkpt><trkpt lat="45.1598794" lon="8.2241736"><ele>321.4</ele><time>2026-04-25T09:40:18.99Z</time></trkpt><trkpt lat="45.1599013" lon="8.2243406"><ele>323.2</ele><time>2026-04-25T09:40:19.992Z</time></trkpt><trkpt lat="45.1599246" lon="8.2245083"><ele>325.0</ele><time>2026-04-25T09:40:20.994Z</time></trkpt><trkpt lat="45.1599386" lon="8.2246874"><ele>325.5</ele><time>2026-04-25T09:40:21.994Z</time></trkpt><trkpt lat="45.1599499" lon="8.2248677"><ele>326.0</ele><time>2026-04-25T09:40:22.997Z</time></trkpt><trkpt lat="45.1599165" lon="8.2250555"><ele>326.5</ele><time>2026-04-25T09:40:23.995Z</time></trkpt><trkpt lat="45.1598724" lon="8.2252548"><ele>327.0</ele><time>2026-04-25T09:40:24.988Z</time></trkpt><trkpt lat="45.1598171" lon="8.2254599"><ele>324.0</ele><time>2026-04-25T09:40:25.992Z</time></trkpt><trkpt lat="45.1597488" lon="8.2256647"><ele>321.0</ele><time>2026-04-25T09:40:27.008Z</time></trkpt><trkpt lat="45.1596724" lon="8.2258671"><ele>318.0</ele><time>2026-04-25T09:40:27.993Z</time></trkpt><trkpt lat="45.1595836" lon="8.2260662"><ele>318.0</ele><time>2026-04-25T09:40:28.997Z</time></trkpt><trkpt lat="45.1594864" lon="8.2262619"><ele>318.0</ele><time>2026-04-25T09:40:29.992Z</time></trkpt><trkpt lat="45.1593858" lon="8.2264532"><ele>318.0</ele><time>2026-04-25T09:40:30.999Z</time></trkpt><trkpt lat="45.159287" lon="8.2266373"><ele>316.5</ele><time>2026-04-25T09:40:31.998Z</time></trkpt><trkpt lat="45.15919" lon="8.2268129"><ele>315.0</ele><time>2026-04-25T09:40:32.996Z</time></trkpt><trkpt lat="45.1590924" lon="8.2269671"><ele>313.5</ele><time>2026-04-25T09:40:33.993Z</time></trkpt><trkpt lat="45.1590053" lon="8.2271307"><ele>312.0</ele><time>2026-04-25T09:40:34.994Z</time></trkpt><trkpt lat="45.1589324" lon="8.2272926"><ele>316.25</ele><time>2026-04-25T09:40:35.999Z</time></trkpt><trkpt lat="45.1588797" lon="8.2274532"><ele>320.5</ele><time>2026-04-25T09:40:36.988Z</time></trkpt><trkpt lat="45.1588251" lon="8.2276025"><ele>324.75</ele><time>2026-04-25T09:40:37.989Z</time></trkpt><trkpt lat="45.1587721" lon="8.227741"><ele>329.0</ele><time>2026-04-25T09:40:39.001Z</time></trkpt><trkpt lat="45.1587182" lon="8.2278776"><ele>329.0</ele><time>2026-04-25T09:40:39.993Z</time></trkpt><trkpt lat="45.1586499" lon="8.2279948"><ele>329.0</ele><time>2026-04-25T09:40:41.002Z</time></trkpt><trkpt lat="45.1585657" lon="8.2280962"><ele>329.0</ele><time>2026-04-25T09:40:41.991Z</time></trkpt><trkpt lat="45.1584647" lon="8.2281841"><ele>329.0</ele><time>2026-04-25T09:40:42.991Z</time></trkpt><trkpt lat="45.1583534" lon="8.2282662"><ele>329.0</ele><time>2026-04-25T09:40:43.995Z</time></trkpt><trkpt lat="45.1582416" lon="8.228348"><ele>329.0</ele><time>2026-04-25T09:40:44.986Z</time></trkpt><trkpt lat="45.1581376" lon="8.2284251"><ele>329.0</ele><time>2026-04-25T09:40:46.002Z</time></trkpt><trkpt lat="45.158036" lon="8.2284915"><ele>329.0</ele><time>2026-04-25T09:40:46.995Z</time></trkpt><trkpt lat="45.1579479" lon="8.2285581"><ele>329.0</ele><time>2026-04-25T09:40:48.003Z</time></trkpt><trkpt lat="45.157887" lon="8.2286079"><ele>329.0</ele><time>2026-04-25T09:40:48.995Z</time></trkpt><trkpt lat="45.1578529" lon="8.2286899"><ele>329.0</ele><time>2026-04-25T09:40:51.006Z</time></trkpt><trkpt lat="45.1579339" lon="8.2287149"><ele>329.0</ele><time>2026-04-25T09:40:53.992Z</time></trkpt><trkpt lat="45.1580505" lon="8.2286558"><ele>329.0</ele><time>2026-04-25T09:40:55.989Z</time></trkpt><trkpt lat="45.1581334" lon="8.2286286"><ele>329.0</ele><time>2026-04-25T09:40:56.992Z</time></trkpt><trkpt lat="45.1582292" lon="8.2286162"><ele>329.0</ele><time>2026-04-25T09:40:57.985Z</time></trkpt><trkpt lat="45.1583276" lon="8.2286211"><ele>329.0</ele><time>2026-04-25T09:40:58.991Z</time></trkpt><trkpt lat="45.1584215" lon="8.2286382"><ele>329.0</ele><time>2026-04-25T09:41:00.001Z</time></trkpt><trkpt lat="45.1585105" lon="8.2286459"><ele>329.0</ele><time>2026-04-25T09:41:00.992Z</time></trkpt><trkpt lat="45.1586002" lon="8.2286293"><ele>329.0</ele><time>2026-04-25T09:41:01.988Z</time></trkpt><trkpt lat="45.1586942" lon="8.2285825"><ele>329.0</ele><time>2026-04-25T09:41:02.989Z</time></trkpt><trkpt lat="45.1587885" lon="8.2285217"><ele>329.0</ele><time>2026-04-25T09:41:03.992Z</time></trkpt><trkpt lat="45.1588823" lon="8.2284589"><ele>329.0</ele><time>2026-04-25T09:41:04.99Z</time></trkpt><trkpt lat="45.1589723" lon="8.2283976"><ele>329.0</ele><time>2026-04-25T09:41:05.985Z</time></trkpt><trkpt lat="45.1590535" lon="8.2283408"><ele>329.0</ele><time>2026-04-25T09:41:07.001Z</time></trkpt><trkpt lat="45.1591312" lon="8.2282994"><ele>328.6666666666667</ele><time>2026-04-25T09:41:07.985Z</time></trkpt><trkpt lat="45.1591958" lon="8.2282182"><ele>328.33333333333337</ele><time>2026-04-25T09:41:08.99Z</time></trkpt><trkpt lat="45.159247" lon="8.2281204"><ele>328.0</ele><time>2026-04-25T09:41:09.991Z</time></trkpt><trkpt lat="45.1592955" lon="8.2280192"><ele>327.6666666666667</ele><time>2026-04-25T09:41:10.99Z</time></trkpt><trkpt lat="45.1593473" lon="8.2279192"><ele>327.3333333333333</ele><time>2026-04-25T09:41:12Z</time></trkpt><trkpt lat="45.1594143" lon="8.2278538"><ele>327.0</ele><time>2026-04-25T09:41:12.996Z</time></trkpt><trkpt lat="45.1594913" lon="8.2278152"><ele>327.0</ele><time>2026-04-25T09:41:13.99Z</time></trkpt><trkpt lat="45.1595675" lon="8.2278018"><ele>327.0</ele><time>2026-04-25T09:41:14.993Z</time></trkpt><trkpt lat="45.1596549" lon="8.2278452"><ele>327.0</ele><time>2026-04-25T09:41:15.995Z</time></trkpt><trkpt lat="45.1597348" lon="8.2278962"><ele>327.0</ele><time>2026-04-25T09:41:16.988Z</time></trkpt><trkpt lat="45.1598076" lon="8.227966"><ele>327.0</ele><time>2026-04-25T09:41:17.989Z</time></trkpt><trkpt lat="45.1598666" lon="8.2280547"><ele>327.0</ele><time>2026-04-25T09:41:18.989Z</time></trkpt><trkpt lat="45.1599073" lon="8.2281663"><ele>322.6666666666667</ele><time>2026-04-25T09:41:19.996Z</time></trkpt><trkpt lat="45.1599426" lon="8.2282621"><ele>318.3333333333333</ele><time>2026-04-25T09:41:20.987Z</time></trkpt><trkpt lat="45.1599639" lon="8.2283504"><ele>314.0</ele><time>2026-04-25T09:41:22.02Z</time></trkpt><trkpt lat="45.1600294" lon="8.2284954"><ele>309.66666666666663</ele><time>2026-04-25T09:41:23.985Z</time></trkpt><trkpt lat="45.1600869" lon="8.2285413"><ele>305.3333333333333</ele><time>2026-04-25T09:41:24.989Z</time></trkpt><trkpt lat="45.1601676" lon="8.2285613"><ele>301.0</ele><time>2026-04-25T09:41:25.995Z</time></trkpt><trkpt lat="45.1602641" lon="8.2285732"><ele>301.0</ele><time>2026-04-25T09:41:26.999Z</time></trkpt><trkpt lat="45.160379" lon="8.2285903"><ele>301.0</ele><time>2026-04-25T09:41:27.994Z</time></trkpt><trkpt lat="45.1604913" lon="8.2286147"><ele>301.0</ele><time>2026-04-25T09:41:28.989Z</time></trkpt><trkpt lat="45.1605945" lon="8.228656"><ele>301.0</ele><time>2026-04-25T09:41:29.991Z</time></trkpt><trkpt lat="45.160687" lon="8.2286949"><ele>301.0</ele><time>2026-04-25T09:41:30.995Z</time></trkpt><trkpt lat="45.1607766" lon="8.2287511"><ele>302.2</ele><time>2026-04-25T09:41:31.992Z</time></trkpt><trkpt lat="45.1608463" lon="8.228831"><ele>303.40000000000003</ele><time>2026-04-25T09:41:33.001Z</time></trkpt><trkpt lat="45.1608996" lon="8.2289312"><ele>304.6</ele><time>2026-04-25T09:41:33.995Z</time></trkpt><trkpt lat="45.1609258" lon="8.229047"><ele>305.8</ele><time>2026-04-25T09:41:34.988Z</time></trkpt><trkpt lat="45.1609381" lon="8.22918"><ele>307.0</ele><time>2026-04-25T09:41:35.991Z</time></trkpt><trkpt lat="45.1609414" lon="8.2293176"><ele>303.6</ele><time>2026-04-25T09:41:36.998Z</time></trkpt><trkpt lat="45.1609459" lon="8.2294448"><ele>300.2</ele><time>2026-04-25T09:41:37.995Z</time></trkpt><trkpt lat="45.1609513" lon="8.2295873"><ele>296.8</ele><time>2026-04-25T09:41:39.002Z</time></trkpt><trkpt lat="45.1609796" lon="8.2297117"><ele>293.4</ele><time>2026-04-25T09:41:39.992Z</time></trkpt><trkpt lat="45.1610061" lon="8.2298468"><ele>290.0</ele><time>2026-04-25T09:41:40.99Z</time></trkpt><trkpt lat="45.1610556" lon="8.2299798"><ele>288.25</ele><time>2026-04-25T09:41:41.987Z</time></trkpt><trkpt lat="45.1611108" lon="8.2301229"><ele>286.5</ele><time>2026-04-25T09:41:42.992Z</time></trkpt><trkpt lat="45.1611656" lon="8.230269"><ele>284.75</ele><time>2026-04-25T09:41:43.996Z</time></trkpt><trkpt lat="45.1612292" lon="8.2304228"><ele>283.0</ele><time>2026-04-25T09:41:45.003Z</time></trkpt><trkpt lat="45.161301" lon="8.2305693"><ele>284.0</ele><time>2026-04-25T09:41:45.991Z</time></trkpt><trkpt lat="45.1613736" lon="8.2307086"><ele>285.0</ele><time>2026-04-25T09:41:46.997Z</time></trkpt><trkpt lat="45.1614414" lon="8.2308523"><ele>286.0</ele><time>2026-04-25T09:41:47.996Z</time></trkpt><trkpt lat="45.1615141" lon="8.2309937"><ele>287.0</ele><time>2026-04-25T09:41:48.994Z</time></trkpt><trkpt lat="45.1615842" lon="8.2311513"><ele>287.0</ele><time>2026-04-25T09:41:49.993Z</time></trkpt><trkpt lat="45.1616477" lon="8.2313149"><ele>287.0</ele><time>2026-04-25T09:41:50.992Z</time></trkpt><trkpt lat="45.1617014" lon="8.2314672"><ele>287.0</ele><time>2026-04-25T09:41:51.989Z</time></trkpt><trkpt lat="45.1617534" lon="8.2316047"><ele>287.0</ele><time>2026-04-25T09:41:53.006Z</time></trkpt><trkpt lat="45.1618016" lon="8.2317249"><ele>284.6</ele><time>2026-04-25T09:41:53.999Z</time></trkpt><trkpt lat="45.1618415" lon="8.2318244"><ele>282.2</ele><time>2026-04-25T09:41:54.988Z</time></trkpt><trkpt lat="45.1618895" lon="8.2319761"><ele>279.8</ele><time>2026-04-25T09:41:57.001Z</time></trkpt><trkpt lat="45.1618405" lon="8.2320978"><ele>277.4</ele><time>2026-04-25T09:41:58.992Z</time></trkpt><trkpt lat="45.1617487" lon="8.2321112"><ele>275.0</ele><time>2026-04-25T09:42:00.998Z</time></trkpt><trkpt lat="45.1616933" lon="8.2320644"><ele>275.0</ele><time>2026-04-25T09:42:01.999Z</time></trkpt><trkpt lat="45.1616288" lon="8.2319792"><ele>275.0</ele><time>2026-04-25T09:42:02.992Z</time></trkpt><trkpt lat="45.16157" lon="8.2318632"><ele>275.0</ele><time>2026-04-25T09:42:03.993Z</time></trkpt><trkpt lat="45.1614984" lon="8.2317481"><ele>275.0</ele><time>2026-04-25T09:42:04.994Z</time></trkpt><trkpt lat="45.1614249" lon="8.2316441"><ele>275.0</ele><time>2026-04-25T09:42:05.988Z</time></trkpt><trkpt lat="45.1613599" lon="8.2315447"><ele>274.5</ele><time>2026-04-25T09:42:07.003Z</time></trkpt><trkpt lat="45.1612915" lon="8.2314335"><ele>274.0</ele><time>2026-04-25T09:42:08.004Z</time></trkpt><trkpt lat="45.1612262" lon="8.2313248"><ele>273.5</ele><time>2026-04-25T09:42:08.992Z</time></trkpt><trkpt lat="45.1611635" lon="8.2312266"><ele>273.0</ele><time>2026-04-25T09:42:09.999Z</time></trkpt><trkpt lat="45.1611127" lon="8.2311482"><ele>272.5</ele><time>2026-04-25T09:42:10.991Z</time></trkpt><trkpt lat="45.1610573" lon="8.2310895"><ele>272.0</ele><time>2026-04-25T09:42:11.985Z</time></trkpt><trkpt lat="45.1609817" lon="8.2310321"><ele>272.0</ele><time>2026-04-25T09:42:13.015Z</time></trkpt><trkpt lat="45.1608881" lon="8.2310177"><ele>272.0</ele><time>2026-04-25T09:42:13.994Z</time></trkpt><trkpt lat="45.1607898" lon="8.2310223"><ele>272.0</ele><time>2026-04-25T09:42:14.995Z</time></trkpt><trkpt lat="45.1606854" lon="8.2310282"><ele>272.0</ele><time>2026-04-25T09:42:16.001Z</time></trkpt><trkpt lat="45.1605734" lon="8.2310376"><ele>272.0</ele><time>2026-04-25T09:42:16.992Z</time></trkpt><trkpt lat="45.1604825" lon="8.2310687"><ele>269.0</ele><time>2026-04-25T09:42:17.998Z</time></trkpt><trkpt lat="45.1604075" lon="8.2310925"><ele>266.0</ele><time>2026-04-25T09:42:18.985Z</time></trkpt><trkpt lat="45.1602989" lon="8.2310728"><ele>263.0</ele><time>2026-04-25T09:42:20.99Z</time></trkpt><trkpt lat="45.1602413" lon="8.2310241"><ele>260.0</ele><time>2026-04-25T09:42:21.994Z</time></trkpt><trkpt lat="45.1601881" lon="8.2309499"><ele>257.0</ele><time>2026-04-25T09:42:22.992Z</time></trkpt><trkpt lat="45.1601362" lon="8.2308639"><ele>254.0</ele><time>2026-04-25T09:42:24.002Z</time></trkpt><trkpt lat="45.1600947" lon="8.2307609"><ele>254.0</ele><time>2026-04-25T09:42:24.999Z</time></trkpt><trkpt lat="45.1600473" lon="8.230667"><ele>253.99999999999997</ele><time>2026-04-25T09:42:26.017Z</time></trkpt><trkpt lat="45.1599917" lon="8.2305883"><ele>253.99999999999997</ele><time>2026-04-25T09:42:26.995Z</time></trkpt><trkpt lat="45.1599298" lon="8.2305439"><ele>254.0</ele><time>2026-04-25T09:42:27.994Z</time></trkpt><trkpt lat="45.1598146" lon="8.2305396"><ele>254.0</ele><time>2026-04-25T09:42:29.994Z</time></trkpt><trkpt lat="45.159708" lon="8.2306263"><ele>254.00000000000003</ele><time>2026-04-25T09:42:31.994Z</time></trkpt><trkpt lat="45.1596817" lon="8.2307347"><ele>254.0</ele><time>2026-04-25T09:42:32.987Z</time></trkpt><trkpt lat="45.1596852" lon="8.2308357"><ele>254.0</ele><time>2026-04-25T09:42:33.998Z</time></trkpt><trkpt lat="45.1597066" lon="8.2309286"><ele>254.0</ele><time>2026-04-25T09:42:34.991Z</time></trkpt><trkpt lat="45.1597518" lon="8.231019"><ele>254.00000000000003</ele><time>2026-04-25T09:42:35.992Z</time></trkpt><trkpt lat="45.1598168" lon="8.2311145"><ele>254.0</ele><time>2026-04-25T09:42:36.99Z</time></trkpt><trkpt lat="45.1598974" lon="8.2312106"><ele>254.0</ele><time>2026-04-25T09:42:37.999Z</time></trkpt><trkpt lat="45.1599825" lon="8.2313121"><ele>254.0</ele><time>2026-04-25T09:42:38.996Z</time></trkpt><trkpt lat="45.1600746" lon="8.2314179"><ele>254.0</ele><time>2026-04-25T09:42:40.003Z</time></trkpt><trkpt lat="45.1601639" lon="8.2315223"><ele>254.0</ele><time>2026-04-25T09:42:40.988Z</time></trkpt><trkpt lat="45.1602509" lon="8.2316204"><ele>252.0</ele><time>2026-04-25T09:42:42.004Z</time></trkpt><trkpt lat="45.1603341" lon="8.2317239"><ele>249.99999999999997</ele><time>2026-04-25T09:42:42.996Z</time></trkpt><trkpt lat="45.1604156" lon="8.2318252"><ele>247.99999999999997</ele><time>2026-04-25T09:42:43.998Z</time></trkpt><trkpt lat="45.1604862" lon="8.2319278"><ele>246.0</ele><time>2026-04-25T09:42:44.991Z</time></trkpt><trkpt lat="45.160544" lon="8.2320426"><ele>244.0</ele><time>2026-04-25T09:42:45.998Z</time></trkpt><trkpt lat="45.1605981" lon="8.2321698"><ele>244.5</ele><time>2026-04-25T09:42:46.995Z</time></trkpt><trkpt lat="45.160644" lon="8.2323157"><ele>245.0</ele><time>2026-04-25T09:42:47.993Z</time></trkpt><trkpt lat="45.1606863" lon="8.2324743"><ele>245.5</ele><time>2026-04-25T09:42:48.996Z</time></trkpt><trkpt lat="45.1607273" lon="8.2326314"><ele>246.0</ele><time>2026-04-25T09:42:49.99Z</time></trkpt><trkpt lat="45.1607679" lon="8.232778"><ele>246.0</ele><time>2026-04-25T09:42:50.995Z</time></trkpt><trkpt lat="45.1608143" lon="8.2329057"><ele>246.00000000000003</ele><time>2026-04-25T09:42:51.991Z</time></trkpt><trkpt lat="45.1608591" lon="8.233034"><ele>246.00000000000003</ele><time>2026-04-25T09:42:52.998Z</time></trkpt><trkpt lat="45.1608944" lon="8.2331679"><ele>246.0</ele><time>2026-04-25T09:42:54.002Z</time></trkpt><trkpt lat="45.1609166" lon="8.2333036"><ele>246.0</ele><time>2026-04-25T09:42:54.996Z</time></trkpt><trkpt lat="45.1609283" lon="8.2334465"><ele>243.5</ele><time>2026-04-25T09:42:55.993Z</time></trkpt><trkpt lat="45.160932" lon="8.2336024"><ele>241.0</ele><time>2026-04-25T09:42:56.994Z</time></trkpt><trkpt lat="45.1609326" lon="8.2337721"><ele>238.5</ele><time>2026-04-25T09:42:57.997Z</time></trkpt><trkpt lat="45.1609329" lon="8.2339481"><ele>236.0</ele><time>2026-04-25T09:42:59.007Z</time></trkpt><trkpt lat="45.1609332" lon="8.2341324"><ele>234.0</ele><time>2026-04-25T09:42:59.997Z</time></trkpt><trkpt lat="45.1609382" lon="8.2343189"><ele>232.0</ele><time>2026-04-25T09:43:00.999Z</time></trkpt><trkpt lat="45.1609407" lon="8.2344981"><ele>230.0</ele><time>2026-04-25T09:43:01.999Z</time></trkpt><trkpt lat="45.160942" lon="8.2346547"><ele>228.0</ele><time>2026-04-25T09:43:02.996Z</time></trkpt><trkpt lat="45.1609426" lon="8.2347957"><ele>226.8</ele><time>2026-04-25T09:43:04.01Z</time></trkpt><trkpt lat="45.1609398" lon="8.2349238"><ele>225.60000000000002</ele><time>2026-04-25T09:43:04.992Z</time></trkpt><trkpt lat="45.1609419" lon="8.23503"><ele>224.39999999999998</ele><time>2026-04-25T09:43:05.991Z</time></trkpt><trkpt lat="45.1609523" lon="8.2351183"><ele>223.2</ele><time>2026-04-25T09:43:07.001Z</time></trkpt><trkpt lat="45.1610254" lon="8.2352338"><ele>222.0</ele><time>2026-04-25T09:43:09.009Z</time></trkpt><trkpt lat="45.1611486" lon="8.2352277"><ele>222.0</ele><time>2026-04-25T09:43:11.004Z</time></trkpt><trkpt lat="45.161232" lon="8.2351846"><ele>222.0</ele><time>2026-04-25T09:43:11.993Z</time></trkpt><trkpt lat="45.1613189" lon="8.235138"><ele>222.0</ele><time>2026-04-25T09:43:13.001Z</time></trkpt><trkpt lat="45.1613961" lon="8.2350994"><ele>222.0</ele><time>2026-04-25T09:43:13.99Z</time></trkpt><trkpt lat="45.1615083" lon="8.235081"><ele>222.0</ele><time>2026-04-25T09:43:16.001Z</time></trkpt><trkpt lat="45.1615926" lon="8.2351961"><ele>221.6</ele><time>2026-04-25T09:43:18.009Z</time></trkpt><trkpt lat="45.1616194" lon="8.2352971"><ele>221.2</ele><time>2026-04-25T09:43:18.987Z</time></trkpt><trkpt lat="45.1616366" lon="8.235411"><ele>220.8</ele><time>2026-04-25T09:43:19.991Z</time></trkpt><trkpt lat="45.1616467" lon="8.2355377"><ele>220.4</ele><time>2026-04-25T09:43:20.991Z</time></trkpt><trkpt lat="45.1616634" lon="8.2356752"><ele>220.0</ele><time>2026-04-25T09:43:21.993Z</time></trkpt><trkpt lat="45.1616725" lon="8.2358229"><ele>220.0</ele><time>2026-04-25T09:43:22.989Z</time></trkpt><trkpt lat="45.1616841" lon="8.2359542"><ele>220.0</ele><time>2026-04-25T09:43:24.005Z</time></trkpt><trkpt lat="45.161696" lon="8.2360826"><ele>220.0</ele><time>2026-04-25T09:43:24.998Z</time></trkpt><trkpt lat="45.1617291" lon="8.2361846"><ele>220.0</ele><time>2026-04-25T09:43:25.994Z</time></trkpt><trkpt lat="45.1617847" lon="8.2362911"><ele>220.0</ele><time>2026-04-25T09:43:26.991Z</time></trkpt><trkpt lat="45.1618445" lon="8.2364031"><ele>217.8</ele><time>2026-04-25T09:43:28.005Z</time></trkpt><trkpt lat="45.1619249" lon="8.2365162"><ele>215.6</ele><time>2026-04-25T09:43:28.999Z</time></trkpt><trkpt lat="45.161998" lon="8.2366197"><ele>213.39999999999998</ele><time>2026-04-25T09:43:29.996Z</time></trkpt><trkpt lat="45.1620727" lon="8.2367074"><ele>211.2</ele><time>2026-04-25T09:43:30.99Z</time></trkpt><trkpt lat="45.1621477" lon="8.236793"><ele>209.0</ele><time>2026-04-25T09:43:31.99Z</time></trkpt><trkpt lat="45.1622195" lon="8.2368598"><ele>209.00000000000003</ele><time>2026-04-25T09:43:32.999Z</time></trkpt><trkpt lat="45.1622841" lon="8.2369272"><ele>209.0</ele><time>2026-04-25T09:43:33.998Z</time></trkpt><trkpt lat="45.1623586" lon="8.2369521"><ele>209.0</ele><time>2026-04-25T09:43:34.988Z</time></trkpt><trkpt lat="45.1624388" lon="8.2369653"><ele>209.0</ele><time>2026-04-25T09:43:35.997Z</time></trkpt><trkpt lat="45.1625385" lon="8.2369419"><ele>209.00000000000003</ele><time>2026-04-25T09:43:36.999Z</time></trkpt><trkpt lat="45.1626399" lon="8.2369219"><ele>209.0</ele><time>2026-04-25T09:43:37.998Z</time></trkpt><trkpt lat="45.1627377" lon="8.2369063"><ele>210.16666666666669</ele><time>2026-04-25T09:43:38.999Z</time></trkpt><trkpt lat="45.1628257" lon="8.236894"><ele>211.33333333333334</ele><time>2026-04-25T09:43:39.998Z</time></trkpt><trkpt lat="45.1628988" lon="8.2368964"><ele>212.5</ele><time>2026-04-25T09:43:40.993Z</time></trkpt><trkpt lat="45.1629729" lon="8.2369043"><ele>213.66666666666669</ele><time>2026-04-25T09:43:41.999Z</time></trkpt><trkpt lat="45.1630541" lon="8.2369515"><ele>214.83333333333334</ele><time>2026-04-25T09:43:42.997Z</time></trkpt><trkpt lat="45.1631433" lon="8.2370326"><ele>216.0</ele><time>2026-04-25T09:43:44.007Z</time></trkpt><trkpt lat="45.1632287" lon="8.2371283"><ele>216.83333333333334</ele><time>2026-04-25T09:43:44.996Z</time></trkpt><trkpt lat="45.1633085" lon="8.2372102"><ele>217.66666666666669</ele><time>2026-04-25T09:43:45.989Z</time></trkpt><trkpt lat="45.1633772" lon="8.2372679"><ele>218.5</ele><time>2026-04-25T09:43:46.993Z</time></trkpt><trkpt lat="45.163434" lon="8.2373179"><ele>219.33333333333334</ele><time>2026-04-25T09:43:47.995Z</time></trkpt><trkpt lat="45.163499" lon="8.237424"><ele>220.16666666666669</ele><time>2026-04-25T09:43:49.992Z</time></trkpt><trkpt lat="45.1634936" lon="8.237559"><ele>221.0</ele><time>2026-04-25T09:43:52.007Z</time></trkpt><trkpt lat="45.163436" lon="8.237606"><ele>220.16666666666669</ele><time>2026-04-25T09:43:52.996Z</time></trkpt><trkpt lat="45.1633685" lon="8.2376168"><ele>219.33333333333334</ele><time>2026-04-25T09:43:53.985Z</time></trkpt><trkpt lat="45.1633052" lon="8.2375919"><ele>218.5</ele><time>2026-04-25T09:43:54.985Z</time></trkpt><trkpt lat="45.1632419" lon="8.2375314"><ele>217.66666666666669</ele><time>2026-04-25T09:43:55.997Z</time></trkpt><trkpt lat="45.1631789" lon="8.2374434"><ele>216.83333333333334</ele><time>2026-04-25T09:43:56.995Z</time></trkpt><trkpt lat="45.1631189" lon="8.2373605"><ele>216.0</ele><time>2026-04-25T09:43:57.99Z</time></trkpt><trkpt lat="45.1630688" lon="8.2372845"><ele>216.0</ele><time>2026-04-25T09:43:58.997Z</time></trkpt><trkpt lat="45.1630129" lon="8.2372367"><ele>216.0</ele><time>2026-04-25T09:43:59.993Z</time></trkpt><trkpt lat="45.1628915" lon="8.2372411"><ele>216.0</ele><time>2026-04-25T09:44:02Z</time></trkpt><trkpt lat="45.1628308" lon="8.2372663"><ele>216.0</ele><time>2026-04-25T09:44:02.994Z</time></trkpt><trkpt lat="45.1627791" lon="8.2373389"><ele>216.0</ele><time>2026-04-25T09:44:04.006Z</time></trkpt><trkpt lat="45.1627326" lon="8.2374391"><ele>216.0</ele><time>2026-04-25T09:44:04.993Z</time></trkpt><trkpt lat="45.1626879" lon="8.2375393"><ele>214.0</ele><time>2026-04-25T09:44:05.998Z</time></trkpt><trkpt lat="45.162646" lon="8.2376293"><ele>212.0</ele><time>2026-04-25T09:44:06.994Z</time></trkpt><trkpt lat="45.162596" lon="8.2376984"><ele>210.0</ele><time>2026-04-25T09:44:07.987Z</time></trkpt><trkpt lat="45.1625253" lon="8.2377512"><ele>208.0</ele><time>2026-04-25T09:44:08.999Z</time></trkpt><trkpt lat="45.162439" lon="8.2377978"><ele>206.0</ele><time>2026-04-25T09:44:09.991Z</time></trkpt><trkpt lat="45.1623446" lon="8.2378461"><ele>204.0</ele><time>2026-04-25T09:44:11.021Z</time></trkpt><trkpt lat="45.1622581" lon="8.2378887"><ele>203.28571428571428</ele><time>2026-04-25T09:44:11.993Z</time></trkpt><trkpt lat="45.162187" lon="8.2379085"><ele>202.57142857142858</ele><time>2026-04-25T09:44:12.993Z</time></trkpt><trkpt lat="45.1621202" lon="8.2379045"><ele>201.85714285714283</ele><time>2026-04-25T09:44:13.994Z</time></trkpt><trkpt lat="45.1620473" lon="8.2378664"><ele>201.14285714285714</ele><time>2026-04-25T09:44:15Z</time></trkpt><trkpt lat="45.1619751" lon="8.2378265"><ele>200.42857142857142</ele><time>2026-04-25T09:44:15.996Z</time></trkpt><trkpt lat="45.161907" lon="8.2378063"><ele>199.7142857142857</ele><time>2026-04-25T09:44:16.989Z</time></trkpt><trkpt lat="45.1618389" lon="8.237821"><ele>199.0</ele><time>2026-04-25T09:44:18Z</time></trkpt><trkpt lat="45.1617708" lon="8.2378416"><ele>198.99999999999997</ele><time>2026-04-25T09:44:18.988Z</time></trkpt><trkpt lat="45.1617109" lon="8.2379052"><ele>199.0</ele><time>2026-04-25T09:44:19.994Z</time></trkpt><trkpt lat="45.1616467" lon="8.2379778"><ele>199.0</ele><time>2026-04-25T09:44:21Z</time></trkpt><trkpt lat="45.1615706" lon="8.2380493"><ele>199.0</ele><time>2026-04-25T09:44:21.996Z</time></trkpt><trkpt lat="45.1615016" lon="8.2381012"><ele>198.99999999999997</ele><time>2026-04-25T09:44:22.99Z</time></trkpt><trkpt lat="45.1614367" lon="8.2381325"><ele>199.0</ele><time>2026-04-25T09:44:23.995Z</time></trkpt><trkpt lat="45.1613294" lon="8.2381805"><ele>197.0</ele><time>2026-04-25T09:44:25.994Z</time></trkpt><trkpt lat="45.161266" lon="8.2382705"><ele>195.0</ele><time>2026-04-25T09:44:27.998Z</time></trkpt><trkpt lat="45.1612841" lon="8.2384121"><ele>193.0</ele><time>2026-04-25T09:44:29.998Z</time></trkpt><trkpt lat="45.161373" lon="8.2384669"><ele>191.0</ele><time>2026-04-25T09:44:32.007Z</time></trkpt><trkpt lat="45.1614982" lon="8.238431"><ele>189.0</ele><time>2026-04-25T09:44:33.995Z</time></trkpt><trkpt lat="45.1615809" lon="8.2384122"><ele>189.0</ele><time>2026-04-25T09:44:34.992Z</time></trkpt><trkpt lat="45.1616706" lon="8.2384009"><ele>189.0</ele><time>2026-04-25T09:44:35.992Z</time></trkpt><trkpt lat="45.1617603" lon="8.2383877"><ele>189.0</ele><time>2026-04-25T09:44:36.996Z</time></trkpt><trkpt lat="45.1618505" lon="8.2383787"><ele>189.0</ele><time>2026-04-25T09:44:37.995Z</time></trkpt><trkpt lat="45.1619376" lon="8.2383797"><ele>189.0</ele><time>2026-04-25T09:44:38.988Z</time></trkpt><trkpt lat="45.1620276" lon="8.2383839"><ele>189.0</ele><time>2026-04-25T09:44:39.995Z</time></trkpt><trkpt lat="45.1621078" lon="8.23839"><ele>189.0</ele><time>2026-04-25T09:44:40.99Z</time></trkpt><trkpt lat="45.1621829" lon="8.2384348"><ele>189.0</ele><time>2026-04-25T09:44:41.998Z</time></trkpt><trkpt lat="45.1622583" lon="8.2384795"><ele>189.0</ele><time>2026-04-25T09:44:42.989Z</time></trkpt><trkpt lat="45.1623293" lon="8.2385611"><ele>189.0</ele><time>2026-04-25T09:44:43.993Z</time></trkpt><trkpt lat="45.1623925" lon="8.2386521"><ele>189.0</ele><time>2026-04-25T09:44:44.993Z</time></trkpt><trkpt lat="45.1624408" lon="8.2387404"><ele>189.0</ele><time>2026-04-25T09:44:45.992Z</time></trkpt><trkpt lat="45.1624829" lon="8.2388117"><ele>189.0</ele><time>2026-04-25T09:44:46.984Z</time></trkpt><trkpt lat="45.1625363" lon="8.2388609"><ele>189.0</ele><time>2026-04-25T09:44:47.99Z</time></trkpt><trkpt lat="45.1626002" lon="8.2388826"><ele>189.0</ele><time>2026-04-25T09:44:48.993Z</time></trkpt><trkpt lat="45.1627272" lon="8.2389125"><ele>189.0</ele><time>2026-04-25T09:44:51.02Z</time></trkpt><trkpt lat="45.1628011" lon="8.2389374"><ele>189.0</ele><time>2026-04-25T09:44:51.993Z</time></trkpt><trkpt lat="45.1628756" lon="8.2389871"><ele>189.0</ele><time>2026-04-25T09:44:52.987Z</time></trkpt><trkpt lat="45.1629516" lon="8.23906"><ele>186.33333333333334</ele><time>2026-04-25T09:44:53.992Z</time></trkpt><trkpt lat="45.1630319" lon="8.2391344"><ele>183.66666666666666</ele><time>2026-04-25T09:44:54.99Z</time></trkpt><trkpt lat="45.1631061" lon="8.2392015"><ele>181.0</ele><time>2026-04-25T09:44:55.992Z</time></trkpt><trkpt lat="45.1631684" lon="8.2392625"><ele>178.33333333333331</ele><time>2026-04-25T09:44:57Z</time></trkpt><trkpt lat="45.1632685" lon="8.2393393"><ele>175.66666666666666</ele><time>2026-04-25T09:44:58.992Z</time></trkpt><trkpt lat="45.1633329" lon="8.2393064"><ele>173.0</ele><time>2026-04-25T09:44:59.988Z</time></trkpt><trkpt lat="45.1634357" lon="8.239212"><ele>172.4</ele><time>2026-04-25T09:45:01.99Z</time></trkpt><trkpt lat="45.1635432" lon="8.2391695"><ele>171.8</ele><time>2026-04-25T09:45:03.99Z</time></trkpt><trkpt lat="45.1636079" lon="8.2392227"><ele>171.2</ele><time>2026-04-25T09:45:04.995Z</time></trkpt><trkpt lat="45.1636679" lon="8.2393232"><ele>170.6</ele><time>2026-04-25T09:45:05.991Z</time></trkpt><trkpt lat="45.1637329" lon="8.239426"><ele>170.0</ele><time>2026-04-25T09:45:06.994Z</time></trkpt><trkpt lat="45.1637958" lon="8.2395273"><ele>170.0</ele><time>2026-04-25T09:45:08.007Z</time></trkpt><trkpt lat="45.1638486" lon="8.2396203"><ele>170.0</ele><time>2026-04-25T09:45:08.995Z</time></trkpt><trkpt lat="45.1639019" lon="8.2397092"><ele>170.0</ele><time>2026-04-25T09:45:09.996Z</time></trkpt><trkpt lat="45.1639608" lon="8.239756"><ele>170.0</ele><time>2026-04-25T09:45:10.995Z</time></trkpt><trkpt lat="45.1640383" lon="8.2397841"><ele>170.0</ele><time>2026-04-25T09:45:11.999Z</time></trkpt><trkpt lat="45.1641246" lon="8.2398132"><ele>170.0</ele><time>2026-04-25T09:45:12.991Z</time></trkpt><trkpt lat="45.1642161" lon="8.2398213"><ele>168.0</ele><time>2026-04-25T09:45:13.989Z</time></trkpt><trkpt lat="45.1642985" lon="8.2398407"><ele>166.0</ele><time>2026-04-25T09:45:14.995Z</time></trkpt><trkpt lat="45.1643724" lon="8.2398688"><ele>164.0</ele><time>2026-04-25T09:45:15.991Z</time></trkpt><trkpt lat="45.1644435" lon="8.2399115"><ele>162.0</ele><time>2026-04-25T09:45:17.003Z</time></trkpt><trkpt lat="45.1645219" lon="8.2399658"><ele>160.0</ele><time>2026-04-25T09:45:17.993Z</time></trkpt><trkpt lat="45.1645963" lon="8.2400145"><ele>158.0</ele><time>2026-04-25T09:45:18.993Z</time></trkpt><trkpt lat="45.1646714" lon="8.2400623"><ele>158.0</ele><time>2026-04-25T09:45:20.002Z</time></trkpt><trkpt lat="45.1647293" lon="8.2401023"><ele>158.0</ele><time>2026-04-25T09:45:20.995Z</time></trkpt><trkpt lat="45.164858" lon="8.2401165"><ele>158.0</ele><time>2026-04-25T09:45:22.994Z</time></trkpt><trkpt lat="45.164941" lon="8.2401013"><ele>158.0</ele><time>2026-04-25T09:45:23.998Z</time></trkpt><trkpt lat="45.1650219" lon="8.2400691"><ele>158.0</ele><time>2026-04-25T09:45:24.995Z</time></trkpt><trkpt lat="45.1650977" lon="8.2400372"><ele>158.0</ele><time>2026-04-25T09:45:25.997Z</time></trkpt><trkpt lat="45.1651715" lon="8.2399968"><ele>158.66666666666666</ele><time>2026-04-25T09:45:27.005Z</time></trkpt><trkpt lat="45.1652493" lon="8.239924"><ele>159.33333333333331</ele><time>2026-04-25T09:45:27.993Z</time></trkpt><trkpt lat="45.165329" lon="8.2398753"><ele>160.0</ele><time>2026-04-25T09:45:28.991Z</time></trkpt><trkpt lat="45.1654126" lon="8.2398608"><ele>160.66666666666666</ele><time>2026-04-25T09:45:29.998Z</time></trkpt><trkpt lat="45.1654947" lon="8.2398628"><ele>161.33333333333334</ele><time>2026-04-25T09:45:30.991Z</time></trkpt><trkpt lat="45.1655816" lon="8.2398606"><ele>162.0</ele><time>2026-04-25T09:45:31.999Z</time></trkpt><trkpt lat="45.1656681" lon="8.2398395"><ele>160.0</ele><time>2026-04-25T09:45:32.992Z</time></trkpt><trkpt lat="45.1657578" lon="8.2398117"><ele>158.0</ele><time>2026-04-25T09:45:33.999Z</time></trkpt><trkpt lat="45.1658447" lon="8.2397927"><ele>156.0</ele><time>2026-04-25T09:45:34.992Z</time></trkpt><trkpt lat="45.1659242" lon="8.2397997"><ele>154.0</ele><time>2026-04-25T09:45:35.999Z</time></trkpt><trkpt lat="45.1659956" lon="8.2398194"><ele>152.0</ele><time>2026-04-25T09:45:36.992Z</time></trkpt><trkpt lat="45.1660669" lon="8.2398343"><ele>150.0</ele><time>2026-04-25T09:45:38Z</time></trkpt><trkpt lat="45.166137" lon="8.2398378"><ele>149.99999999999997</ele><time>2026-04-25T09:45:38.998Z</time></trkpt><trkpt lat="45.1661981" lon="8.2398044"><ele>150.0</ele><time>2026-04-25T09:45:39.992Z</time></trkpt><trkpt lat="45.1662602" lon="8.2397384"><ele>150.0</ele><time>2026-04-25T09:45:41.001Z</time></trkpt><trkpt lat="45.1663138" lon="8.2396597"><ele>150.0</ele><time>2026-04-25T09:45:41.991Z</time></trkpt><trkpt lat="45.1663619" lon="8.2395797"><ele>150.0</ele><time>2026-04-25T09:45:42.99Z</time></trkpt><trkpt lat="45.1663959" lon="8.2395012"><ele>149.99999999999997</ele><time>2026-04-25T09:45:43.996Z</time></trkpt><trkpt lat="45.1664522" lon="8.2394347"><ele>150.0</ele><time>2026-04-25T09:45:44.994Z</time></trkpt><trkpt lat="45.1665118" lon="8.2393791"><ele>149.66666666666666</ele><time>2026-04-25T09:45:45.994Z</time></trkpt><trkpt lat="45.1665769" lon="8.2393376"><ele>149.33333333333334</ele><time>2026-04-25T09:45:46.999Z</time></trkpt><trkpt lat="45.1666355" lon="8.2393042"><ele>149.0</ele><time>2026-04-25T09:45:47.993Z</time></trkpt><trkpt lat="45.1667428" lon="8.239321"><ele>148.66666666666669</ele><time>2026-04-25T09:45:49.997Z</time></trkpt><trkpt lat="45.1667718" lon="8.2394013"><ele>148.33333333333334</ele><time>2026-04-25T09:45:50.995Z</time></trkpt><trkpt lat="45.1667973" lon="8.2394848"><ele>148.0</ele><time>2026-04-25T09:45:51.993Z</time></trkpt><trkpt lat="45.1668037" lon="8.2396029"><ele>148.0</ele><time>2026-04-25T09:45:53.003Z</time></trkpt><trkpt lat="45.1668067" lon="8.2397591"><ele>148.0</ele><time>2026-04-25T09:45:53.994Z</time></trkpt><trkpt lat="45.1668168" lon="8.2399349"><ele>148.0</ele><time>2026-04-25T09:45:54.99Z</time></trkpt><trkpt lat="45.1668315" lon="8.2401008"><ele>148.0</ele><time>2026-04-25T09:45:55.996Z</time></trkpt><trkpt lat="45.1668319" lon="8.2402362"><ele>148.0</ele><time>2026-04-25T09:45:57.005Z</time></trkpt><trkpt lat="45.1668322" lon="8.2403681"><ele>147.6</ele><time>2026-04-25T09:45:57.996Z</time></trkpt><trkpt lat="45.1668303" lon="8.2404969"><ele>147.20000000000002</ele><time>2026-04-25T09:45:59.013Z</time></trkpt><trkpt lat="45.166815" lon="8.2406458"><ele>146.8</ele><time>2026-04-25T09:45:59.993Z</time></trkpt><trkpt lat="45.166798" lon="8.2408027"><ele>146.4</ele><time>2026-04-25T09:46:01.006Z</time></trkpt><trkpt lat="45.166775" lon="8.2409774"><ele>146.0</ele><time>2026-04-25T09:46:01.991Z</time></trkpt><trkpt lat="45.166734" lon="8.2411546"><ele>147.25</ele><time>2026-04-25T09:46:02.993Z</time></trkpt><trkpt lat="45.1666959" lon="8.2413524"><ele>148.5</ele><time>2026-04-25T09:46:03.998Z</time></trkpt><trkpt lat="45.1666563" lon="8.2415423"><ele>149.75</ele><time>2026-04-25T09:46:05.004Z</time></trkpt><trkpt lat="45.1666132" lon="8.2417407"><ele>151.0</ele><time>2026-04-25T09:46:05.996Z</time></trkpt><trkpt lat="45.1665689" lon="8.2419437"><ele>153.75</ele><time>2026-04-25T09:46:06.996Z</time></trkpt><trkpt lat="45.1665262" lon="8.2421343"><ele>156.5</ele><time>2026-04-25T09:46:07.995Z</time></trkpt><trkpt lat="45.1664976" lon="8.2422923"><ele>159.25</ele><time>2026-04-25T09:46:08.996Z</time></trkpt><trkpt lat="45.1664675" lon="8.2424365"><ele>162.0</ele><time>2026-04-25T09:46:09.991Z</time></trkpt><trkpt lat="45.1664416" lon="8.2425806"><ele>162.0</ele><time>2026-04-25T09:46:11.005Z</time></trkpt><trkpt lat="45.1664168" lon="8.2427164"><ele>162.0</ele><time>2026-04-25T09:46:11.997Z</time></trkpt><trkpt lat="45.1664065" lon="8.2428134"><ele>162.0</ele><time>2026-04-25T09:46:13.012Z</time></trkpt><trkpt lat="45.1664572" lon="8.2429674"><ele>162.0</ele><time>2026-04-25T09:46:14.992Z</time></trkpt><trkpt lat="45.1665756" lon="8.2430499"><ele>162.0</ele><time>2026-04-25T09:46:16.995Z</time></trkpt><trkpt lat="45.1666486" lon="8.2430658"><ele>161.5</ele><time>2026-04-25T09:46:17.992Z</time></trkpt><trkpt lat="45.1667257" lon="8.2430404"><ele>161.0</ele><time>2026-04-25T09:46:18.994Z</time></trkpt><trkpt lat="45.1667942" lon="8.2429928"><ele>160.5</ele><time>2026-04-25T09:46:19.993Z</time></trkpt><trkpt lat="45.1668523" lon="8.2429174"><ele>160.0</ele><time>2026-04-25T09:46:21.002Z</time></trkpt><trkpt lat="45.1669113" lon="8.2428379"><ele>159.5</ele><time>2026-04-25T09:46:22.002Z</time></trkpt><trkpt lat="45.1669508" lon="8.242719"><ele>159.0</ele><time>2026-04-25T09:46:22.996Z</time></trkpt><trkpt lat="45.1669881" lon="8.242571"><ele>159.0</ele><time>2026-04-25T09:46:23.996Z</time></trkpt><trkpt lat="45.1670199" lon="8.2424174"><ele>159.0</ele><time>2026-04-25T09:46:24.995Z</time></trkpt><trkpt lat="45.16705" lon="8.2422556"><ele>159.0</ele><time>2026-04-25T09:46:25.999Z</time></trkpt><trkpt lat="45.167053" lon="8.242096"><ele>159.0</ele><time>2026-04-25T09:46:26.994Z</time></trkpt><trkpt lat="45.1670587" lon="8.2419369"><ele>158.2</ele><time>2026-04-25T09:46:28Z</time></trkpt><trkpt lat="45.167061" lon="8.2417849"><ele>157.4</ele><time>2026-04-25T09:46:29.005Z</time></trkpt><trkpt lat="45.1670577" lon="8.2416445"><ele>156.6</ele><time>2026-04-25T09:46:29.996Z</time></trkpt><trkpt lat="45.1670561" lon="8.2415325"><ele>155.8</ele><time>2026-04-25T09:46:31Z</time></trkpt><trkpt lat="45.1671046" lon="8.2414193"><ele>155.0</ele><time>2026-04-25T09:46:32.993Z</time></trkpt><trkpt lat="45.1672009" lon="8.2414254"><ele>155.0</ele><time>2026-04-25T09:46:34.995Z</time></trkpt><trkpt lat="45.1672696" lon="8.2415513"><ele>155.0</ele><time>2026-04-25T09:46:36.999Z</time></trkpt><trkpt lat="45.167297" lon="8.2417473"><ele>155.0</ele><time>2026-04-25T09:46:38.996Z</time></trkpt><trkpt lat="45.1673005" lon="8.2418685"><ele>155.0</ele><time>2026-04-25T09:46:39.994Z</time></trkpt><trkpt lat="45.1673069" lon="8.2420133"><ele>155.0</ele><time>2026-04-25T09:46:40.993Z</time></trkpt><trkpt lat="45.1673137" lon="8.2421527"><ele>156.0</ele><time>2026-04-25T09:46:41.993Z</time></trkpt><trkpt lat="45.1673386" lon="8.2423026"><ele>157.0</ele><time>2026-04-25T09:46:42.993Z</time></trkpt><trkpt lat="45.1673836" lon="8.2424628"><ele>158.0</ele><time>2026-04-25T09:46:43.999Z</time></trkpt><trkpt lat="45.1674241" lon="8.2426434"><ele>159.0</ele><time>2026-04-25T09:46:44.995Z</time></trkpt><trkpt lat="45.167445" lon="8.2428265"><ele>164.75</ele><time>2026-04-25T09:46:45.998Z</time></trkpt><trkpt lat="45.1674559" lon="8.2430086"><ele>170.5</ele><time>2026-04-25T09:46:46.994Z</time></trkpt><trkpt lat="45.1674674" lon="8.2431865"><ele>176.25</ele><time>2026-04-25T09:46:47.988Z</time></trkpt><trkpt lat="45.1674591" lon="8.2433581"><ele>182.0</ele><time>2026-04-25T09:46:48.992Z</time></trkpt><trkpt lat="45.1674546" lon="8.2435408"><ele>182.0</ele><time>2026-04-25T09:46:49.993Z</time></trkpt><trkpt lat="45.1674639" lon="8.2437307"><ele>182.0</ele><time>2026-04-25T09:46:51Z</time></trkpt><trkpt lat="45.1674803" lon="8.2439141"><ele>182.0</ele><time>2026-04-25T09:46:51.998Z</time></trkpt><trkpt lat="45.167497" lon="8.2440934"><ele>182.0</ele><time>2026-04-25T09:46:53.002Z</time></trkpt><trkpt lat="45.1675134" lon="8.2442615"><ele>182.2</ele><time>2026-04-25T09:46:53.991Z</time></trkpt><trkpt lat="45.1675294" lon="8.2444226"><ele>182.39999999999998</ele><time>2026-04-25T09:46:54.993Z</time></trkpt><trkpt lat="45.1675371" lon="8.2445563"><ele>182.60000000000002</ele><time>2026-04-25T09:46:55.993Z</time></trkpt><trkpt lat="45.1675183" lon="8.2446958"><ele>182.8</ele><time>2026-04-25T09:46:56.994Z</time></trkpt><trkpt lat="45.1674761" lon="8.2448434"><ele>183.0</ele><time>2026-04-25T09:46:57.997Z</time></trkpt><trkpt lat="45.1674308" lon="8.2450048"><ele>182.25</ele><time>2026-04-25T09:46:58.995Z</time></trkpt><trkpt lat="45.1673613" lon="8.2451807"><ele>181.5</ele><time>2026-04-25T09:46:59.994Z</time></trkpt><trkpt lat="45.1672888" lon="8.2453571"><ele>180.75</ele><time>2026-04-25T09:47:00.996Z</time></trkpt><trkpt lat="45.1672246" lon="8.2455168"><ele>180.0</ele><time>2026-04-25T09:47:01.997Z</time></trkpt><trkpt lat="45.1671633" lon="8.2456617"><ele>180.0</ele><time>2026-04-25T09:47:02.995Z</time></trkpt><trkpt lat="45.1671118" lon="8.2457906"><ele>180.0</ele><time>2026-04-25T09:47:03.999Z</time></trkpt><trkpt lat="45.1670748" lon="8.2459278"><ele>180.0</ele><time>2026-04-25T09:47:04.993Z</time></trkpt><trkpt lat="45.1670384" lon="8.2460921"><ele>180.0</ele><time>2026-04-25T09:47:05.99Z</time></trkpt><trkpt lat="45.1670073" lon="8.2462864"><ele>182.4</ele><time>2026-04-25T09:47:06.993Z</time></trkpt><trkpt lat="45.1669774" lon="8.2464666"><ele>184.8</ele><time>2026-04-25T09:47:08Z</time></trkpt><trkpt lat="45.1669494" lon="8.2466094"><ele>187.2</ele><time>2026-04-25T09:47:08.992Z</time></trkpt><trkpt lat="45.1669207" lon="8.2467301"><ele>189.6</ele><time>2026-04-25T09:47:09.994Z</time></trkpt><trkpt lat="45.166912" lon="8.2468426"><ele>192.0</ele><time>2026-04-25T09:47:11Z</time></trkpt><trkpt lat="45.1669054" lon="8.2469578"><ele>192.0</ele><time>2026-04-25T09:47:11.998Z</time></trkpt><trkpt lat="45.1669258" lon="8.247083"><ele>192.0</ele><time>2026-04-25T09:47:12.998Z</time></trkpt><trkpt lat="45.1669679" lon="8.247232"><ele>192.0</ele><time>2026-04-25T09:47:13.988Z</time></trkpt><trkpt lat="45.167017" lon="8.2473997"><ele>192.0</ele><time>2026-04-25T09:47:14.991Z</time></trkpt><trkpt lat="45.16706" lon="8.2475535"><ele>192.0</ele><time>2026-04-25T09:47:16.001Z</time></trkpt><trkpt lat="45.1670939" lon="8.2476931"><ele>192.6</ele><time>2026-04-25T09:47:16.989Z</time></trkpt><trkpt lat="45.1671027" lon="8.2478485"><ele>193.2</ele><time>2026-04-25T09:47:18.005Z</time></trkpt><trkpt lat="45.167102" lon="8.2480156"><ele>193.8</ele><time>2026-04-25T09:47:18.995Z</time></trkpt><trkpt lat="45.1671013" lon="8.2481717"><ele>194.4</ele><time>2026-04-25T09:47:19.999Z</time></trkpt><trkpt lat="45.1671018" lon="8.2482995"><ele>195.0</ele><time>2026-04-25T09:47:20.995Z</time></trkpt><trkpt lat="45.1671153" lon="8.2484132"><ele>195.6</ele><time>2026-04-25T09:47:22.009Z</time></trkpt><trkpt lat="45.1671527" lon="8.2485294"><ele>196.2</ele><time>2026-04-25T09:47:22.989Z</time></trkpt><trkpt lat="45.1671937" lon="8.2486422"><ele>196.8</ele><time>2026-04-25T09:47:23.998Z</time></trkpt><trkpt lat="45.16727" lon="8.2487394"><ele>197.4</ele><time>2026-04-25T09:47:24.997Z</time></trkpt><trkpt lat="45.167341" lon="8.2488386"><ele>198.0</ele><time>2026-04-25T09:47:25.992Z</time></trkpt><trkpt lat="45.1673891" lon="8.2489356"><ele>202.60000000000002</ele><time>2026-04-25T09:47:27.001Z</time></trkpt><trkpt lat="45.167417" lon="8.2490412"><ele>207.20000000000002</ele><time>2026-04-25T09:47:27.992Z</time></trkpt><trkpt lat="45.1674276" lon="8.249164"><ele>211.8</ele><time>2026-04-25T09:47:28.994Z</time></trkpt><trkpt lat="45.1674214" lon="8.2492968"><ele>216.4</ele><time>2026-04-25T09:47:29.995Z</time></trkpt><trkpt lat="45.1673973" lon="8.2494448"><ele>221.0</ele><time>2026-04-25T09:47:30.99Z</time></trkpt><trkpt lat="45.1673652" lon="8.2495832"><ele>221.4</ele><time>2026-04-25T09:47:31.997Z</time></trkpt><trkpt lat="45.1673364" lon="8.2497082"><ele>221.8</ele><time>2026-04-25T09:47:32.991Z</time></trkpt><trkpt lat="45.1673315" lon="8.2498214"><ele>222.20000000000002</ele><time>2026-04-25T09:47:33.998Z</time></trkpt><trkpt lat="45.1673316" lon="8.2499327"><ele>222.60000000000002</ele><time>2026-04-25T09:47:34.993Z</time></trkpt><trkpt lat="45.1673734" lon="8.2500634"><ele>223.0</ele><time>2026-04-25T09:47:36.002Z</time></trkpt><trkpt lat="45.16742" lon="8.250203"><ele>223.0</ele><time>2026-04-25T09:47:36.991Z</time></trkpt><trkpt lat="45.1674969" lon="8.2503556"><ele>223.0</ele><time>2026-04-25T09:47:38.011Z</time></trkpt><trkpt lat="45.1675556" lon="8.2505068"><ele>223.0</ele><time>2026-04-25T09:47:38.996Z</time></trkpt><trkpt lat="45.1675968" lon="8.250627"><ele>223.0</ele><time>2026-04-25T09:47:39.99Z</time></trkpt><trkpt lat="45.1676166" lon="8.2507193"><ele>223.0</ele><time>2026-04-25T09:47:40.996Z</time></trkpt><trkpt lat="45.1676071" lon="8.2508925"><ele>223.60000000000002</ele><time>2026-04-25T09:47:43.005Z</time></trkpt><trkpt lat="45.1675713" lon="8.251061"><ele>224.20000000000002</ele><time>2026-04-25T09:47:44.997Z</time></trkpt><trkpt lat="45.1675328" lon="8.2511561"><ele>224.8</ele><time>2026-04-25T09:47:45.991Z</time></trkpt><trkpt lat="45.1674911" lon="8.2512733"><ele>225.4</ele><time>2026-04-25T09:47:46.998Z</time></trkpt><trkpt lat="45.1674555" lon="8.2513886"><ele>226.0</ele><time>2026-04-25T09:47:47.989Z</time></trkpt><trkpt lat="45.1674295" lon="8.2515017"><ele>227.60000000000002</ele><time>2026-04-25T09:47:48.985Z</time></trkpt><trkpt lat="45.1674204" lon="8.2516179"><ele>229.20000000000002</ele><time>2026-04-25T09:47:49.996Z</time></trkpt><trkpt lat="45.1674243" lon="8.251742"><ele>230.79999999999998</ele><time>2026-04-25T09:47:50.988Z</time></trkpt><trkpt lat="45.1674422" lon="8.2518845"><ele>232.39999999999998</ele><time>2026-04-25T09:47:51.989Z</time></trkpt><trkpt lat="45.1674764" lon="8.2520468"><ele>234.0</ele><time>2026-04-25T09:47:52.989Z</time></trkpt><trkpt lat="45.1675097" lon="8.2522008"><ele>234.66666666666666</ele><time>2026-04-25T09:47:53.995Z</time></trkpt><trkpt lat="45.1675398" lon="8.2523398"><ele>235.33333333333331</ele><time>2026-04-25T09:47:54.995Z</time></trkpt><trkpt lat="45.1675548" lon="8.2524545"><ele>236.0</ele><time>2026-04-25T09:47:55.992Z</time></trkpt><trkpt lat="45.1675529" lon="8.2525567"><ele>236.66666666666666</ele><time>2026-04-25T09:47:56.994Z</time></trkpt><trkpt lat="45.1675286" lon="8.2526596"><ele>237.33333333333331</ele><time>2026-04-25T09:47:57.986Z</time></trkpt><trkpt lat="45.1674939" lon="8.2527611"><ele>238.0</ele><time>2026-04-25T09:47:59Z</time></trkpt><trkpt lat="45.16745" lon="8.2528497"><ele>238.0</ele><time>2026-04-25T09:47:59.992Z</time></trkpt><trkpt lat="45.1674095" lon="8.2529546"><ele>238.0</ele><time>2026-04-25T09:48:00.99Z</time></trkpt><trkpt lat="45.1673651" lon="8.253066"><ele>238.0</ele><time>2026-04-25T09:48:01.997Z</time></trkpt><trkpt lat="45.1673264" lon="8.2531899"><ele>238.0</ele><time>2026-04-25T09:48:02.994Z</time></trkpt><trkpt lat="45.1673068" lon="8.2533371"><ele>238.0</ele><time>2026-04-25T09:48:04.003Z</time></trkpt><trkpt lat="45.1673011" lon="8.2534981"><ele>235.75</ele><time>2026-04-25T09:48:04.989Z</time></trkpt><trkpt lat="45.1673072" lon="8.2536734"><ele>233.5</ele><time>2026-04-25T09:48:05.992Z</time></trkpt><trkpt lat="45.1673065" lon="8.2538507"><ele>231.25</ele><time>2026-04-25T09:48:06.991Z</time></trkpt><trkpt lat="45.1672934" lon="8.2540306"><ele>229.0</ele><time>2026-04-25T09:48:07.997Z</time></trkpt><trkpt lat="45.1672587" lon="8.254209"><ele>229.0</ele><time>2026-04-25T09:48:08.992Z</time></trkpt><trkpt lat="45.167207" lon="8.2543735"><ele>229.0</ele><time>2026-04-25T09:48:09.998Z</time></trkpt><trkpt lat="45.1671588" lon="8.2545204"><ele>229.0</ele><time>2026-04-25T09:48:10.995Z</time></trkpt><trkpt lat="45.1671113" lon="8.2546636"><ele>229.0</ele><time>2026-04-25T09:48:11.999Z</time></trkpt><trkpt lat="45.1670899" lon="8.2548194"><ele>230.39999999999998</ele><time>2026-04-25T09:48:12.995Z</time></trkpt><trkpt lat="45.1670876" lon="8.2549834"><ele>231.79999999999998</ele><time>2026-04-25T09:48:13.991Z</time></trkpt><trkpt lat="45.1671014" lon="8.2551489"><ele>233.20000000000002</ele><time>2026-04-25T09:48:14.992Z</time></trkpt><trkpt lat="45.1671213" lon="8.2553079"><ele>234.60000000000002</ele><time>2026-04-25T09:48:15.994Z</time></trkpt><trkpt lat="45.1671385" lon="8.2554492"><ele>236.0</ele><time>2026-04-25T09:48:16.991Z</time></trkpt><trkpt lat="45.167147" lon="8.2555721"><ele>238.60000000000002</ele><time>2026-04-25T09:48:17.992Z</time></trkpt><trkpt lat="45.1671423" lon="8.2556946"><ele>241.20000000000002</ele><time>2026-04-25T09:48:18.994Z</time></trkpt><trkpt lat="45.1671157" lon="8.2558198"><ele>243.79999999999998</ele><time>2026-04-25T09:48:20.007Z</time></trkpt><trkpt lat="45.1670654" lon="8.2559429"><ele>246.39999999999998</ele><time>2026-04-25T09:48:20.989Z</time></trkpt><trkpt lat="45.1669948" lon="8.2560623"><ele>249.0</ele><time>2026-04-25T09:48:21.99Z</time></trkpt><trkpt lat="45.1669053" lon="8.2561807"><ele>249.0</ele><time>2026-04-25T09:48:22.993Z</time></trkpt><trkpt lat="45.1667991" lon="8.2563049"><ele>249.0</ele><time>2026-04-25T09:48:23.992Z</time></trkpt><trkpt lat="45.1666797" lon="8.2564379"><ele>249.0</ele><time>2026-04-25T09:48:25.003Z</time></trkpt><trkpt lat="45.1665505" lon="8.2565792"><ele>249.33333333333331</ele><time>2026-04-25T09:48:25.991Z</time></trkpt><trkpt lat="45.1664188" lon="8.2567229"><ele>249.66666666666666</ele><time>2026-04-25T09:48:26.991Z</time></trkpt><trkpt lat="45.1662827" lon="8.2568728"><ele>250.0</ele><time>2026-04-25T09:48:27.998Z</time></trkpt><trkpt lat="45.1661494" lon="8.2570212"><ele>250.0</ele><time>2026-04-25T09:48:28.992Z</time></trkpt><trkpt lat="45.1660251" lon="8.257164"><ele>250.0</ele><time>2026-04-25T09:48:30Z</time></trkpt><trkpt lat="45.1659053" lon="8.2573008"><ele>250.0</ele><time>2026-04-25T09:48:30.995Z</time></trkpt><trkpt lat="45.1657923" lon="8.257423"><ele>253.0</ele><time>2026-04-25T09:48:32Z</time></trkpt><trkpt lat="45.1656867" lon="8.2575286"><ele>256.0</ele><time>2026-04-25T09:48:33.011Z</time></trkpt><trkpt lat="45.1655787" lon="8.2576162"><ele>259.0</ele><time>2026-04-25T09:48:34Z</time></trkpt><trkpt lat="45.1654596" lon="8.2576752"><ele>262.0</ele><time>2026-04-25T09:48:35Z</time></trkpt><trkpt lat="45.1653319" lon="8.2577121"><ele>262.0</ele><time>2026-04-25T09:48:35.995Z</time></trkpt><trkpt lat="45.1652055" lon="8.2577439"><ele>262.0</ele><time>2026-04-25T09:48:36.998Z</time></trkpt><trkpt lat="45.1650653" lon="8.2577699"><ele>262.0</ele><time>2026-04-25T09:48:37.99Z</time></trkpt><trkpt lat="45.1649329" lon="8.2578058"><ele>262.0</ele><time>2026-04-25T09:48:39Z</time></trkpt><trkpt lat="45.1648024" lon="8.2578468"><ele>265.6</ele><time>2026-04-25T09:48:40.006Z</time></trkpt><trkpt lat="45.1646824" lon="8.2578907"><ele>269.2</ele><time>2026-04-25T09:48:40.994Z</time></trkpt><trkpt lat="45.164584" lon="8.257943"><ele>272.8</ele><time>2026-04-25T09:48:42.017Z</time></trkpt><trkpt lat="45.1644963" lon="8.2579932"><ele>276.4</ele><time>2026-04-25T09:48:42.993Z</time></trkpt><trkpt lat="45.1644497" lon="8.2580996"><ele>280.0</ele><time>2026-04-25T09:48:43.995Z</time></trkpt><trkpt lat="45.164426" lon="8.2582269"><ele>282.6</ele><time>2026-04-25T09:48:44.993Z</time></trkpt><trkpt lat="45.1644147" lon="8.2583621"><ele>285.2</ele><time>2026-04-25T09:48:46.004Z</time></trkpt><trkpt lat="45.1643854" lon="8.25849"><ele>287.8</ele><time>2026-04-25T09:48:47.003Z</time></trkpt><trkpt lat="45.1643323" lon="8.2586229"><ele>290.4</ele><time>2026-04-25T09:48:48Z</time></trkpt><trkpt lat="45.1642709" lon="8.2587673"><ele>293.0</ele><time>2026-04-25T09:48:48.993Z</time></trkpt><trkpt lat="45.1641813" lon="8.2589016"><ele>292.5</ele><time>2026-04-25T09:48:49.998Z</time></trkpt><trkpt lat="45.1641004" lon="8.259049"><ele>292.0</ele><time>2026-04-25T09:48:50.989Z</time></trkpt><trkpt lat="45.164031" lon="8.2592245"><ele>291.5</ele><time>2026-04-25T09:48:51.997Z</time></trkpt><trkpt lat="45.1639767" lon="8.2594148"><ele>291.0</ele><time>2026-04-25T09:48:52.991Z</time></trkpt><trkpt lat="45.1639418" lon="8.2595999"><ele>291.5</ele><time>2026-04-25T09:48:53.995Z</time></trkpt><trkpt lat="45.1639154" lon="8.2597785"><ele>292.0</ele><time>2026-04-25T09:48:54.995Z</time></trkpt><trkpt lat="45.163933" lon="8.2599501"><ele>292.5</ele><time>2026-04-25T09:48:55.995Z</time></trkpt><trkpt lat="45.1639822" lon="8.2601047"><ele>293.0</ele><time>2026-04-25T09:48:56.994Z</time></trkpt><trkpt lat="45.1640351" lon="8.2602398"><ele>293.0</ele><time>2026-04-25T09:48:57.995Z</time></trkpt><trkpt lat="45.1640688" lon="8.2603612"><ele>293.0</ele><time>2026-04-25T09:48:58.999Z</time></trkpt><trkpt lat="45.1640792" lon="8.2604909"><ele>293.0</ele><time>2026-04-25T09:49:00.001Z</time></trkpt><trkpt lat="45.1640703" lon="8.2606285"><ele>293.0</ele><time>2026-04-25T09:49:00.989Z</time></trkpt><trkpt lat="45.1640527" lon="8.2607739"><ele>293.0</ele><time>2026-04-25T09:49:02.005Z</time></trkpt><trkpt lat="45.1640443" lon="8.2609285"><ele>294.6</ele><time>2026-04-25T09:49:03Z</time></trkpt><trkpt lat="45.1640435" lon="8.2610837"><ele>296.20000000000005</ele><time>2026-04-25T09:49:03.998Z</time></trkpt><trkpt lat="45.164046" lon="8.2612249"><ele>297.8</ele><time>2026-04-25T09:49:04.997Z</time></trkpt><trkpt lat="45.1640381" lon="8.2613382"><ele>299.40000000000003</ele><time>2026-04-25T09:49:05.994Z</time></trkpt><trkpt lat="45.1640189" lon="8.2614327"><ele>301.0</ele><time>2026-04-25T09:49:06.996Z</time></trkpt><trkpt lat="45.1639193" lon="8.2614752"><ele>306.8</ele><time>2026-04-25T09:49:09.004Z</time></trkpt><trkpt lat="45.1638686" lon="8.261368"><ele>312.6</ele><time>2026-04-25T09:49:11.003Z</time></trkpt><trkpt lat="45.1638404" lon="8.2612738"><ele>318.4</ele><time>2026-04-25T09:49:11.998Z</time></trkpt><trkpt lat="45.1638101" lon="8.261141"><ele>324.2</ele><time>2026-04-25T09:49:13Z</time></trkpt><trkpt lat="45.1637776" lon="8.2609874"><ele>330.0</ele><time>2026-04-25T09:49:13.997Z</time></trkpt><trkpt lat="45.1637431" lon="8.260801"><ele>329.3333333333333</ele><time>2026-04-25T09:49:15.002Z</time></trkpt><trkpt lat="45.1637051" lon="8.2605902"><ele>328.66666666666663</ele><time>2026-04-25T09:49:15.99Z</time></trkpt><trkpt lat="45.1636656" lon="8.2603747"><ele>328.0</ele><time>2026-04-25T09:49:17.005Z</time></trkpt><trkpt lat="45.1636293" lon="8.2601714"><ele>328.0</ele><time>2026-04-25T09:49:17.992Z</time></trkpt><trkpt lat="45.1635961" lon="8.2599879"><ele>328.0</ele><time>2026-04-25T09:49:18.993Z</time></trkpt><trkpt lat="45.1635652" lon="8.2598354"><ele>328.0</ele><time>2026-04-25T09:49:19.989Z</time></trkpt><trkpt lat="45.1635267" lon="8.2597087"><ele>328.0</ele><time>2026-04-25T09:49:20.998Z</time></trkpt><trkpt lat="45.1634741" lon="8.2596007"><ele>328.0</ele><time>2026-04-25T09:49:21.996Z</time></trkpt><trkpt lat="45.1634074" lon="8.2595075"><ele>327.2</ele><time>2026-04-25T09:49:22.995Z</time></trkpt><trkpt lat="45.1633352" lon="8.2594244"><ele>326.4</ele><time>2026-04-25T09:49:24.007Z</time></trkpt><trkpt lat="45.1632442" lon="8.2593722"><ele>325.59999999999997</ele><time>2026-04-25T09:49:24.996Z</time></trkpt><trkpt lat="45.1631465" lon="8.2593245"><ele>324.79999999999995</ele><time>2026-04-25T09:49:26.006Z</time></trkpt><trkpt lat="45.1630504" lon="8.259287"><ele>324.0</ele><time>2026-04-25T09:49:27.004Z</time></trkpt><trkpt lat="45.1629682" lon="8.2592591"><ele>323.0</ele><time>2026-04-25T09:49:27.996Z</time></trkpt><trkpt lat="45.1629007" lon="8.2592309"><ele>322.0</ele><time>2026-04-25T09:49:28.997Z</time></trkpt><trkpt lat="45.1628284" lon="8.259251"><ele>321.0</ele><time>2026-04-25T09:49:31.995Z</time></trkpt><trkpt lat="45.1628981" lon="8.2592991"><ele>320.0</ele><time>2026-04-25T09:49:35.998Z</time></trkpt><trkpt lat="45.1629558" lon="8.2593361"><ele>319.0</ele><time>2026-04-25T09:49:36.995Z</time></trkpt><trkpt lat="45.1630344" lon="8.2593924"><ele>318.0</ele><time>2026-04-25T09:49:37.996Z</time></trkpt><trkpt lat="45.1631143" lon="8.259446"><ele>318.0</ele><time>2026-04-25T09:49:39.007Z</time></trkpt><trkpt lat="45.1631835" lon="8.2595088"><ele>318.0</ele><time>2026-04-25T09:49:39.996Z</time></trkpt><trkpt lat="45.1632376" lon="8.2595799"><ele>318.0</ele><time>2026-04-25T09:49:40.993Z</time></trkpt><trkpt lat="45.163273" lon="8.2596596"><ele>318.0</ele><time>2026-04-25T09:49:41.998Z</time></trkpt><trkpt lat="45.1632934" lon="8.2597531"><ele>318.0</ele><time>2026-04-25T09:49:42.992Z</time></trkpt><trkpt lat="45.1633137" lon="8.2598489"><ele>318.0</ele><time>2026-04-25T09:49:44.002Z</time></trkpt><trkpt lat="45.1632991" lon="8.2599821"><ele>320.5</ele><time>2026-04-25T09:49:44.994Z</time></trkpt><trkpt lat="45.1632889" lon="8.2601383"><ele>323.0</ele><time>2026-04-25T09:49:45.988Z</time></trkpt><trkpt lat="45.1632755" lon="8.2603066"><ele>325.5</ele><time>2026-04-25T09:49:46.994Z</time></trkpt><trkpt lat="45.1632599" lon="8.2604693"><ele>328.0</ele><time>2026-04-25T09:49:47.989Z</time></trkpt><trkpt lat="45.1632417" lon="8.2606215"><ele>328.4</ele><time>2026-04-25T09:49:49.012Z</time></trkpt><trkpt lat="45.163222" lon="8.2607639"><ele>328.79999999999995</ele><time>2026-04-25T09:49:49.998Z</time></trkpt><trkpt lat="45.1631772" lon="8.2609045"><ele>329.2</ele><time>2026-04-25T09:49:50.991Z</time></trkpt><trkpt lat="45.1631274" lon="8.2610436"><ele>329.6</ele><time>2026-04-25T09:49:51.99Z</time></trkpt><trkpt lat="45.1630839" lon="8.261146"><ele>330.0</ele><time>2026-04-25T09:49:52.994Z</time></trkpt><trkpt lat="45.1630583" lon="8.2612291"><ele>332.3333333333333</ele><time>2026-04-25T09:49:53.99Z</time></trkpt><trkpt lat="45.1630554" lon="8.26132"><ele>334.6666666666667</ele><time>2026-04-25T09:49:54.996Z</time></trkpt><trkpt lat="45.1630383" lon="8.2614194"><ele>337.0</ele><time>2026-04-25T09:49:55.995Z</time></trkpt><trkpt lat="45.1630742" lon="8.261574"><ele>339.33333333333337</ele><time>2026-04-25T09:49:57.992Z</time></trkpt><trkpt lat="45.1631121" lon="8.2616639"><ele>341.6666666666667</ele><time>2026-04-25T09:49:58.999Z</time></trkpt><trkpt lat="45.1631523" lon="8.2617856"><ele>344.0</ele><time>2026-04-25T09:50:00.001Z</time></trkpt><trkpt lat="45.1631945" lon="8.2619361"><ele>345.25</ele><time>2026-04-25T09:50:00.998Z</time></trkpt><trkpt lat="45.1632465" lon="8.2620911"><ele>346.5</ele><time>2026-04-25T09:50:01.993Z</time></trkpt><trkpt lat="45.1633112" lon="8.2622484"><ele>347.75</ele><time>2026-04-25T09:50:02.99Z</time></trkpt><trkpt lat="45.1633779" lon="8.2623976"><ele>349.0</ele><time>2026-04-25T09:50:03.993Z</time></trkpt><trkpt lat="45.1634276" lon="8.2625371"><ele>349.0</ele><time>2026-04-25T09:50:04.997Z</time></trkpt><trkpt lat="45.1634714" lon="8.2626405"><ele>349.0</ele><time>2026-04-25T09:50:05.998Z</time></trkpt><trkpt lat="45.1635187" lon="8.2627273"><ele>349.0</ele><time>2026-04-25T09:50:07.007Z</time></trkpt><trkpt lat="45.1635454" lon="8.2628341"><ele>349.0</ele><time>2026-04-25T09:50:07.999Z</time></trkpt><trkpt lat="45.1635555" lon="8.262959"><ele>349.0</ele><time>2026-04-25T09:50:08.99Z</time></trkpt><trkpt lat="45.1635437" lon="8.2630995"><ele>349.0</ele><time>2026-04-25T09:50:09.991Z</time></trkpt><trkpt lat="45.1635077" lon="8.2632289"><ele>349.4</ele><time>2026-04-25T09:50:10.99Z</time></trkpt><trkpt lat="45.1634627" lon="8.2633413"><ele>349.79999999999995</ele><time>2026-04-25T09:50:11.99Z</time></trkpt><trkpt lat="45.163387" lon="8.2634442"><ele>350.20000000000005</ele><time>2026-04-25T09:50:13.989Z</time></trkpt><trkpt lat="45.1633298" lon="8.2636024"><ele>350.6</ele><time>2026-04-25T09:50:15.988Z</time></trkpt><trkpt lat="45.1633093" lon="8.2636945"><ele>351.0</ele><time>2026-04-25T09:50:16.996Z</time></trkpt><trkpt lat="45.1632757" lon="8.263796"><ele>351.0</ele><time>2026-04-25T09:50:17.99Z</time></trkpt><trkpt lat="45.1632538" lon="8.2638936"><ele>351.0</ele><time>2026-04-25T09:50:19.001Z</time></trkpt><trkpt lat="45.1632254" lon="8.2639935"><ele>351.0</ele><time>2026-04-25T09:50:19.998Z</time></trkpt><trkpt lat="45.1631999" lon="8.2641038"><ele>351.0</ele><time>2026-04-25T09:50:21.005Z</time></trkpt><trkpt lat="45.163183" lon="8.2642076"><ele>351.0</ele><time>2026-04-25T09:50:21.991Z</time></trkpt><trkpt lat="45.1631559" lon="8.2643188"><ele>351.0</ele><time>2026-04-25T09:50:23.003Z</time></trkpt><trkpt lat="45.1631803" lon="8.2644995"><ele>350.4</ele><time>2026-04-25T09:50:26.997Z</time></trkpt><trkpt lat="45.1632625" lon="8.2645694"><ele>349.8</ele><time>2026-04-25T09:50:28.992Z</time></trkpt><trkpt lat="45.1633169" lon="8.2646809"><ele>349.2</ele><time>2026-04-25T09:50:30.998Z</time></trkpt><trkpt lat="45.1632904" lon="8.2648411"><ele>348.59999999999997</ele><time>2026-04-25T09:50:33.996Z</time></trkpt><trkpt lat="45.1632434" lon="8.2649148"><ele>348.0</ele><time>2026-04-25T09:50:34.994Z</time></trkpt><trkpt lat="45.1632022" lon="8.2650178"><ele>348.0</ele><time>2026-04-25T09:50:35.997Z</time></trkpt><trkpt lat="45.1632125" lon="8.2651746"><ele>348.0</ele><time>2026-04-25T09:50:37.996Z</time></trkpt><trkpt lat="45.1632521" lon="8.2652987"><ele>348.0</ele><time>2026-04-25T09:50:40.005Z</time></trkpt><trkpt lat="45.1633092" lon="8.2654526"><ele>348.0</ele><time>2026-04-25T09:50:41.991Z</time></trkpt><trkpt lat="45.1633385" lon="8.2655367"><ele>348.0</ele><time>2026-04-25T09:50:42.991Z</time></trkpt><trkpt lat="45.1633932" lon="8.2656318"><ele>349.59999999999997</ele><time>2026-04-25T09:50:44.993Z</time></trkpt><trkpt lat="45.1634614" lon="8.2656973"><ele>351.2</ele><time>2026-04-25T09:50:47.002Z</time></trkpt><trkpt lat="45.1635559" lon="8.2657321"><ele>352.8</ele><time>2026-04-25T09:50:49Z</time></trkpt><trkpt lat="45.163637" lon="8.2657579"><ele>354.4</ele><time>2026-04-25T09:50:49.998Z</time></trkpt><trkpt lat="45.1637049" lon="8.2657746"><ele>356.0</ele><time>2026-04-25T09:50:50.994Z</time></trkpt><trkpt lat="45.1638258" lon="8.2657915"><ele>356.0</ele><time>2026-04-25T09:50:52.996Z</time></trkpt><trkpt lat="45.1639464" lon="8.265851"><ele>356.0</ele><time>2026-04-25T09:50:54.997Z</time></trkpt><trkpt lat="45.164006" lon="8.2659294"><ele>356.0</ele><time>2026-04-25T09:50:55.998Z</time></trkpt><trkpt lat="45.1640371" lon="8.2660137"><ele>356.0</ele><time>2026-04-25T09:50:57.002Z</time></trkpt><trkpt lat="45.1640655" lon="8.2660947"><ele>356.0</ele><time>2026-04-25T09:50:57.994Z</time></trkpt><trkpt lat="45.1640696" lon="8.2662567"><ele>356.6666666666667</ele><time>2026-04-25T09:51:00.004Z</time></trkpt><trkpt lat="45.1640378" lon="8.2664256"><ele>357.33333333333337</ele><time>2026-04-25T09:51:01.996Z</time></trkpt><trkpt lat="45.1640087" lon="8.2665152"><ele>358.0</ele><time>2026-04-25T09:51:02.994Z</time></trkpt><trkpt lat="45.163976" lon="8.2666093"><ele>358.6666666666667</ele><time>2026-04-25T09:51:03.996Z</time></trkpt><trkpt lat="45.1639394" lon="8.266701"><ele>359.3333333333333</ele><time>2026-04-25T09:51:04.999Z</time></trkpt><trkpt lat="45.1639057" lon="8.266785"><ele>360.0</ele><time>2026-04-25T09:51:05.998Z</time></trkpt><trkpt lat="45.163877" lon="8.2668722"><ele>360.0</ele><time>2026-04-25T09:51:06.996Z</time></trkpt><trkpt lat="45.1638146" lon="8.2670138"><ele>360.0</ele><time>2026-04-25T09:51:08.991Z</time></trkpt><trkpt lat="45.1637912" lon="8.2671002"><ele>360.0</ele><time>2026-04-25T09:51:09.992Z</time></trkpt><trkpt lat="45.1637832" lon="8.2671999"><ele>360.0</ele><time>2026-04-25T09:51:10.998Z</time></trkpt><trkpt lat="45.1637852" lon="8.2673724"><ele>360.0</ele><time>2026-04-25T09:51:12.998Z</time></trkpt><trkpt lat="45.1637551" lon="8.2674977"><ele>357.3333333333333</ele><time>2026-04-25T09:51:14.988Z</time></trkpt><trkpt lat="45.1637223" lon="8.2675988"><ele>354.6666666666667</ele><time>2026-04-25T09:51:15.994Z</time></trkpt><trkpt lat="45.1636825" lon="8.2677177"><ele>352.0</ele><time>2026-04-25T09:51:16.991Z</time></trkpt><trkpt lat="45.1636477" lon="8.2678302"><ele>349.33333333333337</ele><time>2026-04-25T09:51:17.994Z</time></trkpt><trkpt lat="45.1636015" lon="8.2679217"><ele>346.6666666666667</ele><time>2026-04-25T09:51:18.992Z</time></trkpt><trkpt lat="45.1635624" lon="8.2680052"><ele>344.0</ele><time>2026-04-25T09:51:19.993Z</time></trkpt><trkpt lat="45.1635194" lon="8.268098"><ele>342.6</ele><time>2026-04-25T09:51:20.998Z</time></trkpt><trkpt lat="45.1634534" lon="8.2682253"><ele>341.2</ele><time>2026-04-25T09:51:23.003Z</time></trkpt><trkpt lat="45.1633864" lon="8.2682919"><ele>339.8</ele><time>2026-04-25T09:51:24.999Z</time></trkpt><trkpt lat="45.1633023" lon="8.2683276"><ele>338.40000000000003</ele><time>2026-04-25T09:51:28.011Z</time></trkpt><trkpt lat="45.1632423" lon="8.2683819"><ele>337.0</ele><time>2026-04-25T09:51:30.001Z</time></trkpt><trkpt lat="45.1631503" lon="8.2684557"><ele>332.8</ele><time>2026-04-25T09:51:31.996Z</time></trkpt><trkpt lat="45.1630537" lon="8.2685291"><ele>328.6</ele><time>2026-04-25T09:51:33.997Z</time></trkpt><trkpt lat="45.163006" lon="8.268597"><ele>324.40000000000003</ele><time>2026-04-25T09:51:34.996Z</time></trkpt><trkpt lat="45.1629328" lon="8.2687099"><ele>320.20000000000005</ele><time>2026-04-25T09:51:36.994Z</time></trkpt><trkpt lat="45.1628601" lon="8.2688209"><ele>316.0</ele><time>2026-04-25T09:51:38.988Z</time></trkpt><trkpt lat="45.1627606" lon="8.268893"><ele>316.8333333333333</ele><time>2026-04-25T09:51:40.992Z</time></trkpt><trkpt lat="45.1626822" lon="8.2689848"><ele>317.66666666666663</ele><time>2026-04-25T09:51:42.998Z</time></trkpt><trkpt lat="45.1626257" lon="8.269112"><ele>318.5</ele><time>2026-04-25T09:51:44.997Z</time></trkpt><trkpt lat="45.1625919" lon="8.2691996"><ele>319.3333333333333</ele><time>2026-04-25T09:51:45.992Z</time></trkpt><trkpt lat="45.1625508" lon="8.2692942"><ele>320.1666666666667</ele><time>2026-04-25T09:51:46.994Z</time></trkpt><trkpt lat="45.1625091" lon="8.2693786"><ele>321.0</ele><time>2026-04-25T09:51:47.984Z</time></trkpt><trkpt lat="45.1624698" lon="8.2694601"><ele>321.0</ele><time>2026-04-25T09:51:48.989Z</time></trkpt><trkpt lat="45.1624293" lon="8.2695494"><ele>321.0</ele><time>2026-04-25T09:51:49.994Z</time></trkpt><trkpt lat="45.1623893" lon="8.2696415"><ele>321.0</ele><time>2026-04-25T09:51:50.996Z</time></trkpt><trkpt lat="45.1623509" lon="8.2697341"><ele>321.0</ele><time>2026-04-25T09:51:51.997Z</time></trkpt><trkpt lat="45.1623142" lon="8.2698218"><ele>321.0</ele><time>2026-04-25T09:51:52.994Z</time></trkpt><trkpt lat="45.1622767" lon="8.2698977"><ele>321.0</ele><time>2026-04-25T09:51:53.998Z</time></trkpt><trkpt lat="45.162206" lon="8.269999"><ele>319.8333333333333</ele><time>2026-04-25T09:51:55.991Z</time></trkpt><trkpt lat="45.1621086" lon="8.2700123"><ele>318.6666666666667</ele><time>2026-04-25T09:51:57.991Z</time></trkpt><trkpt lat="45.1620057" lon="8.270006"><ele>317.5</ele><time>2026-04-25T09:51:59.995Z</time></trkpt><trkpt lat="45.1619402" lon="8.2699871"><ele>316.33333333333337</ele><time>2026-04-25T09:52:00.996Z</time></trkpt><trkpt lat="45.1618632" lon="8.2699531"><ele>315.1666666666667</ele><time>2026-04-25T09:52:01.996Z</time></trkpt><trkpt lat="45.1617837" lon="8.2699243"><ele>314.0</ele><time>2026-04-25T09:52:02.998Z</time></trkpt><trkpt lat="45.1617046" lon="8.2699179"><ele>314.0</ele><time>2026-04-25T09:52:03.996Z</time></trkpt><trkpt lat="45.1616305" lon="8.2699054"><ele>314.0</ele><time>2026-04-25T09:52:04.991Z</time></trkpt><trkpt lat="45.1615601" lon="8.2699103"><ele>314.0</ele><time>2026-04-25T09:52:05.996Z</time></trkpt><trkpt lat="45.1614979" lon="8.2699277"><ele>314.0</ele><time>2026-04-25T09:52:06.997Z</time></trkpt><trkpt lat="45.1614321" lon="8.2699547"><ele>314.0</ele><time>2026-04-25T09:52:07.996Z</time></trkpt><trkpt lat="45.1613714" lon="8.2699923"><ele>314.0</ele><time>2026-04-25T09:52:09.003Z</time></trkpt><trkpt lat="45.1612797" lon="8.2700859"><ele>311.1666666666667</ele><time>2026-04-25T09:52:10.995Z</time></trkpt><trkpt lat="45.1612203" lon="8.2702304"><ele>308.33333333333337</ele><time>2026-04-25T09:52:13.004Z</time></trkpt><trkpt lat="45.161196" lon="8.2703406"><ele>305.5</ele><time>2026-04-25T09:52:13.997Z</time></trkpt><trkpt lat="45.1611771" lon="8.2704513"><ele>302.6666666666667</ele><time>2026-04-25T09:52:15.005Z</time></trkpt><trkpt lat="45.1611708" lon="8.2705664"><ele>299.8333333333333</ele><time>2026-04-25T09:52:15.989Z</time></trkpt><trkpt lat="45.1611675" lon="8.2706783"><ele>297.0</ele><time>2026-04-25T09:52:16.987Z</time></trkpt><trkpt lat="45.161168" lon="8.2707945"><ele>297.0</ele><time>2026-04-25T09:52:17.991Z</time></trkpt><trkpt lat="45.1611712" lon="8.2709208"><ele>297.0</ele><time>2026-04-25T09:52:18.993Z</time></trkpt><trkpt lat="45.1611783" lon="8.2710459"><ele>297.0</ele><time>2026-04-25T09:52:19.996Z</time></trkpt><trkpt lat="45.1611845" lon="8.271174"><ele>297.0</ele><time>2026-04-25T09:52:20.996Z</time></trkpt><trkpt lat="45.1611938" lon="8.271295"><ele>297.0</ele><time>2026-04-25T09:52:22.005Z</time></trkpt><trkpt lat="45.1611972" lon="8.2714155"><ele>297.0</ele><time>2026-04-25T09:52:22.986Z</time></trkpt><trkpt lat="45.1611983" lon="8.2715366"><ele>296.5</ele><time>2026-04-25T09:52:23.991Z</time></trkpt><trkpt lat="45.1611962" lon="8.2716587"><ele>296.0</ele><time>2026-04-25T09:52:24.992Z</time></trkpt><trkpt lat="45.1611883" lon="8.2717769"><ele>295.5</ele><time>2026-04-25T09:52:25.99Z</time></trkpt><trkpt lat="45.1611816" lon="8.2718872"><ele>295.0</ele><time>2026-04-25T09:52:26.998Z</time></trkpt><trkpt lat="45.1611715" lon="8.271986"><ele>294.5</ele><time>2026-04-25T09:52:27.985Z</time></trkpt><trkpt lat="45.1611449" lon="8.2720811"><ele>294.0</ele><time>2026-04-25T09:52:28.999Z</time></trkpt><trkpt lat="45.1611187" lon="8.2721686"><ele>294.0</ele><time>2026-04-25T09:52:29.984Z</time></trkpt><trkpt lat="45.1610909" lon="8.2722715"><ele>294.0</ele><time>2026-04-25T09:52:30.996Z</time></trkpt><trkpt lat="45.1610625" lon="8.2723739"><ele>294.0</ele><time>2026-04-25T09:52:32Z</time></trkpt><trkpt lat="45.1610186" lon="8.2724734"><ele>294.0</ele><time>2026-04-25T09:52:32.993Z</time></trkpt><trkpt lat="45.160977" lon="8.2725687"><ele>294.0</ele><time>2026-04-25T09:52:34.007Z</time></trkpt><trkpt lat="45.1609349" lon="8.2726451"><ele>294.0</ele><time>2026-04-25T09:52:34.991Z</time></trkpt><trkpt lat="45.1608835" lon="8.2727729"><ele>294.3333333333333</ele><time>2026-04-25T09:52:36.993Z</time></trkpt><trkpt lat="45.1608587" lon="8.2729491"><ele>294.6666666666667</ele><time>2026-04-25T09:52:38.994Z</time></trkpt><trkpt lat="45.16085" lon="8.2730442"><ele>295.0</ele><time>2026-04-25T09:52:39.988Z</time></trkpt><trkpt lat="45.1608434" lon="8.2731423"><ele>295.33333333333337</ele><time>2026-04-25T09:52:41.001Z</time></trkpt><trkpt lat="45.1608384" lon="8.2732346"><ele>295.6666666666667</ele><time>2026-04-25T09:52:41.991Z</time></trkpt><trkpt lat="45.1608254" lon="8.2733233"><ele>296.0</ele><time>2026-04-25T09:52:43.003Z</time></trkpt><trkpt lat="45.1608227" lon="8.273487"><ele>296.1666666666667</ele><time>2026-04-25T09:52:44.995Z</time></trkpt><trkpt lat="45.1608471" lon="8.2736253"><ele>296.33333333333337</ele><time>2026-04-25T09:52:46.991Z</time></trkpt><trkpt lat="45.16088" lon="8.2737181"><ele>296.5</ele><time>2026-04-25T09:52:48.992Z</time></trkpt><trkpt lat="45.1608995" lon="8.2738101"><ele>296.6666666666667</ele><time>2026-04-25T09:52:51.996Z</time></trkpt><trkpt lat="45.1608015" lon="8.2737135"><ele>296.8333333333333</ele><time>2026-04-25T09:52:54.996Z</time></trkpt><trkpt lat="45.1607364" lon="8.273647"><ele>297.0</ele><time>2026-04-25T09:52:56Z</time></trkpt><trkpt lat="45.1606658" lon="8.273579"><ele>293.2</ele><time>2026-04-25T09:52:56.993Z</time></trkpt><trkpt lat="45.160602" lon="8.2734927"><ele>289.4</ele><time>2026-04-25T09:52:58.007Z</time></trkpt><trkpt lat="45.1605489" lon="8.2733884"><ele>285.6</ele><time>2026-04-25T09:52:58.991Z</time></trkpt><trkpt lat="45.1605154" lon="8.2732664"><ele>281.8</ele><time>2026-04-25T09:52:59.993Z</time></trkpt><trkpt lat="45.1604918" lon="8.2731153"><ele>278.0</ele><time>2026-04-25T09:53:00.994Z</time></trkpt><trkpt lat="45.1604729" lon="8.2729448"><ele>276.75</ele><time>2026-04-25T09:53:01.998Z</time></trkpt><trkpt lat="45.1604546" lon="8.272762"><ele>275.5</ele><time>2026-04-25T09:53:02.991Z</time></trkpt><trkpt lat="45.1604452" lon="8.2725904"><ele>274.25</ele><time>2026-04-25T09:53:04.003Z</time></trkpt><trkpt lat="45.1604382" lon="8.2724401"><ele>273.0</ele><time>2026-04-25T09:53:04.992Z</time></trkpt><trkpt lat="45.1604269" lon="8.2723065"><ele>272.6</ele><time>2026-04-25T09:53:05.993Z</time></trkpt><trkpt lat="45.1604125" lon="8.2721918"><ele>272.20000000000005</ele><time>2026-04-25T09:53:06.995Z</time></trkpt><trkpt lat="45.1604004" lon="8.2720875"><ele>271.8</ele><time>2026-04-25T09:53:07.995Z</time></trkpt><trkpt lat="45.1603062" lon="8.2719836"><ele>271.40000000000003</ele><time>2026-04-25T09:53:09.991Z</time></trkpt><trkpt lat="45.1601874" lon="8.2720185"><ele>271.0</ele><time>2026-04-25T09:53:11.989Z</time></trkpt><trkpt lat="45.160141" lon="8.2720869"><ele>271.0</ele><time>2026-04-25T09:53:12.99Z</time></trkpt><trkpt lat="45.1601117" lon="8.2721903"><ele>271.0</ele><time>2026-04-25T09:53:13.989Z</time></trkpt><trkpt lat="45.1600977" lon="8.272321"><ele>271.0</ele><time>2026-04-25T09:53:14.994Z</time></trkpt><trkpt lat="45.1600898" lon="8.2724658"><ele>271.0</ele><time>2026-04-25T09:53:16.008Z</time></trkpt><trkpt lat="45.1600812" lon="8.2726246"><ele>271.0</ele><time>2026-04-25T09:53:16.999Z</time></trkpt><trkpt lat="45.1600593" lon="8.2727782"><ele>271.40000000000003</ele><time>2026-04-25T09:53:17.991Z</time></trkpt><trkpt lat="45.1600192" lon="8.2729202"><ele>271.8</ele><time>2026-04-25T09:53:18.987Z</time></trkpt><trkpt lat="45.1599631" lon="8.273046"><ele>272.20000000000005</ele><time>2026-04-25T09:53:19.989Z</time></trkpt><trkpt lat="45.1598925" lon="8.2731557"><ele>272.6</ele><time>2026-04-25T09:53:21.016Z</time></trkpt><trkpt lat="45.159812" lon="8.2732478"><ele>273.0</ele><time>2026-04-25T09:53:21.989Z</time></trkpt><trkpt lat="45.1597199" lon="8.2733281"><ele>270.5</ele><time>2026-04-25T09:53:22.99Z</time></trkpt><trkpt lat="45.1596142" lon="8.2734055"><ele>268.0</ele><time>2026-04-25T09:53:23.996Z</time></trkpt><trkpt lat="45.1594973" lon="8.2734855"><ele>265.5</ele><time>2026-04-25T09:53:24.989Z</time></trkpt><trkpt lat="45.1593809" lon="8.2735631"><ele>263.0</ele><time>2026-04-25T09:53:25.991Z</time></trkpt><trkpt lat="45.1592621" lon="8.2736163"><ele>263.0</ele><time>2026-04-25T09:53:27Z</time></trkpt><trkpt lat="45.1591462" lon="8.2736531"><ele>263.0</ele><time>2026-04-25T09:53:27.996Z</time></trkpt><trkpt lat="45.1590461" lon="8.2736614"><ele>263.0</ele><time>2026-04-25T09:53:29.004Z</time></trkpt><trkpt lat="45.1589577" lon="8.2736443"><ele>263.0</ele><time>2026-04-25T09:53:29.992Z</time></trkpt><trkpt lat="45.1588838" lon="8.2735958"><ele>263.0</ele><time>2026-04-25T09:53:30.993Z</time></trkpt><trkpt lat="45.1588214" lon="8.2735178"><ele>261.5</ele><time>2026-04-25T09:53:31.989Z</time></trkpt><trkpt lat="45.1587603" lon="8.2734356"><ele>260.0</ele><time>2026-04-25T09:53:32.999Z</time></trkpt><trkpt lat="45.1587393" lon="8.2733184"><ele>258.5</ele><time>2026-04-25T09:53:33.994Z</time></trkpt><trkpt lat="45.1587371" lon="8.2732021"><ele>257.0</ele><time>2026-04-25T09:53:34.995Z</time></trkpt><trkpt lat="45.1587516" lon="8.2730888"><ele>255.50000000000003</ele><time>2026-04-25T09:53:35.991Z</time></trkpt><trkpt lat="45.1587554" lon="8.2729484"><ele>254.0</ele><time>2026-04-25T09:53:37.988Z</time></trkpt><trkpt lat="45.1586724" lon="8.2729573"><ele>254.0</ele><time>2026-04-25T09:53:40.994Z</time></trkpt><trkpt lat="45.1586265" lon="8.27303"><ele>253.99999999999997</ele><time>2026-04-25T09:53:41.994Z</time></trkpt><trkpt lat="45.1585578" lon="8.2731059"><ele>253.99999999999997</ele><time>2026-04-25T09:53:42.994Z</time></trkpt><trkpt lat="45.1584578" lon="8.2731758"><ele>254.0</ele><time>2026-04-25T09:53:44.001Z</time></trkpt><trkpt lat="45.1583279" lon="8.2732425"><ele>254.0</ele><time>2026-04-25T09:53:44.99Z</time></trkpt><trkpt lat="45.1581864" lon="8.2733105"><ele>252.75</ele><time>2026-04-25T09:53:45.988Z</time></trkpt><trkpt lat="45.1580518" lon="8.2733822"><ele>251.5</ele><time>2026-04-25T09:53:46.997Z</time></trkpt><trkpt lat="45.1579251" lon="8.2734455"><ele>250.25</ele><time>2026-04-25T09:53:47.987Z</time></trkpt><trkpt lat="45.1578057" lon="8.2735084"><ele>249.0</ele><time>2026-04-25T09:53:49.007Z</time></trkpt><trkpt lat="45.1576915" lon="8.2735651"><ele>249.0</ele><time>2026-04-25T09:53:49.991Z</time></trkpt><trkpt lat="45.1575831" lon="8.2736186"><ele>249.0</ele><time>2026-04-25T09:53:50.99Z</time></trkpt><trkpt lat="45.1574698" lon="8.2736596"><ele>249.0</ele><time>2026-04-25T09:53:51.988Z</time></trkpt><trkpt lat="45.1573542" lon="8.2736835"><ele>249.0</ele><time>2026-04-25T09:53:52.996Z</time></trkpt><trkpt lat="45.1572344" lon="8.2736806"><ele>246.75</ele><time>2026-04-25T09:53:53.987Z</time></trkpt><trkpt lat="45.1571013" lon="8.273661"><ele>244.5</ele><time>2026-04-25T09:53:54.99Z</time></trkpt><trkpt lat="45.1569603" lon="8.2736405"><ele>242.25</ele><time>2026-04-25T09:53:55.988Z</time></trkpt><trkpt lat="45.1568022" lon="8.2735977"><ele>240.0</ele><time>2026-04-25T09:53:56.993Z</time></trkpt><trkpt lat="45.1566298" lon="8.2735618"><ele>237.66666666666669</ele><time>2026-04-25T09:53:57.989Z</time></trkpt><trkpt lat="45.1564518" lon="8.2735189"><ele>235.33333333333334</ele><time>2026-04-25T09:53:58.99Z</time></trkpt><trkpt lat="45.1562734" lon="8.2734866"><ele>233.0</ele><time>2026-04-25T09:53:59.994Z</time></trkpt><trkpt lat="45.1561029" lon="8.2734604"><ele>233.0</ele><time>2026-04-25T09:54:00.991Z</time></trkpt><trkpt lat="45.1559414" lon="8.2734339"><ele>233.0</ele><time>2026-04-25T09:54:02.003Z</time></trkpt><trkpt lat="45.1557885" lon="8.2734094"><ele>233.0</ele><time>2026-04-25T09:54:02.989Z</time></trkpt><trkpt lat="45.1556436" lon="8.2733901"><ele>232.0</ele><time>2026-04-25T09:54:03.993Z</time></trkpt><trkpt lat="45.1555035" lon="8.2733698"><ele>231.0</ele><time>2026-04-25T09:54:04.995Z</time></trkpt><trkpt lat="45.1553685" lon="8.2733468"><ele>230.0</ele><time>2026-04-25T09:54:05.991Z</time></trkpt><trkpt lat="45.1552387" lon="8.2733245"><ele>229.0</ele><time>2026-04-25T09:54:06.999Z</time></trkpt><trkpt lat="45.1551172" lon="8.2732945"><ele>229.0</ele><time>2026-04-25T09:54:07.985Z</time></trkpt><trkpt lat="45.1550041" lon="8.2732453"><ele>229.0</ele><time>2026-04-25T09:54:08.994Z</time></trkpt><trkpt lat="45.1548989" lon="8.2731783"><ele>229.0</ele><time>2026-04-25T09:54:09.984Z</time></trkpt><trkpt lat="45.1548013" lon="8.2730966"><ele>229.0</ele><time>2026-04-25T09:54:10.987Z</time></trkpt><trkpt lat="45.1547075" lon="8.2730127"><ele>227.49999999999997</ele><time>2026-04-25T09:54:12.004Z</time></trkpt><trkpt lat="45.1546172" lon="8.2729338"><ele>226.0</ele><time>2026-04-25T09:54:12.995Z</time></trkpt><trkpt lat="45.1545418" lon="8.2728595"><ele>224.5</ele><time>2026-04-25T09:54:13.983Z</time></trkpt><trkpt lat="45.1544893" lon="8.2727759"><ele>223.0</ele><time>2026-04-25T09:54:14.99Z</time></trkpt><trkpt lat="45.1544667" lon="8.2726819"><ele>221.49999999999997</ele><time>2026-04-25T09:54:15.986Z</time></trkpt><trkpt lat="45.154477" lon="8.2725891"><ele>220.0</ele><time>2026-04-25T09:54:17.003Z</time></trkpt><trkpt lat="45.1545218" lon="8.2725229"><ele>219.99999999999997</ele><time>2026-04-25T09:54:18.002Z</time></trkpt><trkpt lat="45.1545873" lon="8.2725043"><ele>220.0</ele><time>2026-04-25T09:54:18.989Z</time></trkpt><trkpt lat="45.1546573" lon="8.2725379"><ele>220.0</ele><time>2026-04-25T09:54:19.987Z</time></trkpt><trkpt lat="45.1547275" lon="8.27259"><ele>220.0</ele><time>2026-04-25T09:54:20.987Z</time></trkpt><trkpt lat="45.1548044" lon="8.2726177"><ele>219.99999999999997</ele><time>2026-04-25T09:54:21.997Z</time></trkpt><trkpt lat="45.1548804" lon="8.2726046"><ele>220.0</ele><time>2026-04-25T09:54:22.988Z</time></trkpt><trkpt lat="45.1549459" lon="8.2725544"><ele>219.66666666666666</ele><time>2026-04-25T09:54:23.989Z</time></trkpt><trkpt lat="45.1549882" lon="8.2724788"><ele>219.33333333333331</ele><time>2026-04-25T09:54:24.988Z</time></trkpt><trkpt lat="45.1550037" lon="8.2723856"><ele>219.0</ele><time>2026-04-25T09:54:25.982Z</time></trkpt><trkpt lat="45.1550095" lon="8.2722901"><ele>218.66666666666669</ele><time>2026-04-25T09:54:27.013Z</time></trkpt><trkpt lat="45.1549618" lon="8.2721797"><ele>218.33333333333334</ele><time>2026-04-25T09:54:28Z</time></trkpt><trkpt lat="45.1548849" lon="8.2720962"><ele>218.0</ele><time>2026-04-25T09:54:28.991Z</time></trkpt><trkpt lat="45.1547903" lon="8.2720179"><ele>216.5</ele><time>2026-04-25T09:54:29.989Z</time></trkpt><trkpt lat="45.1546767" lon="8.2719567"><ele>215.0</ele><time>2026-04-25T09:54:30.997Z</time></trkpt><trkpt lat="45.154549" lon="8.2719123"><ele>213.5</ele><time>2026-04-25T09:54:31.996Z</time></trkpt><trkpt lat="45.1544011" lon="8.2718863"><ele>212.0</ele><time>2026-04-25T09:54:32.995Z</time></trkpt><trkpt lat="45.1542395" lon="8.271868"><ele>212.0</ele><time>2026-04-25T09:54:34.007Z</time></trkpt><trkpt lat="45.1540695" lon="8.271852"><ele>212.0</ele><time>2026-04-25T09:54:34.988Z</time></trkpt><trkpt lat="45.1538846" lon="8.2718336"><ele>212.0</ele><time>2026-04-25T09:54:35.994Z</time></trkpt><trkpt lat="45.1536915" lon="8.2718132"><ele>210.33333333333334</ele><time>2026-04-25T09:54:36.999Z</time></trkpt><trkpt lat="45.1534991" lon="8.2717932"><ele>208.66666666666669</ele><time>2026-04-25T09:54:37.99Z</time></trkpt><trkpt lat="45.1533143" lon="8.2717741"><ele>207.0</ele><time>2026-04-25T09:54:39.014Z</time></trkpt><trkpt lat="45.1531379" lon="8.271757"><ele>204.0</ele><time>2026-04-25T09:54:39.993Z</time></trkpt><trkpt lat="45.1529682" lon="8.2717411"><ele>201.0</ele><time>2026-04-25T09:54:40.988Z</time></trkpt><trkpt lat="45.1528061" lon="8.271725"><ele>198.0</ele><time>2026-04-25T09:54:41.991Z</time></trkpt><trkpt lat="45.152652" lon="8.2717065"><ele>198.0</ele><time>2026-04-25T09:54:42.996Z</time></trkpt><trkpt lat="45.1525055" lon="8.2716893"><ele>198.0</ele><time>2026-04-25T09:54:43.995Z</time></trkpt><trkpt lat="45.1523654" lon="8.2716732"><ele>198.0</ele><time>2026-04-25T09:54:44.996Z</time></trkpt><trkpt lat="45.152231" lon="8.2716595"><ele>198.0</ele><time>2026-04-25T09:54:45.995Z</time></trkpt><trkpt lat="45.152103" lon="8.2716479"><ele>196.5</ele><time>2026-04-25T09:54:46.984Z</time></trkpt><trkpt lat="45.1519793" lon="8.2716358"><ele>195.0</ele><time>2026-04-25T09:54:47.986Z</time></trkpt><trkpt lat="45.1518612" lon="8.2716229"><ele>193.5</ele><time>2026-04-25T09:54:49Z</time></trkpt><trkpt lat="45.1517472" lon="8.2716108"><ele>192.0</ele><time>2026-04-25T09:54:49.987Z</time></trkpt><trkpt lat="45.1516371" lon="8.2715991"><ele>191.5</ele><time>2026-04-25T09:54:51.008Z</time></trkpt><trkpt lat="45.1515383" lon="8.2715917"><ele>191.0</ele><time>2026-04-25T09:54:51.992Z</time></trkpt><trkpt lat="45.1514569" lon="8.2715867"><ele>190.5</ele><time>2026-04-25T09:54:52.988Z</time></trkpt><trkpt lat="45.1513922" lon="8.2715799"><ele>190.0</ele><time>2026-04-25T09:54:53.989Z</time></trkpt><trkpt lat="45.1513148" lon="8.2715304"><ele>189.5</ele><time>2026-04-25T09:54:55.996Z</time></trkpt><trkpt lat="45.1513049" lon="8.2713957"><ele>189.0</ele><time>2026-04-25T09:54:57.996Z</time></trkpt><trkpt lat="45.1513497" lon="8.2712726"><ele>189.0</ele><time>2026-04-25T09:54:58.991Z</time></trkpt><trkpt lat="45.1514072" lon="8.2711176"><ele>189.0</ele><time>2026-04-25T09:54:59.992Z</time></trkpt><trkpt lat="45.1514794" lon="8.2709411"><ele>189.0</ele><time>2026-04-25T09:55:00.993Z</time></trkpt><trkpt lat="45.1515433" lon="8.2707311"><ele>189.0</ele><time>2026-04-25T09:55:01.993Z</time></trkpt><trkpt lat="45.1515977" lon="8.2704901"><ele>190.0</ele><time>2026-04-25T09:55:02.994Z</time></trkpt><trkpt lat="45.1516388" lon="8.2702133"><ele>191.0</ele><time>2026-04-25T09:55:03.99Z</time></trkpt><trkpt lat="45.1516647" lon="8.2699318"><ele>192.0</ele><time>2026-04-25T09:55:05.004Z</time></trkpt><trkpt lat="45.1516828" lon="8.2696677"><ele>192.0</ele><time>2026-04-25T09:55:05.994Z</time></trkpt><trkpt lat="45.1517026" lon="8.2694064"><ele>192.0</ele><time>2026-04-25T09:55:06.992Z</time></trkpt><trkpt lat="45.1517245" lon="8.2691459"><ele>192.0</ele><time>2026-04-25T09:55:07.99Z</time></trkpt><trkpt lat="45.1517439" lon="8.2688834"><ele>192.33333333333331</ele><time>2026-04-25T09:55:08.999Z</time></trkpt><trkpt lat="45.1517613" lon="8.2686162"><ele>192.66666666666666</ele><time>2026-04-25T09:55:09.996Z</time></trkpt><trkpt lat="45.151778" lon="8.2683481"><ele>193.0</ele><time>2026-04-25T09:55:10.993Z</time></trkpt><trkpt lat="45.1517968" lon="8.2680726"><ele>194.0</ele><time>2026-04-25T09:55:12.001Z</time></trkpt><trkpt lat="45.1518173" lon="8.2677874"><ele>195.0</ele><time>2026-04-25T09:55:12.994Z</time></trkpt><trkpt lat="45.1518391" lon="8.2674911"><ele>196.0</ele><time>2026-04-25T09:55:13.99Z</time></trkpt><trkpt lat="45.1518618" lon="8.2671872"><ele>196.33333333333331</ele><time>2026-04-25T09:55:14.991Z</time></trkpt><trkpt lat="45.151883" lon="8.2668778"><ele>196.66666666666669</ele><time>2026-04-25T09:55:15.983Z</time></trkpt><trkpt lat="45.1519038" lon="8.2665653"><ele>197.0</ele><time>2026-04-25T09:55:17.002Z</time></trkpt><trkpt lat="45.1519267" lon="8.2662565"><ele>197.0</ele><time>2026-04-25T09:55:17.994Z</time></trkpt><trkpt lat="45.1519504" lon="8.2659548"><ele>197.0</ele><time>2026-04-25T09:55:19.002Z</time></trkpt><trkpt lat="45.1519726" lon="8.2656769"><ele>197.0</ele><time>2026-04-25T09:55:19.992Z</time></trkpt><trkpt lat="45.1519911" lon="8.2654219"><ele>197.0</ele><time>2026-04-25T09:55:20.997Z</time></trkpt><trkpt lat="45.1520041" lon="8.2651954"><ele>197.0</ele><time>2026-04-25T09:55:21.99Z</time></trkpt><trkpt lat="45.1520165" lon="8.2649919"><ele>197.0</ele><time>2026-04-25T09:55:22.992Z</time></trkpt><trkpt lat="45.1520303" lon="8.2648081"><ele>197.0</ele><time>2026-04-25T09:55:23.996Z</time></trkpt><trkpt lat="45.1520446" lon="8.2646491"><ele>197.16666666666669</ele><time>2026-04-25T09:55:24.992Z</time></trkpt><trkpt lat="45.1520566" lon="8.2645129"><ele>197.33333333333334</ele><time>2026-04-25T09:55:25.992Z</time></trkpt><trkpt lat="45.1520606" lon="8.2643918"><ele>197.5</ele><time>2026-04-25T09:55:26.998Z</time></trkpt><trkpt lat="45.1520728" lon="8.264289"><ele>197.66666666666669</ele><time>2026-04-25T09:55:27.989Z</time></trkpt><trkpt lat="45.1520781" lon="8.2641692"><ele>197.83333333333334</ele><time>2026-04-25T09:55:29.99Z</time></trkpt><trkpt lat="45.1520295" lon="8.2642306"><ele>198.0</ele><time>2026-04-25T09:55:32.999Z</time></trkpt><trkpt lat="45.1520273" lon="8.2643376"><ele>198.0</ele><time>2026-04-25T09:55:33.996Z</time></trkpt><trkpt lat="45.1520236" lon="8.264487"><ele>198.0</ele><time>2026-04-25T09:55:34.992Z</time></trkpt><trkpt lat="45.152014" lon="8.2646793"><ele>198.0</ele><time>2026-04-25T09:55:35.989Z</time></trkpt><trkpt lat="45.1519972" lon="8.2649108"><ele>198.0</ele><time>2026-04-25T09:55:36.99Z</time></trkpt><trkpt lat="45.1519806" lon="8.2651742"><ele>197.66666666666669</ele><time>2026-04-25T09:55:37.991Z</time></trkpt><trkpt lat="45.1519653" lon="8.2654687"><ele>197.33333333333334</ele><time>2026-04-25T09:55:38.993Z</time></trkpt><trkpt lat="45.1519484" lon="8.2657793"><ele>197.0</ele><time>2026-04-25T09:55:39.992Z</time></trkpt><trkpt lat="45.1519296" lon="8.2661101"><ele>198.0</ele><time>2026-04-25T09:55:40.995Z</time></trkpt><trkpt lat="45.1519077" lon="8.2664587"><ele>199.0</ele><time>2026-04-25T09:55:41.998Z</time></trkpt><trkpt lat="45.1518836" lon="8.2668151"><ele>199.0</ele><time>2026-04-25T09:55:42.998Z</time></trkpt><trkpt lat="45.1518593" lon="8.2671789"><ele>199.0</ele><time>2026-04-25T09:55:43.994Z</time></trkpt><trkpt lat="45.1518334" lon="8.2675475"><ele>197.5</ele><time>2026-04-25T09:55:44.985Z</time></trkpt><trkpt lat="45.1518045" lon="8.2679147"><ele>196.0</ele><time>2026-04-25T09:55:45.995Z</time></trkpt><trkpt lat="45.1517743" lon="8.2682744"><ele>194.5</ele><time>2026-04-25T09:55:46.989Z</time></trkpt><trkpt lat="45.1517455" lon="8.2686297"><ele>193.0</ele><time>2026-04-25T09:55:47.993Z</time></trkpt><trkpt lat="45.1517203" lon="8.2689801"><ele>192.5</ele><time>2026-04-25T09:55:48.998Z</time></trkpt><trkpt lat="45.1516962" lon="8.2693221"><ele>192.0</ele><time>2026-04-25T09:55:49.994Z</time></trkpt><trkpt lat="45.1516698" lon="8.2696582"><ele>192.5</ele><time>2026-04-25T09:55:50.992Z</time></trkpt><trkpt lat="45.1516399" lon="8.2699848"><ele>193.0</ele><time>2026-04-25T09:55:51.994Z</time></trkpt><trkpt lat="45.1516033" lon="8.2702998"><ele>193.0</ele><time>2026-04-25T09:55:52.99Z</time></trkpt><trkpt lat="45.1515509" lon="8.2706037"><ele>193.0</ele><time>2026-04-25T09:55:54.023Z</time></trkpt><trkpt lat="45.1514761" lon="8.2709042"><ele>193.0</ele><time>2026-04-25T09:55:54.999Z</time></trkpt><trkpt lat="45.151385" lon="8.2712044"><ele>190.5</ele><time>2026-04-25T09:55:55.991Z</time></trkpt><trkpt lat="45.1512882" lon="8.2715058"><ele>188.0</ele><time>2026-04-25T09:55:56.988Z</time></trkpt><trkpt lat="45.1511922" lon="8.271806"><ele>188.0</ele><time>2026-04-25T09:55:57.994Z</time></trkpt><trkpt lat="45.1510958" lon="8.2721077"><ele>188.0</ele><time>2026-04-25T09:55:58.988Z</time></trkpt><trkpt lat="45.1510007" lon="8.2724094"><ele>189.0</ele><time>2026-04-25T09:55:59.997Z</time></trkpt><trkpt lat="45.1509063" lon="8.2727047"><ele>190.0</ele><time>2026-04-25T09:56:00.994Z</time></trkpt><trkpt lat="45.1508121" lon="8.2729936"><ele>191.66666666666669</ele><time>2026-04-25T09:56:01.988Z</time></trkpt><trkpt lat="45.1507214" lon="8.2732746"><ele>193.33333333333334</ele><time>2026-04-25T09:56:02.995Z</time></trkpt><trkpt lat="45.1506381" lon="8.2735446"><ele>195.0</ele><time>2026-04-25T09:56:03.993Z</time></trkpt><trkpt lat="45.1505686" lon="8.2738112"><ele>191.66666666666666</ele><time>2026-04-25T09:56:04.995Z</time></trkpt><trkpt lat="45.1505136" lon="8.27408"><ele>188.33333333333331</ele><time>2026-04-25T09:56:06.003Z</time></trkpt><trkpt lat="45.1504735" lon="8.2743498"><ele>185.0</ele><time>2026-04-25T09:56:06.996Z</time></trkpt><trkpt lat="45.1504454" lon="8.2746063"><ele>184.66666666666666</ele><time>2026-04-25T09:56:07.993Z</time></trkpt><trkpt lat="45.1504199" lon="8.2748451"><ele>184.33333333333334</ele><time>2026-04-25T09:56:08.987Z</time></trkpt><trkpt lat="45.1503932" lon="8.2750678"><ele>184.0</ele><time>2026-04-25T09:56:09.999Z</time></trkpt><trkpt lat="45.1503681" lon="8.275276"><ele>184.0</ele><time>2026-04-25T09:56:10.996Z</time></trkpt><trkpt lat="45.1503462" lon="8.2754797"><ele>184.0</ele><time>2026-04-25T09:56:11.999Z</time></trkpt><trkpt lat="45.1503251" lon="8.2756817"><ele>184.0</ele><time>2026-04-25T09:56:12.995Z</time></trkpt><trkpt lat="45.1503033" lon="8.2758725"><ele>184.0</ele><time>2026-04-25T09:56:13.995Z</time></trkpt><trkpt lat="45.1502839" lon="8.2760515"><ele>184.0</ele><time>2026-04-25T09:56:15.011Z</time></trkpt><trkpt lat="45.1502723" lon="8.2762116"><ele>184.0</ele><time>2026-04-25T09:56:15.999Z</time></trkpt><trkpt lat="45.1502627" lon="8.2763598"><ele>184.0</ele><time>2026-04-25T09:56:16.996Z</time></trkpt><trkpt lat="45.150245" lon="8.2764821"><ele>184.0</ele><time>2026-04-25T09:56:17.997Z</time></trkpt><trkpt lat="45.1502095" lon="8.2765624"><ele>184.0</ele><time>2026-04-25T09:56:18.992Z</time></trkpt><trkpt lat="45.1501013" lon="8.2766169"><ele>183.75</ele><time>2026-04-25T09:56:20.998Z</time></trkpt><trkpt lat="45.1500086" lon="8.2766027"><ele>183.5</ele><time>2026-04-25T09:56:21.999Z</time></trkpt><trkpt lat="45.1498953" lon="8.2765869"><ele>183.25</ele><time>2026-04-25T09:56:22.999Z</time></trkpt><trkpt lat="45.1497541" lon="8.2765666"><ele>183.0</ele><time>2026-04-25T09:56:24.004Z</time></trkpt><trkpt lat="45.1495993" lon="8.2765514"><ele>183.0</ele><time>2026-04-25T09:56:24.998Z</time></trkpt><trkpt lat="45.1494448" lon="8.2765369"><ele>183.0</ele><time>2026-04-25T09:56:25.996Z</time></trkpt><trkpt lat="45.1493082" lon="8.2765171"><ele>183.0</ele><time>2026-04-25T09:56:26.994Z</time></trkpt><trkpt lat="45.1491869" lon="8.2765036"><ele>183.0</ele><time>2026-04-25T09:56:27.997Z</time></trkpt><trkpt lat="45.1490883" lon="8.2765043"><ele>188.2</ele><time>2026-04-25T09:56:28.996Z</time></trkpt><trkpt lat="45.1490077" lon="8.2765513"><ele>193.4</ele><time>2026-04-25T09:56:29.999Z</time></trkpt><trkpt lat="45.1489394" lon="8.2766398"><ele>198.6</ele><time>2026-04-25T09:56:31.007Z</time></trkpt><trkpt lat="45.14887" lon="8.2767478"><ele>203.79999999999998</ele><time>2026-04-25T09:56:31.991Z</time></trkpt><trkpt lat="45.1488037" lon="8.2769041"><ele>209.0</ele><time>2026-04-25T09:56:32.99Z</time></trkpt><trkpt lat="45.148737" lon="8.2770703"><ele>209.0</ele><time>2026-04-25T09:56:33.991Z</time></trkpt><trkpt lat="45.1486577" lon="8.2772549"><ele>209.0</ele><time>2026-04-25T09:56:34.989Z</time></trkpt><trkpt lat="45.1485623" lon="8.2774688"><ele>209.0</ele><time>2026-04-25T09:56:36.006Z</time></trkpt><trkpt lat="45.148477" lon="8.2776564"><ele>207.5</ele><time>2026-04-25T09:56:36.993Z</time></trkpt><trkpt lat="45.1484003" lon="8.277829"><ele>206.0</ele><time>2026-04-25T09:56:38.001Z</time></trkpt><trkpt lat="45.1483313" lon="8.2779736"><ele>204.5</ele><time>2026-04-25T09:56:38.997Z</time></trkpt><trkpt lat="45.1482621" lon="8.2780939"><ele>203.0</ele><time>2026-04-25T09:56:40Z</time></trkpt><trkpt lat="45.1481834" lon="8.2781994"><ele>207.25</ele><time>2026-04-25T09:56:40.996Z</time></trkpt><trkpt lat="45.1480873" lon="8.2782869"><ele>211.5</ele><time>2026-04-25T09:56:41.998Z</time></trkpt><trkpt lat="45.1479846" lon="8.2783621"><ele>215.75</ele><time>2026-04-25T09:56:42.996Z</time></trkpt><trkpt lat="45.1478786" lon="8.2784351"><ele>220.0</ele><time>2026-04-25T09:56:43.995Z</time></trkpt><trkpt lat="45.147789" lon="8.2785223"><ele>220.0</ele><time>2026-04-25T09:56:44.997Z</time></trkpt><trkpt lat="45.147722" lon="8.2786339"><ele>220.0</ele><time>2026-04-25T09:56:46.001Z</time></trkpt><trkpt lat="45.1476886" lon="8.2787744"><ele>220.0</ele><time>2026-04-25T09:56:46.998Z</time></trkpt><trkpt lat="45.1476817" lon="8.2789347"><ele>220.0</ele><time>2026-04-25T09:56:47.996Z</time></trkpt><trkpt lat="45.1477013" lon="8.279107"><ele>220.0</ele><time>2026-04-25T09:56:48.989Z</time></trkpt><trkpt lat="45.147741" lon="8.279279"><ele>218.75</ele><time>2026-04-25T09:56:49.993Z</time></trkpt><trkpt lat="45.1477789" lon="8.2794489"><ele>217.5</ele><time>2026-04-25T09:56:50.996Z</time></trkpt><trkpt lat="45.1478042" lon="8.2796047"><ele>216.25</ele><time>2026-04-25T09:56:51.99Z</time></trkpt><trkpt lat="45.1478097" lon="8.2797563"><ele>215.0</ele><time>2026-04-25T09:56:53.006Z</time></trkpt><trkpt lat="45.1477987" lon="8.2799173"><ele>215.0</ele><time>2026-04-25T09:56:53.995Z</time></trkpt><trkpt lat="45.1477765" lon="8.2800827"><ele>215.0</ele><time>2026-04-25T09:56:54.997Z</time></trkpt><trkpt lat="45.1477456" lon="8.2802324"><ele>215.0</ele><time>2026-04-25T09:56:55.996Z</time></trkpt><trkpt lat="45.1477148" lon="8.2803614"><ele>215.0</ele><time>2026-04-25T09:56:56.997Z</time></trkpt><trkpt lat="45.1476536" lon="8.2804334"><ele>215.0</ele><time>2026-04-25T09:56:58.018Z</time></trkpt><trkpt lat="45.1475907" lon="8.2804461"><ele>215.00000000000003</ele><time>2026-04-25T09:56:58.994Z</time></trkpt><trkpt lat="45.1475358" lon="8.2803982"><ele>215.0</ele><time>2026-04-25T09:56:59.994Z</time></trkpt><trkpt lat="45.1475051" lon="8.2803039"><ele>215.0</ele><time>2026-04-25T09:57:00.991Z</time></trkpt><trkpt lat="45.1475058" lon="8.2801894"><ele>215.0</ele><time>2026-04-25T09:57:01.992Z</time></trkpt><trkpt lat="45.1475385" lon="8.2800721"><ele>215.00000000000003</ele><time>2026-04-25T09:57:03.005Z</time></trkpt><trkpt lat="45.1475642" lon="8.279945"><ele>215.0</ele><time>2026-04-25T09:57:03.99Z</time></trkpt><trkpt lat="45.1475686" lon="8.2798084"><ele>214.6</ele><time>2026-04-25T09:57:04.995Z</time></trkpt><trkpt lat="45.1475494" lon="8.2796823"><ele>214.2</ele><time>2026-04-25T09:57:05.995Z</time></trkpt><trkpt lat="45.1475096" lon="8.2795665"><ele>213.8</ele><time>2026-04-25T09:57:06.991Z</time></trkpt><trkpt lat="45.1474494" lon="8.279465"><ele>213.4</ele><time>2026-04-25T09:57:08.011Z</time></trkpt><trkpt lat="45.1473666" lon="8.2793856"><ele>213.0</ele><time>2026-04-25T09:57:08.996Z</time></trkpt><trkpt lat="45.1472677" lon="8.279327"><ele>214.33333333333334</ele><time>2026-04-25T09:57:09.997Z</time></trkpt><trkpt lat="45.1471787" lon="8.2792691"><ele>215.66666666666669</ele><time>2026-04-25T09:57:11.001Z</time></trkpt><trkpt lat="45.147099" lon="8.2792529"><ele>217.0</ele><time>2026-04-25T09:57:11.996Z</time></trkpt><trkpt lat="45.1470286" lon="8.2792571"><ele>218.33333333333334</ele><time>2026-04-25T09:57:12.997Z</time></trkpt><trkpt lat="45.1470283" lon="8.2793732"><ele>219.66666666666669</ele><time>2026-04-25T09:57:15.995Z</time></trkpt><trkpt lat="45.1470891" lon="8.2794897"><ele>221.0</ele><time>2026-04-25T09:57:18.002Z</time></trkpt><trkpt lat="45.1471202" lon="8.2795853"><ele>221.0</ele><time>2026-04-25T09:57:19.003Z</time></trkpt><trkpt lat="45.1471482" lon="8.2796931"><ele>221.00000000000003</ele><time>2026-04-25T09:57:20.012Z</time></trkpt><trkpt lat="45.1471421" lon="8.279829"><ele>221.00000000000003</ele><time>2026-04-25T09:57:20.995Z</time></trkpt><trkpt lat="45.1471317" lon="8.2799722"><ele>221.0</ele><time>2026-04-25T09:57:22Z</time></trkpt><trkpt lat="45.1471287" lon="8.2801247"><ele>221.0</ele><time>2026-04-25T09:57:23.002Z</time></trkpt><trkpt lat="45.1471118" lon="8.2802636"><ele>220.4</ele><time>2026-04-25T09:57:23.995Z</time></trkpt><trkpt lat="45.1470926" lon="8.2803961"><ele>219.8</ele><time>2026-04-25T09:57:25.002Z</time></trkpt><trkpt lat="45.1470788" lon="8.2805278"><ele>219.20000000000002</ele><time>2026-04-25T09:57:25.99Z</time></trkpt><trkpt lat="45.1470764" lon="8.2806817"><ele>218.60000000000002</ele><time>2026-04-25T09:57:26.999Z</time></trkpt><trkpt lat="45.1470663" lon="8.2808487"><ele>218.0</ele><time>2026-04-25T09:57:27.988Z</time></trkpt><trkpt lat="45.147052" lon="8.2810198"><ele>218.0</ele><time>2026-04-25T09:57:28.988Z</time></trkpt><trkpt lat="45.1470326" lon="8.2811859"><ele>218.0</ele><time>2026-04-25T09:57:29.989Z</time></trkpt><trkpt lat="45.1470122" lon="8.2813399"><ele>218.0</ele><time>2026-04-25T09:57:30.994Z</time></trkpt><trkpt lat="45.1470026" lon="8.2814874"><ele>218.0</ele><time>2026-04-25T09:57:31.997Z</time></trkpt><trkpt lat="45.1469989" lon="8.2816371"><ele>218.0</ele><time>2026-04-25T09:57:32.994Z</time></trkpt><trkpt lat="45.1470211" lon="8.2817884"><ele>218.75</ele><time>2026-04-25T09:57:33.998Z</time></trkpt><trkpt lat="45.1470378" lon="8.281942"><ele>219.5</ele><time>2026-04-25T09:57:34.986Z</time></trkpt><trkpt lat="45.1470318" lon="8.2821004"><ele>220.25</ele><time>2026-04-25T09:57:35.996Z</time></trkpt><trkpt lat="45.1470118" lon="8.2822472"><ele>221.0</ele><time>2026-04-25T09:57:36.992Z</time></trkpt><trkpt lat="45.146975" lon="8.2824389"><ele>222.25</ele><time>2026-04-25T09:57:37.991Z</time></trkpt><trkpt lat="45.1469424" lon="8.2826245"><ele>223.5</ele><time>2026-04-25T09:57:38.998Z</time></trkpt><trkpt lat="45.1469209" lon="8.2828137"><ele>224.75</ele><time>2026-04-25T09:57:39.994Z</time></trkpt><trkpt lat="45.1468928" lon="8.2829659"><ele>226.0</ele><time>2026-04-25T09:57:40.997Z</time></trkpt><trkpt lat="45.1468616" lon="8.2831075"><ele>226.75</ele><time>2026-04-25T09:57:41.996Z</time></trkpt><trkpt lat="45.146836" lon="8.2832523"><ele>227.5</ele><time>2026-04-25T09:57:43.007Z</time></trkpt><trkpt lat="45.146816" lon="8.2834034"><ele>228.25</ele><time>2026-04-25T09:57:44.001Z</time></trkpt><trkpt lat="45.1467943" lon="8.2835742"><ele>229.0</ele><time>2026-04-25T09:57:44.995Z</time></trkpt><trkpt lat="45.1467756" lon="8.2837476"><ele>229.0</ele><time>2026-04-25T09:57:46Z</time></trkpt><trkpt lat="45.1467546" lon="8.2839277"><ele>229.0</ele><time>2026-04-25T09:57:46.99Z</time></trkpt><trkpt lat="45.146738" lon="8.2841119"><ele>229.0</ele><time>2026-04-25T09:57:47.994Z</time></trkpt><trkpt lat="45.1467188" lon="8.2842959"><ele>229.0</ele><time>2026-04-25T09:57:48.999Z</time></trkpt><trkpt lat="45.146703" lon="8.284475"><ele>228.2</ele><time>2026-04-25T09:57:49.993Z</time></trkpt><trkpt lat="45.1466893" lon="8.2846493"><ele>227.39999999999998</ele><time>2026-04-25T09:57:50.994Z</time></trkpt><trkpt lat="45.146677" lon="8.2848004"><ele>226.6</ele><time>2026-04-25T09:57:51.995Z</time></trkpt><trkpt lat="45.1466622" lon="8.2849235"><ele>225.8</ele><time>2026-04-25T09:57:52.991Z</time></trkpt><trkpt lat="45.146638" lon="8.2850137"><ele>225.0</ele><time>2026-04-25T09:57:54Z</time></trkpt><trkpt lat="45.1466267" lon="8.2851081"><ele>224.83333333333334</ele><time>2026-04-25T09:57:54.993Z</time></trkpt><trkpt lat="45.1466347" lon="8.285214"><ele>224.66666666666669</ele><time>2026-04-25T09:57:56.001Z</time></trkpt><trkpt lat="45.1466465" lon="8.2853282"><ele>224.5</ele><time>2026-04-25T09:57:56.999Z</time></trkpt><trkpt lat="45.1466582" lon="8.2854518"><ele>224.33333333333334</ele><time>2026-04-25T09:57:57.989Z</time></trkpt><trkpt lat="45.146665" lon="8.2855856"><ele>224.16666666666669</ele><time>2026-04-25T09:57:58.986Z</time></trkpt><trkpt lat="45.1466674" lon="8.2857084"><ele>224.0</ele><time>2026-04-25T09:57:59.991Z</time></trkpt><trkpt lat="45.1466792" lon="8.285811"><ele>224.00000000000003</ele><time>2026-04-25T09:58:00.994Z</time></trkpt><trkpt lat="45.1466788" lon="8.2859309"><ele>224.0</ele><time>2026-04-25T09:58:01.998Z</time></trkpt><trkpt lat="45.1466827" lon="8.2860568"><ele>224.0</ele><time>2026-04-25T09:58:02.999Z</time></trkpt><trkpt lat="45.1466809" lon="8.2861815"><ele>224.0</ele><time>2026-04-25T09:58:03.988Z</time></trkpt><trkpt lat="45.1466881" lon="8.2862903"><ele>224.00000000000003</ele><time>2026-04-25T09:58:04.992Z</time></trkpt><trkpt lat="45.1466835" lon="8.286383"><ele>224.0</ele><time>2026-04-25T09:58:05.989Z</time></trkpt><trkpt lat="45.1466833" lon="8.2865504"><ele>225.0</ele><time>2026-04-25T09:58:08.002Z</time></trkpt><trkpt lat="45.1467021" lon="8.2867146"><ele>225.99999999999997</ele><time>2026-04-25T09:58:10.001Z</time></trkpt><trkpt lat="45.1467216" lon="8.2868642"><ele>226.99999999999997</ele><time>2026-04-25T09:58:11.989Z</time></trkpt><trkpt lat="45.14675" lon="8.2870404"><ele>228.0</ele><time>2026-04-25T09:58:13.993Z</time></trkpt><trkpt lat="45.1468065" lon="8.2871289"><ele>229.0</ele><time>2026-04-25T09:58:14.995Z</time></trkpt><trkpt lat="45.1468544" lon="8.2872384"><ele>229.66666666666666</ele><time>2026-04-25T09:58:16.002Z</time></trkpt><trkpt lat="45.1468942" lon="8.2873499"><ele>230.33333333333331</ele><time>2026-04-25T09:58:16.994Z</time></trkpt><trkpt lat="45.1469279" lon="8.2874738"><ele>231.0</ele><time>2026-04-25T09:58:17.988Z</time></trkpt><trkpt lat="45.1469493" lon="8.287574"><ele>231.66666666666669</ele><time>2026-04-25T09:58:18.99Z</time></trkpt><trkpt lat="45.1469615" lon="8.2876982"><ele>232.33333333333334</ele><time>2026-04-25T09:58:19.998Z</time></trkpt><trkpt lat="45.1469751" lon="8.2878151"><ele>233.0</ele><time>2026-04-25T09:58:20.994Z</time></trkpt><trkpt lat="45.146982" lon="8.28793"><ele>233.00000000000003</ele><time>2026-04-25T09:58:21.992Z</time></trkpt><trkpt lat="45.146992" lon="8.2880496"><ele>233.0</ele><time>2026-04-25T09:58:22.992Z</time></trkpt><trkpt lat="45.1470284" lon="8.2881632"><ele>233.0</ele><time>2026-04-25T09:58:23.991Z</time></trkpt><trkpt lat="45.1470568" lon="8.2882562"><ele>233.0</ele><time>2026-04-25T09:58:24.989Z</time></trkpt><trkpt lat="45.147068" lon="8.2883572"><ele>233.00000000000003</ele><time>2026-04-25T09:58:25.996Z</time></trkpt><trkpt lat="45.1470813" lon="8.2884558"><ele>233.0</ele><time>2026-04-25T09:58:26.994Z</time></trkpt><trkpt lat="45.1471184" lon="8.2885848"><ele>231.8</ele><time>2026-04-25T09:58:28.997Z</time></trkpt><trkpt lat="45.1471993" lon="8.2886254"><ele>230.60000000000002</ele><time>2026-04-25T09:58:30.991Z</time></trkpt><trkpt lat="45.1472731" lon="8.2886585"><ele>229.39999999999998</ele><time>2026-04-25T09:58:32.99Z</time></trkpt><trkpt lat="45.1473476" lon="8.2887702"><ele>228.2</ele><time>2026-04-25T09:58:34.992Z</time></trkpt><trkpt lat="45.1473815" lon="8.2888561"><ele>227.0</ele><time>2026-04-25T09:58:36.002Z</time></trkpt><trkpt lat="45.1473891" lon="8.2890194"><ele>231.2</ele><time>2026-04-25T09:58:38.006Z</time></trkpt><trkpt lat="45.1473643" lon="8.2892007"><ele>235.39999999999998</ele><time>2026-04-25T09:58:40.004Z</time></trkpt><trkpt lat="45.1473349" lon="8.2893052"><ele>239.60000000000002</ele><time>2026-04-25T09:58:40.999Z</time></trkpt><trkpt lat="45.1473066" lon="8.2894087"><ele>243.8</ele><time>2026-04-25T09:58:41.996Z</time></trkpt><trkpt lat="45.147275" lon="8.2895062"><ele>248.0</ele><time>2026-04-25T09:58:42.999Z</time></trkpt><trkpt lat="45.1472153" lon="8.2896493"><ele>245.60000000000002</ele><time>2026-04-25T09:58:45.013Z</time></trkpt><trkpt lat="45.147134" lon="8.2897814"><ele>243.20000000000002</ele><time>2026-04-25T09:58:47.007Z</time></trkpt><trkpt lat="45.14708" lon="8.2898537"><ele>240.8</ele><time>2026-04-25T09:58:47.996Z</time></trkpt><trkpt lat="45.1470164" lon="8.2899372"><ele>238.4</ele><time>2026-04-25T09:58:49.007Z</time></trkpt><trkpt lat="45.1469441" lon="8.2900328"><ele>236.0</ele><time>2026-04-25T09:58:50.003Z</time></trkpt><trkpt lat="45.146873" lon="8.2901284"><ele>236.0</ele><time>2026-04-25T09:58:50.995Z</time></trkpt><trkpt lat="45.1468198" lon="8.2902272"><ele>236.00000000000003</ele><time>2026-04-25T09:58:51.995Z</time></trkpt><trkpt lat="45.146766" lon="8.290327"><ele>236.00000000000003</ele><time>2026-04-25T09:58:52.998Z</time></trkpt><trkpt lat="45.1467362" lon="8.2904491"><ele>236.0</ele><time>2026-04-25T09:58:53.998Z</time></trkpt><trkpt lat="45.1467053" lon="8.29057"><ele>236.0</ele><time>2026-04-25T09:58:55.01Z</time></trkpt><trkpt lat="45.1466872" lon="8.2907"><ele>233.20000000000002</ele><time>2026-04-25T09:58:55.994Z</time></trkpt><trkpt lat="45.1466695" lon="8.2908307"><ele>230.40000000000003</ele><time>2026-04-25T09:58:56.996Z</time></trkpt><trkpt lat="45.1466529" lon="8.2909578"><ele>227.6</ele><time>2026-04-25T09:58:57.991Z</time></trkpt><trkpt lat="45.146629" lon="8.2910846"><ele>224.8</ele><time>2026-04-25T09:58:58.995Z</time></trkpt><trkpt lat="45.146601" lon="8.2912117"><ele>222.0</ele><time>2026-04-25T09:58:59.992Z</time></trkpt><trkpt lat="45.1465684" lon="8.2913468"><ele>223.6</ele><time>2026-04-25T09:59:00.988Z</time></trkpt><trkpt lat="45.146535" lon="8.2914822"><ele>225.2</ele><time>2026-04-25T09:59:02.012Z</time></trkpt><trkpt lat="45.1464884" lon="8.2916159"><ele>226.8</ele><time>2026-04-25T09:59:02.997Z</time></trkpt><trkpt lat="45.146442" lon="8.2917457"><ele>228.4</ele><time>2026-04-25T09:59:04.004Z</time></trkpt><trkpt lat="45.1464066" lon="8.29188"><ele>230.0</ele><time>2026-04-25T09:59:04.999Z</time></trkpt><trkpt lat="45.1463733" lon="8.292017"><ele>230.0</ele><time>2026-04-25T09:59:05.998Z</time></trkpt><trkpt lat="45.1463391" lon="8.2921552"><ele>230.0</ele><time>2026-04-25T09:59:07.002Z</time></trkpt><trkpt lat="45.1463076" lon="8.2922899"><ele>230.0</ele><time>2026-04-25T09:59:07.999Z</time></trkpt><trkpt lat="45.1462755" lon="8.2924179"><ele>230.0</ele><time>2026-04-25T09:59:09.003Z</time></trkpt><trkpt lat="45.1462439" lon="8.2925419"><ele>230.0</ele><time>2026-04-25T09:59:09.998Z</time></trkpt><trkpt lat="45.1462111" lon="8.2926588"><ele>227.2</ele><time>2026-04-25T09:59:10.998Z</time></trkpt><trkpt lat="45.1461747" lon="8.2927784"><ele>224.4</ele><time>2026-04-25T09:59:11.995Z</time></trkpt><trkpt lat="45.1461291" lon="8.2929053"><ele>221.60000000000002</ele><time>2026-04-25T09:59:13.001Z</time></trkpt><trkpt lat="45.1460812" lon="8.293038"><ele>218.8</ele><time>2026-04-25T09:59:13.994Z</time></trkpt><trkpt lat="45.1460339" lon="8.2931691"><ele>216.0</ele><time>2026-04-25T09:59:15.002Z</time></trkpt><trkpt lat="45.1459818" lon="8.2932986"><ele>214.8</ele><time>2026-04-25T09:59:15.995Z</time></trkpt><trkpt lat="45.1459263" lon="8.2934231"><ele>213.60000000000002</ele><time>2026-04-25T09:59:16.997Z</time></trkpt><trkpt lat="45.1458695" lon="8.2935366"><ele>212.4</ele><time>2026-04-25T09:59:18Z</time></trkpt><trkpt lat="45.1458157" lon="8.2936418"><ele>211.2</ele><time>2026-04-25T09:59:18.997Z</time></trkpt><trkpt lat="45.1457566" lon="8.2937297"><ele>210.0</ele><time>2026-04-25T09:59:20.008Z</time></trkpt><trkpt lat="45.1456856" lon="8.2938066"><ele>210.0</ele><time>2026-04-25T09:59:21.011Z</time></trkpt><trkpt lat="45.1456084" lon="8.2938655"><ele>210.0</ele><time>2026-04-25T09:59:21.993Z</time></trkpt><trkpt lat="45.1455326" lon="8.2939124"><ele>210.0</ele><time>2026-04-25T09:59:22.994Z</time></trkpt><trkpt lat="45.1454641" lon="8.2939424"><ele>210.0</ele><time>2026-04-25T09:59:23.989Z</time></trkpt><trkpt lat="45.1453499" lon="8.2939548"><ele>210.0</ele><time>2026-04-25T09:59:25.988Z</time></trkpt><trkpt lat="45.1452547" lon="8.294016"><ele>209.0</ele><time>2026-04-25T09:59:28.011Z</time></trkpt><trkpt lat="45.1451948" lon="8.2941453"><ele>208.0</ele><time>2026-04-25T09:59:29.996Z</time></trkpt><trkpt lat="45.1452244" lon="8.2943181"><ele>207.0</ele><time>2026-04-25T09:59:31.993Z</time></trkpt><trkpt lat="45.1452672" lon="8.2944785"><ele>206.0</ele><time>2026-04-25T09:59:33.989Z</time></trkpt><trkpt lat="45.1452663" lon="8.294607"><ele>205.0</ele><time>2026-04-25T09:59:35.987Z</time></trkpt><trkpt lat="45.1452171" lon="8.2946729"><ele>205.0</ele><time>2026-04-25T09:59:36.991Z</time></trkpt><trkpt lat="45.14514" lon="8.2947375"><ele>205.0</ele><time>2026-04-25T09:59:37.998Z</time></trkpt><trkpt lat="45.1450444" lon="8.2948145"><ele>205.0</ele><time>2026-04-25T09:59:39Z</time></trkpt><trkpt lat="45.1449112" lon="8.2948805"><ele>205.0</ele><time>2026-04-25T09:59:40Z</time></trkpt><trkpt lat="45.1447768" lon="8.2949594"><ele>204.4</ele><time>2026-04-25T09:59:40.995Z</time></trkpt><trkpt lat="45.1446736" lon="8.2950306"><ele>203.8</ele><time>2026-04-25T09:59:41.994Z</time></trkpt><trkpt lat="45.1445916" lon="8.2951106"><ele>203.2</ele><time>2026-04-25T09:59:42.986Z</time></trkpt><trkpt lat="45.1445054" lon="8.2952125"><ele>202.6</ele><time>2026-04-25T09:59:43.992Z</time></trkpt><trkpt lat="45.1444207" lon="8.2953146"><ele>202.0</ele><time>2026-04-25T09:59:44.991Z</time></trkpt><trkpt lat="45.1443443" lon="8.295405"><ele>202.0</ele><time>2026-04-25T09:59:45.993Z</time></trkpt><trkpt lat="45.1442742" lon="8.2954953"><ele>202.0</ele><time>2026-04-25T09:59:47.004Z</time></trkpt><trkpt lat="45.14421" lon="8.2955905"><ele>202.0</ele><time>2026-04-25T09:59:47.995Z</time></trkpt><trkpt lat="45.1441451" lon="8.2956887"><ele>202.0</ele><time>2026-04-25T09:59:48.996Z</time></trkpt><trkpt lat="45.1440682" lon="8.2957739"><ele>202.0</ele><time>2026-04-25T09:59:49.991Z</time></trkpt><trkpt lat="45.1439897" lon="8.2958577"><ele>200.8</ele><time>2026-04-25T09:59:50.993Z</time></trkpt><trkpt lat="45.1439096" lon="8.2959464"><ele>199.6</ele><time>2026-04-25T09:59:52.01Z</time></trkpt><trkpt lat="45.1438307" lon="8.2960305"><ele>198.4</ele><time>2026-04-25T09:59:52.991Z</time></trkpt><trkpt lat="45.1437529" lon="8.2961128"><ele>197.20000000000002</ele><time>2026-04-25T09:59:53.999Z</time></trkpt><trkpt lat="45.1436796" lon="8.2962119"><ele>196.0</ele><time>2026-04-25T09:59:54.99Z</time></trkpt><trkpt lat="45.143612" lon="8.2963123"><ele>196.0</ele><time>2026-04-25T09:59:55.99Z</time></trkpt><trkpt lat="45.1435418" lon="8.2964153"><ele>196.0</ele><time>2026-04-25T09:59:56.997Z</time></trkpt><trkpt lat="45.1434724" lon="8.2965127"><ele>196.0</ele><time>2026-04-25T09:59:57.992Z</time></trkpt><trkpt lat="45.1433947" lon="8.2966043"><ele>196.0</ele><time>2026-04-25T09:59:58.987Z</time></trkpt><trkpt lat="45.1433136" lon="8.2966797"><ele>196.0</ele><time>2026-04-25T09:59:59.997Z</time></trkpt><trkpt lat="45.1432273" lon="8.2967462"><ele>195.49999999999997</ele><time>2026-04-25T10:00:00.991Z</time></trkpt><trkpt lat="45.1431323" lon="8.2968055"><ele>195.0</ele><time>2026-04-25T10:00:01.992Z</time></trkpt><trkpt lat="45.1430389" lon="8.2968568"><ele>194.5</ele><time>2026-04-25T10:00:02.997Z</time></trkpt><trkpt lat="45.1429565" lon="8.2969091"><ele>194.0</ele><time>2026-04-25T10:00:03.993Z</time></trkpt><trkpt lat="45.1428839" lon="8.2969579"><ele>193.49999999999997</ele><time>2026-04-25T10:00:04.995Z</time></trkpt><trkpt lat="45.1428198" lon="8.2970021"><ele>193.0</ele><time>2026-04-25T10:00:05.992Z</time></trkpt><trkpt lat="45.1427139" lon="8.2970895"><ele>192.99999999999997</ele><time>2026-04-25T10:00:07.992Z</time></trkpt><trkpt lat="45.1426584" lon="8.2971454"><ele>193.0</ele><time>2026-04-25T10:00:08.994Z</time></trkpt><trkpt lat="45.1426007" lon="8.2972028"><ele>193.0</ele><time>2026-04-25T10:00:09.994Z</time></trkpt><trkpt lat="45.1425307" lon="8.2972714"><ele>193.0</ele><time>2026-04-25T10:00:10.999Z</time></trkpt><trkpt lat="45.1424495" lon="8.297351"><ele>192.99999999999997</ele><time>2026-04-25T10:00:11.99Z</time></trkpt><trkpt lat="45.142362" lon="8.2974365"><ele>193.0</ele><time>2026-04-25T10:00:13.002Z</time></trkpt><trkpt lat="45.142282" lon="8.2975041"><ele>192.57142857142858</ele><time>2026-04-25T10:00:13.995Z</time></trkpt><trkpt lat="45.1422109" lon="8.2975462"><ele>192.14285714285714</ele><time>2026-04-25T10:00:14.989Z</time></trkpt><trkpt lat="45.1421379" lon="8.2975789"><ele>191.71428571428572</ele><time>2026-04-25T10:00:15.987Z</time></trkpt><trkpt lat="45.1420721" lon="8.2976008"><ele>191.28571428571428</ele><time>2026-04-25T10:00:16.991Z</time></trkpt><trkpt lat="45.1420019" lon="8.2976122"><ele>190.85714285714286</ele><time>2026-04-25T10:00:17.991Z</time></trkpt><trkpt lat="45.141927" lon="8.2976227"><ele>190.42857142857144</ele><time>2026-04-25T10:00:18.99Z</time></trkpt><trkpt lat="45.1418584" lon="8.2976215"><ele>190.0</ele><time>2026-04-25T10:00:19.993Z</time></trkpt><trkpt lat="45.1417461" lon="8.2976276"><ele>190.0</ele><time>2026-04-25T10:00:21.99Z</time></trkpt><trkpt lat="45.1416494" lon="8.2976454"><ele>190.0</ele><time>2026-04-25T10:00:23.991Z</time></trkpt><trkpt lat="45.141547" lon="8.2976841"><ele>190.0</ele><time>2026-04-25T10:00:25.993Z</time></trkpt><trkpt lat="45.1414563" lon="8.297761"><ele>190.0</ele><time>2026-04-25T10:00:27.998Z</time></trkpt><trkpt lat="45.1413639" lon="8.2978605"><ele>190.0</ele><time>2026-04-25T10:00:29.993Z</time></trkpt><trkpt lat="45.1412669" lon="8.2979717"><ele>190.42857142857144</ele><time>2026-04-25T10:00:31.988Z</time></trkpt><trkpt lat="45.1412116" lon="8.2980376"><ele>190.85714285714286</ele><time>2026-04-25T10:00:32.985Z</time></trkpt><trkpt lat="45.1411532" lon="8.2981106"><ele>191.28571428571428</ele><time>2026-04-25T10:00:33.989Z</time></trkpt><trkpt lat="45.1410987" lon="8.2981752"><ele>191.71428571428572</ele><time>2026-04-25T10:00:34.991Z</time></trkpt><trkpt lat="45.1410501" lon="8.2982338"><ele>192.14285714285714</ele><time>2026-04-25T10:00:36.001Z</time></trkpt><trkpt lat="45.1409989" lon="8.2982869"><ele>192.57142857142858</ele><time>2026-04-25T10:00:36.984Z</time></trkpt><trkpt lat="45.1409465" lon="8.2983384"><ele>193.0</ele><time>2026-04-25T10:00:37.99Z</time></trkpt><trkpt lat="45.1408584" lon="8.2984429"><ele>191.8</ele><time>2026-04-25T10:00:40Z</time></trkpt><trkpt lat="45.1408077" lon="8.2985589"><ele>190.60000000000002</ele><time>2026-04-25T10:00:41.989Z</time></trkpt><trkpt lat="45.1408027" lon="8.2986964"><ele>189.39999999999998</ele><time>2026-04-25T10:00:43.997Z</time></trkpt><trkpt lat="45.1408069" lon="8.2988086"><ele>188.2</ele><time>2026-04-25T10:00:46.003Z</time></trkpt><trkpt lat="45.1407212" lon="8.2989119"><ele>187.0</ele><time>2026-04-25T10:00:47.993Z</time></trkpt><trkpt lat="45.140635" lon="8.2989707"><ele>186.6</ele><time>2026-04-25T10:00:48.991Z</time></trkpt><trkpt lat="45.1405646" lon="8.2990103"><ele>186.2</ele><time>2026-04-25T10:00:50.01Z</time></trkpt><trkpt lat="45.1404357" lon="8.2990106"><ele>185.8</ele><time>2026-04-25T10:00:51.998Z</time></trkpt><trkpt lat="45.1403388" lon="8.2990409"><ele>185.4</ele><time>2026-04-25T10:00:53.986Z</time></trkpt><trkpt lat="45.1402685" lon="8.2991178"><ele>185.0</ele><time>2026-04-25T10:00:55.995Z</time></trkpt><trkpt lat="45.1402307" lon="8.299207"><ele>185.0</ele><time>2026-04-25T10:00:56.991Z</time></trkpt><trkpt lat="45.1401851" lon="8.2992915"><ele>185.0</ele><time>2026-04-25T10:00:58Z</time></trkpt><trkpt lat="45.1401302" lon="8.2993797"><ele>185.0</ele><time>2026-04-25T10:00:59.007Z</time></trkpt><trkpt lat="45.1400649" lon="8.2994678"><ele>185.0</ele><time>2026-04-25T10:00:59.998Z</time></trkpt><trkpt lat="45.1399906" lon="8.2995559"><ele>185.0</ele><time>2026-04-25T10:01:01.006Z</time></trkpt><trkpt lat="45.1399215" lon="8.2996374"><ele>185.0</ele><time>2026-04-25T10:01:02Z</time></trkpt><trkpt lat="45.139859" lon="8.2997123"><ele>184.66666666666666</ele><time>2026-04-25T10:01:03.004Z</time></trkpt><trkpt lat="45.1397979" lon="8.2997941"><ele>184.33333333333331</ele><time>2026-04-25T10:01:03.993Z</time></trkpt><trkpt lat="45.1397387" lon="8.2998786"><ele>184.0</ele><time>2026-04-25T10:01:04.987Z</time></trkpt><trkpt lat="45.1396815" lon="8.299967"><ele>183.66666666666666</ele><time>2026-04-25T10:01:05.992Z</time></trkpt><trkpt lat="45.1396324" lon="8.3000607"><ele>183.33333333333334</ele><time>2026-04-25T10:01:06.99Z</time></trkpt><trkpt lat="45.1395866" lon="8.3001622"><ele>183.0</ele><time>2026-04-25T10:01:07.991Z</time></trkpt><trkpt lat="45.1395453" lon="8.3002717"><ele>183.0</ele><time>2026-04-25T10:01:08.99Z</time></trkpt><trkpt lat="45.1395029" lon="8.300389"><ele>183.0</ele><time>2026-04-25T10:01:09.997Z</time></trkpt><trkpt lat="45.1394593" lon="8.3005088"><ele>183.0</ele><time>2026-04-25T10:01:10.987Z</time></trkpt><trkpt lat="45.1394136" lon="8.3006248"><ele>183.0</ele><time>2026-04-25T10:01:11.992Z</time></trkpt><trkpt lat="45.1393677" lon="8.3007317"><ele>183.0</ele><time>2026-04-25T10:01:13Z</time></trkpt><trkpt lat="45.1393205" lon="8.3008332"><ele>184.0</ele><time>2026-04-25T10:01:13.99Z</time></trkpt><trkpt lat="45.1392696" lon="8.30093"><ele>185.0</ele><time>2026-04-25T10:01:15.006Z</time></trkpt><trkpt lat="45.1392165" lon="8.3010224"><ele>186.0</ele><time>2026-04-25T10:01:15.984Z</time></trkpt><trkpt lat="45.1391627" lon="8.301115"><ele>187.0</ele><time>2026-04-25T10:01:16.991Z</time></trkpt><trkpt lat="45.1390976" lon="8.301192"><ele>188.0</ele><time>2026-04-25T10:01:17.986Z</time></trkpt><trkpt lat="45.1390271" lon="8.3012656"><ele>189.0</ele><time>2026-04-25T10:01:18.996Z</time></trkpt><trkpt lat="45.1389555" lon="8.3013352"><ele>190.39999999999998</ele><time>2026-04-25T10:01:19.998Z</time></trkpt><trkpt lat="45.1388825" lon="8.3014125"><ele>191.8</ele><time>2026-04-25T10:01:20.996Z</time></trkpt><trkpt lat="45.1388096" lon="8.301489"><ele>193.2</ele><time>2026-04-25T10:01:21.994Z</time></trkpt><trkpt lat="45.1387336" lon="8.3015718"><ele>194.60000000000002</ele><time>2026-04-25T10:01:23.001Z</time></trkpt><trkpt lat="45.1386595" lon="8.301655"><ele>196.0</ele><time>2026-04-25T10:01:24Z</time></trkpt><trkpt lat="45.1385817" lon="8.3017441"><ele>197.60000000000002</ele><time>2026-04-25T10:01:24.995Z</time></trkpt><trkpt lat="45.1385052" lon="8.3018334"><ele>199.2</ele><time>2026-04-25T10:01:25.986Z</time></trkpt><trkpt lat="45.1384276" lon="8.3019271"><ele>200.8</ele><time>2026-04-25T10:01:26.992Z</time></trkpt><trkpt lat="45.1383612" lon="8.3020082"><ele>202.39999999999998</ele><time>2026-04-25T10:01:27.992Z</time></trkpt><trkpt lat="45.1383048" lon="8.3020726"><ele>204.0</ele><time>2026-04-25T10:01:29.005Z</time></trkpt><trkpt lat="45.1382531" lon="8.3021912"><ele>205.79999999999998</ele><time>2026-04-25T10:01:30.99Z</time></trkpt><trkpt lat="45.1382757" lon="8.3022956"><ele>207.6</ele><time>2026-04-25T10:01:32.993Z</time></trkpt><trkpt lat="45.138327" lon="8.3023483"><ele>209.4</ele><time>2026-04-25T10:01:33.993Z</time></trkpt><trkpt lat="45.1384132" lon="8.3024121"><ele>211.2</ele><time>2026-04-25T10:01:34.987Z</time></trkpt><trkpt lat="45.1385212" lon="8.3024914"><ele>213.0</ele><time>2026-04-25T10:01:35.995Z</time></trkpt><trkpt lat="45.1386432" lon="8.3025896"><ele>213.0</ele><time>2026-04-25T10:01:36.988Z</time></trkpt><trkpt lat="45.1387594" lon="8.3026749"><ele>213.0</ele><time>2026-04-25T10:01:37.995Z</time></trkpt><trkpt lat="45.138861" lon="8.3027507"><ele>213.0</ele><time>2026-04-25T10:01:38.994Z</time></trkpt><trkpt lat="45.138945" lon="8.3028179"><ele>213.0</ele><time>2026-04-25T10:01:39.996Z</time></trkpt><trkpt lat="45.1390059" lon="8.3028779"><ele>213.0</ele><time>2026-04-25T10:01:40.998Z</time></trkpt><trkpt lat="45.1390635" lon="8.3030093"><ele>214.4</ele><time>2026-04-25T10:01:42.989Z</time></trkpt><trkpt lat="45.1390294" lon="8.3031405"><ele>215.8</ele><time>2026-04-25T10:01:44.996Z</time></trkpt><trkpt lat="45.1389246" lon="8.3032383"><ele>217.2</ele><time>2026-04-25T10:01:47.019Z</time></trkpt><trkpt lat="45.1388348" lon="8.3032692"><ele>218.6</ele><time>2026-04-25T10:01:47.992Z</time></trkpt><trkpt lat="45.1387568" lon="8.3032927"><ele>220.0</ele><time>2026-04-25T10:01:48.99Z</time></trkpt><trkpt lat="45.1386951" lon="8.3033158"><ele>220.0</ele><time>2026-04-25T10:01:49.999Z</time></trkpt><trkpt lat="45.1386016" lon="8.303312"><ele>220.0</ele><time>2026-04-25T10:01:52.009Z</time></trkpt><trkpt lat="45.138503" lon="8.3032251"><ele>220.0</ele><time>2026-04-25T10:01:54Z</time></trkpt><trkpt lat="45.1384316" lon="8.3031609"><ele>220.0</ele><time>2026-04-25T10:01:54.993Z</time></trkpt><trkpt lat="45.1383483" lon="8.3030879"><ele>220.0</ele><time>2026-04-25T10:01:55.999Z</time></trkpt><trkpt lat="45.1382543" lon="8.3030048"><ele>220.2</ele><time>2026-04-25T10:01:57Z</time></trkpt><trkpt lat="45.1381497" lon="8.3029057"><ele>220.4</ele><time>2026-04-25T10:01:58.002Z</time></trkpt><trkpt lat="45.1380531" lon="8.3028133"><ele>220.60000000000002</ele><time>2026-04-25T10:01:58.996Z</time></trkpt><trkpt lat="45.1379673" lon="8.302736"><ele>220.8</ele><time>2026-04-25T10:02:00.001Z</time></trkpt><trkpt lat="45.1378897" lon="8.3026748"><ele>221.0</ele><time>2026-04-25T10:02:00.995Z</time></trkpt><trkpt lat="45.1378099" lon="8.3026321"><ele>221.00000000000003</ele><time>2026-04-25T10:02:01.994Z</time></trkpt><trkpt lat="45.1377223" lon="8.3026084"><ele>221.0</ele><time>2026-04-25T10:02:02.994Z</time></trkpt><trkpt lat="45.1376314" lon="8.3026049"><ele>221.0</ele><time>2026-04-25T10:02:03.996Z</time></trkpt><trkpt lat="45.1375473" lon="8.302612"><ele>221.0</ele><time>2026-04-25T10:02:04.989Z</time></trkpt><trkpt lat="45.1374734" lon="8.302631"><ele>221.00000000000003</ele><time>2026-04-25T10:02:06.002Z</time></trkpt><trkpt lat="45.137403" lon="8.3026714"><ele>221.0</ele><time>2026-04-25T10:02:06.992Z</time></trkpt><trkpt lat="45.1373309" lon="8.3027395"><ele>219.5</ele><time>2026-04-25T10:02:07.995Z</time></trkpt><trkpt lat="45.1372552" lon="8.3028307"><ele>218.0</ele><time>2026-04-25T10:02:08.991Z</time></trkpt><trkpt lat="45.1371721" lon="8.3029375"><ele>216.5</ele><time>2026-04-25T10:02:09.993Z</time></trkpt><trkpt lat="45.1370902" lon="8.3030664"><ele>215.0</ele><time>2026-04-25T10:02:10.99Z</time></trkpt><trkpt lat="45.1370135" lon="8.3032024"><ele>215.0</ele><time>2026-04-25T10:02:12.005Z</time></trkpt><trkpt lat="45.1369379" lon="8.3033379"><ele>215.0</ele><time>2026-04-25T10:02:12.993Z</time></trkpt><trkpt lat="45.1368685" lon="8.303465"><ele>215.0</ele><time>2026-04-25T10:02:14.007Z</time></trkpt><trkpt lat="45.136804" lon="8.3035839"><ele>215.0</ele><time>2026-04-25T10:02:15.005Z</time></trkpt><trkpt lat="45.1367373" lon="8.3036715"><ele>215.0</ele><time>2026-04-25T10:02:16Z</time></trkpt><trkpt lat="45.1366656" lon="8.3037408"><ele>215.0</ele><time>2026-04-25T10:02:16.993Z</time></trkpt><trkpt lat="45.1365848" lon="8.3037815"><ele>215.0</ele><time>2026-04-25T10:02:17.987Z</time></trkpt><trkpt lat="45.1364881" lon="8.3037927"><ele>215.0</ele><time>2026-04-25T10:02:19.008Z</time></trkpt><trkpt lat="45.1363773" lon="8.3037922"><ele>215.0</ele><time>2026-04-25T10:02:19.994Z</time></trkpt><trkpt lat="45.1362537" lon="8.3037904"><ele>215.0</ele><time>2026-04-25T10:02:20.992Z</time></trkpt><trkpt lat="45.1361166" lon="8.3037765"><ele>212.66666666666669</ele><time>2026-04-25T10:02:22.004Z</time></trkpt><trkpt lat="45.1359692" lon="8.3037572"><ele>210.33333333333331</ele><time>2026-04-25T10:02:22.99Z</time></trkpt><trkpt lat="45.1358126" lon="8.3037409"><ele>208.0</ele><time>2026-04-25T10:02:23.997Z</time></trkpt><trkpt lat="45.1356615" lon="8.3037228"><ele>207.5</ele><time>2026-04-25T10:02:24.991Z</time></trkpt><trkpt lat="45.1355252" lon="8.3036894"><ele>207.0</ele><time>2026-04-25T10:02:25.991Z</time></trkpt><trkpt lat="45.1354029" lon="8.3036378"><ele>206.5</ele><time>2026-04-25T10:02:26.995Z</time></trkpt><trkpt lat="45.1352964" lon="8.3035676"><ele>206.0</ele><time>2026-04-25T10:02:27.993Z</time></trkpt><trkpt lat="45.135203" lon="8.3035046"><ele>206.0</ele><time>2026-04-25T10:02:29.003Z</time></trkpt><trkpt lat="45.1351167" lon="8.3034561"><ele>206.0</ele><time>2026-04-25T10:02:29.995Z</time></trkpt><trkpt lat="45.135034" lon="8.3034293"><ele>206.0</ele><time>2026-04-25T10:02:30.991Z</time></trkpt><trkpt lat="45.1349495" lon="8.3034459"><ele>206.0</ele><time>2026-04-25T10:02:31.996Z</time></trkpt><trkpt lat="45.1348648" lon="8.3035072"><ele>206.0</ele><time>2026-04-25T10:02:32.991Z</time></trkpt><trkpt lat="45.1347778" lon="8.3035969"><ele>205.20000000000002</ele><time>2026-04-25T10:02:34.016Z</time></trkpt><trkpt lat="45.1346815" lon="8.3036884"><ele>204.4</ele><time>2026-04-25T10:02:34.993Z</time></trkpt><trkpt lat="45.1345779" lon="8.30375"><ele>203.6</ele><time>2026-04-25T10:02:35.995Z</time></trkpt><trkpt lat="45.1344699" lon="8.303769"><ele>202.8</ele><time>2026-04-25T10:02:37Z</time></trkpt><trkpt lat="45.134362" lon="8.3037537"><ele>202.0</ele><time>2026-04-25T10:02:37.995Z</time></trkpt><trkpt lat="45.1342598" lon="8.3037094"><ele>202.0</ele><time>2026-04-25T10:02:38.99Z</time></trkpt><trkpt lat="45.1341609" lon="8.3036316"><ele>202.0</ele><time>2026-04-25T10:02:39.996Z</time></trkpt><trkpt lat="45.1340773" lon="8.3035348"><ele>202.0</ele><time>2026-04-25T10:02:40.988Z</time></trkpt><trkpt lat="45.1340054" lon="8.3034397"><ele>202.0</ele><time>2026-04-25T10:02:41.989Z</time></trkpt><trkpt lat="45.1339319" lon="8.3033666"><ele>202.0</ele><time>2026-04-25T10:02:42.992Z</time></trkpt><trkpt lat="45.1338469" lon="8.3033134"><ele>200.8</ele><time>2026-04-25T10:02:43.995Z</time></trkpt><trkpt lat="45.133752" lon="8.3033022"><ele>199.6</ele><time>2026-04-25T10:02:44.995Z</time></trkpt><trkpt lat="45.1336564" lon="8.3033303"><ele>198.4</ele><time>2026-04-25T10:02:45.992Z</time></trkpt><trkpt lat="45.1335675" lon="8.3033926"><ele>197.20000000000002</ele><time>2026-04-25T10:02:46.998Z</time></trkpt><trkpt lat="45.1334909" lon="8.3034777"><ele>196.0</ele><time>2026-04-25T10:02:47.998Z</time></trkpt><trkpt lat="45.1334377" lon="8.3035876"><ele>196.0</ele><time>2026-04-25T10:02:48.997Z</time></trkpt><trkpt lat="45.1334087" lon="8.303725"><ele>196.0</ele><time>2026-04-25T10:02:50Z</time></trkpt><trkpt lat="45.1334002" lon="8.3038903"><ele>196.0</ele><time>2026-04-25T10:02:50.986Z</time></trkpt><trkpt lat="45.1333938" lon="8.304073"><ele>196.0</ele><time>2026-04-25T10:02:51.992Z</time></trkpt><trkpt lat="45.133384" lon="8.3042695"><ele>197.25</ele><time>2026-04-25T10:02:52.987Z</time></trkpt><trkpt lat="45.1333705" lon="8.3044728"><ele>198.5</ele><time>2026-04-25T10:02:53.998Z</time></trkpt><trkpt lat="45.133344" lon="8.3046626"><ele>199.75</ele><time>2026-04-25T10:02:54.988Z</time></trkpt><trkpt lat="45.1333105" lon="8.3048321"><ele>201.0</ele><time>2026-04-25T10:02:55.994Z</time></trkpt><trkpt lat="45.133268" lon="8.3049788"><ele>201.20000000000002</ele><time>2026-04-25T10:02:56.992Z</time></trkpt><trkpt lat="45.1332065" lon="8.3050945"><ele>201.4</ele><time>2026-04-25T10:02:57.993Z</time></trkpt><trkpt lat="45.1331223" lon="8.305174"><ele>201.6</ele><time>2026-04-25T10:02:58.987Z</time></trkpt><trkpt lat="45.1330191" lon="8.3052133"><ele>201.8</ele><time>2026-04-25T10:02:59.998Z</time></trkpt><trkpt lat="45.1328999" lon="8.3052191"><ele>202.0</ele><time>2026-04-25T10:03:00.985Z</time></trkpt><trkpt lat="45.132769" lon="8.3052077"><ele>202.0</ele><time>2026-04-25T10:03:01.989Z</time></trkpt><trkpt lat="45.1326299" lon="8.3051909"><ele>202.0</ele><time>2026-04-25T10:03:02.99Z</time></trkpt><trkpt lat="45.1324902" lon="8.3051721"><ele>202.0</ele><time>2026-04-25T10:03:03.992Z</time></trkpt><trkpt lat="45.1323593" lon="8.3051489"><ele>202.0</ele><time>2026-04-25T10:03:04.997Z</time></trkpt><trkpt lat="45.132236" lon="8.3051092"><ele>201.5</ele><time>2026-04-25T10:03:05.983Z</time></trkpt><trkpt lat="45.1321204" lon="8.3050416"><ele>201.0</ele><time>2026-04-25T10:03:07.001Z</time></trkpt><trkpt lat="45.1320061" lon="8.3049543"><ele>200.5</ele><time>2026-04-25T10:03:08.001Z</time></trkpt><trkpt lat="45.1318891" lon="8.3048658"><ele>200.0</ele><time>2026-04-25T10:03:08.993Z</time></trkpt><trkpt lat="45.1317784" lon="8.3047747"><ele>199.0</ele><time>2026-04-25T10:03:09.992Z</time></trkpt><trkpt lat="45.131668" lon="8.3046843"><ele>198.0</ele><time>2026-04-25T10:03:10.992Z</time></trkpt><trkpt lat="45.1315607" lon="8.3046053"><ele>197.0</ele><time>2026-04-25T10:03:11.991Z</time></trkpt><trkpt lat="45.1314536" lon="8.3045327"><ele>196.0</ele><time>2026-04-25T10:03:12.999Z</time></trkpt><trkpt lat="45.1313482" lon="8.3044748"><ele>196.0</ele><time>2026-04-25T10:03:13.992Z</time></trkpt><trkpt lat="45.1312435" lon="8.304431"><ele>196.0</ele><time>2026-04-25T10:03:15.006Z</time></trkpt><trkpt lat="45.1311398" lon="8.3043982"><ele>196.0</ele><time>2026-04-25T10:03:15.991Z</time></trkpt><trkpt lat="45.1310411" lon="8.3043689"><ele>196.0</ele><time>2026-04-25T10:03:16.992Z</time></trkpt><trkpt lat="45.1309518" lon="8.3043455"><ele>196.0</ele><time>2026-04-25T10:03:18.002Z</time></trkpt><trkpt lat="45.1308757" lon="8.3043395"><ele>196.0</ele><time>2026-04-25T10:03:18.998Z</time></trkpt><trkpt lat="45.1307761" lon="8.3044063"><ele>196.0</ele><time>2026-04-25T10:03:20.996Z</time></trkpt><trkpt lat="45.1307694" lon="8.3045739"><ele>196.0</ele><time>2026-04-25T10:03:22.998Z</time></trkpt><trkpt lat="45.1307942" lon="8.304695"><ele>196.0</ele><time>2026-04-25T10:03:23.992Z</time></trkpt><trkpt lat="45.1308298" lon="8.3048415"><ele>196.0</ele><time>2026-04-25T10:03:24.999Z</time></trkpt><trkpt lat="45.1308784" lon="8.3050084"><ele>195.33333333333331</ele><time>2026-04-25T10:03:25.993Z</time></trkpt><trkpt lat="45.1309409" lon="8.3051976"><ele>194.66666666666669</ele><time>2026-04-25T10:03:27.013Z</time></trkpt><trkpt lat="45.131012" lon="8.305405"><ele>194.0</ele><time>2026-04-25T10:03:27.998Z</time></trkpt><trkpt lat="45.1310914" lon="8.3056247"><ele>192.33333333333334</ele><time>2026-04-25T10:03:29.003Z</time></trkpt><trkpt lat="45.1311748" lon="8.3058616"><ele>190.66666666666669</ele><time>2026-04-25T10:03:30.003Z</time></trkpt><trkpt lat="45.131264" lon="8.3061071"><ele>189.0</ele><time>2026-04-25T10:03:31.003Z</time></trkpt><trkpt lat="45.1313578" lon="8.306362"><ele>187.66666666666666</ele><time>2026-04-25T10:03:31.995Z</time></trkpt><trkpt lat="45.1314532" lon="8.3066191"><ele>186.33333333333331</ele><time>2026-04-25T10:03:32.993Z</time></trkpt><trkpt lat="45.1315491" lon="8.3068709"><ele>185.0</ele><time>2026-04-25T10:03:33.995Z</time></trkpt><trkpt lat="45.1316387" lon="8.3071019"><ele>188.25</ele><time>2026-04-25T10:03:34.995Z</time></trkpt><trkpt lat="45.1317204" lon="8.307306"><ele>191.5</ele><time>2026-04-25T10:03:36.008Z</time></trkpt><trkpt lat="45.1317947" lon="8.3074827"><ele>194.75</ele><time>2026-04-25T10:03:37.003Z</time></trkpt><trkpt lat="45.1318665" lon="8.307635"><ele>198.0</ele><time>2026-04-25T10:03:38Z</time></trkpt><trkpt lat="45.1319369" lon="8.3077725"><ele>198.0</ele><time>2026-04-25T10:03:38.995Z</time></trkpt><trkpt lat="45.1320169" lon="8.3078779"><ele>198.0</ele><time>2026-04-25T10:03:39.998Z</time></trkpt><trkpt lat="45.1320833" lon="8.3079838"><ele>198.0</ele><time>2026-04-25T10:03:40.993Z</time></trkpt><trkpt lat="45.1321605" lon="8.3080605"><ele>198.0</ele><time>2026-04-25T10:03:41.999Z</time></trkpt><trkpt lat="45.1322327" lon="8.3081391"><ele>198.0</ele><time>2026-04-25T10:03:42.994Z</time></trkpt><trkpt lat="45.1323041" lon="8.3082015"><ele>198.4</ele><time>2026-04-25T10:03:44.003Z</time></trkpt><trkpt lat="45.1323715" lon="8.3082762"><ele>198.8</ele><time>2026-04-25T10:03:45Z</time></trkpt><trkpt lat="45.1324456" lon="8.3083471"><ele>199.2</ele><time>2026-04-25T10:03:46.01Z</time></trkpt><trkpt lat="45.1325303" lon="8.3084181"><ele>199.6</ele><time>2026-04-25T10:03:47.01Z</time></trkpt><trkpt lat="45.1326176" lon="8.3084919"><ele>200.0</ele><time>2026-04-25T10:03:47.999Z</time></trkpt><trkpt lat="45.1327061" lon="8.3085649"><ele>200.0</ele><time>2026-04-25T10:03:48.993Z</time></trkpt><trkpt lat="45.1328" lon="8.3086484"><ele>200.0</ele><time>2026-04-25T10:03:49.995Z</time></trkpt><trkpt lat="45.1328928" lon="8.3087438"><ele>200.0</ele><time>2026-04-25T10:03:50.995Z</time></trkpt><trkpt lat="45.1329891" lon="8.3088472"><ele>200.0</ele><time>2026-04-25T10:03:51.999Z</time></trkpt><trkpt lat="45.1330872" lon="8.3089547"><ele>200.0</ele><time>2026-04-25T10:03:53.014Z</time></trkpt><trkpt lat="45.1331873" lon="8.3090579"><ele>200.0</ele><time>2026-04-25T10:03:54.003Z</time></trkpt><trkpt lat="45.1332853" lon="8.30916"><ele>200.0</ele><time>2026-04-25T10:03:54.991Z</time></trkpt><trkpt lat="45.1333865" lon="8.3092648"><ele>200.0</ele><time>2026-04-25T10:03:56.008Z</time></trkpt><trkpt lat="45.1334918" lon="8.3093698"><ele>198.0</ele><time>2026-04-25T10:03:57.003Z</time></trkpt><trkpt lat="45.1335983" lon="8.3094622"><ele>196.0</ele><time>2026-04-25T10:03:57.993Z</time></trkpt><trkpt lat="45.1337057" lon="8.3095469"><ele>194.0</ele><time>2026-04-25T10:03:59.005Z</time></trkpt><trkpt lat="45.1338193" lon="8.3096362"><ele>192.0</ele><time>2026-04-25T10:03:59.998Z</time></trkpt><trkpt lat="45.1339351" lon="8.3097253"><ele>189.5</ele><time>2026-04-25T10:04:01.012Z</time></trkpt><trkpt lat="45.1340507" lon="8.3098115"><ele>187.0</ele><time>2026-04-25T10:04:01.995Z</time></trkpt><trkpt lat="45.1341633" lon="8.3098924"><ele>184.5</ele><time>2026-04-25T10:04:02.996Z</time></trkpt><trkpt lat="45.1342751" lon="8.3099677"><ele>182.0</ele><time>2026-04-25T10:04:03.994Z</time></trkpt><trkpt lat="45.134378" lon="8.3100459"><ele>182.0</ele><time>2026-04-25T10:04:04.998Z</time></trkpt><trkpt lat="45.1344706" lon="8.3101188"><ele>182.0</ele><time>2026-04-25T10:04:05.996Z</time></trkpt><trkpt lat="45.1345673" lon="8.3101869"><ele>182.0</ele><time>2026-04-25T10:04:06.994Z</time></trkpt><trkpt lat="45.1346599" lon="8.3102617"><ele>182.0</ele><time>2026-04-25T10:04:08.004Z</time></trkpt><trkpt lat="45.1347527" lon="8.3103447"><ele>182.0</ele><time>2026-04-25T10:04:08.99Z</time></trkpt><trkpt lat="45.1348359" lon="8.310437"><ele>182.39999999999998</ele><time>2026-04-25T10:04:09.995Z</time></trkpt><trkpt lat="45.1349102" lon="8.3105429"><ele>182.79999999999998</ele><time>2026-04-25T10:04:10.993Z</time></trkpt><trkpt lat="45.1349764" lon="8.3106635"><ele>183.2</ele><time>2026-04-25T10:04:12.003Z</time></trkpt><trkpt lat="45.1350373" lon="8.3107915"><ele>183.6</ele><time>2026-04-25T10:04:12.992Z</time></trkpt><trkpt lat="45.1350965" lon="8.3109084"><ele>184.0</ele><time>2026-04-25T10:04:14.003Z</time></trkpt><trkpt lat="45.1351558" lon="8.3110091"><ele>184.0</ele><time>2026-04-25T10:04:14.989Z</time></trkpt><trkpt lat="45.135218" lon="8.3111006"><ele>184.0</ele><time>2026-04-25T10:04:15.998Z</time></trkpt><trkpt lat="45.1352804" lon="8.311179"><ele>184.0</ele><time>2026-04-25T10:04:16.995Z</time></trkpt><trkpt lat="45.1353454" lon="8.3112544"><ele>184.0</ele><time>2026-04-25T10:04:17.997Z</time></trkpt><trkpt lat="45.1354132" lon="8.3113284"><ele>184.0</ele><time>2026-04-25T10:04:18.995Z</time></trkpt><trkpt lat="45.1354756" lon="8.3114155"><ele>184.0</ele><time>2026-04-25T10:04:20.005Z</time></trkpt><trkpt lat="45.1355274" lon="8.3115191"><ele>183.66666666666669</ele><time>2026-04-25T10:04:20.991Z</time></trkpt><trkpt lat="45.1355683" lon="8.3116361"><ele>183.33333333333334</ele><time>2026-04-25T10:04:21.995Z</time></trkpt><trkpt lat="45.1355999" lon="8.3117522"><ele>183.0</ele><time>2026-04-25T10:04:22.988Z</time></trkpt><trkpt lat="45.1356271" lon="8.3118592"><ele>182.66666666666666</ele><time>2026-04-25T10:04:23.991Z</time></trkpt><trkpt lat="45.1356531" lon="8.3119581"><ele>182.33333333333331</ele><time>2026-04-25T10:04:25Z</time></trkpt><trkpt lat="45.1356747" lon="8.312054"><ele>182.0</ele><time>2026-04-25T10:04:25.999Z</time></trkpt><trkpt lat="45.1356962" lon="8.312149"><ele>182.0</ele><time>2026-04-25T10:04:27.005Z</time></trkpt><trkpt lat="45.1357212" lon="8.3122437"><ele>182.0</ele><time>2026-04-25T10:04:28.002Z</time></trkpt><trkpt lat="45.1357436" lon="8.3123376"><ele>182.0</ele><time>2026-04-25T10:04:29.004Z</time></trkpt><trkpt lat="45.1357953" lon="8.3124839"><ele>182.0</ele><time>2026-04-25T10:04:31.009Z</time></trkpt><trkpt lat="45.1357675" lon="8.3126123"><ele>182.0</ele><time>2026-04-25T10:04:33.004Z</time></trkpt><trkpt lat="45.1356521" lon="8.3126708"><ele>182.0</ele><time>2026-04-25T10:04:35.001Z</time></trkpt><trkpt lat="45.1355506" lon="8.3126852"><ele>182.0</ele><time>2026-04-25T10:04:36.012Z</time></trkpt><trkpt lat="45.1354329" lon="8.3127049"><ele>182.0</ele><time>2026-04-25T10:04:36.998Z</time></trkpt><trkpt lat="45.135318" lon="8.3127265"><ele>182.0</ele><time>2026-04-25T10:04:38.005Z</time></trkpt><trkpt lat="45.1352069" lon="8.3127524"><ele>182.0</ele><time>2026-04-25T10:04:39.003Z</time></trkpt><trkpt lat="45.135112" lon="8.3127742"><ele>182.0</ele><time>2026-04-25T10:04:39.999Z</time></trkpt><trkpt lat="45.134998" lon="8.3128779"><ele>182.0</ele><time>2026-04-25T10:04:42Z</time></trkpt><trkpt lat="45.1349447" lon="8.3129867"><ele>182.0</ele><time>2026-04-25T10:04:43.018Z</time></trkpt><trkpt lat="45.1348795" lon="8.3131184"><ele>182.0</ele><time>2026-04-25T10:04:44.005Z</time></trkpt><trkpt lat="45.1348104" lon="8.3132735"><ele>180.75</ele><time>2026-04-25T10:04:44.999Z</time></trkpt><trkpt lat="45.1347284" lon="8.3134428"><ele>179.5</ele><time>2026-04-25T10:04:45.999Z</time></trkpt><trkpt lat="45.134644" lon="8.3136185"><ele>178.25</ele><time>2026-04-25T10:04:47.004Z</time></trkpt><trkpt lat="45.1345649" lon="8.3137672"><ele>177.0</ele><time>2026-04-25T10:04:47.994Z</time></trkpt><trkpt lat="45.1344942" lon="8.3139023"><ele>177.8</ele><time>2026-04-25T10:04:48.994Z</time></trkpt><trkpt lat="45.1344514" lon="8.3140227"><ele>178.6</ele><time>2026-04-25T10:04:49.998Z</time></trkpt><trkpt lat="45.13441" lon="8.3141487"><ele>179.4</ele><time>2026-04-25T10:04:50.995Z</time></trkpt><trkpt lat="45.1343955" lon="8.3143031"><ele>180.20000000000002</ele><time>2026-04-25T10:04:52.045Z</time></trkpt><trkpt lat="45.1343934" lon="8.3144622"><ele>181.0</ele><time>2026-04-25T10:04:53.001Z</time></trkpt><trkpt lat="45.1344042" lon="8.314643"><ele>181.20000000000002</ele><time>2026-04-25T10:04:54.001Z</time></trkpt><trkpt lat="45.1344059" lon="8.3148213"><ele>181.4</ele><time>2026-04-25T10:04:54.993Z</time></trkpt><trkpt lat="45.134407" lon="8.314969"><ele>181.6</ele><time>2026-04-25T10:04:55.999Z</time></trkpt><trkpt lat="45.1344135" lon="8.3151214"><ele>181.8</ele><time>2026-04-25T10:04:56.993Z</time></trkpt><trkpt lat="45.1344188" lon="8.3152783"><ele>182.0</ele><time>2026-04-25T10:04:58.015Z</time></trkpt><trkpt lat="45.1344324" lon="8.3154384"><ele>183.0</ele><time>2026-04-25T10:04:58.995Z</time></trkpt><trkpt lat="45.1344173" lon="8.315588"><ele>184.0</ele><time>2026-04-25T10:05:00.011Z</time></trkpt><trkpt lat="45.1343807" lon="8.3157562"><ele>185.0</ele><time>2026-04-25T10:05:01.002Z</time></trkpt><trkpt lat="45.1343262" lon="8.3159463"><ele>186.0</ele><time>2026-04-25T10:05:02.002Z</time></trkpt><trkpt lat="45.1342615" lon="8.3161514"><ele>186.0</ele><time>2026-04-25T10:05:02.999Z</time></trkpt><trkpt lat="45.1341943" lon="8.3163745"><ele>186.0</ele><time>2026-04-25T10:05:03.996Z</time></trkpt><trkpt lat="45.1341331" lon="8.3165838"><ele>186.0</ele><time>2026-04-25T10:05:05.001Z</time></trkpt><trkpt lat="45.1340777" lon="8.3167725"><ele>184.5</ele><time>2026-04-25T10:05:06.004Z</time></trkpt><trkpt lat="45.1340306" lon="8.3169484"><ele>183.0</ele><time>2026-04-25T10:05:06.999Z</time></trkpt><trkpt lat="45.1339902" lon="8.3171203"><ele>181.5</ele><time>2026-04-25T10:05:08.01Z</time></trkpt><trkpt lat="45.1339548" lon="8.3172983"><ele>180.0</ele><time>2026-04-25T10:05:09.003Z</time></trkpt><trkpt lat="45.1339227" lon="8.317476"><ele>180.0</ele><time>2026-04-25T10:05:10.002Z</time></trkpt><trkpt lat="45.1338889" lon="8.3176578"><ele>180.0</ele><time>2026-04-25T10:05:11.007Z</time></trkpt><trkpt lat="45.1338603" lon="8.3178243"><ele>180.0</ele><time>2026-04-25T10:05:12.001Z</time></trkpt><trkpt lat="45.1338433" lon="8.3179803"><ele>180.0</ele><time>2026-04-25T10:05:13.018Z</time></trkpt><trkpt lat="45.1338413" lon="8.3181298"><ele>180.0</ele><time>2026-04-25T10:05:14.008Z</time></trkpt><trkpt lat="45.1338605" lon="8.3182755"><ele>180.0</ele><time>2026-04-25T10:05:15.007Z</time></trkpt><trkpt lat="45.133905" lon="8.3184191"><ele>180.0</ele><time>2026-04-25T10:05:15.998Z</time></trkpt><trkpt lat="45.1339656" lon="8.318557"><ele>180.0</ele><time>2026-04-25T10:05:16.991Z</time></trkpt><trkpt lat="45.1340227" lon="8.3186925"><ele>180.0</ele><time>2026-04-25T10:05:17.998Z</time></trkpt><trkpt lat="45.1340693" lon="8.3188287"><ele>180.5</ele><time>2026-04-25T10:05:19.006Z</time></trkpt><trkpt lat="45.1341111" lon="8.3189799"><ele>181.0</ele><time>2026-04-25T10:05:20.01Z</time></trkpt><trkpt lat="45.1341524" lon="8.3191452"><ele>181.5</ele><time>2026-04-25T10:05:20.995Z</time></trkpt><trkpt lat="45.1341945" lon="8.3193257"><ele>182.0</ele><time>2026-04-25T10:05:22.021Z</time></trkpt><trkpt lat="45.1342415" lon="8.3195195"><ele>182.0</ele><time>2026-04-25T10:05:23Z</time></trkpt><trkpt lat="45.1342849" lon="8.3197082"><ele>182.0</ele><time>2026-04-25T10:05:23.999Z</time></trkpt><trkpt lat="45.1343217" lon="8.3198831"><ele>182.0</ele><time>2026-04-25T10:05:24.995Z</time></trkpt><trkpt lat="45.1343791" lon="8.3200658"><ele>182.0</ele><time>2026-04-25T10:05:25.996Z</time></trkpt><trkpt lat="45.1344279" lon="8.3202371"><ele>181.25</ele><time>2026-04-25T10:05:27.007Z</time></trkpt><trkpt lat="45.1344678" lon="8.3204188"><ele>180.5</ele><time>2026-04-25T10:05:27.999Z</time></trkpt><trkpt lat="45.1345156" lon="8.3205852"><ele>179.75</ele><time>2026-04-25T10:05:29.002Z</time></trkpt><trkpt lat="45.1345706" lon="8.3207477"><ele>179.0</ele><time>2026-04-25T10:05:30.006Z</time></trkpt><trkpt lat="45.1346427" lon="8.3209115"><ele>178.5</ele><time>2026-04-25T10:05:31.004Z</time></trkpt><trkpt lat="45.1347268" lon="8.3210731"><ele>178.0</ele><time>2026-04-25T10:05:31.999Z</time></trkpt><trkpt lat="45.1348077" lon="8.3212442"><ele>177.5</ele><time>2026-04-25T10:05:33.001Z</time></trkpt><trkpt lat="45.1348833" lon="8.3214187"><ele>177.0</ele><time>2026-04-25T10:05:34.006Z</time></trkpt><trkpt lat="45.1349588" lon="8.3215849"><ele>176.0</ele><time>2026-04-25T10:05:35.007Z</time></trkpt><trkpt lat="45.1350184" lon="8.3217373"><ele>175.0</ele><time>2026-04-25T10:05:36.022Z</time></trkpt><trkpt lat="45.1350713" lon="8.3218671"><ele>174.0</ele><time>2026-04-25T10:05:36.998Z</time></trkpt><trkpt lat="45.1351224" lon="8.3219737"><ele>173.0</ele><time>2026-04-25T10:05:37.994Z</time></trkpt><trkpt lat="45.1351778" lon="8.3220564"><ele>172.0</ele><time>2026-04-25T10:05:38.998Z</time></trkpt><trkpt lat="45.1352343" lon="8.3221143"><ele>172.0</ele><time>2026-04-25T10:05:40.002Z</time></trkpt><trkpt lat="45.1353001" lon="8.3221556"><ele>172.0</ele><time>2026-04-25T10:05:41Z</time></trkpt><trkpt lat="45.1353793" lon="8.3221845"><ele>172.0</ele><time>2026-04-25T10:05:42.054Z</time></trkpt><trkpt lat="45.13547" lon="8.3222086"><ele>172.0</ele><time>2026-04-25T10:05:42.998Z</time></trkpt><trkpt lat="45.1355635" lon="8.3222299"><ele>172.0</ele><time>2026-04-25T10:05:44.005Z</time></trkpt><trkpt lat="45.1356593" lon="8.3222555"><ele>172.0</ele><time>2026-04-25T10:05:44.996Z</time></trkpt><trkpt lat="45.135754" lon="8.3222825"><ele>171.0</ele><time>2026-04-25T10:05:46.006Z</time></trkpt><trkpt lat="45.1358463" lon="8.3223096"><ele>170.0</ele><time>2026-04-25T10:05:47.012Z</time></trkpt><trkpt lat="45.1359372" lon="8.3223377"><ele>169.0</ele><time>2026-04-25T10:05:47.996Z</time></trkpt><trkpt lat="45.1360273" lon="8.3223706"><ele>168.0</ele><time>2026-04-25T10:05:48.996Z</time></trkpt><trkpt lat="45.1361171" lon="8.3224042"><ele>167.0</ele><time>2026-04-25T10:05:50.005Z</time></trkpt><trkpt lat="45.1362076" lon="8.3224403"><ele>167.0</ele><time>2026-04-25T10:05:50.997Z</time></trkpt><trkpt lat="45.136299" lon="8.3224807"><ele>167.0</ele><time>2026-04-25T10:05:52.001Z</time></trkpt><trkpt lat="45.1363936" lon="8.3225202"><ele>167.0</ele><time>2026-04-25T10:05:53.003Z</time></trkpt><trkpt lat="45.1364875" lon="8.322558"><ele>167.0</ele><time>2026-04-25T10:05:53.995Z</time></trkpt><trkpt lat="45.1365789" lon="8.3225881"><ele>167.0</ele><time>2026-04-25T10:05:54.996Z</time></trkpt><trkpt lat="45.1366604" lon="8.3226186"><ele>165.0</ele><time>2026-04-25T10:05:56.016Z</time></trkpt><trkpt lat="45.1367432" lon="8.3226451"><ele>163.0</ele><time>2026-04-25T10:05:57.002Z</time></trkpt><trkpt lat="45.1368275" lon="8.3226979"><ele>161.0</ele><time>2026-04-25T10:05:57.995Z</time></trkpt><trkpt lat="45.1369249" lon="8.3227597"><ele>159.0</ele><time>2026-04-25T10:05:58.995Z</time></trkpt><trkpt lat="45.1370323" lon="8.3228293"><ele>157.0</ele><time>2026-04-25T10:05:59.998Z</time></trkpt><trkpt lat="45.1371482" lon="8.322906"><ele>157.0</ele><time>2026-04-25T10:06:00.999Z</time></trkpt><trkpt lat="45.1372646" lon="8.3229779"><ele>157.0</ele><time>2026-04-25T10:06:01.996Z</time></trkpt><trkpt lat="45.1373791" lon="8.3230586"><ele>157.0</ele><time>2026-04-25T10:06:02.995Z</time></trkpt><trkpt lat="45.1375032" lon="8.3231351"><ele>157.0</ele><time>2026-04-25T10:06:04.027Z</time></trkpt><trkpt lat="45.13762" lon="8.3232028"><ele>154.5</ele><time>2026-04-25T10:06:04.994Z</time></trkpt><trkpt lat="45.1377409" lon="8.3232672"><ele>152.0</ele><time>2026-04-25T10:06:06Z</time></trkpt><trkpt lat="45.1378635" lon="8.3233315"><ele>149.5</ele><time>2026-04-25T10:06:07.002Z</time></trkpt><trkpt lat="45.137986" lon="8.3233901"><ele>147.0</ele><time>2026-04-25T10:06:08.001Z</time></trkpt><trkpt lat="45.1381043" lon="8.3234462"><ele>144.75</ele><time>2026-04-25T10:06:09.004Z</time></trkpt><trkpt lat="45.1382239" lon="8.3235015"><ele>142.5</ele><time>2026-04-25T10:06:10Z</time></trkpt><trkpt lat="45.1383476" lon="8.3235548"><ele>140.25</ele><time>2026-04-25T10:06:11Z</time></trkpt><trkpt lat="45.1384702" lon="8.3236083"><ele>138.0</ele><time>2026-04-25T10:06:12.002Z</time></trkpt><trkpt lat="45.1385934" lon="8.3236646"><ele>138.0</ele><time>2026-04-25T10:06:13Z</time></trkpt><trkpt lat="45.1387198" lon="8.3237226"><ele>138.0</ele><time>2026-04-25T10:06:14.004Z</time></trkpt><trkpt lat="45.1388478" lon="8.3237698"><ele>138.0</ele><time>2026-04-25T10:06:15Z</time></trkpt><trkpt lat="45.1389793" lon="8.3237976"><ele>138.0</ele><time>2026-04-25T10:06:16.003Z</time></trkpt><trkpt lat="45.1391207" lon="8.3237988"><ele>137.75</ele><time>2026-04-25T10:06:16.995Z</time></trkpt><trkpt lat="45.1392717" lon="8.3237919"><ele>137.5</ele><time>2026-04-25T10:06:17.999Z</time></trkpt><trkpt lat="45.1394195" lon="8.3237905"><ele>137.25</ele><time>2026-04-25T10:06:19.004Z</time></trkpt><trkpt lat="45.1395574" lon="8.3237889"><ele>137.0</ele><time>2026-04-25T10:06:20.026Z</time></trkpt><trkpt lat="45.1396816" lon="8.3237923"><ele>137.0</ele><time>2026-04-25T10:06:20.992Z</time></trkpt><trkpt lat="45.139794" lon="8.3237996"><ele>137.0</ele><time>2026-04-25T10:06:21.994Z</time></trkpt><trkpt lat="45.139891" lon="8.3238098"><ele>137.0</ele><time>2026-04-25T10:06:22.997Z</time></trkpt><trkpt lat="45.1399736" lon="8.3238253"><ele>137.0</ele><time>2026-04-25T10:06:24.004Z</time></trkpt><trkpt lat="45.140041" lon="8.3238465"><ele>137.0</ele><time>2026-04-25T10:06:24.994Z</time></trkpt><trkpt lat="45.1401228" lon="8.3239132"><ele>137.79999999999998</ele><time>2026-04-25T10:06:26.995Z</time></trkpt><trkpt lat="45.1401433" lon="8.3240011"><ele>138.6</ele><time>2026-04-25T10:06:27.995Z</time></trkpt><trkpt lat="45.1401589" lon="8.3241127"><ele>139.39999999999998</ele><time>2026-04-25T10:06:28.999Z</time></trkpt><trkpt lat="45.1401692" lon="8.3242518"><ele>140.2</ele><time>2026-04-25T10:06:29.997Z</time></trkpt><trkpt lat="45.1401957" lon="8.3244244"><ele>141.0</ele><time>2026-04-25T10:06:31.011Z</time></trkpt><trkpt lat="45.1402307" lon="8.3246292"><ele>141.0</ele><time>2026-04-25T10:06:32.001Z</time></trkpt><trkpt lat="45.1402749" lon="8.3248456"><ele>141.0</ele><time>2026-04-25T10:06:33.004Z</time></trkpt><trkpt lat="45.1403233" lon="8.3250835"><ele>141.0</ele><time>2026-04-25T10:06:34Z</time></trkpt><trkpt lat="45.1403737" lon="8.3253483"><ele>140.66666666666666</ele><time>2026-04-25T10:06:35.003Z</time></trkpt><trkpt lat="45.1404222" lon="8.3256232"><ele>140.33333333333331</ele><time>2026-04-25T10:06:36.003Z</time></trkpt><trkpt lat="45.1404703" lon="8.3259105"><ele>140.0</ele><time>2026-04-25T10:06:36.996Z</time></trkpt><trkpt lat="45.1405246" lon="8.326177"><ele>139.0</ele><time>2026-04-25T10:06:38Z</time></trkpt><trkpt lat="45.1405925" lon="8.3264283"><ele>138.0</ele><time>2026-04-25T10:06:39.003Z</time></trkpt><trkpt lat="45.1406735" lon="8.3266656"><ele>137.0</ele><time>2026-04-25T10:06:40.016Z</time></trkpt><trkpt lat="45.1407712" lon="8.3268958"><ele>139.66666666666666</ele><time>2026-04-25T10:06:41.008Z</time></trkpt><trkpt lat="45.1408797" lon="8.3271183"><ele>142.33333333333334</ele><time>2026-04-25T10:06:41.999Z</time></trkpt><trkpt lat="45.1409882" lon="8.3273303"><ele>145.0</ele><time>2026-04-25T10:06:43.008Z</time></trkpt><trkpt lat="45.1410894" lon="8.3275278"><ele>145.0</ele><time>2026-04-25T10:06:43.993Z</time></trkpt><trkpt lat="45.1411831" lon="8.3277101"><ele>145.0</ele><time>2026-04-25T10:06:45.017Z</time></trkpt><trkpt lat="45.1412705" lon="8.3278801"><ele>145.0</ele><time>2026-04-25T10:06:45.995Z</time></trkpt><trkpt lat="45.1413507" lon="8.3280356"><ele>145.0</ele><time>2026-04-25T10:06:46.997Z</time></trkpt><trkpt lat="45.1414295" lon="8.3281783"><ele>145.0</ele><time>2026-04-25T10:06:47.994Z</time></trkpt><trkpt lat="45.1415103" lon="8.3283142"><ele>145.0</ele><time>2026-04-25T10:06:48.992Z</time></trkpt><trkpt lat="45.1415879" lon="8.3284556"><ele>145.0</ele><time>2026-04-25T10:06:49.999Z</time></trkpt><trkpt lat="45.1416891" lon="8.3285896"><ele>145.0</ele><time>2026-04-25T10:06:50.993Z</time></trkpt><trkpt lat="45.1417666" lon="8.3287291"><ele>145.25</ele><time>2026-04-25T10:06:52.01Z</time></trkpt><trkpt lat="45.1418526" lon="8.328858"><ele>145.5</ele><time>2026-04-25T10:06:52.998Z</time></trkpt><trkpt lat="45.1419384" lon="8.3289834"><ele>145.75</ele><time>2026-04-25T10:06:53.999Z</time></trkpt><trkpt lat="45.1420173" lon="8.3290988"><ele>146.0</ele><time>2026-04-25T10:06:55.001Z</time></trkpt><trkpt lat="45.1420914" lon="8.3292075"><ele>146.0</ele><time>2026-04-25T10:06:56Z</time></trkpt><trkpt lat="45.1421587" lon="8.3293122"><ele>146.0</ele><time>2026-04-25T10:06:57.006Z</time></trkpt><trkpt lat="45.1422067" lon="8.3294002"><ele>146.0</ele><time>2026-04-25T10:06:58.004Z</time></trkpt><trkpt lat="45.1422274" lon="8.3295185"><ele>146.0</ele><time>2026-04-25T10:07:00.003Z</time></trkpt><trkpt lat="45.1421643" lon="8.329601"><ele>146.0</ele><time>2026-04-25T10:07:00.995Z</time></trkpt><trkpt lat="45.1420715" lon="8.3296927"><ele>145.75</ele><time>2026-04-25T10:07:01.994Z</time></trkpt><trkpt lat="45.1419514" lon="8.3298065"><ele>145.5</ele><time>2026-04-25T10:07:02.994Z</time></trkpt><trkpt lat="45.141839" lon="8.3299069"><ele>145.25</ele><time>2026-04-25T10:07:03.995Z</time></trkpt><trkpt lat="45.14174" lon="8.3300196"><ele>145.0</ele><time>2026-04-25T10:07:05.004Z</time></trkpt><trkpt lat="45.1416509" lon="8.3301384"><ele>145.0</ele><time>2026-04-25T10:07:05.999Z</time></trkpt><trkpt lat="45.1415912" lon="8.3302924"><ele>145.0</ele><time>2026-04-25T10:07:06.997Z</time></trkpt><trkpt lat="45.1415477" lon="8.3304742"><ele>145.0</ele><time>2026-04-25T10:07:08.003Z</time></trkpt><trkpt lat="45.1415191" lon="8.3306437"><ele>145.0</ele><time>2026-04-25T10:07:08.999Z</time></trkpt><trkpt lat="45.1415149" lon="8.3308231"><ele>144.75</ele><time>2026-04-25T10:07:09.997Z</time></trkpt><trkpt lat="45.141533" lon="8.331002"><ele>144.5</ele><time>2026-04-25T10:07:10.996Z</time></trkpt><trkpt lat="45.1415543" lon="8.3311755"><ele>144.25</ele><time>2026-04-25T10:07:11.997Z</time></trkpt><trkpt lat="45.1415733" lon="8.3313392"><ele>144.0</ele><time>2026-04-25T10:07:13.007Z</time></trkpt><trkpt lat="45.1415843" lon="8.3314973"><ele>143.8</ele><time>2026-04-25T10:07:13.996Z</time></trkpt><trkpt lat="45.1416068" lon="8.3316451"><ele>143.60000000000002</ele><time>2026-04-25T10:07:15.002Z</time></trkpt><trkpt lat="45.1416322" lon="8.3317944"><ele>143.4</ele><time>2026-04-25T10:07:15.993Z</time></trkpt><trkpt lat="45.1416541" lon="8.331936"><ele>143.20000000000002</ele><time>2026-04-25T10:07:17.002Z</time></trkpt><trkpt lat="45.1416777" lon="8.3320801"><ele>143.0</ele><time>2026-04-25T10:07:18.007Z</time></trkpt><trkpt lat="45.1417004" lon="8.3322141"><ele>142.8</ele><time>2026-04-25T10:07:19.004Z</time></trkpt><trkpt lat="45.1417301" lon="8.3323456"><ele>142.60000000000002</ele><time>2026-04-25T10:07:20.01Z</time></trkpt><trkpt lat="45.1417596" lon="8.3324735"><ele>142.39999999999998</ele><time>2026-04-25T10:07:21.002Z</time></trkpt><trkpt lat="45.141793" lon="8.3325925"><ele>142.2</ele><time>2026-04-25T10:07:21.993Z</time></trkpt><trkpt lat="45.14183" lon="8.3327134"><ele>142.0</ele><time>2026-04-25T10:07:22.995Z</time></trkpt><trkpt lat="45.1418586" lon="8.332827"><ele>142.0</ele><time>2026-04-25T10:07:24.003Z</time></trkpt><trkpt lat="45.1418803" lon="8.3329291"><ele>142.0</ele><time>2026-04-25T10:07:24.998Z</time></trkpt><trkpt lat="45.1418967" lon="8.3330264"><ele>142.0</ele><time>2026-04-25T10:07:26.005Z</time></trkpt><trkpt lat="45.1419151" lon="8.3331164"><ele>142.0</ele><time>2026-04-25T10:07:26.998Z</time></trkpt><trkpt lat="45.1419453" lon="8.3332673"><ele>142.0</ele><time>2026-04-25T10:07:29Z</time></trkpt><trkpt lat="45.1419482" lon="8.3334297"><ele>142.0</ele><time>2026-04-25T10:07:31.011Z</time></trkpt><trkpt lat="45.1419602" lon="8.3335212"><ele>141.79999999999998</ele><time>2026-04-25T10:07:31.997Z</time></trkpt><trkpt lat="45.1419832" lon="8.3336361"><ele>141.6</ele><time>2026-04-25T10:07:32.999Z</time></trkpt><trkpt lat="45.1420144" lon="8.3337774"><ele>141.39999999999998</ele><time>2026-04-25T10:07:33.994Z</time></trkpt><trkpt lat="45.1420453" lon="8.3339468"><ele>141.2</ele><time>2026-04-25T10:07:35.005Z</time></trkpt><trkpt lat="45.1420809" lon="8.3341297"><ele>141.0</ele><time>2026-04-25T10:07:35.997Z</time></trkpt><trkpt lat="45.1421162" lon="8.3343062"><ele>140.6</ele><time>2026-04-25T10:07:37.013Z</time></trkpt><trkpt lat="45.1421485" lon="8.3344645"><ele>140.2</ele><time>2026-04-25T10:07:38.008Z</time></trkpt><trkpt lat="45.1421775" lon="8.3346062"><ele>139.8</ele><time>2026-04-25T10:07:38.996Z</time></trkpt><trkpt lat="45.1422035" lon="8.3347303"><ele>139.4</ele><time>2026-04-25T10:07:39.996Z</time></trkpt><trkpt lat="45.1422252" lon="8.3348301"><ele>139.0</ele><time>2026-04-25T10:07:41Z</time></trkpt><trkpt lat="45.1422628" lon="8.335006"><ele>138.8</ele><time>2026-04-25T10:07:42.995Z</time></trkpt><trkpt lat="45.1422882" lon="8.33511"><ele>138.60000000000002</ele><time>2026-04-25T10:07:43.998Z</time></trkpt><trkpt lat="45.1423177" lon="8.3352259"><ele>138.4</ele><time>2026-04-25T10:07:44.993Z</time></trkpt><trkpt lat="45.1423479" lon="8.3353552"><ele>138.20000000000002</ele><time>2026-04-25T10:07:45.997Z</time></trkpt><trkpt lat="45.1423737" lon="8.3354936"><ele>138.0</ele><time>2026-04-25T10:07:46.991Z</time></trkpt><trkpt lat="45.1423928" lon="8.3356403"><ele>137.8</ele><time>2026-04-25T10:07:47.999Z</time></trkpt><trkpt lat="45.1424149" lon="8.335773"><ele>137.60000000000002</ele><time>2026-04-25T10:07:48.996Z</time></trkpt><trkpt lat="45.1423961" lon="8.3359107"><ele>137.39999999999998</ele><time>2026-04-25T10:07:49.998Z</time></trkpt><trkpt lat="45.1423746" lon="8.3360654"><ele>137.2</ele><time>2026-04-25T10:07:50.989Z</time></trkpt><trkpt lat="45.142337" lon="8.3362156"><ele>137.0</ele><time>2026-04-25T10:07:52.011Z</time></trkpt><trkpt lat="45.1423008" lon="8.3363508"><ele>136.6</ele><time>2026-04-25T10:07:52.995Z</time></trkpt><trkpt lat="45.1422642" lon="8.3364792"><ele>136.2</ele><time>2026-04-25T10:07:53.999Z</time></trkpt><trkpt lat="45.1422199" lon="8.3366169"><ele>135.8</ele><time>2026-04-25T10:07:55.003Z</time></trkpt><trkpt lat="45.1421762" lon="8.3367573"><ele>135.4</ele><time>2026-04-25T10:07:55.995Z</time></trkpt><trkpt lat="45.1421381" lon="8.3369108"><ele>135.0</ele><time>2026-04-25T10:07:56.997Z</time></trkpt><trkpt lat="45.1420963" lon="8.3370558"><ele>135.0</ele><time>2026-04-25T10:07:58.001Z</time></trkpt><trkpt lat="45.1420556" lon="8.3371914"><ele>135.0</ele><time>2026-04-25T10:07:58.997Z</time></trkpt><trkpt lat="45.1420198" lon="8.3373249"><ele>135.0</ele><time>2026-04-25T10:07:59.997Z</time></trkpt><trkpt lat="45.1419826" lon="8.3374475"><ele>135.0</ele><time>2026-04-25T10:08:00.996Z</time></trkpt><trkpt lat="45.1419498" lon="8.3375675"><ele>135.0</ele><time>2026-04-25T10:08:02Z</time></trkpt><trkpt lat="45.1419252" lon="8.3376629"><ele>134.4</ele><time>2026-04-25T10:08:03.009Z</time></trkpt><trkpt lat="45.1419749" lon="8.33781"><ele>133.8</ele><time>2026-04-25T10:08:05.011Z</time></trkpt><trkpt lat="45.1420321" lon="8.3378489"><ele>133.2</ele><time>2026-04-25T10:08:06Z</time></trkpt><trkpt lat="45.1421155" lon="8.3378604"><ele>132.6</ele><time>2026-04-25T10:08:06.993Z</time></trkpt><trkpt lat="45.1422265" lon="8.3378575"><ele>132.0</ele><time>2026-04-25T10:08:07.995Z</time></trkpt><trkpt lat="45.1423584" lon="8.3378557"><ele>132.33333333333334</ele><time>2026-04-25T10:08:08.996Z</time></trkpt><trkpt lat="45.1425078" lon="8.3378715"><ele>132.66666666666669</ele><time>2026-04-25T10:08:10.003Z</time></trkpt><trkpt lat="45.1426751" lon="8.3378993"><ele>133.0</ele><time>2026-04-25T10:08:11.007Z</time></trkpt><trkpt lat="45.1428584" lon="8.3379236"><ele>133.0</ele><time>2026-04-25T10:08:12.003Z</time></trkpt><trkpt lat="45.1430432" lon="8.3379506"><ele>133.0</ele><time>2026-04-25T10:08:12.996Z</time></trkpt><trkpt lat="45.1432194" lon="8.3379639"><ele>133.0</ele><time>2026-04-25T10:08:14.003Z</time></trkpt><trkpt lat="45.1433702" lon="8.3379945"><ele>133.5</ele><time>2026-04-25T10:08:14.993Z</time></trkpt><trkpt lat="45.1435053" lon="8.3380145"><ele>134.0</ele><time>2026-04-25T10:08:16.001Z</time></trkpt><trkpt lat="45.1436384" lon="8.3380264"><ele>134.5</ele><time>2026-04-25T10:08:16.995Z</time></trkpt><trkpt lat="45.1437723" lon="8.3380112"><ele>135.0</ele><time>2026-04-25T10:08:18Z</time></trkpt><trkpt lat="45.1438979" lon="8.3379887"><ele>135.0</ele><time>2026-04-25T10:08:19.004Z</time></trkpt><trkpt lat="45.1440191" lon="8.33796"><ele>135.0</ele><time>2026-04-25T10:08:19.992Z</time></trkpt><trkpt lat="45.144136" lon="8.3379284"><ele>135.0</ele><time>2026-04-25T10:08:21.017Z</time></trkpt><trkpt lat="45.1442504" lon="8.337895"><ele>135.0</ele><time>2026-04-25T10:08:21.998Z</time></trkpt><trkpt lat="45.144358" lon="8.337858"><ele>135.2</ele><time>2026-04-25T10:08:22.995Z</time></trkpt><trkpt lat="45.1444565" lon="8.3378231"><ele>135.4</ele><time>2026-04-25T10:08:24Z</time></trkpt><trkpt lat="45.1445409" lon="8.3377945"><ele>135.6</ele><time>2026-04-25T10:08:25.001Z</time></trkpt><trkpt lat="45.1446267" lon="8.3377713"><ele>135.8</ele><time>2026-04-25T10:08:25.994Z</time></trkpt><trkpt lat="45.1447067" lon="8.3377595"><ele>136.0</ele><time>2026-04-25T10:08:27.011Z</time></trkpt><trkpt lat="45.1447981" lon="8.3377262"><ele>136.0</ele><time>2026-04-25T10:08:27.997Z</time></trkpt><trkpt lat="45.1448724" lon="8.3376946"><ele>136.0</ele><time>2026-04-25T10:08:29Z</time></trkpt><trkpt lat="45.144946" lon="8.3376688"><ele>136.0</ele><time>2026-04-25T10:08:29.996Z</time></trkpt><trkpt lat="45.1450379" lon="8.3376623"><ele>136.0</ele><time>2026-04-25T10:08:31Z</time></trkpt><trkpt lat="45.1451051" lon="8.3376572"><ele>136.0</ele><time>2026-04-25T10:08:32.004Z</time></trkpt><trkpt lat="45.1451657" lon="8.3375665"><ele>136.0</ele><time>2026-04-25T10:08:33.998Z</time></trkpt><trkpt lat="45.14518" lon="8.3374785"><ele>135.33333333333334</ele><time>2026-04-25T10:08:34.997Z</time></trkpt><trkpt lat="45.1451823" lon="8.3373733"><ele>134.66666666666669</ele><time>2026-04-25T10:08:36.001Z</time></trkpt><trkpt lat="45.1451771" lon="8.3372556"><ele>134.0</ele><time>2026-04-25T10:08:36.997Z</time></trkpt><trkpt lat="45.1451634" lon="8.337148"><ele>133.33333333333334</ele><time>2026-04-25T10:08:38.004Z</time></trkpt><trkpt lat="45.145149" lon="8.3370141"><ele>132.66666666666666</ele><time>2026-04-25T10:08:38.997Z</time></trkpt><trkpt lat="45.1451389" lon="8.3368476"><ele>132.0</ele><time>2026-04-25T10:08:39.997Z</time></trkpt><trkpt lat="45.1451255" lon="8.3366681"><ele>132.0</ele><time>2026-04-25T10:08:41Z</time></trkpt><trkpt lat="45.1451203" lon="8.3364684"><ele>132.0</ele><time>2026-04-25T10:08:42.001Z</time></trkpt><trkpt lat="45.1451265" lon="8.3362786"><ele>132.0</ele><time>2026-04-25T10:08:42.994Z</time></trkpt><trkpt lat="45.1451347" lon="8.3361299"><ele>132.0</ele><time>2026-04-25T10:08:44.003Z</time></trkpt><trkpt lat="45.1451353" lon="8.3360184"><ele>131.6</ele><time>2026-04-25T10:08:44.997Z</time></trkpt><trkpt lat="45.1451319" lon="8.335902"><ele>131.2</ele><time>2026-04-25T10:08:45.994Z</time></trkpt><trkpt lat="45.1451345" lon="8.3357823"><ele>130.8</ele><time>2026-04-25T10:08:46.995Z</time></trkpt><trkpt lat="45.1451453" lon="8.3356663"><ele>130.4</ele><time>2026-04-25T10:08:48.003Z</time></trkpt><trkpt lat="45.145143" lon="8.3355382"><ele>130.0</ele><time>2026-04-25T10:08:49.001Z</time></trkpt><trkpt lat="45.1451362" lon="8.335352"><ele>129.5</ele><time>2026-04-25T10:08:49.996Z</time></trkpt><trkpt lat="45.1451512" lon="8.3351668"><ele>129.0</ele><time>2026-04-25T10:08:50.995Z</time></trkpt><trkpt lat="45.1451636" lon="8.3349815"><ele>128.5</ele><time>2026-04-25T10:08:51.997Z</time></trkpt><trkpt lat="45.1451853" lon="8.3347721"><ele>128.0</ele><time>2026-04-25T10:08:52.992Z</time></trkpt><trkpt lat="45.1452247" lon="8.3345543"><ele>128.0</ele><time>2026-04-25T10:08:53.994Z</time></trkpt><trkpt lat="45.1452563" lon="8.3343571"><ele>128.0</ele><time>2026-04-25T10:08:55.001Z</time></trkpt><trkpt lat="45.1452873" lon="8.3341728"><ele>128.0</ele><time>2026-04-25T10:08:56.003Z</time></trkpt><trkpt lat="45.1453101" lon="8.3340091"><ele>128.0</ele><time>2026-04-25T10:08:57Z</time></trkpt><trkpt lat="45.1453417" lon="8.3338368"><ele>127.25</ele><time>2026-04-25T10:08:58.008Z</time></trkpt><trkpt lat="45.1453774" lon="8.3336337"><ele>126.5</ele><time>2026-04-25T10:08:58.994Z</time></trkpt><trkpt lat="45.1454205" lon="8.3334314"><ele>125.75</ele><time>2026-04-25T10:08:59.994Z</time></trkpt><trkpt lat="45.1454596" lon="8.3332287"><ele>125.0</ele><time>2026-04-25T10:09:01Z</time></trkpt><trkpt lat="45.1454971" lon="8.3330505"><ele>124.75</ele><time>2026-04-25T10:09:02.001Z</time></trkpt><trkpt lat="45.1455381" lon="8.332896"><ele>124.5</ele><time>2026-04-25T10:09:03.007Z</time></trkpt><trkpt lat="45.1455774" lon="8.3327373"><ele>124.25</ele><time>2026-04-25T10:09:04Z</time></trkpt><trkpt lat="45.1456264" lon="8.3325707"><ele>124.0</ele><time>2026-04-25T10:09:05Z</time></trkpt><trkpt lat="45.1456685" lon="8.3323989"><ele>124.5</ele><time>2026-04-25T10:09:06.001Z</time></trkpt><trkpt lat="45.1457261" lon="8.332218"><ele>125.0</ele><time>2026-04-25T10:09:06.999Z</time></trkpt><trkpt lat="45.1457956" lon="8.3320164"><ele>125.5</ele><time>2026-04-25T10:09:07.997Z</time></trkpt><trkpt lat="45.1458532" lon="8.3318242"><ele>126.0</ele><time>2026-04-25T10:09:09.001Z</time></trkpt><trkpt lat="45.1459054" lon="8.331645"><ele>126.0</ele><time>2026-04-25T10:09:10.003Z</time></trkpt><trkpt lat="45.1459476" lon="8.3314619"><ele>126.0</ele><time>2026-04-25T10:09:10.997Z</time></trkpt><trkpt lat="45.1459899" lon="8.331296"><ele>126.0</ele><time>2026-04-25T10:09:11.992Z</time></trkpt><trkpt lat="45.1460216" lon="8.3311573"><ele>126.0</ele><time>2026-04-25T10:09:13.009Z</time></trkpt><trkpt lat="45.146043" lon="8.3310129"><ele>125.4</ele><time>2026-04-25T10:09:13.999Z</time></trkpt><trkpt lat="45.1460737" lon="8.3308773"><ele>124.8</ele><time>2026-04-25T10:09:15.002Z</time></trkpt><trkpt lat="45.1461161" lon="8.3307339"><ele>124.20000000000002</ele><time>2026-04-25T10:09:16.004Z</time></trkpt><trkpt lat="45.1461494" lon="8.3305877"><ele>123.60000000000001</ele><time>2026-04-25T10:09:17.004Z</time></trkpt><trkpt lat="45.1461937" lon="8.3304376"><ele>123.0</ele><time>2026-04-25T10:09:18.01Z</time></trkpt><trkpt lat="45.1462462" lon="8.3302803"><ele>122.60000000000001</ele><time>2026-04-25T10:09:19Z</time></trkpt><trkpt lat="45.1462984" lon="8.3301282"><ele>122.20000000000002</ele><time>2026-04-25T10:09:20.005Z</time></trkpt><trkpt lat="45.1463313" lon="8.3300179"><ele>121.8</ele><time>2026-04-25T10:09:20.998Z</time></trkpt><trkpt lat="45.14633" lon="8.3298965"><ele>121.4</ele><time>2026-04-25T10:09:23.017Z</time></trkpt><trkpt lat="45.1462424" lon="8.3297964"><ele>121.0</ele><time>2026-04-25T10:09:24.994Z</time></trkpt><trkpt lat="45.1461676" lon="8.329718"><ele>120.8</ele><time>2026-04-25T10:09:26.003Z</time></trkpt><trkpt lat="45.1460988" lon="8.3296106"><ele>120.6</ele><time>2026-04-25T10:09:27.007Z</time></trkpt><trkpt lat="45.1460138" lon="8.329477"><ele>120.4</ele><time>2026-04-25T10:09:27.995Z</time></trkpt><trkpt lat="45.1459287" lon="8.3293541"><ele>120.2</ele><time>2026-04-25T10:09:28.995Z</time></trkpt><trkpt lat="45.1458553" lon="8.3292643"><ele>120.0</ele><time>2026-04-25T10:09:29.999Z</time></trkpt><trkpt lat="45.1458019" lon="8.3291991"><ele>120.0</ele><time>2026-04-25T10:09:30.995Z</time></trkpt><trkpt lat="45.1457602" lon="8.3291175"><ele>120.0</ele><time>2026-04-25T10:09:31.995Z</time></trkpt><trkpt lat="45.1457201" lon="8.3290469"><ele>120.0</ele><time>2026-04-25T10:09:32.992Z</time></trkpt><trkpt lat="45.1456594" lon="8.3289894"><ele>120.0</ele><time>2026-04-25T10:09:33.993Z</time></trkpt><trkpt lat="45.1455694" lon="8.3289261"><ele>120.0</ele><time>2026-04-25T10:09:35.004Z</time></trkpt><trkpt lat="45.1454879" lon="8.3288456"><ele>120.0</ele><time>2026-04-25T10:09:35.985Z</time></trkpt><trkpt lat="45.1454349" lon="8.328767"><ele>120.8</ele><time>2026-04-25T10:09:36.997Z</time></trkpt><trkpt lat="45.1453816" lon="8.3286621"><ele>121.6</ele><time>2026-04-25T10:09:38.003Z</time></trkpt><trkpt lat="45.1453298" lon="8.3285427"><ele>122.4</ele><time>2026-04-25T10:09:38.99Z</time></trkpt><trkpt lat="45.1452717" lon="8.32841"><ele>123.2</ele><time>2026-04-25T10:09:40.014Z</time></trkpt><trkpt lat="45.1451878" lon="8.3283321"><ele>124.0</ele><time>2026-04-25T10:09:41.003Z</time></trkpt><trkpt lat="45.1451026" lon="8.3282524"><ele>124.00000000000001</ele><time>2026-04-25T10:09:42.005Z</time></trkpt><trkpt lat="45.1450107" lon="8.3282076"><ele>124.0</ele><time>2026-04-25T10:09:42.994Z</time></trkpt><trkpt lat="45.1449284" lon="8.3281756"><ele>124.0</ele><time>2026-04-25T10:09:43.999Z</time></trkpt><trkpt lat="45.1448429" lon="8.3281649"><ele>124.0</ele><time>2026-04-25T10:09:44.999Z</time></trkpt><trkpt lat="45.1447352" lon="8.3281942"><ele>124.00000000000001</ele><time>2026-04-25T10:09:46.996Z</time></trkpt><trkpt lat="45.1446802" lon="8.3282474"><ele>124.0</ele><time>2026-04-25T10:09:48.004Z</time></trkpt><trkpt lat="45.144628" lon="8.328329"><ele>126.66666666666667</ele><time>2026-04-25T10:09:48.999Z</time></trkpt><trkpt lat="45.1445767" lon="8.3284109"><ele>129.33333333333334</ele><time>2026-04-25T10:09:49.994Z</time></trkpt><trkpt lat="45.144551" lon="8.3285173"><ele>132.0</ele><time>2026-04-25T10:09:50.994Z</time></trkpt><trkpt lat="45.1445329" lon="8.3286164"><ele>134.66666666666666</ele><time>2026-04-25T10:09:51.991Z</time></trkpt><trkpt lat="45.1445072" lon="8.3287137"><ele>137.33333333333331</ele><time>2026-04-25T10:09:53.012Z</time></trkpt><trkpt lat="45.144491" lon="8.3288237"><ele>140.0</ele><time>2026-04-25T10:09:53.999Z</time></trkpt><trkpt lat="45.1445017" lon="8.3289239"><ele>140.0</ele><time>2026-04-25T10:09:54.991Z</time></trkpt><trkpt lat="45.1445011" lon="8.3290224"><ele>140.0</ele><time>2026-04-25T10:09:55.997Z</time></trkpt><trkpt lat="45.1444604" lon="8.3291508"><ele>140.0</ele><time>2026-04-25T10:09:57.001Z</time></trkpt><trkpt lat="45.1444312" lon="8.3292824"><ele>140.0</ele><time>2026-04-25T10:09:58.001Z</time></trkpt><trkpt lat="45.1444093" lon="8.329385"><ele>140.0</ele><time>2026-04-25T10:09:59.004Z</time></trkpt><trkpt lat="45.1443635" lon="8.3295129"><ele>140.0</ele><time>2026-04-25T10:10:01.004Z</time></trkpt><trkpt lat="45.1442871" lon="8.3294868"><ele>140.0</ele><time>2026-04-25T10:10:03Z</time></trkpt><trkpt lat="45.1442465" lon="8.3292832"><ele>140.0</ele><time>2026-04-25T10:10:05.005Z</time></trkpt><trkpt lat="45.1442153" lon="8.3291244"><ele>140.0</ele><time>2026-04-25T10:10:06.01Z</time></trkpt><trkpt lat="45.1441782" lon="8.3289967"><ele>140.0</ele><time>2026-04-25T10:10:07.004Z</time></trkpt><trkpt lat="45.1441338" lon="8.328879"><ele>140.6</ele><time>2026-04-25T10:10:07.998Z</time></trkpt><trkpt lat="45.1440789" lon="8.3287624"><ele>141.2</ele><time>2026-04-25T10:10:09.003Z</time></trkpt><trkpt lat="45.1440144" lon="8.3286489"><ele>141.8</ele><time>2026-04-25T10:10:09.996Z</time></trkpt><trkpt lat="45.1439485" lon="8.3285255"><ele>142.4</ele><time>2026-04-25T10:10:11.007Z</time></trkpt><trkpt lat="45.1438984" lon="8.3284242"><ele>143.0</ele><time>2026-04-25T10:10:11.994Z</time></trkpt><trkpt lat="45.1438616" lon="8.3283505"><ele>144.0</ele><time>2026-04-25T10:10:12.995Z</time></trkpt><trkpt lat="45.1438031" lon="8.3282935"><ele>145.0</ele><time>2026-04-25T10:10:14.001Z</time></trkpt><trkpt lat="45.1437062" lon="8.3282284"><ele>146.0</ele><time>2026-04-25T10:10:15.993Z</time></trkpt><trkpt lat="45.1436599" lon="8.3280354"><ele>147.0</ele><time>2026-04-25T10:10:17.997Z</time></trkpt><trkpt lat="45.1436299" lon="8.3278999"><ele>148.0</ele><time>2026-04-25T10:10:18.999Z</time></trkpt><trkpt lat="45.143574" lon="8.3277675"><ele>149.5</ele><time>2026-04-25T10:10:19.998Z</time></trkpt><trkpt lat="45.1435075" lon="8.3276353"><ele>151.0</ele><time>2026-04-25T10:10:21Z</time></trkpt><trkpt lat="45.1434302" lon="8.3274854"><ele>152.5</ele><time>2026-04-25T10:10:21.995Z</time></trkpt><trkpt lat="45.1433594" lon="8.3273412"><ele>154.0</ele><time>2026-04-25T10:10:23Z</time></trkpt><trkpt lat="45.143296" lon="8.3271901"><ele>154.5</ele><time>2026-04-25T10:10:23.997Z</time></trkpt><trkpt lat="45.143251" lon="8.3270484"><ele>155.0</ele><time>2026-04-25T10:10:25.006Z</time></trkpt><trkpt lat="45.1432145" lon="8.3268996"><ele>155.5</ele><time>2026-04-25T10:10:26.001Z</time></trkpt><trkpt lat="45.143183" lon="8.326738"><ele>156.0</ele><time>2026-04-25T10:10:27.007Z</time></trkpt><trkpt lat="45.1431339" lon="8.3265942"><ele>156.0</ele><time>2026-04-25T10:10:27.989Z</time></trkpt><trkpt lat="45.1430984" lon="8.3264353"><ele>156.0</ele><time>2026-04-25T10:10:28.994Z</time></trkpt><trkpt lat="45.1430586" lon="8.3262781"><ele>156.0</ele><time>2026-04-25T10:10:29.991Z</time></trkpt><trkpt lat="45.1430182" lon="8.326096"><ele>156.0</ele><time>2026-04-25T10:10:30.995Z</time></trkpt><trkpt lat="45.1429894" lon="8.3259089"><ele>157.25</ele><time>2026-04-25T10:10:31.996Z</time></trkpt><trkpt lat="45.1429566" lon="8.3257305"><ele>158.5</ele><time>2026-04-25T10:10:32.996Z</time></trkpt><trkpt lat="45.1429278" lon="8.3255389"><ele>159.75</ele><time>2026-04-25T10:10:33.989Z</time></trkpt><trkpt lat="45.1429157" lon="8.3253473"><ele>161.0</ele><time>2026-04-25T10:10:34.992Z</time></trkpt><trkpt lat="45.1429217" lon="8.32516"><ele>161.60000000000002</ele><time>2026-04-25T10:10:36Z</time></trkpt><trkpt lat="45.1429402" lon="8.3249918"><ele>162.2</ele><time>2026-04-25T10:10:36.996Z</time></trkpt><trkpt lat="45.1429632" lon="8.3248321"><ele>162.8</ele><time>2026-04-25T10:10:37.994Z</time></trkpt><trkpt lat="45.1430046" lon="8.3246883"><ele>163.39999999999998</ele><time>2026-04-25T10:10:39.003Z</time></trkpt><trkpt lat="45.1430384" lon="8.3245604"><ele>164.0</ele><time>2026-04-25T10:10:40.002Z</time></trkpt><trkpt lat="45.1430761" lon="8.3244274"><ele>164.2</ele><time>2026-04-25T10:10:40.993Z</time></trkpt><trkpt lat="45.1431152" lon="8.3242971"><ele>164.39999999999998</ele><time>2026-04-25T10:10:42.007Z</time></trkpt><trkpt lat="45.1431598" lon="8.3241633"><ele>164.6</ele><time>2026-04-25T10:10:42.997Z</time></trkpt><trkpt lat="45.143192" lon="8.3240163"><ele>164.8</ele><time>2026-04-25T10:10:44.013Z</time></trkpt><trkpt lat="45.1432174" lon="8.3238657"><ele>165.0</ele><time>2026-04-25T10:10:44.996Z</time></trkpt><trkpt lat="45.1432312" lon="8.3236974"><ele>166.25</ele><time>2026-04-25T10:10:46Z</time></trkpt><trkpt lat="45.1432381" lon="8.3235051"><ele>167.5</ele><time>2026-04-25T10:10:47.002Z</time></trkpt><trkpt lat="45.1432445" lon="8.3233186"><ele>168.75</ele><time>2026-04-25T10:10:47.996Z</time></trkpt><trkpt lat="45.1432477" lon="8.3231597"><ele>170.0</ele><time>2026-04-25T10:10:49.004Z</time></trkpt><trkpt lat="45.1432498" lon="8.3230245"><ele>170.2</ele><time>2026-04-25T10:10:49.999Z</time></trkpt><trkpt lat="45.1432628" lon="8.3228821"><ele>170.4</ele><time>2026-04-25T10:10:50.995Z</time></trkpt><trkpt lat="45.1432939" lon="8.322757"><ele>170.60000000000002</ele><time>2026-04-25T10:10:52Z</time></trkpt><trkpt lat="45.1433271" lon="8.3226368"><ele>170.8</ele><time>2026-04-25T10:10:52.998Z</time></trkpt><trkpt lat="45.1433683" lon="8.3225036"><ele>171.0</ele><time>2026-04-25T10:10:54.004Z</time></trkpt><trkpt lat="45.1434141" lon="8.3223562"><ele>170.4</ele><time>2026-04-25T10:10:55Z</time></trkpt><trkpt lat="45.143459" lon="8.3222186"><ele>169.8</ele><time>2026-04-25T10:10:55.996Z</time></trkpt><trkpt lat="45.1434988" lon="8.3220858"><ele>169.20000000000002</ele><time>2026-04-25T10:10:56.999Z</time></trkpt><trkpt lat="45.1435297" lon="8.321954"><ele>168.60000000000002</ele><time>2026-04-25T10:10:57.999Z</time></trkpt><trkpt lat="45.14356" lon="8.3218278"><ele>168.0</ele><time>2026-04-25T10:10:59.005Z</time></trkpt><trkpt lat="45.1435669" lon="8.321702"><ele>168.0</ele><time>2026-04-25T10:10:59.988Z</time></trkpt><trkpt lat="45.143574" lon="8.3215867"><ele>168.0</ele><time>2026-04-25T10:11:00.993Z</time></trkpt><trkpt lat="45.1435616" lon="8.3214841"><ele>168.0</ele><time>2026-04-25T10:11:01.996Z</time></trkpt><trkpt lat="45.1435266" lon="8.3213825"><ele>168.0</ele><time>2026-04-25T10:11:02.997Z</time></trkpt><trkpt lat="45.1434871" lon="8.3212725"><ele>168.0</ele><time>2026-04-25T10:11:04.001Z</time></trkpt><trkpt lat="45.1434326" lon="8.3211329"><ele>168.0</ele><time>2026-04-25T10:11:05Z</time></trkpt><trkpt lat="45.1433936" lon="8.3209963"><ele>168.0</ele><time>2026-04-25T10:11:05.997Z</time></trkpt><trkpt lat="45.1433709" lon="8.3208476"><ele>168.0</ele><time>2026-04-25T10:11:07.005Z</time></trkpt><trkpt lat="45.1433702" lon="8.3206921"><ele>168.0</ele><time>2026-04-25T10:11:07.996Z</time></trkpt><trkpt lat="45.1433922" lon="8.3205341"><ele>168.0</ele><time>2026-04-25T10:11:08.997Z</time></trkpt><trkpt lat="45.1434352" lon="8.3203774"><ele>168.0</ele><time>2026-04-25T10:11:09.993Z</time></trkpt><trkpt lat="45.1434929" lon="8.320211"><ele>168.75</ele><time>2026-04-25T10:11:11.004Z</time></trkpt><trkpt lat="45.1435615" lon="8.3200303"><ele>169.5</ele><time>2026-04-25T10:11:11.997Z</time></trkpt><trkpt lat="45.1436264" lon="8.3198568"><ele>170.25</ele><time>2026-04-25T10:11:13.002Z</time></trkpt><trkpt lat="45.1436824" lon="8.3197109"><ele>171.0</ele><time>2026-04-25T10:11:14.006Z</time></trkpt><trkpt lat="45.1437292" lon="8.3195635"><ele>172.0</ele><time>2026-04-25T10:11:14.992Z</time></trkpt><trkpt lat="45.1437668" lon="8.3194045"><ele>173.0</ele><time>2026-04-25T10:11:15.998Z</time></trkpt><trkpt lat="45.1437954" lon="8.3192269"><ele>174.0</ele><time>2026-04-25T10:11:16.997Z</time></trkpt><trkpt lat="45.143824" lon="8.3190366"><ele>175.0</ele><time>2026-04-25T10:11:18.004Z</time></trkpt><trkpt lat="45.1438547" lon="8.3188375"><ele>175.75</ele><time>2026-04-25T10:11:19.004Z</time></trkpt><trkpt lat="45.1438867" lon="8.318635"><ele>176.5</ele><time>2026-04-25T10:11:19.996Z</time></trkpt><trkpt lat="45.1439187" lon="8.3184391"><ele>177.25</ele><time>2026-04-25T10:11:21Z</time></trkpt><trkpt lat="45.1439538" lon="8.3182538"><ele>178.0</ele><time>2026-04-25T10:11:22Z</time></trkpt><trkpt lat="45.1439871" lon="8.3180855"><ele>178.4</ele><time>2026-04-25T10:11:23.011Z</time></trkpt><trkpt lat="45.1440139" lon="8.3179333"><ele>178.8</ele><time>2026-04-25T10:11:24Z</time></trkpt><trkpt lat="45.1440367" lon="8.3177965"><ele>179.2</ele><time>2026-04-25T10:11:25.006Z</time></trkpt><trkpt lat="45.1440528" lon="8.3176646"><ele>179.6</ele><time>2026-04-25T10:11:25.993Z</time></trkpt><trkpt lat="45.1440663" lon="8.3175431"><ele>180.0</ele><time>2026-04-25T10:11:26.999Z</time></trkpt><trkpt lat="45.1440666" lon="8.3174176"><ele>182.0</ele><time>2026-04-25T10:11:28Z</time></trkpt><trkpt lat="45.1440659" lon="8.3172936"><ele>184.0</ele><time>2026-04-25T10:11:28.999Z</time></trkpt><trkpt lat="45.1440643" lon="8.3171638"><ele>186.0</ele><time>2026-04-25T10:11:30.008Z</time></trkpt><trkpt lat="45.1440647" lon="8.3170228"><ele>188.0</ele><time>2026-04-25T10:11:31Z</time></trkpt><trkpt lat="45.1440793" lon="8.316878"><ele>190.0</ele><time>2026-04-25T10:11:31.997Z</time></trkpt><trkpt lat="45.1441094" lon="8.3167368"><ele>190.25</ele><time>2026-04-25T10:11:33.003Z</time></trkpt><trkpt lat="45.1441508" lon="8.3166009"><ele>190.5</ele><time>2026-04-25T10:11:33.998Z</time></trkpt><trkpt lat="45.144198" lon="8.3164567"><ele>190.75</ele><time>2026-04-25T10:11:35.025Z</time></trkpt><trkpt lat="45.1442581" lon="8.3163049"><ele>191.0</ele><time>2026-04-25T10:11:35.998Z</time></trkpt><trkpt lat="45.1443172" lon="8.3161709"><ele>190.60000000000002</ele><time>2026-04-25T10:11:36.999Z</time></trkpt><trkpt lat="45.1443725" lon="8.3160474"><ele>190.2</ele><time>2026-04-25T10:11:37.999Z</time></trkpt><trkpt lat="45.1444474" lon="8.3159639"><ele>189.8</ele><time>2026-04-25T10:11:39.002Z</time></trkpt><trkpt lat="45.1445262" lon="8.315883"><ele>189.39999999999998</ele><time>2026-04-25T10:11:40.021Z</time></trkpt><trkpt lat="45.1446215" lon="8.3158195"><ele>189.0</ele><time>2026-04-25T10:11:41.004Z</time></trkpt><trkpt lat="45.1447261" lon="8.3157633"><ele>189.0</ele><time>2026-04-25T10:11:41.996Z</time></trkpt><trkpt lat="45.1448222" lon="8.3157178"><ele>189.0</ele><time>2026-04-25T10:11:43.002Z</time></trkpt><trkpt lat="45.1449087" lon="8.3156582"><ele>189.0</ele><time>2026-04-25T10:11:44.007Z</time></trkpt><trkpt lat="45.1449921" lon="8.3155864"><ele>189.0</ele><time>2026-04-25T10:11:45.011Z</time></trkpt><trkpt lat="45.1450692" lon="8.3155027"><ele>189.0</ele><time>2026-04-25T10:11:46.004Z</time></trkpt><trkpt lat="45.1451375" lon="8.3154076"><ele>188.75</ele><time>2026-04-25T10:11:47Z</time></trkpt><trkpt lat="45.1452037" lon="8.3152916"><ele>188.5</ele><time>2026-04-25T10:11:47.995Z</time></trkpt><trkpt lat="45.145273" lon="8.3151611"><ele>188.25</ele><time>2026-04-25T10:11:49.003Z</time></trkpt><trkpt lat="45.1453495" lon="8.3150142"><ele>188.0</ele><time>2026-04-25T10:11:49.997Z</time></trkpt><trkpt lat="45.1454293" lon="8.3148656"><ele>187.2</ele><time>2026-04-25T10:11:51.01Z</time></trkpt><trkpt lat="45.1455005" lon="8.3147346"><ele>186.4</ele><time>2026-04-25T10:11:51.998Z</time></trkpt><trkpt lat="45.1455594" lon="8.3146224"><ele>185.6</ele><time>2026-04-25T10:11:53Z</time></trkpt><trkpt lat="45.1456059" lon="8.314515"><ele>184.79999999999998</ele><time>2026-04-25T10:11:53.994Z</time></trkpt><trkpt lat="45.1456362" lon="8.3144031"><ele>184.0</ele><time>2026-04-25T10:11:55.01Z</time></trkpt><trkpt lat="45.1456431" lon="8.3142838"><ele>184.0</ele><time>2026-04-25T10:11:55.992Z</time></trkpt><trkpt lat="45.1456327" lon="8.3141673"><ele>184.0</ele><time>2026-04-25T10:11:57.004Z</time></trkpt><trkpt lat="45.1456215" lon="8.3140652"><ele>184.0</ele><time>2026-04-25T10:11:58Z</time></trkpt><trkpt lat="45.1456239" lon="8.3139702"><ele>184.0</ele><time>2026-04-25T10:11:59.001Z</time></trkpt><trkpt lat="45.1456683" lon="8.3138805"><ele>184.0</ele><time>2026-04-25T10:11:59.999Z</time></trkpt><trkpt lat="45.1457372" lon="8.3137842"><ele>184.0</ele><time>2026-04-25T10:12:00.999Z</time></trkpt><trkpt lat="45.1458164" lon="8.3136657"><ele>184.0</ele><time>2026-04-25T10:12:02.001Z</time></trkpt><trkpt lat="45.1458901" lon="8.3135522"><ele>184.0</ele><time>2026-04-25T10:12:02.995Z</time></trkpt><trkpt lat="45.145934" lon="8.3134255"><ele>184.0</ele><time>2026-04-25T10:12:03.999Z</time></trkpt><trkpt lat="45.1459761" lon="8.3132982"><ele>184.0</ele><time>2026-04-25T10:12:05Z</time></trkpt><trkpt lat="45.1460109" lon="8.3131548"><ele>184.0</ele><time>2026-04-25T10:12:05.998Z</time></trkpt><trkpt lat="45.1460309" lon="8.3130053"><ele>184.5</ele><time>2026-04-25T10:12:07Z</time></trkpt><trkpt lat="45.1460475" lon="8.3128449"><ele>185.0</ele><time>2026-04-25T10:12:08Z</time></trkpt><trkpt lat="45.1460624" lon="8.3126734"><ele>185.5</ele><time>2026-04-25T10:12:09Z</time></trkpt><trkpt lat="45.1460752" lon="8.3125006"><ele>186.0</ele><time>2026-04-25T10:12:09.999Z</time></trkpt><trkpt lat="45.1460838" lon="8.3123337"><ele>187.4</ele><time>2026-04-25T10:12:10.999Z</time></trkpt><trkpt lat="45.1460875" lon="8.3121698"><ele>188.8</ele><time>2026-04-25T10:12:12.002Z</time></trkpt><trkpt lat="45.1460831" lon="8.3120154"><ele>190.20000000000002</ele><time>2026-04-25T10:12:13.013Z</time></trkpt><trkpt lat="45.1460794" lon="8.3118726"><ele>191.60000000000002</ele><time>2026-04-25T10:12:13.995Z</time></trkpt><trkpt lat="45.1460838" lon="8.3117343"><ele>193.0</ele><time>2026-04-25T10:12:14.997Z</time></trkpt><trkpt lat="45.1460901" lon="8.3116099"><ele>192.99999999999997</ele><time>2026-04-25T10:12:16.001Z</time></trkpt><trkpt lat="45.1461066" lon="8.3115097"><ele>193.0</ele><time>2026-04-25T10:12:16.996Z</time></trkpt><trkpt lat="45.1461509" lon="8.3114326"><ele>193.0</ele><time>2026-04-25T10:12:18.013Z</time></trkpt><trkpt lat="45.1462024" lon="8.3113604"><ele>193.0</ele><time>2026-04-25T10:12:18.993Z</time></trkpt><trkpt lat="45.1462625" lon="8.3113013"><ele>192.99999999999997</ele><time>2026-04-25T10:12:19.998Z</time></trkpt><trkpt lat="45.1463313" lon="8.3112459"><ele>193.0</ele><time>2026-04-25T10:12:21Z</time></trkpt><trkpt lat="45.1464043" lon="8.3111652"><ele>192.0</ele><time>2026-04-25T10:12:21.996Z</time></trkpt><trkpt lat="45.1464828" lon="8.3110822"><ele>191.0</ele><time>2026-04-25T10:12:23.009Z</time></trkpt><trkpt lat="45.1465565" lon="8.3109602"><ele>190.0</ele><time>2026-04-25T10:12:24.004Z</time></trkpt><trkpt lat="45.1466209" lon="8.3108295"><ele>189.0</ele><time>2026-04-25T10:12:25Z</time></trkpt><trkpt lat="45.1466872" lon="8.3107099"><ele>188.0</ele><time>2026-04-25T10:12:25.997Z</time></trkpt><trkpt lat="45.1467486" lon="8.3106006"><ele>186.0</ele><time>2026-04-25T10:12:27Z</time></trkpt><trkpt lat="45.146796" lon="8.3104961"><ele>184.0</ele><time>2026-04-25T10:12:27.998Z</time></trkpt><trkpt lat="45.1468447" lon="8.3103972"><ele>182.0</ele><time>2026-04-25T10:12:29.003Z</time></trkpt><trkpt lat="45.1468962" lon="8.3102917"><ele>180.0</ele><time>2026-04-25T10:12:29.998Z</time></trkpt><trkpt lat="45.1469415" lon="8.3101756"><ele>178.0</ele><time>2026-04-25T10:12:31.001Z</time></trkpt><trkpt lat="45.1469969" lon="8.3100642"><ele>178.0</ele><time>2026-04-25T10:12:32.012Z</time></trkpt><trkpt lat="45.1470647" lon="8.3099643"><ele>178.0</ele><time>2026-04-25T10:12:33.005Z</time></trkpt><trkpt lat="45.1471387" lon="8.3098745"><ele>178.0</ele><time>2026-04-25T10:12:34Z</time></trkpt><trkpt lat="45.1472271" lon="8.309781"><ele>178.0</ele><time>2026-04-25T10:12:35Z</time></trkpt><trkpt lat="45.1473166" lon="8.3096845"><ele>178.0</ele><time>2026-04-25T10:12:36.002Z</time></trkpt><trkpt lat="45.1473989" lon="8.3096103"><ele>179.16666666666669</ele><time>2026-04-25T10:12:37.005Z</time></trkpt><trkpt lat="45.1474867" lon="8.3095607"><ele>180.33333333333334</ele><time>2026-04-25T10:12:37.994Z</time></trkpt><trkpt lat="45.1475703" lon="8.3095209"><ele>181.5</ele><time>2026-04-25T10:12:39Z</time></trkpt><trkpt lat="45.1476447" lon="8.3094898"><ele>182.66666666666666</ele><time>2026-04-25T10:12:40Z</time></trkpt><trkpt lat="45.1477152" lon="8.3094607"><ele>183.83333333333331</ele><time>2026-04-25T10:12:41.029Z</time></trkpt><trkpt lat="45.1477865" lon="8.3094263"><ele>185.0</ele><time>2026-04-25T10:12:41.998Z</time></trkpt><trkpt lat="45.1478584" lon="8.3093888"><ele>185.0</ele><time>2026-04-25T10:12:42.998Z</time></trkpt><trkpt lat="45.1479284" lon="8.3093529"><ele>185.0</ele><time>2026-04-25T10:12:44.002Z</time></trkpt><trkpt lat="45.1480021" lon="8.3093142"><ele>185.0</ele><time>2026-04-25T10:12:45.006Z</time></trkpt><trkpt lat="45.1480705" lon="8.3092809"><ele>185.0</ele><time>2026-04-25T10:12:46.013Z</time></trkpt><trkpt lat="45.1481382" lon="8.309241"><ele>185.0</ele><time>2026-04-25T10:12:46.997Z</time></trkpt><trkpt lat="45.1482118" lon="8.3092013"><ele>185.0</ele><time>2026-04-25T10:12:47.997Z</time></trkpt><trkpt lat="45.1482906" lon="8.309146"><ele>186.2</ele><time>2026-04-25T10:12:48.993Z</time></trkpt><trkpt lat="45.1483752" lon="8.3090959"><ele>187.4</ele><time>2026-04-25T10:12:49.996Z</time></trkpt><trkpt lat="45.1484754" lon="8.3090419"><ele>188.60000000000002</ele><time>2026-04-25T10:12:50.997Z</time></trkpt><trkpt lat="45.1485704" lon="8.3089833"><ele>189.8</ele><time>2026-04-25T10:12:52Z</time></trkpt><trkpt lat="45.1486603" lon="8.308924"><ele>191.0</ele><time>2026-04-25T10:12:52.993Z</time></trkpt><trkpt lat="45.148733" lon="8.3088556"><ele>191.5</ele><time>2026-04-25T10:12:54.004Z</time></trkpt><trkpt lat="45.1488061" lon="8.308787"><ele>192.0</ele><time>2026-04-25T10:12:55Z</time></trkpt><trkpt lat="45.1488719" lon="8.3087175"><ele>192.5</ele><time>2026-04-25T10:12:55.996Z</time></trkpt><trkpt lat="45.1489369" lon="8.3086405"><ele>193.0</ele><time>2026-04-25T10:12:56.999Z</time></trkpt><trkpt lat="45.1489975" lon="8.3085592"><ele>193.50000000000003</ele><time>2026-04-25T10:12:57.996Z</time></trkpt><trkpt lat="45.1490509" lon="8.3084885"><ele>194.0</ele><time>2026-04-25T10:12:59.002Z</time></trkpt><trkpt lat="45.1491189" lon="8.3083485"><ele>194.0</ele><time>2026-04-25T10:13:01.015Z</time></trkpt><trkpt lat="45.1491624" lon="8.3082636"><ele>194.0</ele><time>2026-04-25T10:13:01.995Z</time></trkpt><trkpt lat="45.1492093" lon="8.3081624"><ele>194.0</ele><time>2026-04-25T10:13:03.004Z</time></trkpt><trkpt lat="45.1492709" lon="8.3080418"><ele>194.0</ele><time>2026-04-25T10:13:03.994Z</time></trkpt><trkpt lat="45.1493252" lon="8.3079206"><ele>194.0</ele><time>2026-04-25T10:13:05.001Z</time></trkpt><trkpt lat="45.1493683" lon="8.3078049"><ele>195.79999999999998</ele><time>2026-04-25T10:13:06Z</time></trkpt><trkpt lat="45.1493966" lon="8.3076778"><ele>197.6</ele><time>2026-04-25T10:13:07.007Z</time></trkpt><trkpt lat="45.1494164" lon="8.3075487"><ele>199.4</ele><time>2026-04-25T10:13:07.993Z</time></trkpt><trkpt lat="45.1494352" lon="8.3074238"><ele>201.2</ele><time>2026-04-25T10:13:08.999Z</time></trkpt><trkpt lat="45.1494636" lon="8.3073025"><ele>203.0</ele><time>2026-04-25T10:13:09.988Z</time></trkpt><trkpt lat="45.1495065" lon="8.307174"><ele>203.0</ele><time>2026-04-25T10:13:11.012Z</time></trkpt><trkpt lat="45.149558" lon="8.3070467"><ele>203.0</ele><time>2026-04-25T10:13:11.992Z</time></trkpt><trkpt lat="45.1496096" lon="8.3069297"><ele>203.0</ele><time>2026-04-25T10:13:13.003Z</time></trkpt><trkpt lat="45.149662" lon="8.3068112"><ele>203.0</ele><time>2026-04-25T10:13:13.996Z</time></trkpt><trkpt lat="45.1497345" lon="8.3067023"><ele>203.0</ele><time>2026-04-25T10:13:14.995Z</time></trkpt><trkpt lat="45.1498162" lon="8.3065984"><ele>203.2</ele><time>2026-04-25T10:13:15.996Z</time></trkpt><trkpt lat="45.1499049" lon="8.3065074"><ele>203.4</ele><time>2026-04-25T10:13:17.001Z</time></trkpt><trkpt lat="45.1499876" lon="8.3064302"><ele>203.6</ele><time>2026-04-25T10:13:17.993Z</time></trkpt><trkpt lat="45.1500584" lon="8.306362"><ele>203.79999999999998</ele><time>2026-04-25T10:13:19.012Z</time></trkpt><trkpt lat="45.1501268" lon="8.3062999"><ele>204.0</ele><time>2026-04-25T10:13:19.991Z</time></trkpt><trkpt lat="45.1502061" lon="8.3062325"><ele>204.79999999999998</ele><time>2026-04-25T10:13:20.997Z</time></trkpt><trkpt lat="45.1502772" lon="8.3061621"><ele>205.6</ele><time>2026-04-25T10:13:21.996Z</time></trkpt><trkpt lat="45.1503494" lon="8.3060666"><ele>206.4</ele><time>2026-04-25T10:13:23.002Z</time></trkpt><trkpt lat="45.1504186" lon="8.3059604"><ele>207.2</ele><time>2026-04-25T10:13:24.005Z</time></trkpt><trkpt lat="45.1504917" lon="8.3058453"><ele>208.0</ele><time>2026-04-25T10:13:24.996Z</time></trkpt><trkpt lat="45.1505519" lon="8.3057125"><ele>208.60000000000002</ele><time>2026-04-25T10:13:25.995Z</time></trkpt><trkpt lat="45.1506063" lon="8.3055727"><ele>209.20000000000002</ele><time>2026-04-25T10:13:27.006Z</time></trkpt><trkpt lat="45.1506623" lon="8.3054535"><ele>209.8</ele><time>2026-04-25T10:13:28.008Z</time></trkpt><trkpt lat="45.1507199" lon="8.3053335"><ele>210.4</ele><time>2026-04-25T10:13:29.013Z</time></trkpt><trkpt lat="45.1507719" lon="8.3052303"><ele>211.0</ele><time>2026-04-25T10:13:29.992Z</time></trkpt><trkpt lat="45.1508182" lon="8.3051622"><ele>210.99999999999997</ele><time>2026-04-25T10:13:30.993Z</time></trkpt><trkpt lat="45.1508736" lon="8.3050948"><ele>211.0</ele><time>2026-04-25T10:13:32.003Z</time></trkpt><trkpt lat="45.1509338" lon="8.3050146"><ele>211.0</ele><time>2026-04-25T10:13:33.001Z</time></trkpt><trkpt lat="45.1509992" lon="8.3049295"><ele>211.0</ele><time>2026-04-25T10:13:33.996Z</time></trkpt><trkpt lat="45.1510738" lon="8.3048289"><ele>210.99999999999997</ele><time>2026-04-25T10:13:35.011Z</time></trkpt><trkpt lat="45.1511454" lon="8.3047361"><ele>211.0</ele><time>2026-04-25T10:13:35.993Z</time></trkpt><trkpt lat="45.1512144" lon="8.3046494"><ele>210.33333333333331</ele><time>2026-04-25T10:13:37.007Z</time></trkpt><trkpt lat="45.1512794" lon="8.3045838"><ele>209.66666666666666</ele><time>2026-04-25T10:13:38.001Z</time></trkpt><trkpt lat="45.1513468" lon="8.304519"><ele>209.0</ele><time>2026-04-25T10:13:38.999Z</time></trkpt><trkpt lat="45.1514255" lon="8.304453"><ele>208.33333333333331</ele><time>2026-04-25T10:13:40.002Z</time></trkpt><trkpt lat="45.1515044" lon="8.3043893"><ele>207.66666666666666</ele><time>2026-04-25T10:13:40.998Z</time></trkpt><trkpt lat="45.1515706" lon="8.3043347"><ele>207.0</ele><time>2026-04-25T10:13:42Z</time></trkpt><trkpt lat="45.1516284" lon="8.3042603"><ele>207.0</ele><time>2026-04-25T10:13:43Z</time></trkpt><trkpt lat="45.1516838" lon="8.304158"><ele>207.0</ele><time>2026-04-25T10:13:43.995Z</time></trkpt><trkpt lat="45.1517367" lon="8.3040271"><ele>207.0</ele><time>2026-04-25T10:13:44.997Z</time></trkpt><trkpt lat="45.1517916" lon="8.3038783"><ele>207.0</ele><time>2026-04-25T10:13:46.001Z</time></trkpt><trkpt lat="45.1518384" lon="8.3037413"><ele>207.0</ele><time>2026-04-25T10:13:47.014Z</time></trkpt><trkpt lat="45.1518649" lon="8.3035899"><ele>207.0</ele><time>2026-04-25T10:13:47.999Z</time></trkpt><trkpt lat="45.151891" lon="8.3034456"><ele>207.0</ele><time>2026-04-25T10:13:48.994Z</time></trkpt><trkpt lat="45.1519113" lon="8.3032834"><ele>207.0</ele><time>2026-04-25T10:13:49.998Z</time></trkpt><trkpt lat="45.1519183" lon="8.3031024"><ele>207.0</ele><time>2026-04-25T10:13:50.996Z</time></trkpt><trkpt lat="45.1519193" lon="8.30292"><ele>206.75</ele><time>2026-04-25T10:13:52.032Z</time></trkpt><trkpt lat="45.1519204" lon="8.3027326"><ele>206.5</ele><time>2026-04-25T10:13:52.993Z</time></trkpt><trkpt lat="45.1519115" lon="8.3025617"><ele>206.25</ele><time>2026-04-25T10:13:54.006Z</time></trkpt><trkpt lat="45.1519082" lon="8.3024049"><ele>206.0</ele><time>2026-04-25T10:13:54.993Z</time></trkpt><trkpt lat="45.1518977" lon="8.3022679"><ele>206.8</ele><time>2026-04-25T10:13:55.994Z</time></trkpt><trkpt lat="45.1518809" lon="8.3021376"><ele>207.60000000000002</ele><time>2026-04-25T10:13:57.002Z</time></trkpt><trkpt lat="45.1518715" lon="8.3020004"><ele>208.4</ele><time>2026-04-25T10:13:57.999Z</time></trkpt><trkpt lat="45.1518583" lon="8.301848"><ele>209.2</ele><time>2026-04-25T10:13:59.002Z</time></trkpt><trkpt lat="45.1518592" lon="8.3016964"><ele>210.0</ele><time>2026-04-25T10:13:59.996Z</time></trkpt><trkpt lat="45.1518557" lon="8.3015674"><ele>210.0</ele><time>2026-04-25T10:14:01.001Z</time></trkpt><trkpt lat="45.1518814" lon="8.3014777"><ele>210.0</ele><time>2026-04-25T10:14:01.999Z</time></trkpt><trkpt lat="45.1519357" lon="8.3014209"><ele>210.0</ele><time>2026-04-25T10:14:03.005Z</time></trkpt><trkpt lat="45.1520147" lon="8.3013734"><ele>210.0</ele><time>2026-04-25T10:14:04.004Z</time></trkpt><trkpt lat="45.1521001" lon="8.3013201"><ele>210.0</ele><time>2026-04-25T10:14:05.007Z</time></trkpt><trkpt lat="45.1521882" lon="8.3012688"><ele>210.0</ele><time>2026-04-25T10:14:06.004Z</time></trkpt><trkpt lat="45.1522657" lon="8.3012262"><ele>210.0</ele><time>2026-04-25T10:14:07.005Z</time></trkpt><trkpt lat="45.1523371" lon="8.3011766"><ele>210.0</ele><time>2026-04-25T10:14:07.989Z</time></trkpt><trkpt lat="45.1524069" lon="8.3011132"><ele>210.0</ele><time>2026-04-25T10:14:09.004Z</time></trkpt><trkpt lat="45.1524805" lon="8.3010285"><ele>210.0</ele><time>2026-04-25T10:14:09.997Z</time></trkpt><trkpt lat="45.1525563" lon="8.3009304"><ele>210.0</ele><time>2026-04-25T10:14:11.016Z</time></trkpt><trkpt lat="45.1526349" lon="8.3008322"><ele>210.0</ele><time>2026-04-25T10:14:11.994Z</time></trkpt><trkpt lat="45.1527096" lon="8.3007403"><ele>210.0</ele><time>2026-04-25T10:14:13.004Z</time></trkpt><trkpt lat="45.1527824" lon="8.3006632"><ele>210.0</ele><time>2026-04-25T10:14:14.008Z</time></trkpt><trkpt lat="45.1528599" lon="8.3006011"><ele>210.0</ele><time>2026-04-25T10:14:15Z</time></trkpt><trkpt lat="45.1529489" lon="8.3005402"><ele>210.0</ele><time>2026-04-25T10:14:16Z</time></trkpt><trkpt lat="45.1530325" lon="8.3004873"><ele>210.0</ele><time>2026-04-25T10:14:16.995Z</time></trkpt><trkpt lat="45.1531101" lon="8.300439"><ele>210.0</ele><time>2026-04-25T10:14:17.998Z</time></trkpt><trkpt lat="45.1531849" lon="8.3003915"><ele>210.0</ele><time>2026-04-25T10:14:19.004Z</time></trkpt><trkpt lat="45.1532595" lon="8.3003447"><ele>210.0</ele><time>2026-04-25T10:14:20.007Z</time></trkpt><trkpt lat="45.1533344" lon="8.3002973"><ele>210.0</ele><time>2026-04-25T10:14:21.008Z</time></trkpt><trkpt lat="45.1534158" lon="8.3002552"><ele>210.0</ele><time>2026-04-25T10:14:22.005Z</time></trkpt><trkpt lat="45.1535072" lon="8.3002066"><ele>210.0</ele><time>2026-04-25T10:14:23.001Z</time></trkpt><trkpt lat="45.1536094" lon="8.300153"><ele>210.0</ele><time>2026-04-25T10:14:24.002Z</time></trkpt><trkpt lat="45.153709" lon="8.3001031"><ele>210.0</ele><time>2026-04-25T10:14:25.003Z</time></trkpt><trkpt lat="45.1538002" lon="8.3000705"><ele>210.0</ele><time>2026-04-25T10:14:26.004Z</time></trkpt><trkpt lat="45.1539018" lon="8.3000554"><ele>210.0</ele><time>2026-04-25T10:14:26.998Z</time></trkpt><trkpt lat="45.1540144" lon="8.3000508"><ele>209.0</ele><time>2026-04-25T10:14:27.997Z</time></trkpt><trkpt lat="45.1541238" lon="8.300057"><ele>208.0</ele><time>2026-04-25T10:14:29Z</time></trkpt><trkpt lat="45.1542175" lon="8.3000614"><ele>207.0</ele><time>2026-04-25T10:14:29.991Z</time></trkpt><trkpt lat="45.1542996" lon="8.300064"><ele>206.0</ele><time>2026-04-25T10:14:31Z</time></trkpt><trkpt lat="45.1543703" lon="8.3000286"><ele>205.0</ele><time>2026-04-25T10:14:31.998Z</time></trkpt><trkpt lat="45.1544464" lon="8.2999813"><ele>204.0</ele><time>2026-04-25T10:14:33.012Z</time></trkpt><trkpt lat="45.1545384" lon="8.2999412"><ele>204.0</ele><time>2026-04-25T10:14:33.993Z</time></trkpt><trkpt lat="45.1546165" lon="8.2999152"><ele>204.0</ele><time>2026-04-25T10:14:35Z</time></trkpt><trkpt lat="45.1546821" lon="8.2998804"><ele>204.0</ele><time>2026-04-25T10:14:35.998Z</time></trkpt><trkpt lat="45.1547502" lon="8.2998406"><ele>204.0</ele><time>2026-04-25T10:14:36.999Z</time></trkpt><trkpt lat="45.154818" lon="8.299736"><ele>204.0</ele><time>2026-04-25T10:14:37.997Z</time></trkpt><trkpt lat="45.1549042" lon="8.2996114"><ele>204.0</ele><time>2026-04-25T10:14:39.007Z</time></trkpt><trkpt lat="45.1549881" lon="8.2995003"><ele>204.6</ele><time>2026-04-25T10:14:39.993Z</time></trkpt><trkpt lat="45.1550612" lon="8.2994005"><ele>205.2</ele><time>2026-04-25T10:14:41.003Z</time></trkpt><trkpt lat="45.1551294" lon="8.2992962"><ele>205.79999999999998</ele><time>2026-04-25T10:14:41.996Z</time></trkpt><trkpt lat="45.1551993" lon="8.2991861"><ele>206.39999999999998</ele><time>2026-04-25T10:14:42.997Z</time></trkpt><trkpt lat="45.1552714" lon="8.2990374"><ele>207.0</ele><time>2026-04-25T10:14:44.003Z</time></trkpt><trkpt lat="45.1553473" lon="8.2988885"><ele>207.25</ele><time>2026-04-25T10:14:45.003Z</time></trkpt><trkpt lat="45.1554302" lon="8.2987478"><ele>207.5</ele><time>2026-04-25T10:14:46.007Z</time></trkpt><trkpt lat="45.1555212" lon="8.2986145"><ele>207.75</ele><time>2026-04-25T10:14:47.014Z</time></trkpt><trkpt lat="45.1556178" lon="8.2984905"><ele>208.0</ele><time>2026-04-25T10:14:48.001Z</time></trkpt><trkpt lat="45.1557124" lon="8.2983759"><ele>208.75</ele><time>2026-04-25T10:14:49.001Z</time></trkpt><trkpt lat="45.1557989" lon="8.2982706"><ele>209.5</ele><time>2026-04-25T10:14:49.995Z</time></trkpt><trkpt lat="45.1558829" lon="8.2981659"><ele>210.25</ele><time>2026-04-25T10:14:50.998Z</time></trkpt><trkpt lat="45.1559566" lon="8.2980458"><ele>211.0</ele><time>2026-04-25T10:14:51.998Z</time></trkpt><trkpt lat="45.1560298" lon="8.2979244"><ele>211.8</ele><time>2026-04-25T10:14:53Z</time></trkpt><trkpt lat="45.1560951" lon="8.2977991"><ele>212.60000000000002</ele><time>2026-04-25T10:14:53.997Z</time></trkpt><trkpt lat="45.1561503" lon="8.2976824"><ele>213.4</ele><time>2026-04-25T10:14:54.995Z</time></trkpt><trkpt lat="45.15619" lon="8.2975615"><ele>214.2</ele><time>2026-04-25T10:14:55.992Z</time></trkpt><trkpt lat="45.1562172" lon="8.2974392"><ele>215.0</ele><time>2026-04-25T10:14:57.029Z</time></trkpt><trkpt lat="45.1562458" lon="8.2973182"><ele>215.2</ele><time>2026-04-25T10:14:58Z</time></trkpt><trkpt lat="45.1562732" lon="8.2972002"><ele>215.4</ele><time>2026-04-25T10:14:59Z</time></trkpt><trkpt lat="45.1563005" lon="8.2970804"><ele>215.60000000000002</ele><time>2026-04-25T10:14:59.997Z</time></trkpt><trkpt lat="45.1563426" lon="8.2969464"><ele>215.8</ele><time>2026-04-25T10:15:00.997Z</time></trkpt><trkpt lat="45.1563836" lon="8.296814"><ele>216.0</ele><time>2026-04-25T10:15:02.014Z</time></trkpt><trkpt lat="45.1564401" lon="8.2966872"><ele>216.0</ele><time>2026-04-25T10:15:02.998Z</time></trkpt><trkpt lat="45.1564982" lon="8.2965572"><ele>216.0</ele><time>2026-04-25T10:15:04.002Z</time></trkpt><trkpt lat="45.1565568" lon="8.296418"><ele>216.0</ele><time>2026-04-25T10:15:04.997Z</time></trkpt><trkpt lat="45.1566123" lon="8.2962728"><ele>216.0</ele><time>2026-04-25T10:15:06.004Z</time></trkpt><trkpt lat="45.1566677" lon="8.2961219"><ele>218.25</ele><time>2026-04-25T10:15:06.998Z</time></trkpt><trkpt lat="45.1567205" lon="8.2959636"><ele>220.5</ele><time>2026-04-25T10:15:07.992Z</time></trkpt><trkpt lat="45.1567639" lon="8.2957957"><ele>222.75</ele><time>2026-04-25T10:15:08.997Z</time></trkpt><trkpt lat="45.1567955" lon="8.295618"><ele>225.0</ele><time>2026-04-25T10:15:10.002Z</time></trkpt><trkpt lat="45.156814" lon="8.2954384"><ele>225.5</ele><time>2026-04-25T10:15:11.002Z</time></trkpt><trkpt lat="45.1568269" lon="8.2952569"><ele>226.0</ele><time>2026-04-25T10:15:12.007Z</time></trkpt><trkpt lat="45.1568327" lon="8.2950755"><ele>226.5</ele><time>2026-04-25T10:15:12.998Z</time></trkpt><trkpt lat="45.1568379" lon="8.2949027"><ele>227.0</ele><time>2026-04-25T10:15:13.998Z</time></trkpt><trkpt lat="45.1568449" lon="8.2947503"><ele>227.0</ele><time>2026-04-25T10:15:14.997Z</time></trkpt><trkpt lat="45.1568581" lon="8.2946122"><ele>227.0</ele><time>2026-04-25T10:15:16.003Z</time></trkpt><trkpt lat="45.1568831" lon="8.2944918"><ele>227.0</ele><time>2026-04-25T10:15:17.011Z</time></trkpt><trkpt lat="45.156926" lon="8.2943747"><ele>227.0</ele><time>2026-04-25T10:15:18Z</time></trkpt><trkpt lat="45.1569848" lon="8.2942553"><ele>227.0</ele><time>2026-04-25T10:15:19.014Z</time></trkpt><trkpt lat="45.1570509" lon="8.2941301"><ele>227.0</ele><time>2026-04-25T10:15:19.999Z</time></trkpt><trkpt lat="45.1571225" lon="8.2940035"><ele>227.0</ele><time>2026-04-25T10:15:20.996Z</time></trkpt><trkpt lat="45.1571941" lon="8.2938818"><ele>227.0</ele><time>2026-04-25T10:15:22.003Z</time></trkpt><trkpt lat="45.1572631" lon="8.2937687"><ele>227.0</ele><time>2026-04-25T10:15:22.999Z</time></trkpt><trkpt lat="45.1573216" lon="8.2936677"><ele>227.0</ele><time>2026-04-25T10:15:24.001Z</time></trkpt><trkpt lat="45.1573736" lon="8.2935799"><ele>226.0</ele><time>2026-04-25T10:15:25.007Z</time></trkpt><trkpt lat="45.157431" lon="8.2935097"><ele>225.0</ele><time>2026-04-25T10:15:25.996Z</time></trkpt><trkpt lat="45.1575024" lon="8.2934536"><ele>224.0</ele><time>2026-04-25T10:15:27.031Z</time></trkpt><trkpt lat="45.1575927" lon="8.2933986"><ele>223.0</ele><time>2026-04-25T10:15:28Z</time></trkpt><trkpt lat="45.157695" lon="8.2933332"><ele>222.0</ele><time>2026-04-25T10:15:29.006Z</time></trkpt><trkpt lat="45.1578071" lon="8.2932587"><ele>222.0</ele><time>2026-04-25T10:15:29.997Z</time></trkpt><trkpt lat="45.1579224" lon="8.2931829"><ele>222.0</ele><time>2026-04-25T10:15:30.995Z</time></trkpt><trkpt lat="45.1580486" lon="8.293094"><ele>222.0</ele><time>2026-04-25T10:15:32.001Z</time></trkpt><trkpt lat="45.158174" lon="8.2930017"><ele>222.0</ele><time>2026-04-25T10:15:32.996Z</time></trkpt><trkpt lat="45.1582998" lon="8.2929216"><ele>221.25</ele><time>2026-04-25T10:15:34.017Z</time></trkpt><trkpt lat="45.1584252" lon="8.2928503"><ele>220.5</ele><time>2026-04-25T10:15:34.998Z</time></trkpt><trkpt lat="45.1585365" lon="8.2927768"><ele>219.75</ele><time>2026-04-25T10:15:36Z</time></trkpt><trkpt lat="45.158645" lon="8.2927051"><ele>219.0</ele><time>2026-04-25T10:15:37.003Z</time></trkpt><trkpt lat="45.1587422" lon="8.2926113"><ele>219.0</ele><time>2026-04-25T10:15:37.999Z</time></trkpt><trkpt lat="45.1588182" lon="8.2925039"><ele>218.99999999999997</ele><time>2026-04-25T10:15:39.009Z</time></trkpt><trkpt lat="45.1588847" lon="8.292389"><ele>218.99999999999997</ele><time>2026-04-25T10:15:40Z</time></trkpt><trkpt lat="45.1589594" lon="8.292289"><ele>219.0</ele><time>2026-04-25T10:15:40.998Z</time></trkpt><trkpt lat="45.1590446" lon="8.2922115"><ele>219.0</ele><time>2026-04-25T10:15:42.003Z</time></trkpt><trkpt lat="45.1591423" lon="8.2921435"><ele>219.25</ele><time>2026-04-25T10:15:43.005Z</time></trkpt><trkpt lat="45.1592473" lon="8.2920675"><ele>219.5</ele><time>2026-04-25T10:15:44.011Z</time></trkpt><trkpt lat="45.1593512" lon="8.2919841"><ele>219.75</ele><time>2026-04-25T10:15:45.005Z</time></trkpt><trkpt lat="45.1594459" lon="8.2919012"><ele>220.0</ele><time>2026-04-25T10:15:46.01Z</time></trkpt><trkpt lat="45.1595329" lon="8.2918273"><ele>220.0</ele><time>2026-04-25T10:15:46.998Z</time></trkpt><trkpt lat="45.1596113" lon="8.2917716"><ele>220.0</ele><time>2026-04-25T10:15:48.004Z</time></trkpt><trkpt lat="45.1596782" lon="8.2917352"><ele>220.0</ele><time>2026-04-25T10:15:48.997Z</time></trkpt><trkpt lat="45.1598045" lon="8.2917175"><ele>220.0</ele><time>2026-04-25T10:15:51Z</time></trkpt><trkpt lat="45.1598832" lon="8.2917726"><ele>220.0</ele><time>2026-04-25T10:15:51.996Z</time></trkpt><trkpt lat="45.1599693" lon="8.2918708"><ele>220.25</ele><time>2026-04-25T10:15:53.006Z</time></trkpt><trkpt lat="45.1600538" lon="8.2919969"><ele>220.5</ele><time>2026-04-25T10:15:53.994Z</time></trkpt><trkpt lat="45.1601561" lon="8.2921231"><ele>220.75</ele><time>2026-04-25T10:15:54.998Z</time></trkpt><trkpt lat="45.160274" lon="8.2922372"><ele>221.0</ele><time>2026-04-25T10:15:56.007Z</time></trkpt><trkpt lat="45.1603939" lon="8.2923555"><ele>220.33333333333334</ele><time>2026-04-25T10:15:57.007Z</time></trkpt><trkpt lat="45.1605404" lon="8.2924241"><ele>219.66666666666669</ele><time>2026-04-25T10:15:58.035Z</time></trkpt><trkpt lat="45.1606979" lon="8.2924572"><ele>219.0</ele><time>2026-04-25T10:15:58.997Z</time></trkpt><trkpt lat="45.1608574" lon="8.2924571"><ele>219.0</ele><time>2026-04-25T10:15:59.996Z</time></trkpt><trkpt lat="45.1610133" lon="8.2924099"><ele>219.0</ele><time>2026-04-25T10:16:01.002Z</time></trkpt><trkpt lat="45.1611633" lon="8.2923293"><ele>219.0</ele><time>2026-04-25T10:16:01.997Z</time></trkpt><trkpt lat="45.1613067" lon="8.2922172"><ele>218.66666666666669</ele><time>2026-04-25T10:16:02.993Z</time></trkpt><trkpt lat="45.1614508" lon="8.2920842"><ele>218.33333333333334</ele><time>2026-04-25T10:16:04.008Z</time></trkpt><trkpt lat="45.1615834" lon="8.2919027"><ele>218.0</ele><time>2026-04-25T10:16:04.992Z</time></trkpt><trkpt lat="45.1617058" lon="8.2917276"><ele>218.0</ele><time>2026-04-25T10:16:05.998Z</time></trkpt><trkpt lat="45.1618129" lon="8.2915286"><ele>218.0</ele><time>2026-04-25T10:16:07Z</time></trkpt><trkpt lat="45.1619125" lon="8.2913131"><ele>218.0</ele><time>2026-04-25T10:16:07.996Z</time></trkpt><trkpt lat="45.1620066" lon="8.2910943"><ele>219.66666666666669</ele><time>2026-04-25T10:16:08.999Z</time></trkpt><trkpt lat="45.1620934" lon="8.2908842"><ele>221.33333333333331</ele><time>2026-04-25T10:16:09.999Z</time></trkpt><trkpt lat="45.162174" lon="8.2906831"><ele>223.0</ele><time>2026-04-25T10:16:10.994Z</time></trkpt><trkpt lat="45.1622592" lon="8.2904899"><ele>224.33333333333331</ele><time>2026-04-25T10:16:12.041Z</time></trkpt><trkpt lat="45.1623541" lon="8.2903159"><ele>225.66666666666669</ele><time>2026-04-25T10:16:12.998Z</time></trkpt><trkpt lat="45.1624651" lon="8.2901683"><ele>227.0</ele><time>2026-04-25T10:16:13.998Z</time></trkpt><trkpt lat="45.1625877" lon="8.2900456"><ele>223.0</ele><time>2026-04-25T10:16:14.998Z</time></trkpt><trkpt lat="45.1627223" lon="8.2899584"><ele>219.0</ele><time>2026-04-25T10:16:15.999Z</time></trkpt><trkpt lat="45.1628719" lon="8.2899069"><ele>215.0</ele><time>2026-04-25T10:16:17.005Z</time></trkpt><trkpt lat="45.1630328" lon="8.289896"><ele>212.0</ele><time>2026-04-25T10:16:17.998Z</time></trkpt><trkpt lat="45.1631978" lon="8.2899209"><ele>209.0</ele><time>2026-04-25T10:16:19.007Z</time></trkpt><trkpt lat="45.1633554" lon="8.2899824"><ele>206.0</ele><time>2026-04-25T10:16:19.995Z</time></trkpt><trkpt lat="45.1635046" lon="8.2900855"><ele>206.0</ele><time>2026-04-25T10:16:20.994Z</time></trkpt><trkpt lat="45.1636356" lon="8.2902338"><ele>206.0</ele><time>2026-04-25T10:16:21.99Z</time></trkpt><trkpt lat="45.1637408" lon="8.2904216"><ele>206.0</ele><time>2026-04-25T10:16:22.994Z</time></trkpt><trkpt lat="45.1638202" lon="8.2906342"><ele>203.33333333333334</ele><time>2026-04-25T10:16:23.999Z</time></trkpt><trkpt lat="45.1638767" lon="8.2908483"><ele>200.66666666666669</ele><time>2026-04-25T10:16:25.006Z</time></trkpt><trkpt lat="45.1639354" lon="8.2910515"><ele>198.0</ele><time>2026-04-25T10:16:25.988Z</time></trkpt><trkpt lat="45.1640116" lon="8.291235"><ele>198.25</ele><time>2026-04-25T10:16:26.998Z</time></trkpt><trkpt lat="45.1641027" lon="8.2913949"><ele>198.5</ele><time>2026-04-25T10:16:27.999Z</time></trkpt><trkpt lat="45.1642069" lon="8.2915313"><ele>198.75</ele><time>2026-04-25T10:16:28.994Z</time></trkpt><trkpt lat="45.1643262" lon="8.2916429"><ele>199.0</ele><time>2026-04-25T10:16:29.998Z</time></trkpt><trkpt lat="45.1644583" lon="8.2917304"><ele>199.0</ele><time>2026-04-25T10:16:30.992Z</time></trkpt><trkpt lat="45.1645961" lon="8.2917849"><ele>199.0</ele><time>2026-04-25T10:16:31.995Z</time></trkpt><trkpt lat="45.1647312" lon="8.2918063"><ele>199.0</ele><time>2026-04-25T10:16:32.997Z</time></trkpt><trkpt lat="45.1648613" lon="8.2917805"><ele>199.0</ele><time>2026-04-25T10:16:33.997Z</time></trkpt><trkpt lat="45.1649832" lon="8.2917047"><ele>199.25</ele><time>2026-04-25T10:16:34.997Z</time></trkpt><trkpt lat="45.165099" lon="8.291587"><ele>199.5</ele><time>2026-04-25T10:16:35.996Z</time></trkpt><trkpt lat="45.165216" lon="8.2914525"><ele>199.75</ele><time>2026-04-25T10:16:37.004Z</time></trkpt><trkpt lat="45.1653293" lon="8.2913201"><ele>200.0</ele><time>2026-04-25T10:16:37.995Z</time></trkpt><trkpt lat="45.1654287" lon="8.2911742"><ele>205.33333333333334</ele><time>2026-04-25T10:16:38.999Z</time></trkpt><trkpt lat="45.1655133" lon="8.2910008"><ele>210.66666666666669</ele><time>2026-04-25T10:16:40Z</time></trkpt><trkpt lat="45.1655803" lon="8.2907999"><ele>216.0</ele><time>2026-04-25T10:16:40.996Z</time></trkpt><trkpt lat="45.1656433" lon="8.2906061"><ele>209.0</ele><time>2026-04-25T10:16:42.004Z</time></trkpt><trkpt lat="45.1657081" lon="8.2903718"><ele>202.0</ele><time>2026-04-25T10:16:42.998Z</time></trkpt><trkpt lat="45.1657695" lon="8.290136"><ele>195.0</ele><time>2026-04-25T10:16:44.006Z</time></trkpt><trkpt lat="45.1658277" lon="8.2899"><ele>196.66666666666669</ele><time>2026-04-25T10:16:44.995Z</time></trkpt><trkpt lat="45.1658889" lon="8.2896642"><ele>198.33333333333334</ele><time>2026-04-25T10:16:46.004Z</time></trkpt><trkpt lat="45.1659475" lon="8.2894365"><ele>200.0</ele><time>2026-04-25T10:16:46.995Z</time></trkpt><trkpt lat="45.1660014" lon="8.2892271"><ele>200.0</ele><time>2026-04-25T10:16:47.995Z</time></trkpt><trkpt lat="45.166054" lon="8.289021"><ele>200.0</ele><time>2026-04-25T10:16:48.995Z</time></trkpt><trkpt lat="45.1661095" lon="8.2888056"><ele>200.0</ele><time>2026-04-25T10:16:50.001Z</time></trkpt><trkpt lat="45.1661689" lon="8.2885825"><ele>201.33333333333334</ele><time>2026-04-25T10:16:51.007Z</time></trkpt><trkpt lat="45.1662331" lon="8.288355"><ele>202.66666666666669</ele><time>2026-04-25T10:16:51.993Z</time></trkpt><trkpt lat="45.1663052" lon="8.2881217"><ele>204.0</ele><time>2026-04-25T10:16:52.998Z</time></trkpt><trkpt lat="45.1663889" lon="8.2878846"><ele>204.66666666666669</ele><time>2026-04-25T10:16:53.998Z</time></trkpt><trkpt lat="45.1664728" lon="8.2876587"><ele>205.33333333333334</ele><time>2026-04-25T10:16:55.002Z</time></trkpt><trkpt lat="45.1665658" lon="8.2874522"><ele>206.0</ele><time>2026-04-25T10:16:55.996Z</time></trkpt><trkpt lat="45.1666637" lon="8.2872613"><ele>199.0</ele><time>2026-04-25T10:16:57.011Z</time></trkpt><trkpt lat="45.1668018" lon="8.2871141"><ele>192.0</ele><time>2026-04-25T10:16:57.997Z</time></trkpt><trkpt lat="45.1669538" lon="8.2870046"><ele>185.0</ele><time>2026-04-25T10:16:59.003Z</time></trkpt><trkpt lat="45.1671216" lon="8.2869461"><ele>185.0</ele><time>2026-04-25T10:16:59.995Z</time></trkpt><trkpt lat="45.167294" lon="8.2869394"><ele>185.0</ele><time>2026-04-25T10:17:00.995Z</time></trkpt><trkpt lat="45.1674615" lon="8.2869756"><ele>185.0</ele><time>2026-04-25T10:17:01.996Z</time></trkpt><trkpt lat="45.1676135" lon="8.2870178"><ele>184.75</ele><time>2026-04-25T10:17:02.996Z</time></trkpt><trkpt lat="45.1677521" lon="8.2870862"><ele>184.5</ele><time>2026-04-25T10:17:04.014Z</time></trkpt><trkpt lat="45.1678901" lon="8.2871555"><ele>184.25</ele><time>2026-04-25T10:17:05Z</time></trkpt><trkpt lat="45.1680287" lon="8.2872143"><ele>184.0</ele><time>2026-04-25T10:17:05.995Z</time></trkpt><trkpt lat="45.1681603" lon="8.2872721"><ele>186.0</ele><time>2026-04-25T10:17:06.991Z</time></trkpt><trkpt lat="45.1682983" lon="8.2873363"><ele>188.0</ele><time>2026-04-25T10:17:07.997Z</time></trkpt><trkpt lat="45.1684339" lon="8.2874047"><ele>190.0</ele><time>2026-04-25T10:17:08.993Z</time></trkpt><trkpt lat="45.1685668" lon="8.2874791"><ele>192.0</ele><time>2026-04-25T10:17:09.996Z</time></trkpt><trkpt lat="45.1687006" lon="8.2875261"><ele>192.0</ele><time>2026-04-25T10:17:11.002Z</time></trkpt><trkpt lat="45.1688214" lon="8.2875629"><ele>192.0</ele><time>2026-04-25T10:17:12Z</time></trkpt><trkpt lat="45.1689224" lon="8.2875604"><ele>192.0</ele><time>2026-04-25T10:17:13.006Z</time></trkpt><trkpt lat="45.1690134" lon="8.2875526"><ele>192.0</ele><time>2026-04-25T10:17:13.994Z</time></trkpt><trkpt lat="45.1690774" lon="8.2875353"><ele>192.0</ele><time>2026-04-25T10:17:14.996Z</time></trkpt><trkpt lat="45.1691475" lon="8.2875378"><ele>191.39999999999998</ele><time>2026-04-25T10:17:17.003Z</time></trkpt><trkpt lat="45.1691365" lon="8.2876592"><ele>190.79999999999998</ele><time>2026-04-25T10:17:19.994Z</time></trkpt><trkpt lat="45.169132" lon="8.2878236"><ele>190.2</ele><time>2026-04-25T10:17:21.997Z</time></trkpt><trkpt lat="45.1691172" lon="8.2879117"><ele>189.6</ele><time>2026-04-25T10:17:23.001Z</time></trkpt><trkpt lat="45.1690675" lon="8.2880685"><ele>189.0</ele><time>2026-04-25T10:17:27.008Z</time></trkpt><trkpt lat="45.1691185" lon="8.2881677"><ele>188.16666666666666</ele><time>2026-04-25T10:17:29.001Z</time></trkpt><trkpt lat="45.1691747" lon="8.2882594"><ele>187.33333333333334</ele><time>2026-04-25T10:17:30.991Z</time></trkpt><trkpt lat="45.1691886" lon="8.288372"><ele>186.5</ele><time>2026-04-25T10:17:42.005Z</time></trkpt><trkpt lat="45.1692298" lon="8.2884556"><ele>185.66666666666669</ele><time>2026-04-25T10:17:43.99Z</time></trkpt><trkpt lat="45.1692919" lon="8.2885141"><ele>184.83333333333334</ele><time>2026-04-25T10:17:45.995Z</time></trkpt><trkpt lat="45.1693814" lon="8.2886234"><ele>184.0</ele><time>2026-04-25T10:17:50.994Z</time></trkpt><trkpt lat="45.1694518" lon="8.2887436"><ele>184.0</ele><time>2026-04-25T10:17:53.002Z</time></trkpt><trkpt lat="45.1694971" lon="8.2888616"><ele>184.0</ele><time>2026-04-25T10:17:54.996Z</time></trkpt><trkpt lat="45.1695702" lon="8.2890976"><ele>184.0</ele><time>2026-04-25T10:17:59.989Z</time></trkpt><trkpt lat="45.1697109" lon="8.289158"><ele>184.0</ele><time>2026-04-25T10:18:04.996Z</time></trkpt><trkpt lat="45.1697959" lon="8.2892025"><ele>180.0</ele><time>2026-04-25T10:18:07.993Z</time></trkpt><trkpt lat="45.1698845" lon="8.2892676"><ele>176.0</ele><time>2026-04-25T10:18:10.004Z</time></trkpt><trkpt lat="45.1699512" lon="8.2893512"><ele>172.0</ele><time>2026-04-25T10:18:13.005Z</time></trkpt><trkpt lat="45.1700226" lon="8.2893947"><ele>168.0</ele><time>2026-04-25T10:18:16.004Z</time></trkpt><trkpt lat="45.1700975" lon="8.2894473"><ele>164.0</ele><time>2026-04-25T10:18:18.003Z</time></trkpt><trkpt lat="45.1701907" lon="8.2894848"><ele>160.0</ele><time>2026-04-25T10:18:20.995Z</time></trkpt><trkpt lat="45.1702437" lon="8.2895707"><ele>160.0</ele><time>2026-04-25T10:18:24.001Z</time></trkpt><trkpt lat="45.1704348" lon="8.2895571"><ele>160.0</ele><time>2026-04-25T10:18:30.996Z</time></trkpt><trkpt lat="45.1705467" lon="8.2896045"><ele>160.0</ele><time>2026-04-25T10:18:34.999Z</time></trkpt><trkpt lat="45.1706049" lon="8.2895498"><ele>160.0</ele><time>2026-04-25T10:18:37.009Z</time></trkpt><trkpt lat="45.1706703" lon="8.2894805"><ele>157.4</ele><time>2026-04-25T10:18:38.997Z</time></trkpt><trkpt lat="45.1707781" lon="8.2894091"><ele>154.8</ele><time>2026-04-25T10:18:40.997Z</time></trkpt><trkpt lat="45.1708582" lon="8.289315"><ele>152.2</ele><time>2026-04-25T10:18:43.004Z</time></trkpt><trkpt lat="45.1709238" lon="8.2891892"><ele>149.6</ele><time>2026-04-25T10:18:44.996Z</time></trkpt><trkpt lat="45.1709706" lon="8.28908"><ele>147.0</ele><time>2026-04-25T10:18:46.996Z</time></trkpt><trkpt lat="45.1710029" lon="8.288979"><ele>147.79999999999998</ele><time>2026-04-25T10:18:48.999Z</time></trkpt><trkpt lat="45.171034" lon="8.2888433"><ele>148.6</ele><time>2026-04-25T10:18:51.004Z</time></trkpt><trkpt lat="45.1710687" lon="8.2887184"><ele>149.39999999999998</ele><time>2026-04-25T10:18:52.992Z</time></trkpt><trkpt lat="45.1711297" lon="8.2885937"><ele>150.2</ele><time>2026-04-25T10:18:55.008Z</time></trkpt><trkpt lat="45.1711853" lon="8.288483"><ele>151.0</ele><time>2026-04-25T10:18:57.012Z</time></trkpt><trkpt lat="45.1712284" lon="8.2884118"><ele>151.0</ele><time>2026-04-25T10:18:57.991Z</time></trkpt><trkpt lat="45.1712791" lon="8.28835"><ele>151.0</ele><time>2026-04-25T10:18:58.999Z</time></trkpt><trkpt lat="45.1713664" lon="8.2882371"><ele>151.0</ele><time>2026-04-25T10:19:00.998Z</time></trkpt><trkpt lat="45.1714196" lon="8.2881773"><ele>151.0</ele><time>2026-04-25T10:19:02Z</time></trkpt><trkpt lat="45.1714899" lon="8.2880453"><ele>151.0</ele><time>2026-04-25T10:19:03.996Z</time></trkpt><trkpt lat="45.1715727" lon="8.2879416"><ele>149.4</ele><time>2026-04-25T10:19:06.006Z</time></trkpt><trkpt lat="45.1716444" lon="8.2879007"><ele>147.8</ele><time>2026-04-25T10:19:08.007Z</time></trkpt><trkpt lat="45.1717441" lon="8.2879812"><ele>146.20000000000002</ele><time>2026-04-25T10:19:11.002Z</time></trkpt><trkpt lat="45.1717823" lon="8.2880834"><ele>144.6</ele><time>2026-04-25T10:19:11.999Z</time></trkpt><trkpt lat="45.1718382" lon="8.2882039"><ele>143.0</ele><time>2026-04-25T10:19:13.002Z</time></trkpt><trkpt lat="45.1719185" lon="8.2883353"><ele>142.33333333333331</ele><time>2026-04-25T10:19:14.012Z</time></trkpt><trkpt lat="45.1720251" lon="8.2884734"><ele>141.66666666666666</ele><time>2026-04-25T10:19:15.001Z</time></trkpt><trkpt lat="45.1721529" lon="8.2886031"><ele>141.0</ele><time>2026-04-25T10:19:15.994Z</time></trkpt><trkpt lat="45.1722884" lon="8.2887412"><ele>138.0</ele><time>2026-04-25T10:19:16.996Z</time></trkpt><trkpt lat="45.1724575" lon="8.2888656"><ele>135.0</ele><time>2026-04-25T10:19:18.002Z</time></trkpt><trkpt lat="45.1726306" lon="8.2890025"><ele>132.0</ele><time>2026-04-25T10:19:19.002Z</time></trkpt><trkpt lat="45.1728135" lon="8.2891402"><ele>131.66666666666666</ele><time>2026-04-25T10:19:20.008Z</time></trkpt><trkpt lat="45.1730019" lon="8.2892845"><ele>131.33333333333331</ele><time>2026-04-25T10:19:21.005Z</time></trkpt><trkpt lat="45.1731911" lon="8.2894299"><ele>131.0</ele><time>2026-04-25T10:19:22.009Z</time></trkpt><trkpt lat="45.1733741" lon="8.2895759"><ele>131.66666666666666</ele><time>2026-04-25T10:19:23.006Z</time></trkpt><trkpt lat="45.1735516" lon="8.2897267"><ele>132.33333333333334</ele><time>2026-04-25T10:19:23.997Z</time></trkpt><trkpt lat="45.1737174" lon="8.2898928"><ele>133.0</ele><time>2026-04-25T10:19:25.004Z</time></trkpt><trkpt lat="45.1738692" lon="8.290076"><ele>133.0</ele><time>2026-04-25T10:19:25.996Z</time></trkpt><trkpt lat="45.1740062" lon="8.2902727"><ele>133.0</ele><time>2026-04-25T10:19:27Z</time></trkpt><trkpt lat="45.1741328" lon="8.2904793"><ele>133.0</ele><time>2026-04-25T10:19:27.993Z</time></trkpt><trkpt lat="45.1742526" lon="8.2906972"><ele>132.33333333333334</ele><time>2026-04-25T10:19:29.002Z</time></trkpt><trkpt lat="45.1743707" lon="8.2909022"><ele>131.66666666666666</ele><time>2026-04-25T10:19:30.005Z</time></trkpt><trkpt lat="45.1744946" lon="8.2911179"><ele>131.0</ele><time>2026-04-25T10:19:31.006Z</time></trkpt><trkpt lat="45.1746313" lon="8.2913266"><ele>129.0</ele><time>2026-04-25T10:19:32.01Z</time></trkpt><trkpt lat="45.1747532" lon="8.2915485"><ele>127.0</ele><time>2026-04-25T10:19:32.996Z</time></trkpt><trkpt lat="45.1748785" lon="8.2917684"><ele>125.0</ele><time>2026-04-25T10:19:34.003Z</time></trkpt><trkpt lat="45.1750033" lon="8.2919872"><ele>124.66666666666666</ele><time>2026-04-25T10:19:35.011Z</time></trkpt><trkpt lat="45.1751279" lon="8.2922073"><ele>124.33333333333334</ele><time>2026-04-25T10:19:36.007Z</time></trkpt><trkpt lat="45.1752599" lon="8.2924195"><ele>124.0</ele><time>2026-04-25T10:19:36.994Z</time></trkpt><trkpt lat="45.1753843" lon="8.2926312"><ele>124.0</ele><time>2026-04-25T10:19:38.034Z</time></trkpt><trkpt lat="45.1755067" lon="8.2928437"><ele>124.0</ele><time>2026-04-25T10:19:39.002Z</time></trkpt><trkpt lat="45.1756073" lon="8.2930449"><ele>124.0</ele><time>2026-04-25T10:19:39.998Z</time></trkpt><trkpt lat="45.17572" lon="8.2932733"><ele>125.33333333333334</ele><time>2026-04-25T10:19:40.999Z</time></trkpt><trkpt lat="45.1758356" lon="8.2934711"><ele>126.66666666666666</ele><time>2026-04-25T10:19:42.01Z</time></trkpt><trkpt lat="45.1759637" lon="8.293641"><ele>128.0</ele><time>2026-04-25T10:19:43.004Z</time></trkpt><trkpt lat="45.1761119" lon="8.2937836"><ele>128.0</ele><time>2026-04-25T10:19:44.016Z</time></trkpt><trkpt lat="45.1762745" lon="8.2938965"><ele>128.0</ele><time>2026-04-25T10:19:44.999Z</time></trkpt><trkpt lat="45.1764396" lon="8.2939869"><ele>128.0</ele><time>2026-04-25T10:19:45.999Z</time></trkpt><trkpt lat="45.1766096" lon="8.2940711"><ele>128.33333333333331</ele><time>2026-04-25T10:19:47.003Z</time></trkpt><trkpt lat="45.1767814" lon="8.2941586"><ele>128.66666666666666</ele><time>2026-04-25T10:19:47.997Z</time></trkpt><trkpt lat="45.1769529" lon="8.2942468"><ele>129.0</ele><time>2026-04-25T10:19:48.996Z</time></trkpt><trkpt lat="45.1771275" lon="8.2943345"><ele>129.0</ele><time>2026-04-25T10:19:50Z</time></trkpt><trkpt lat="45.1773043" lon="8.2944199"><ele>129.0</ele><time>2026-04-25T10:19:50.998Z</time></trkpt><trkpt lat="45.177483" lon="8.294505"><ele>129.0</ele><time>2026-04-25T10:19:51.999Z</time></trkpt><trkpt lat="45.1776605" lon="8.2945935"><ele>129.0</ele><time>2026-04-25T10:19:53Z</time></trkpt><trkpt lat="45.1778327" lon="8.2946778"><ele>129.0</ele><time>2026-04-25T10:19:53.995Z</time></trkpt><trkpt lat="45.1779945" lon="8.2947567"><ele>129.0</ele><time>2026-04-25T10:19:54.999Z</time></trkpt><trkpt lat="45.1781422" lon="8.2948299"><ele>128.6</ele><time>2026-04-25T10:19:56.002Z</time></trkpt><trkpt lat="45.1782765" lon="8.2948926"><ele>128.2</ele><time>2026-04-25T10:19:57.006Z</time></trkpt><trkpt lat="45.1783918" lon="8.2949432"><ele>127.79999999999998</ele><time>2026-04-25T10:19:58.002Z</time></trkpt><trkpt lat="45.1784833" lon="8.2949859"><ele>127.39999999999999</ele><time>2026-04-25T10:19:58.999Z</time></trkpt><trkpt lat="45.1785574" lon="8.2950252"><ele>127.0</ele><time>2026-04-25T10:19:59.999Z</time></trkpt><trkpt lat="45.1786192" lon="8.2950458"><ele>127.00000000000001</ele><time>2026-04-25T10:20:01Z</time></trkpt><trkpt lat="45.1786974" lon="8.2949913"><ele>127.0</ele><time>2026-04-25T10:20:04.007Z</time></trkpt><trkpt lat="45.1786589" lon="8.2949113"><ele>127.0</ele><time>2026-04-25T10:20:06.003Z</time></trkpt><trkpt lat="45.178569" lon="8.2948907"><ele>127.0</ele><time>2026-04-25T10:20:08.001Z</time></trkpt><trkpt lat="45.1784984" lon="8.2948539"><ele>127.00000000000001</ele><time>2026-04-25T10:20:09.008Z</time></trkpt><trkpt lat="45.1784229" lon="8.2948045"><ele>127.0</ele><time>2026-04-25T10:20:10.009Z</time></trkpt><trkpt lat="45.1783557" lon="8.294758"><ele>127.0</ele><time>2026-04-25T10:20:11.037Z</time></trkpt><trkpt lat="45.1783026" lon="8.2947058"><ele>126.99999999999999</ele><time>2026-04-25T10:20:12.007Z</time></trkpt><trkpt lat="45.1782388" lon="8.2945767"><ele>126.99999999999999</ele><time>2026-04-25T10:20:13.998Z</time></trkpt><trkpt lat="45.1782422" lon="8.2944178"><ele>127.0</ele><time>2026-04-25T10:20:16.001Z</time></trkpt><trkpt lat="45.178277" lon="8.294302"><ele>127.0</ele><time>2026-04-25T10:20:16.998Z</time></trkpt><trkpt lat="45.178343" lon="8.2941607"><ele>127.0</ele><time>2026-04-25T10:20:18.014Z</time></trkpt><trkpt lat="45.1784101" lon="8.2940129"><ele>127.0</ele><time>2026-04-25T10:20:18.993Z</time></trkpt><trkpt lat="45.1784893" lon="8.2938133"><ele>127.0</ele><time>2026-04-25T10:20:20.005Z</time></trkpt><trkpt lat="45.1785763" lon="8.29361"><ele>126.66666666666667</ele><time>2026-04-25T10:20:20.998Z</time></trkpt><trkpt lat="45.1786679" lon="8.2934"><ele>126.33333333333334</ele><time>2026-04-25T10:20:22.002Z</time></trkpt><trkpt lat="45.1787596" lon="8.2931792"><ele>126.0</ele><time>2026-04-25T10:20:23.005Z</time></trkpt><trkpt lat="45.1788581" lon="8.2929445"><ele>126.33333333333334</ele><time>2026-04-25T10:20:24Z</time></trkpt><trkpt lat="45.1789619" lon="8.2926913"><ele>126.66666666666667</ele><time>2026-04-25T10:20:24.999Z</time></trkpt><trkpt lat="45.1790701" lon="8.2924244"><ele>127.0</ele><time>2026-04-25T10:20:25.999Z</time></trkpt><trkpt lat="45.1791856" lon="8.2921467"><ele>127.5</ele><time>2026-04-25T10:20:27.003Z</time></trkpt><trkpt lat="45.1793035" lon="8.2918573"><ele>128.0</ele><time>2026-04-25T10:20:27.996Z</time></trkpt><trkpt lat="45.1794203" lon="8.29157"><ele>128.0</ele><time>2026-04-25T10:20:29.022Z</time></trkpt><trkpt lat="45.1795354" lon="8.2912888"><ele>128.0</ele><time>2026-04-25T10:20:29.996Z</time></trkpt><trkpt lat="45.1796485" lon="8.2910128"><ele>128.0</ele><time>2026-04-25T10:20:31.007Z</time></trkpt><trkpt lat="45.1797565" lon="8.29075"><ele>128.0</ele><time>2026-04-25T10:20:31.992Z</time></trkpt><trkpt lat="45.1798613" lon="8.2904965"><ele>128.0</ele><time>2026-04-25T10:20:32.998Z</time></trkpt><trkpt lat="45.179963" lon="8.2902507"><ele>128.0</ele><time>2026-04-25T10:20:33.997Z</time></trkpt><trkpt lat="45.1800642" lon="8.2900011"><ele>128.0</ele><time>2026-04-25T10:20:35.004Z</time></trkpt><trkpt lat="45.1801668" lon="8.2897512"><ele>128.0</ele><time>2026-04-25T10:20:36Z</time></trkpt><trkpt lat="45.18027" lon="8.2895005"><ele>128.33333333333331</ele><time>2026-04-25T10:20:37.004Z</time></trkpt><trkpt lat="45.1803685" lon="8.2892655"><ele>128.66666666666666</ele><time>2026-04-25T10:20:38.012Z</time></trkpt><trkpt lat="45.1804606" lon="8.2890513"><ele>129.0</ele><time>2026-04-25T10:20:38.998Z</time></trkpt><trkpt lat="45.1805428" lon="8.2888627"><ele>128.75</ele><time>2026-04-25T10:20:39.996Z</time></trkpt><trkpt lat="45.180611" lon="8.2887062"><ele>128.5</ele><time>2026-04-25T10:20:40.996Z</time></trkpt><trkpt lat="45.1806828" lon="8.288573"><ele>128.25</ele><time>2026-04-25T10:20:41.992Z</time></trkpt><trkpt lat="45.1807765" lon="8.288454"><ele>128.0</ele><time>2026-04-25T10:20:42.999Z</time></trkpt><trkpt lat="45.1808921" lon="8.2883421"><ele>128.0</ele><time>2026-04-25T10:20:44.005Z</time></trkpt><trkpt lat="45.1810241" lon="8.2882267"><ele>128.0</ele><time>2026-04-25T10:20:45.001Z</time></trkpt><trkpt lat="45.1811675" lon="8.2880987"><ele>128.0</ele><time>2026-04-25T10:20:46.002Z</time></trkpt><trkpt lat="45.1813202" lon="8.2879656"><ele>128.0</ele><time>2026-04-25T10:20:47.005Z</time></trkpt><trkpt lat="45.181462" lon="8.2878443"><ele>128.0</ele><time>2026-04-25T10:20:47.995Z</time></trkpt><trkpt lat="45.1815933" lon="8.2877332"><ele>128.0</ele><time>2026-04-25T10:20:49.009Z</time></trkpt><trkpt lat="45.1817162" lon="8.2876284"><ele>128.0</ele><time>2026-04-25T10:20:50.004Z</time></trkpt><trkpt lat="45.1818273" lon="8.2875248"><ele>128.0</ele><time>2026-04-25T10:20:50.999Z</time></trkpt><trkpt lat="45.1819265" lon="8.2874082"><ele>128.0</ele><time>2026-04-25T10:20:51.995Z</time></trkpt><trkpt lat="45.1820103" lon="8.287274"><ele>128.0</ele><time>2026-04-25T10:20:53.001Z</time></trkpt><trkpt lat="45.1820835" lon="8.2871117"><ele>128.0</ele><time>2026-04-25T10:20:53.999Z</time></trkpt><trkpt lat="45.182152" lon="8.2869133"><ele>128.0</ele><time>2026-04-25T10:20:55.003Z</time></trkpt><trkpt lat="45.1822232" lon="8.2866827"><ele>128.0</ele><time>2026-04-25T10:20:56.01Z</time></trkpt><trkpt lat="45.1822939" lon="8.2864415"><ele>128.0</ele><time>2026-04-25T10:20:57.006Z</time></trkpt><trkpt lat="45.1823604" lon="8.286199"><ele>128.0</ele><time>2026-04-25T10:20:58.002Z</time></trkpt><trkpt lat="45.1824246" lon="8.2859684"><ele>128.0</ele><time>2026-04-25T10:20:58.998Z</time></trkpt><trkpt lat="45.1824868" lon="8.285757"><ele>128.75</ele><time>2026-04-25T10:21:00.007Z</time></trkpt><trkpt lat="45.1825447" lon="8.2855695"><ele>129.5</ele><time>2026-04-25T10:21:00.999Z</time></trkpt><trkpt lat="45.182603" lon="8.2854024"><ele>130.25</ele><time>2026-04-25T10:21:01.996Z</time></trkpt><trkpt lat="45.1826589" lon="8.2852493"><ele>131.0</ele><time>2026-04-25T10:21:03.002Z</time></trkpt><trkpt lat="45.1827225" lon="8.2851227"><ele>131.0</ele><time>2026-04-25T10:21:03.998Z</time></trkpt><trkpt lat="45.1827817" lon="8.2850003"><ele>131.0</ele><time>2026-04-25T10:21:05.006Z</time></trkpt><trkpt lat="45.182819" lon="8.2848558"><ele>131.0</ele><time>2026-04-25T10:21:06.003Z</time></trkpt><trkpt lat="45.1828449" lon="8.284694"><ele>131.0</ele><time>2026-04-25T10:21:07.002Z</time></trkpt><trkpt lat="45.1828799" lon="8.2845132"><ele>130.66666666666666</ele><time>2026-04-25T10:21:07.998Z</time></trkpt><trkpt lat="45.1829345" lon="8.2843187"><ele>130.33333333333334</ele><time>2026-04-25T10:21:08.997Z</time></trkpt><trkpt lat="45.1830013" lon="8.2840865"><ele>130.0</ele><time>2026-04-25T10:21:10.007Z</time></trkpt><trkpt lat="45.1830733" lon="8.2838416"><ele>129.66666666666669</ele><time>2026-04-25T10:21:11.009Z</time></trkpt><trkpt lat="45.1831419" lon="8.2836117"><ele>129.33333333333334</ele><time>2026-04-25T10:21:11.996Z</time></trkpt><trkpt lat="45.1832053" lon="8.2833914"><ele>129.0</ele><time>2026-04-25T10:21:13.008Z</time></trkpt><trkpt lat="45.1832674" lon="8.2831806"><ele>129.25</ele><time>2026-04-25T10:21:14Z</time></trkpt><trkpt lat="45.1833251" lon="8.2829821"><ele>129.5</ele><time>2026-04-25T10:21:15.004Z</time></trkpt><trkpt lat="45.18338" lon="8.2827927"><ele>129.75</ele><time>2026-04-25T10:21:16Z</time></trkpt><trkpt lat="45.1834343" lon="8.2825994"><ele>130.0</ele><time>2026-04-25T10:21:17Z</time></trkpt><trkpt lat="45.1834899" lon="8.2824144"><ele>130.0</ele><time>2026-04-25T10:21:18.009Z</time></trkpt><trkpt lat="45.1835388" lon="8.2822483"><ele>130.0</ele><time>2026-04-25T10:21:18.998Z</time></trkpt><trkpt lat="45.1835815" lon="8.2821088"><ele>130.0</ele><time>2026-04-25T10:21:19.999Z</time></trkpt><trkpt lat="45.1836182" lon="8.2819909"><ele>130.0</ele><time>2026-04-25T10:21:20.999Z</time></trkpt><trkpt lat="45.1836584" lon="8.281892"><ele>130.0</ele><time>2026-04-25T10:21:22.003Z</time></trkpt><trkpt lat="45.1837019" lon="8.2818044"><ele>130.0</ele><time>2026-04-25T10:21:23.001Z</time></trkpt><trkpt lat="45.183747" lon="8.2817158"><ele>130.0</ele><time>2026-04-25T10:21:24.002Z</time></trkpt><trkpt lat="45.183785" lon="8.2816143"><ele>130.0</ele><time>2026-04-25T10:21:25.007Z</time></trkpt><trkpt lat="45.1838103" lon="8.2815052"><ele>130.0</ele><time>2026-04-25T10:21:26.004Z</time></trkpt><trkpt lat="45.183831" lon="8.2813711"><ele>130.0</ele><time>2026-04-25T10:21:26.999Z</time></trkpt><trkpt lat="45.1838591" lon="8.2812236"><ele>130.0</ele><time>2026-04-25T10:21:27.998Z</time></trkpt><trkpt lat="45.1838943" lon="8.2810769"><ele>129.83333333333334</ele><time>2026-04-25T10:21:28.996Z</time></trkpt><trkpt lat="45.1839286" lon="8.2809375"><ele>129.66666666666669</ele><time>2026-04-25T10:21:30.006Z</time></trkpt><trkpt lat="45.1839602" lon="8.2808181"><ele>129.5</ele><time>2026-04-25T10:21:31.005Z</time></trkpt><trkpt lat="45.1839962" lon="8.2807148"><ele>129.33333333333334</ele><time>2026-04-25T10:21:31.996Z</time></trkpt><trkpt lat="45.1840458" lon="8.2806382"><ele>129.16666666666666</ele><time>2026-04-25T10:21:32.999Z</time></trkpt><trkpt lat="45.1841144" lon="8.2805792"><ele>129.0</ele><time>2026-04-25T10:21:34Z</time></trkpt><trkpt lat="45.1842035" lon="8.2805334"><ele>130.0</ele><time>2026-04-25T10:21:35.004Z</time></trkpt><trkpt lat="45.1843162" lon="8.2804998"><ele>131.0</ele><time>2026-04-25T10:21:36.001Z</time></trkpt><trkpt lat="45.1844604" lon="8.2804703"><ele>132.0</ele><time>2026-04-25T10:21:37.003Z</time></trkpt><trkpt lat="45.1846272" lon="8.2804352"><ele>133.0</ele><time>2026-04-25T10:21:38.033Z</time></trkpt><trkpt lat="45.184788" lon="8.2803948"><ele>132.5</ele><time>2026-04-25T10:21:39.001Z</time></trkpt><trkpt lat="45.1849266" lon="8.2803611"><ele>132.0</ele><time>2026-04-25T10:21:40.002Z</time></trkpt><trkpt lat="45.1850488" lon="8.2803315"><ele>131.5</ele><time>2026-04-25T10:21:40.999Z</time></trkpt><trkpt lat="45.185157" lon="8.2803035"><ele>131.0</ele><time>2026-04-25T10:21:42.005Z</time></trkpt><trkpt lat="45.185257" lon="8.280262"><ele>131.0</ele><time>2026-04-25T10:21:42.999Z</time></trkpt><trkpt lat="45.1853561" lon="8.2802047"><ele>131.0</ele><time>2026-04-25T10:21:44.004Z</time></trkpt><trkpt lat="45.1854515" lon="8.2801443"><ele>131.0</ele><time>2026-04-25T10:21:45.006Z</time></trkpt><trkpt lat="45.1855484" lon="8.2800907"><ele>131.0</ele><time>2026-04-25T10:21:46.013Z</time></trkpt><trkpt lat="45.1856518" lon="8.2800529"><ele>131.0</ele><time>2026-04-25T10:21:46.998Z</time></trkpt><trkpt lat="45.1857592" lon="8.2800216"><ele>130.25</ele><time>2026-04-25T10:21:47.997Z</time></trkpt><trkpt lat="45.1858715" lon="8.2799942"><ele>129.5</ele><time>2026-04-25T10:21:49Z</time></trkpt><trkpt lat="45.1859916" lon="8.2799596"><ele>128.75</ele><time>2026-04-25T10:21:50.01Z</time></trkpt><trkpt lat="45.1861209" lon="8.2799193"><ele>128.0</ele><time>2026-04-25T10:21:51.001Z</time></trkpt><trkpt lat="45.1862542" lon="8.2798766"><ele>128.0</ele><time>2026-04-25T10:21:51.999Z</time></trkpt><trkpt lat="45.1863834" lon="8.2798287"><ele>128.0</ele><time>2026-04-25T10:21:53Z</time></trkpt><trkpt lat="45.1865124" lon="8.2797738"><ele>128.0</ele><time>2026-04-25T10:21:54.001Z</time></trkpt><trkpt lat="45.1866422" lon="8.2797056"><ele>128.0</ele><time>2026-04-25T10:21:55.02Z</time></trkpt><trkpt lat="45.1867694" lon="8.2796233"><ele>128.25</ele><time>2026-04-25T10:21:56.001Z</time></trkpt><trkpt lat="45.1868845" lon="8.2795322"><ele>128.5</ele><time>2026-04-25T10:21:57.005Z</time></trkpt><trkpt lat="45.1869861" lon="8.2794421"><ele>128.75</ele><time>2026-04-25T10:21:57.998Z</time></trkpt><trkpt lat="45.1870753" lon="8.2793531"><ele>129.0</ele><time>2026-04-25T10:21:59.004Z</time></trkpt><trkpt lat="45.1871529" lon="8.2792707"><ele>129.0</ele><time>2026-04-25T10:21:59.994Z</time></trkpt><trkpt lat="45.1872187" lon="8.2791987"><ele>129.0</ele><time>2026-04-25T10:22:01Z</time></trkpt><trkpt lat="45.1872708" lon="8.2791374"><ele>129.0</ele><time>2026-04-25T10:22:02.005Z</time></trkpt><trkpt lat="45.1873222" lon="8.2790406"><ele>129.0</ele><time>2026-04-25T10:22:03.999Z</time></trkpt><trkpt lat="45.1873015" lon="8.2789246"><ele>129.0</ele><time>2026-04-25T10:22:05.998Z</time></trkpt><trkpt lat="45.1872834" lon="8.2788339"><ele>129.0</ele><time>2026-04-25T10:22:06.997Z</time></trkpt><trkpt lat="45.1872708" lon="8.2787082"><ele>129.25</ele><time>2026-04-25T10:22:07.998Z</time></trkpt><trkpt lat="45.187256" lon="8.2785515"><ele>129.5</ele><time>2026-04-25T10:22:09.016Z</time></trkpt><trkpt lat="45.1872349" lon="8.2783574"><ele>129.75</ele><time>2026-04-25T10:22:10.003Z</time></trkpt><trkpt lat="45.1872124" lon="8.2781498"><ele>130.0</ele><time>2026-04-25T10:22:11.003Z</time></trkpt><trkpt lat="45.187188" lon="8.2779636"><ele>130.2</ele><time>2026-04-25T10:22:11.995Z</time></trkpt><trkpt lat="45.1871661" lon="8.2777963"><ele>130.4</ele><time>2026-04-25T10:22:12.999Z</time></trkpt><trkpt lat="45.1871484" lon="8.2776448"><ele>130.6</ele><time>2026-04-25T10:22:13.997Z</time></trkpt><trkpt lat="45.1871302" lon="8.2775052"><ele>130.8</ele><time>2026-04-25T10:22:14.995Z</time></trkpt><trkpt lat="45.1871105" lon="8.2773772"><ele>131.0</ele><time>2026-04-25T10:22:15.994Z</time></trkpt><trkpt lat="45.1870901" lon="8.277261"><ele>131.0</ele><time>2026-04-25T10:22:17.004Z</time></trkpt><trkpt lat="45.1870734" lon="8.2771611"><ele>131.0</ele><time>2026-04-25T10:22:18.008Z</time></trkpt><trkpt lat="45.1870635" lon="8.2770176"><ele>131.0</ele><time>2026-04-25T10:22:20.019Z</time></trkpt><trkpt lat="45.1871476" lon="8.2768927"><ele>131.0</ele><time>2026-04-25T10:22:21.998Z</time></trkpt><trkpt lat="45.1872458" lon="8.2768582"><ele>131.0</ele><time>2026-04-25T10:22:22.996Z</time></trkpt><trkpt lat="45.1873568" lon="8.2768598"><ele>130.75</ele><time>2026-04-25T10:22:24Z</time></trkpt><trkpt lat="45.1874918" lon="8.2768702"><ele>130.5</ele><time>2026-04-25T10:22:25Z</time></trkpt><trkpt lat="45.1876486" lon="8.2768552"><ele>130.25</ele><time>2026-04-25T10:22:26.008Z</time></trkpt><trkpt lat="45.1877934" lon="8.2768285"><ele>130.0</ele><time>2026-04-25T10:22:27.013Z</time></trkpt><trkpt lat="45.187921" lon="8.2768082"><ele>130.0</ele><time>2026-04-25T10:22:28Z</time></trkpt><trkpt lat="45.1880243" lon="8.2768165"><ele>130.0</ele><time>2026-04-25T10:22:29.003Z</time></trkpt><trkpt lat="45.1881094" lon="8.2768342"><ele>130.0</ele><time>2026-04-25T10:22:30.001Z</time></trkpt><trkpt lat="45.1881779" lon="8.2768356"><ele>130.0</ele><time>2026-04-25T10:22:30.997Z</time></trkpt><trkpt lat="45.1882656" lon="8.2767712"><ele>130.0</ele><time>2026-04-25T10:22:33Z</time></trkpt><trkpt lat="45.1883072" lon="8.2766099"><ele>129.75</ele><time>2026-04-25T10:22:35.005Z</time></trkpt><trkpt lat="45.1883274" lon="8.2764806"><ele>129.5</ele><time>2026-04-25T10:22:35.995Z</time></trkpt><trkpt lat="45.1883455" lon="8.2763264"><ele>129.25</ele><time>2026-04-25T10:22:37.005Z</time></trkpt><trkpt lat="45.1883613" lon="8.2761368"><ele>129.0</ele><time>2026-04-25T10:22:37.996Z</time></trkpt><trkpt lat="45.1883731" lon="8.2759099"><ele>129.0</ele><time>2026-04-25T10:22:39.005Z</time></trkpt><trkpt lat="45.1883855" lon="8.2756653"><ele>129.0</ele><time>2026-04-25T10:22:39.998Z</time></trkpt><trkpt lat="45.1884039" lon="8.2754056"><ele>129.0</ele><time>2026-04-25T10:22:40.997Z</time></trkpt><trkpt lat="45.1884326" lon="8.2751031"><ele>129.0</ele><time>2026-04-25T10:22:41.994Z</time></trkpt><trkpt lat="45.1884443" lon="8.2747979"><ele>129.0</ele><time>2026-04-25T10:22:42.997Z</time></trkpt><trkpt lat="45.1884619" lon="8.2744606"><ele>129.0</ele><time>2026-04-25T10:22:43.997Z</time></trkpt><trkpt lat="45.1884803" lon="8.2741133"><ele>129.0</ele><time>2026-04-25T10:22:45.018Z</time></trkpt><trkpt lat="45.1884969" lon="8.273746"><ele>130.0</ele><time>2026-04-25T10:22:46.001Z</time></trkpt><trkpt lat="45.1885152" lon="8.2733849"><ele>131.0</ele><time>2026-04-25T10:22:47.009Z</time></trkpt><trkpt lat="45.1885356" lon="8.2730115"><ele>131.5</ele><time>2026-04-25T10:22:47.998Z</time></trkpt><trkpt lat="45.1885526" lon="8.2726345"><ele>132.0</ele><time>2026-04-25T10:22:48.996Z</time></trkpt><trkpt lat="45.1885716" lon="8.2722438"><ele>132.0</ele><time>2026-04-25T10:22:49.996Z</time></trkpt><trkpt lat="45.1885887" lon="8.2718512"><ele>132.0</ele><time>2026-04-25T10:22:50.995Z</time></trkpt><trkpt lat="45.1886034" lon="8.2714564"><ele>130.0</ele><time>2026-04-25T10:22:51.997Z</time></trkpt><trkpt lat="45.1886199" lon="8.271055"><ele>128.0</ele><time>2026-04-25T10:22:52.992Z</time></trkpt><trkpt lat="45.1886382" lon="8.2706523"><ele>128.5</ele><time>2026-04-25T10:22:54.017Z</time></trkpt><trkpt lat="45.1886591" lon="8.2702455"><ele>129.0</ele><time>2026-04-25T10:22:54.999Z</time></trkpt><trkpt lat="45.1886794" lon="8.2698431"><ele>129.5</ele><time>2026-04-25T10:22:55.999Z</time></trkpt><trkpt lat="45.1887013" lon="8.2694426"><ele>130.0</ele><time>2026-04-25T10:22:57.001Z</time></trkpt><trkpt lat="45.1887213" lon="8.2690466"><ele>130.5</ele><time>2026-04-25T10:22:57.998Z</time></trkpt><trkpt lat="45.1887395" lon="8.2686516"><ele>131.0</ele><time>2026-04-25T10:22:59.013Z</time></trkpt><trkpt lat="45.1887593" lon="8.2682553"><ele>130.5</ele><time>2026-04-25T10:23:00.001Z</time></trkpt><trkpt lat="45.1887799" lon="8.2678598"><ele>130.0</ele><time>2026-04-25T10:23:01.005Z</time></trkpt><trkpt lat="45.1887992" lon="8.2674695"><ele>129.5</ele><time>2026-04-25T10:23:01.999Z</time></trkpt><trkpt lat="45.188817" lon="8.2670825"><ele>129.0</ele><time>2026-04-25T10:23:03.005Z</time></trkpt><trkpt lat="45.1888342" lon="8.2666991"><ele>130.0</ele><time>2026-04-25T10:23:03.996Z</time></trkpt><trkpt lat="45.188852" lon="8.2663194"><ele>131.0</ele><time>2026-04-25T10:23:05.004Z</time></trkpt><trkpt lat="45.1888708" lon="8.265938"><ele>131.5</ele><time>2026-04-25T10:23:05.999Z</time></trkpt><trkpt lat="45.1888897" lon="8.2655575"><ele>132.0</ele><time>2026-04-25T10:23:07.014Z</time></trkpt><trkpt lat="45.1889075" lon="8.2651769"><ele>132.0</ele><time>2026-04-25T10:23:08Z</time></trkpt><trkpt lat="45.1889255" lon="8.2647954"><ele>132.0</ele><time>2026-04-25T10:23:09.002Z</time></trkpt><trkpt lat="45.1889438" lon="8.2644147"><ele>133.0</ele><time>2026-04-25T10:23:10Z</time></trkpt><trkpt lat="45.1889623" lon="8.2640338"><ele>134.0</ele><time>2026-04-25T10:23:10.998Z</time></trkpt><trkpt lat="45.1889799" lon="8.2636536"><ele>134.5</ele><time>2026-04-25T10:23:12.006Z</time></trkpt><trkpt lat="45.1889971" lon="8.263274"><ele>135.0</ele><time>2026-04-25T10:23:12.999Z</time></trkpt><trkpt lat="45.1890151" lon="8.2628927"><ele>132.5</ele><time>2026-04-25T10:23:14.002Z</time></trkpt><trkpt lat="45.1890351" lon="8.2625085"><ele>130.0</ele><time>2026-04-25T10:23:15.003Z</time></trkpt><trkpt lat="45.1890553" lon="8.2621279"><ele>130.0</ele><time>2026-04-25T10:23:15.999Z</time></trkpt><trkpt lat="45.1890734" lon="8.2617499"><ele>130.0</ele><time>2026-04-25T10:23:16.999Z</time></trkpt><trkpt lat="45.1890903" lon="8.2613699"><ele>130.5</ele><time>2026-04-25T10:23:18.009Z</time></trkpt><trkpt lat="45.1891064" lon="8.2609883"><ele>131.0</ele><time>2026-04-25T10:23:19.004Z</time></trkpt><trkpt lat="45.1891251" lon="8.2606037"><ele>130.0</ele><time>2026-04-25T10:23:20Z</time></trkpt><trkpt lat="45.1891465" lon="8.2602168"><ele>129.0</ele><time>2026-04-25T10:23:21.005Z</time></trkpt><trkpt lat="45.1891707" lon="8.2598264"><ele>129.0</ele><time>2026-04-25T10:23:21.994Z</time></trkpt><trkpt lat="45.1891984" lon="8.2594316"><ele>129.0</ele><time>2026-04-25T10:23:22.992Z</time></trkpt><trkpt lat="45.189232" lon="8.2590322"><ele>129.5</ele><time>2026-04-25T10:23:23.997Z</time></trkpt><trkpt lat="45.1892739" lon="8.2586282"><ele>130.0</ele><time>2026-04-25T10:23:25.002Z</time></trkpt><trkpt lat="45.1893235" lon="8.2582205"><ele>130.5</ele><time>2026-04-25T10:23:26.002Z</time></trkpt><trkpt lat="45.1893802" lon="8.2578076"><ele>131.0</ele><time>2026-04-25T10:23:27.015Z</time></trkpt><trkpt lat="45.1894421" lon="8.2573912"><ele>131.5</ele><time>2026-04-25T10:23:28.008Z</time></trkpt><trkpt lat="45.1895038" lon="8.2569729"><ele>132.0</ele><time>2026-04-25T10:23:29.004Z</time></trkpt><trkpt lat="45.189565" lon="8.2565571"><ele>132.0</ele><time>2026-04-25T10:23:30Z</time></trkpt><trkpt lat="45.1896279" lon="8.2561432"><ele>132.0</ele><time>2026-04-25T10:23:31.002Z</time></trkpt><trkpt lat="45.1896946" lon="8.2557331"><ele>133.0</ele><time>2026-04-25T10:23:31.998Z</time></trkpt><trkpt lat="45.1897623" lon="8.2553331"><ele>134.0</ele><time>2026-04-25T10:23:33.001Z</time></trkpt><trkpt lat="45.1898253" lon="8.2549395"><ele>133.5</ele><time>2026-04-25T10:23:34.003Z</time></trkpt><trkpt lat="45.1898808" lon="8.2545497"><ele>133.0</ele><time>2026-04-25T10:23:35Z</time></trkpt><trkpt lat="45.1899252" lon="8.2541603"><ele>133.5</ele><time>2026-04-25T10:23:35.999Z</time></trkpt><trkpt lat="45.1899544" lon="8.2537692"><ele>134.0</ele><time>2026-04-25T10:23:37.003Z</time></trkpt><trkpt lat="45.1899669" lon="8.2533751"><ele>134.0</ele><time>2026-04-25T10:23:38Z</time></trkpt><trkpt lat="45.1899622" lon="8.2529798"><ele>134.0</ele><time>2026-04-25T10:23:38.999Z</time></trkpt><trkpt lat="45.1899431" lon="8.2525835"><ele>134.5</ele><time>2026-04-25T10:23:40.017Z</time></trkpt><trkpt lat="45.1899167" lon="8.2521859"><ele>135.0</ele><time>2026-04-25T10:23:40.997Z</time></trkpt><trkpt lat="45.1898851" lon="8.251788"><ele>135.0</ele><time>2026-04-25T10:23:41.996Z</time></trkpt><trkpt lat="45.1898468" lon="8.2513926"><ele>135.0</ele><time>2026-04-25T10:23:43.001Z</time></trkpt><trkpt lat="45.1897963" lon="8.2509966"><ele>134.0</ele><time>2026-04-25T10:23:44.008Z</time></trkpt><trkpt lat="45.1897302" lon="8.2505999"><ele>133.0</ele><time>2026-04-25T10:23:45Z</time></trkpt><trkpt lat="45.189649" lon="8.2502044"><ele>133.0</ele><time>2026-04-25T10:23:45.995Z</time></trkpt><trkpt lat="45.1895533" lon="8.249813"><ele>133.0</ele><time>2026-04-25T10:23:46.998Z</time></trkpt><trkpt lat="45.1894465" lon="8.2494249"><ele>133.0</ele><time>2026-04-25T10:23:47.997Z</time></trkpt><trkpt lat="45.1893295" lon="8.249046"><ele>133.0</ele><time>2026-04-25T10:23:48.998Z</time></trkpt><trkpt lat="45.1892011" lon="8.2486763"><ele>133.5</ele><time>2026-04-25T10:23:50.021Z</time></trkpt><trkpt lat="45.1890623" lon="8.2483168"><ele>134.0</ele><time>2026-04-25T10:23:50.997Z</time></trkpt><trkpt lat="45.1889138" lon="8.2479658"><ele>134.0</ele><time>2026-04-25T10:23:52Z</time></trkpt><trkpt lat="45.1887573" lon="8.2476237"><ele>134.0</ele><time>2026-04-25T10:23:53.001Z</time></trkpt><trkpt lat="45.1885927" lon="8.2472923"><ele>134.5</ele><time>2026-04-25T10:23:54.005Z</time></trkpt><trkpt lat="45.1884191" lon="8.2469729"><ele>135.0</ele><time>2026-04-25T10:23:55Z</time></trkpt><trkpt lat="45.1882365" lon="8.2466673"><ele>135.0</ele><time>2026-04-25T10:23:56.006Z</time></trkpt><trkpt lat="45.188045" lon="8.2463738"><ele>135.0</ele><time>2026-04-25T10:23:57.002Z</time></trkpt><trkpt lat="45.1878466" lon="8.2460916"><ele>135.0</ele><time>2026-04-25T10:23:58Z</time></trkpt><trkpt lat="45.1876435" lon="8.2458196"><ele>135.0</ele><time>2026-04-25T10:23:59.014Z</time></trkpt><trkpt lat="45.1874391" lon="8.2455533"><ele>134.0</ele><time>2026-04-25T10:24:00.004Z</time></trkpt><trkpt lat="45.1872351" lon="8.2452897"><ele>133.0</ele><time>2026-04-25T10:24:00.998Z</time></trkpt><trkpt lat="45.1870313" lon="8.2450247"><ele>133.5</ele><time>2026-04-25T10:24:02Z</time></trkpt><trkpt lat="45.1868271" lon="8.2447578"><ele>134.0</ele><time>2026-04-25T10:24:03.028Z</time></trkpt><trkpt lat="45.1866222" lon="8.2444886"><ele>134.0</ele><time>2026-04-25T10:24:04.002Z</time></trkpt><trkpt lat="45.1864166" lon="8.2442176"><ele>134.0</ele><time>2026-04-25T10:24:05.023Z</time></trkpt><trkpt lat="45.186209" lon="8.2439432"><ele>134.0</ele><time>2026-04-25T10:24:06Z</time></trkpt><trkpt lat="45.1859975" lon="8.2436668"><ele>134.0</ele><time>2026-04-25T10:24:06.999Z</time></trkpt><trkpt lat="45.1857815" lon="8.2433871"><ele>134.5</ele><time>2026-04-25T10:24:07.998Z</time></trkpt><trkpt lat="45.1855612" lon="8.2431013"><ele>135.0</ele><time>2026-04-25T10:24:09.008Z</time></trkpt><trkpt lat="45.1853374" lon="8.2428104"><ele>135.0</ele><time>2026-04-25T10:24:10.012Z</time></trkpt><trkpt lat="45.1851107" lon="8.2425141"><ele>135.0</ele><time>2026-04-25T10:24:11.014Z</time></trkpt><trkpt lat="45.1848812" lon="8.2422141"><ele>134.5</ele><time>2026-04-25T10:24:12.008Z</time></trkpt><trkpt lat="45.1846486" lon="8.2419112"><ele>134.0</ele><time>2026-04-25T10:24:13.002Z</time></trkpt><trkpt lat="45.1844139" lon="8.241605"><ele>133.5</ele><time>2026-04-25T10:24:13.999Z</time></trkpt><trkpt lat="45.1841777" lon="8.2412959"><ele>133.0</ele><time>2026-04-25T10:24:15Z</time></trkpt><trkpt lat="45.1839389" lon="8.2409847"><ele>133.0</ele><time>2026-04-25T10:24:16.002Z</time></trkpt><trkpt lat="45.1836978" lon="8.2406709"><ele>133.0</ele><time>2026-04-25T10:24:16.995Z</time></trkpt><trkpt lat="45.183454" lon="8.240354"><ele>133.0</ele><time>2026-04-25T10:24:17.998Z</time></trkpt><trkpt lat="45.1832096" lon="8.2400322"><ele>133.0</ele><time>2026-04-25T10:24:19.01Z</time></trkpt><trkpt lat="45.182965" lon="8.239706"><ele>134.5</ele><time>2026-04-25T10:24:19.996Z</time></trkpt><trkpt lat="45.1827205" lon="8.2393795"><ele>136.0</ele><time>2026-04-25T10:24:20.992Z</time></trkpt><trkpt lat="45.1824742" lon="8.2390557"><ele>135.5</ele><time>2026-04-25T10:24:22Z</time></trkpt><trkpt lat="45.1822278" lon="8.238736"><ele>135.0</ele><time>2026-04-25T10:24:23Z</time></trkpt><trkpt lat="45.1819821" lon="8.2384201"><ele>135.5</ele><time>2026-04-25T10:24:24.019Z</time></trkpt><trkpt lat="45.1817382" lon="8.2381044"><ele>136.0</ele><time>2026-04-25T10:24:24.997Z</time></trkpt><trkpt lat="45.1815" lon="8.2377948"><ele>136.0</ele><time>2026-04-25T10:24:25.997Z</time></trkpt><trkpt lat="45.1812736" lon="8.2374988"><ele>136.0</ele><time>2026-04-25T10:24:26.999Z</time></trkpt><trkpt lat="45.1810573" lon="8.2372148"><ele>136.5</ele><time>2026-04-25T10:24:28.003Z</time></trkpt><trkpt lat="45.180851" lon="8.2369409"><ele>137.0</ele><time>2026-04-25T10:24:28.997Z</time></trkpt><trkpt lat="45.180659" lon="8.2366748"><ele>136.0</ele><time>2026-04-25T10:24:30.012Z</time></trkpt><trkpt lat="45.1804792" lon="8.2364063"><ele>135.0</ele><time>2026-04-25T10:24:30.997Z</time></trkpt><trkpt lat="45.180313" lon="8.2361368"><ele>135.0</ele><time>2026-04-25T10:24:31.993Z</time></trkpt><trkpt lat="45.1801608" lon="8.235868"><ele>135.0</ele><time>2026-04-25T10:24:32.996Z</time></trkpt><trkpt lat="45.1800216" lon="8.2356012"><ele>134.5</ele><time>2026-04-25T10:24:34.001Z</time></trkpt><trkpt lat="45.1798941" lon="8.2353337"><ele>134.0</ele><time>2026-04-25T10:24:34.994Z</time></trkpt><trkpt lat="45.1797768" lon="8.2350636"><ele>134.0</ele><time>2026-04-25T10:24:35.993Z</time></trkpt><trkpt lat="45.1796586" lon="8.2348102"><ele>134.0</ele><time>2026-04-25T10:24:36.993Z</time></trkpt><trkpt lat="45.1795609" lon="8.2345397"><ele>134.0</ele><time>2026-04-25T10:24:37.995Z</time></trkpt><trkpt lat="45.1794682" lon="8.2342708"><ele>134.0</ele><time>2026-04-25T10:24:38.997Z</time></trkpt><trkpt lat="45.1793874" lon="8.2340007"><ele>134.0</ele><time>2026-04-25T10:24:39.996Z</time></trkpt><trkpt lat="45.1793141" lon="8.2337226"><ele>134.0</ele><time>2026-04-25T10:24:41.008Z</time></trkpt><trkpt lat="45.1792467" lon="8.2334378"><ele>134.0</ele><time>2026-04-25T10:24:42.006Z</time></trkpt><trkpt lat="45.1791833" lon="8.233144"><ele>134.0</ele><time>2026-04-25T10:24:42.997Z</time></trkpt><trkpt lat="45.1791291" lon="8.2328352"><ele>134.0</ele><time>2026-04-25T10:24:43.992Z</time></trkpt><trkpt lat="45.179079" lon="8.2325161"><ele>134.0</ele><time>2026-04-25T10:24:44.995Z</time></trkpt><trkpt lat="45.1790356" lon="8.2321883"><ele>134.0</ele><time>2026-04-25T10:24:45.995Z</time></trkpt><trkpt lat="45.1790057" lon="8.2318492"><ele>134.0</ele><time>2026-04-25T10:24:46.999Z</time></trkpt><trkpt lat="45.1789877" lon="8.2314971"><ele>134.0</ele><time>2026-04-25T10:24:48.015Z</time></trkpt><trkpt lat="45.1789792" lon="8.2311339"><ele>134.0</ele><time>2026-04-25T10:24:48.993Z</time></trkpt><trkpt lat="45.1789829" lon="8.2307672"><ele>134.0</ele><time>2026-04-25T10:24:49.995Z</time></trkpt><trkpt lat="45.1789971" lon="8.2304036"><ele>134.5</ele><time>2026-04-25T10:24:50.989Z</time></trkpt><trkpt lat="45.1790249" lon="8.2300434"><ele>135.0</ele><time>2026-04-25T10:24:51.995Z</time></trkpt><trkpt lat="45.1790634" lon="8.2296886"><ele>135.5</ele><time>2026-04-25T10:24:52.992Z</time></trkpt><trkpt lat="45.1791132" lon="8.2293351"><ele>136.0</ele><time>2026-04-25T10:24:53.991Z</time></trkpt><trkpt lat="45.1791731" lon="8.2289855"><ele>136.0</ele><time>2026-04-25T10:24:54.994Z</time></trkpt><trkpt lat="45.1792424" lon="8.2286409"><ele>136.0</ele><time>2026-04-25T10:24:56.005Z</time></trkpt><trkpt lat="45.1793217" lon="8.2283065"><ele>135.5</ele><time>2026-04-25T10:24:56.997Z</time></trkpt><trkpt lat="45.179408" lon="8.2279881"><ele>135.0</ele><time>2026-04-25T10:24:57.997Z</time></trkpt><trkpt lat="45.1794999" lon="8.2276944"><ele>135.0</ele><time>2026-04-25T10:24:58.992Z</time></trkpt><trkpt lat="45.1795943" lon="8.2274283"><ele>135.0</ele><time>2026-04-25T10:24:59.993Z</time></trkpt><trkpt lat="45.1796919" lon="8.227182"><ele>135.0</ele><time>2026-04-25T10:25:00.992Z</time></trkpt><trkpt lat="45.1797908" lon="8.2269458"><ele>135.0</ele><time>2026-04-25T10:25:01.991Z</time></trkpt><trkpt lat="45.1798922" lon="8.2267151"><ele>135.0</ele><time>2026-04-25T10:25:03.002Z</time></trkpt><trkpt lat="45.1799965" lon="8.2264908"><ele>135.0</ele><time>2026-04-25T10:25:03.99Z</time></trkpt><trkpt lat="45.1801044" lon="8.2262713"><ele>135.0</ele><time>2026-04-25T10:25:04.995Z</time></trkpt><trkpt lat="45.180216" lon="8.2260543"><ele>135.0</ele><time>2026-04-25T10:25:05.997Z</time></trkpt><trkpt lat="45.1803334" lon="8.2258417"><ele>135.0</ele><time>2026-04-25T10:25:06.998Z</time></trkpt><trkpt lat="45.180459" lon="8.2256385"><ele>135.33333333333334</ele><time>2026-04-25T10:25:08.003Z</time></trkpt><trkpt lat="45.180594" lon="8.225435"><ele>135.66666666666669</ele><time>2026-04-25T10:25:08.996Z</time></trkpt><trkpt lat="45.1807359" lon="8.2252316"><ele>136.0</ele><time>2026-04-25T10:25:09.996Z</time></trkpt><trkpt lat="45.180886" lon="8.2250313"><ele>136.33333333333334</ele><time>2026-04-25T10:25:10.998Z</time></trkpt><trkpt lat="45.1810421" lon="8.2248385"><ele>136.66666666666666</ele><time>2026-04-25T10:25:11.994Z</time></trkpt><trkpt lat="45.1811931" lon="8.2246614"><ele>137.0</ele><time>2026-04-25T10:25:12.995Z</time></trkpt><trkpt lat="45.1813352" lon="8.224494"><ele>137.0</ele><time>2026-04-25T10:25:13.995Z</time></trkpt><trkpt lat="45.1814663" lon="8.224339"><ele>137.0</ele><time>2026-04-25T10:25:14.995Z</time></trkpt><trkpt lat="45.1815822" lon="8.2242009"><ele>137.0</ele><time>2026-04-25T10:25:15.992Z</time></trkpt><trkpt lat="45.18168" lon="8.2240866"><ele>137.0</ele><time>2026-04-25T10:25:16.996Z</time></trkpt><trkpt lat="45.1817599" lon="8.2239956"><ele>137.0</ele><time>2026-04-25T10:25:17.997Z</time></trkpt><trkpt lat="45.1818243" lon="8.2239214"><ele>137.0</ele><time>2026-04-25T10:25:19.006Z</time></trkpt><trkpt lat="45.1818773" lon="8.2238608"><ele>137.0</ele><time>2026-04-25T10:25:19.999Z</time></trkpt><trkpt lat="45.1819218" lon="8.2237601"><ele>137.0</ele><time>2026-04-25T10:25:22Z</time></trkpt><trkpt lat="45.1819126" lon="8.223643"><ele>137.0</ele><time>2026-04-25T10:25:24Z</time></trkpt><trkpt lat="45.1819435" lon="8.2235302"><ele>137.0</ele><time>2026-04-25T10:25:26.001Z</time></trkpt><trkpt lat="45.1820201" lon="8.2233915"><ele>137.0</ele><time>2026-04-25T10:25:28.009Z</time></trkpt><trkpt lat="45.1820853" lon="8.223301"><ele>137.0</ele><time>2026-04-25T10:25:28.999Z</time></trkpt><trkpt lat="45.1821756" lon="8.2231924"><ele>137.0</ele><time>2026-04-25T10:25:29.997Z</time></trkpt><trkpt lat="45.1822842" lon="8.2230707"><ele>137.0</ele><time>2026-04-25T10:25:31Z</time></trkpt><trkpt lat="45.1824082" lon="8.2229259"><ele>137.33333333333331</ele><time>2026-04-25T10:25:32Z</time></trkpt><trkpt lat="45.1825407" lon="8.2227703"><ele>137.66666666666666</ele><time>2026-04-25T10:25:32.999Z</time></trkpt><trkpt lat="45.1826803" lon="8.2226071"><ele>138.0</ele><time>2026-04-25T10:25:34.014Z</time></trkpt><trkpt lat="45.1828263" lon="8.2224359"><ele>138.0</ele><time>2026-04-25T10:25:35.003Z</time></trkpt><trkpt lat="45.1829787" lon="8.2222588"><ele>138.0</ele><time>2026-04-25T10:25:35.998Z</time></trkpt><trkpt lat="45.1831369" lon="8.2220706"><ele>138.0</ele><time>2026-04-25T10:25:37.004Z</time></trkpt><trkpt lat="45.1832974" lon="8.2218841"><ele>138.0</ele><time>2026-04-25T10:25:38.002Z</time></trkpt><trkpt lat="45.18346" lon="8.2216965"><ele>138.0</ele><time>2026-04-25T10:25:39.001Z</time></trkpt><trkpt lat="45.1836075" lon="8.2215269"><ele>138.0</ele><time>2026-04-25T10:25:40.006Z</time></trkpt><trkpt lat="45.1837483" lon="8.221362"><ele>138.0</ele><time>2026-04-25T10:25:40.997Z</time></trkpt><trkpt lat="45.1838818" lon="8.2212067"><ele>138.0</ele><time>2026-04-25T10:25:42.003Z</time></trkpt><trkpt lat="45.1840098" lon="8.2210576"><ele>138.0</ele><time>2026-04-25T10:25:42.997Z</time></trkpt><trkpt lat="45.1841262" lon="8.220913"><ele>138.0</ele><time>2026-04-25T10:25:43.996Z</time></trkpt><trkpt lat="45.1842305" lon="8.2207966"><ele>138.0</ele><time>2026-04-25T10:25:45.014Z</time></trkpt><trkpt lat="45.1843272" lon="8.2206763"><ele>138.0</ele><time>2026-04-25T10:25:45.999Z</time></trkpt><trkpt lat="45.1844099" lon="8.2205525"><ele>138.0</ele><time>2026-04-25T10:25:46.997Z</time></trkpt><trkpt lat="45.184481" lon="8.2204301"><ele>138.0</ele><time>2026-04-25T10:25:48.012Z</time></trkpt><trkpt lat="45.1845327" lon="8.2202999"><ele>138.0</ele><time>2026-04-25T10:25:49Z</time></trkpt><trkpt lat="45.1845677" lon="8.2201564"><ele>138.0</ele><time>2026-04-25T10:25:49.996Z</time></trkpt><trkpt lat="45.184584" lon="8.2199935"><ele>138.0</ele><time>2026-04-25T10:25:50.999Z</time></trkpt><trkpt lat="45.1845823" lon="8.2198194"><ele>138.0</ele><time>2026-04-25T10:25:52.002Z</time></trkpt><trkpt lat="45.1845624" lon="8.2196227"><ele>138.0</ele><time>2026-04-25T10:25:53.006Z</time></trkpt><trkpt lat="45.1845385" lon="8.219397"><ele>138.0</ele><time>2026-04-25T10:25:54.016Z</time></trkpt><trkpt lat="45.1845117" lon="8.2191397"><ele>137.66666666666666</ele><time>2026-04-25T10:25:55Z</time></trkpt><trkpt lat="45.1844933" lon="8.2188701"><ele>137.33333333333331</ele><time>2026-04-25T10:25:56.006Z</time></trkpt><trkpt lat="45.1844839" lon="8.2186028"><ele>137.0</ele><time>2026-04-25T10:25:57.009Z</time></trkpt><trkpt lat="45.1844768" lon="8.2183407"><ele>137.0</ele><time>2026-04-25T10:25:57.998Z</time></trkpt><trkpt lat="45.1844664" lon="8.2180818"><ele>137.0</ele><time>2026-04-25T10:25:58.998Z</time></trkpt><trkpt lat="45.1844488" lon="8.2178163"><ele>137.0</ele><time>2026-04-25T10:26:00.005Z</time></trkpt><trkpt lat="45.1844287" lon="8.2175673"><ele>137.0</ele><time>2026-04-25T10:26:01.001Z</time></trkpt><trkpt lat="45.1843902" lon="8.2173146"><ele>137.0</ele><time>2026-04-25T10:26:01.999Z</time></trkpt><trkpt lat="45.1843513" lon="8.2170824"><ele>137.0</ele><time>2026-04-25T10:26:03.016Z</time></trkpt><trkpt lat="45.1843219" lon="8.2168642"><ele>137.0</ele><time>2026-04-25T10:26:03.998Z</time></trkpt><trkpt lat="45.1843003" lon="8.2166619"><ele>137.0</ele><time>2026-04-25T10:26:04.998Z</time></trkpt><trkpt lat="45.1842766" lon="8.2164692"><ele>137.0</ele><time>2026-04-25T10:26:05.997Z</time></trkpt><trkpt lat="45.1842608" lon="8.2162869"><ele>137.0</ele><time>2026-04-25T10:26:06.999Z</time></trkpt><trkpt lat="45.1842544" lon="8.21611"><ele>137.0</ele><time>2026-04-25T10:26:08.002Z</time></trkpt><trkpt lat="45.1842655" lon="8.215912"><ele>137.0</ele><time>2026-04-25T10:26:09Z</time></trkpt><trkpt lat="45.1842904" lon="8.215695"><ele>137.0</ele><time>2026-04-25T10:26:10Z</time></trkpt><trkpt lat="45.1843307" lon="8.21547"><ele>137.0</ele><time>2026-04-25T10:26:11.001Z</time></trkpt><trkpt lat="45.1843828" lon="8.2152372"><ele>137.0</ele><time>2026-04-25T10:26:12.001Z</time></trkpt><trkpt lat="45.1844352" lon="8.2150097"><ele>137.0</ele><time>2026-04-25T10:26:12.996Z</time></trkpt><trkpt lat="45.1844814" lon="8.2147846"><ele>137.0</ele><time>2026-04-25T10:26:14.022Z</time></trkpt><trkpt lat="45.1845221" lon="8.2145564"><ele>137.0</ele><time>2026-04-25T10:26:14.998Z</time></trkpt><trkpt lat="45.184551" lon="8.214333"><ele>137.0</ele><time>2026-04-25T10:26:16Z</time></trkpt><trkpt lat="45.1845777" lon="8.2141111"><ele>137.0</ele><time>2026-04-25T10:26:16.997Z</time></trkpt><trkpt lat="45.1846072" lon="8.2138908"><ele>137.0</ele><time>2026-04-25T10:26:17.997Z</time></trkpt><trkpt lat="45.1846486" lon="8.213673"><ele>137.0</ele><time>2026-04-25T10:26:19.004Z</time></trkpt><trkpt lat="45.1847036" lon="8.2134678"><ele>137.0</ele><time>2026-04-25T10:26:20.003Z</time></trkpt><trkpt lat="45.1847661" lon="8.2132782"><ele>137.0</ele><time>2026-04-25T10:26:21.01Z</time></trkpt><trkpt lat="45.1848289" lon="8.2131058"><ele>137.0</ele><time>2026-04-25T10:26:22Z</time></trkpt><trkpt lat="45.1848851" lon="8.212948"><ele>137.0</ele><time>2026-04-25T10:26:23.004Z</time></trkpt><trkpt lat="45.1849346" lon="8.2127887"><ele>137.5</ele><time>2026-04-25T10:26:24.011Z</time></trkpt><trkpt lat="45.1849784" lon="8.2126111"><ele>138.0</ele><time>2026-04-25T10:26:24.994Z</time></trkpt><trkpt lat="45.1850127" lon="8.2124327"><ele>138.5</ele><time>2026-04-25T10:26:26.011Z</time></trkpt><trkpt lat="45.1850444" lon="8.2122637"><ele>139.0</ele><time>2026-04-25T10:26:27Z</time></trkpt><trkpt lat="45.1850858" lon="8.2121041"><ele>139.0</ele><time>2026-04-25T10:26:28Z</time></trkpt><trkpt lat="45.1851456" lon="8.211933"><ele>139.0</ele><time>2026-04-25T10:26:28.992Z</time></trkpt><trkpt lat="45.1852168" lon="8.2117332"><ele>139.0</ele><time>2026-04-25T10:26:29.998Z</time></trkpt><trkpt lat="45.1852923" lon="8.2115104"><ele>139.0</ele><time>2026-04-25T10:26:31.015Z</time></trkpt><trkpt lat="45.1853583" lon="8.2112988"><ele>139.0</ele><time>2026-04-25T10:26:31.995Z</time></trkpt><trkpt lat="45.1854144" lon="8.2111086"><ele>139.0</ele><time>2026-04-25T10:26:33.004Z</time></trkpt><trkpt lat="45.1854586" lon="8.2109352"><ele>139.0</ele><time>2026-04-25T10:26:34.005Z</time></trkpt><trkpt lat="45.1854892" lon="8.2107581"><ele>139.2</ele><time>2026-04-25T10:26:34.996Z</time></trkpt><trkpt lat="45.185505" lon="8.2105775"><ele>139.4</ele><time>2026-04-25T10:26:36Z</time></trkpt><trkpt lat="45.1855101" lon="8.2104108"><ele>139.6</ele><time>2026-04-25T10:26:36.997Z</time></trkpt><trkpt lat="45.1855155" lon="8.2102715"><ele>139.8</ele><time>2026-04-25T10:26:38.01Z</time></trkpt><trkpt lat="45.1855335" lon="8.2101332"><ele>140.0</ele><time>2026-04-25T10:26:39.001Z</time></trkpt><trkpt lat="45.1855758" lon="8.2099692"><ele>139.66666666666666</ele><time>2026-04-25T10:26:39.995Z</time></trkpt><trkpt lat="45.1856391" lon="8.209794"><ele>139.33333333333334</ele><time>2026-04-25T10:26:41.001Z</time></trkpt><trkpt lat="45.1857191" lon="8.2096119"><ele>139.0</ele><time>2026-04-25T10:26:42Z</time></trkpt><trkpt lat="45.185816" lon="8.2094215"><ele>138.66666666666669</ele><time>2026-04-25T10:26:43.015Z</time></trkpt><trkpt lat="45.1859316" lon="8.2092115"><ele>138.33333333333334</ele><time>2026-04-25T10:26:44.001Z</time></trkpt><trkpt lat="45.18605" lon="8.20901"><ele>138.0</ele><time>2026-04-25T10:26:44.994Z</time></trkpt><trkpt lat="45.1861661" lon="8.2088236"><ele>138.0</ele><time>2026-04-25T10:26:45.999Z</time></trkpt><trkpt lat="45.1862896" lon="8.2086387"><ele>138.0</ele><time>2026-04-25T10:26:47.007Z</time></trkpt><trkpt lat="45.1864035" lon="8.2084707"><ele>138.0</ele><time>2026-04-25T10:26:48.01Z</time></trkpt><trkpt lat="45.1865009" lon="8.208318"><ele>138.5</ele><time>2026-04-25T10:26:49.002Z</time></trkpt><trkpt lat="45.1865924" lon="8.2081691"><ele>139.0</ele><time>2026-04-25T10:26:50.002Z</time></trkpt><trkpt lat="45.1866736" lon="8.2080026"><ele>139.5</ele><time>2026-04-25T10:26:51Z</time></trkpt><trkpt lat="45.1867438" lon="8.2078179"><ele>140.0</ele><time>2026-04-25T10:26:51.992Z</time></trkpt><trkpt lat="45.1868145" lon="8.2076298"><ele>140.0</ele><time>2026-04-25T10:26:52.997Z</time></trkpt><trkpt lat="45.1868915" lon="8.2074502"><ele>140.0</ele><time>2026-04-25T10:26:53.996Z</time></trkpt><trkpt lat="45.1869718" lon="8.2072909"><ele>140.0</ele><time>2026-04-25T10:26:54.998Z</time></trkpt><trkpt lat="45.1870449" lon="8.2071386"><ele>140.0</ele><time>2026-04-25T10:26:56Z</time></trkpt><trkpt lat="45.1871065" lon="8.2069681"><ele>140.0</ele><time>2026-04-25T10:26:56.996Z</time></trkpt><trkpt lat="45.1871566" lon="8.2067669"><ele>140.0</ele><time>2026-04-25T10:26:57.996Z</time></trkpt><trkpt lat="45.1871994" lon="8.2065451"><ele>140.0</ele><time>2026-04-25T10:26:58.999Z</time></trkpt><trkpt lat="45.1872363" lon="8.2063354"><ele>139.75</ele><time>2026-04-25T10:27:00.001Z</time></trkpt><trkpt lat="45.1872814" lon="8.2061287"><ele>139.5</ele><time>2026-04-25T10:27:01Z</time></trkpt><trkpt lat="45.1873232" lon="8.2059554"><ele>139.25</ele><time>2026-04-25T10:27:01.999Z</time></trkpt><trkpt lat="45.1873687" lon="8.2057926"><ele>139.0</ele><time>2026-04-25T10:27:02.996Z</time></trkpt><trkpt lat="45.1874193" lon="8.205657"><ele>138.8</ele><time>2026-04-25T10:27:03.998Z</time></trkpt><trkpt lat="45.1874847" lon="8.2055435"><ele>138.60000000000002</ele><time>2026-04-25T10:27:04.994Z</time></trkpt><trkpt lat="45.1875627" lon="8.2054429"><ele>138.4</ele><time>2026-04-25T10:27:06Z</time></trkpt><trkpt lat="45.1876414" lon="8.2053415"><ele>138.20000000000002</ele><time>2026-04-25T10:27:06.99Z</time></trkpt><trkpt lat="45.1877216" lon="8.205211"><ele>138.0</ele><time>2026-04-25T10:27:07.995Z</time></trkpt><trkpt lat="45.1877737" lon="8.205053"><ele>138.0</ele><time>2026-04-25T10:27:09.001Z</time></trkpt><trkpt lat="45.1878229" lon="8.2048476"><ele>138.0</ele><time>2026-04-25T10:27:09.997Z</time></trkpt><trkpt lat="45.1878714" lon="8.2046292"><ele>138.0</ele><time>2026-04-25T10:27:10.997Z</time></trkpt><trkpt lat="45.1879138" lon="8.2044374"><ele>138.25</ele><time>2026-04-25T10:27:12.016Z</time></trkpt><trkpt lat="45.1879558" lon="8.2042537"><ele>138.5</ele><time>2026-04-25T10:27:12.998Z</time></trkpt><trkpt lat="45.1880095" lon="8.2040704"><ele>138.75</ele><time>2026-04-25T10:27:14.005Z</time></trkpt><trkpt lat="45.1880786" lon="8.2038834"><ele>139.0</ele><time>2026-04-25T10:27:14.989Z</time></trkpt><trkpt lat="45.1881512" lon="8.2037107"><ele>139.0</ele><time>2026-04-25T10:27:15.993Z</time></trkpt><trkpt lat="45.1882184" lon="8.2035525"><ele>139.0</ele><time>2026-04-25T10:27:17.001Z</time></trkpt><trkpt lat="45.1882794" lon="8.203398"><ele>139.0</ele><time>2026-04-25T10:27:18.002Z</time></trkpt><trkpt lat="45.1883288" lon="8.2032346"><ele>139.0</ele><time>2026-04-25T10:27:19Z</time></trkpt><trkpt lat="45.1883622" lon="8.2030569"><ele>139.0</ele><time>2026-04-25T10:27:19.996Z</time></trkpt><trkpt lat="45.1883783" lon="8.2028651"><ele>139.0</ele><time>2026-04-25T10:27:21.013Z</time></trkpt><trkpt lat="45.1883802" lon="8.2026639"><ele>139.0</ele><time>2026-04-25T10:27:22.004Z</time></trkpt><trkpt lat="45.1883739" lon="8.2024668"><ele>139.0</ele><time>2026-04-25T10:27:22.997Z</time></trkpt><trkpt lat="45.1883695" lon="8.2022775"><ele>139.25</ele><time>2026-04-25T10:27:24.007Z</time></trkpt><trkpt lat="45.1883697" lon="8.202098"><ele>139.5</ele><time>2026-04-25T10:27:24.989Z</time></trkpt><trkpt lat="45.188389" lon="8.201907"><ele>139.75</ele><time>2026-04-25T10:27:26.004Z</time></trkpt><trkpt lat="45.1884307" lon="8.2017004"><ele>140.0</ele><time>2026-04-25T10:27:27.002Z</time></trkpt><trkpt lat="45.1884902" lon="8.2014724"><ele>140.33333333333331</ele><time>2026-04-25T10:27:28.002Z</time></trkpt><trkpt lat="45.1885569" lon="8.201231"><ele>140.66666666666666</ele><time>2026-04-25T10:27:28.998Z</time></trkpt><trkpt lat="45.188616" lon="8.2010145"><ele>141.0</ele><time>2026-04-25T10:27:30.001Z</time></trkpt><trkpt lat="45.1886614" lon="8.2008086"><ele>141.0</ele><time>2026-04-25T10:27:31.025Z</time></trkpt><trkpt lat="45.1886989" lon="8.2005921"><ele>141.0</ele><time>2026-04-25T10:27:32.003Z</time></trkpt><trkpt lat="45.1887305" lon="8.2003625"><ele>141.0</ele><time>2026-04-25T10:27:33.001Z</time></trkpt><trkpt lat="45.1887532" lon="8.2001453"><ele>141.0</ele><time>2026-04-25T10:27:34.002Z</time></trkpt><trkpt lat="45.1887702" lon="8.1999565"><ele>141.0</ele><time>2026-04-25T10:27:35.006Z</time></trkpt><trkpt lat="45.1887791" lon="8.1997942"><ele>141.0</ele><time>2026-04-25T10:27:35.996Z</time></trkpt><trkpt lat="45.1887782" lon="8.1996516"><ele>141.0</ele><time>2026-04-25T10:27:36.996Z</time></trkpt><trkpt lat="45.1887707" lon="8.1995373"><ele>141.0</ele><time>2026-04-25T10:27:38.002Z</time></trkpt><trkpt lat="45.1887698" lon="8.1994466"><ele>140.8</ele><time>2026-04-25T10:27:39.002Z</time></trkpt><trkpt lat="45.1888025" lon="8.1992892"><ele>140.6</ele><time>2026-04-25T10:27:41.008Z</time></trkpt><trkpt lat="45.1888748" lon="8.1991827"><ele>140.4</ele><time>2026-04-25T10:27:42.999Z</time></trkpt><trkpt lat="45.1889231" lon="8.1990289"><ele>140.2</ele><time>2026-04-25T10:27:44.997Z</time></trkpt><trkpt lat="45.1889356" lon="8.1988992"><ele>140.0</ele><time>2026-04-25T10:27:46.014Z</time></trkpt><trkpt lat="45.1889421" lon="8.1987376"><ele>140.0</ele><time>2026-04-25T10:27:47.003Z</time></trkpt><trkpt lat="45.1889448" lon="8.1985448"><ele>140.0</ele><time>2026-04-25T10:27:48Z</time></trkpt><trkpt lat="45.1889444" lon="8.1983473"><ele>140.0</ele><time>2026-04-25T10:27:48.999Z</time></trkpt><trkpt lat="45.188947" lon="8.1981693"><ele>140.0</ele><time>2026-04-25T10:27:49.999Z</time></trkpt><trkpt lat="45.188954" lon="8.1979954"><ele>140.0</ele><time>2026-04-25T10:27:51.006Z</time></trkpt><trkpt lat="45.1889723" lon="8.1978155"><ele>140.0</ele><time>2026-04-25T10:27:51.999Z</time></trkpt><trkpt lat="45.1889764" lon="8.1976411"><ele>140.0</ele><time>2026-04-25T10:27:53.005Z</time></trkpt><trkpt lat="45.1889602" lon="8.1974585"><ele>140.0</ele><time>2026-04-25T10:27:53.998Z</time></trkpt><trkpt lat="45.1889239" lon="8.1972572"><ele>140.25</ele><time>2026-04-25T10:27:54.991Z</time></trkpt><trkpt lat="45.1888707" lon="8.1970574"><ele>140.5</ele><time>2026-04-25T10:27:56.001Z</time></trkpt><trkpt lat="45.1888175" lon="8.1968852"><ele>140.75</ele><time>2026-04-25T10:27:57Z</time></trkpt><trkpt lat="45.1887686" lon="8.1967281"><ele>141.0</ele><time>2026-04-25T10:27:58.007Z</time></trkpt><trkpt lat="45.1887238" lon="8.196583"><ele>140.75</ele><time>2026-04-25T10:27:59.017Z</time></trkpt><trkpt lat="45.1886898" lon="8.1964266"><ele>140.5</ele><time>2026-04-25T10:28:00Z</time></trkpt><trkpt lat="45.1886712" lon="8.1962414"><ele>140.25</ele><time>2026-04-25T10:28:01.003Z</time></trkpt><trkpt lat="45.1886674" lon="8.1960268"><ele>140.0</ele><time>2026-04-25T10:28:01.993Z</time></trkpt><trkpt lat="45.1886711" lon="8.195781"><ele>140.0</ele><time>2026-04-25T10:28:03.002Z</time></trkpt><trkpt lat="45.1886778" lon="8.1955147"><ele>140.0</ele><time>2026-04-25T10:28:04.003Z</time></trkpt><trkpt lat="45.1886832" lon="8.195231"><ele>140.0</ele><time>2026-04-25T10:28:05.026Z</time></trkpt><trkpt lat="45.1886868" lon="8.1949428"><ele>140.0</ele><time>2026-04-25T10:28:06.009Z</time></trkpt><trkpt lat="45.1886833" lon="8.1946527"><ele>140.0</ele><time>2026-04-25T10:28:07.014Z</time></trkpt><trkpt lat="45.1886785" lon="8.1943597"><ele>140.0</ele><time>2026-04-25T10:28:08Z</time></trkpt><trkpt lat="45.1886657" lon="8.1940427"><ele>140.5</ele><time>2026-04-25T10:28:09.006Z</time></trkpt><trkpt lat="45.1886568" lon="8.193717"><ele>141.0</ele><time>2026-04-25T10:28:09.996Z</time></trkpt><trkpt lat="45.1886505" lon="8.1934003"><ele>141.66666666666666</ele><time>2026-04-25T10:28:11.002Z</time></trkpt><trkpt lat="45.1886443" lon="8.1930907"><ele>142.33333333333331</ele><time>2026-04-25T10:28:11.995Z</time></trkpt><trkpt lat="45.1886346" lon="8.1927786"><ele>143.0</ele><time>2026-04-25T10:28:12.999Z</time></trkpt><trkpt lat="45.1886201" lon="8.1924655"><ele>142.0</ele><time>2026-04-25T10:28:14.014Z</time></trkpt><trkpt lat="45.1885995" lon="8.1921486"><ele>141.0</ele><time>2026-04-25T10:28:14.994Z</time></trkpt><trkpt lat="45.1885776" lon="8.1918238"><ele>141.0</ele><time>2026-04-25T10:28:15.997Z</time></trkpt><trkpt lat="45.188561" lon="8.1914911"><ele>141.0</ele><time>2026-04-25T10:28:16.995Z</time></trkpt><trkpt lat="45.1885472" lon="8.1911555"><ele>141.0</ele><time>2026-04-25T10:28:18.001Z</time></trkpt><trkpt lat="45.1885316" lon="8.1908179"><ele>141.0</ele><time>2026-04-25T10:28:18.995Z</time></trkpt><trkpt lat="45.1885166" lon="8.1904767"><ele>141.0</ele><time>2026-04-25T10:28:19.996Z</time></trkpt><trkpt lat="45.1885052" lon="8.1901585"><ele>141.0</ele><time>2026-04-25T10:28:20.998Z</time></trkpt><trkpt lat="45.1884952" lon="8.1898628"><ele>141.0</ele><time>2026-04-25T10:28:21.993Z</time></trkpt><trkpt lat="45.1884882" lon="8.1895916"><ele>141.33333333333334</ele><time>2026-04-25T10:28:22.995Z</time></trkpt><trkpt lat="45.1884775" lon="8.1893404"><ele>141.66666666666669</ele><time>2026-04-25T10:28:23.996Z</time></trkpt><trkpt lat="45.1884648" lon="8.1891046"><ele>142.0</ele><time>2026-04-25T10:28:24.994Z</time></trkpt><trkpt lat="45.1884476" lon="8.1888671"><ele>142.0</ele><time>2026-04-25T10:28:25.989Z</time></trkpt><trkpt lat="45.1884221" lon="8.1886198"><ele>142.0</ele><time>2026-04-25T10:28:26.997Z</time></trkpt><trkpt lat="45.1883928" lon="8.1883609"><ele>142.0</ele><time>2026-04-25T10:28:28Z</time></trkpt><trkpt lat="45.188348" lon="8.1880852"><ele>142.66666666666669</ele><time>2026-04-25T10:28:29.01Z</time></trkpt><trkpt lat="45.1883067" lon="8.1878278"><ele>143.33333333333334</ele><time>2026-04-25T10:28:29.992Z</time></trkpt><trkpt lat="45.1882694" lon="8.1875851"><ele>144.0</ele><time>2026-04-25T10:28:30.998Z</time></trkpt><trkpt lat="45.1882324" lon="8.1873653"><ele>143.75</ele><time>2026-04-25T10:28:31.994Z</time></trkpt><trkpt lat="45.1882174" lon="8.1871721"><ele>143.5</ele><time>2026-04-25T10:28:32.999Z</time></trkpt><trkpt lat="45.1881998" lon="8.186996"><ele>143.25</ele><time>2026-04-25T10:28:33.996Z</time></trkpt><trkpt lat="45.1881848" lon="8.1868448"><ele>143.0</ele><time>2026-04-25T10:28:34.998Z</time></trkpt><trkpt lat="45.1881727" lon="8.1867036"><ele>143.0</ele><time>2026-04-25T10:28:36.004Z</time></trkpt><trkpt lat="45.1881675" lon="8.1865534"><ele>143.0</ele><time>2026-04-25T10:28:36.999Z</time></trkpt><trkpt lat="45.1881688" lon="8.1863954"><ele>143.0</ele><time>2026-04-25T10:28:38.023Z</time></trkpt><trkpt lat="45.1881595" lon="8.1862152"><ele>143.0</ele><time>2026-04-25T10:28:38.999Z</time></trkpt><trkpt lat="45.1881414" lon="8.1860235"><ele>142.66666666666666</ele><time>2026-04-25T10:28:39.998Z</time></trkpt><trkpt lat="45.1881112" lon="8.1858242"><ele>142.33333333333334</ele><time>2026-04-25T10:28:40.999Z</time></trkpt><trkpt lat="45.1880615" lon="8.1856141"><ele>142.0</ele><time>2026-04-25T10:28:42.005Z</time></trkpt><trkpt lat="45.1879934" lon="8.1853866"><ele>141.66666666666669</ele><time>2026-04-25T10:28:42.994Z</time></trkpt><trkpt lat="45.1879199" lon="8.18516"><ele>141.33333333333334</ele><time>2026-04-25T10:28:43.994Z</time></trkpt><trkpt lat="45.1878516" lon="8.1849496"><ele>141.0</ele><time>2026-04-25T10:28:45Z</time></trkpt><trkpt lat="45.1877943" lon="8.1847721"><ele>141.5</ele><time>2026-04-25T10:28:46.001Z</time></trkpt><trkpt lat="45.1877505" lon="8.1846167"><ele>142.0</ele><time>2026-04-25T10:28:46.993Z</time></trkpt><trkpt lat="45.1877208" lon="8.1844547"><ele>142.5</ele><time>2026-04-25T10:28:47.997Z</time></trkpt><trkpt lat="45.1877092" lon="8.1842624"><ele>143.0</ele><time>2026-04-25T10:28:48.999Z</time></trkpt><trkpt lat="45.1877096" lon="8.1840432"><ele>142.5</ele><time>2026-04-25T10:28:49.994Z</time></trkpt><trkpt lat="45.1877152" lon="8.1838147"><ele>142.0</ele><time>2026-04-25T10:28:50.999Z</time></trkpt><trkpt lat="45.1877164" lon="8.1836061"><ele>141.5</ele><time>2026-04-25T10:28:51.994Z</time></trkpt><trkpt lat="45.1877149" lon="8.1834197"><ele>141.0</ele><time>2026-04-25T10:28:53.001Z</time></trkpt><trkpt lat="45.1877018" lon="8.1832386"><ele>141.0</ele><time>2026-04-25T10:28:53.999Z</time></trkpt><trkpt lat="45.1876712" lon="8.1830589"><ele>141.0</ele><time>2026-04-25T10:28:54.997Z</time></trkpt><trkpt lat="45.187619" lon="8.1828769"><ele>141.0</ele><time>2026-04-25T10:28:56.01Z</time></trkpt><trkpt lat="45.1875448" lon="8.1826927"><ele>141.0</ele><time>2026-04-25T10:28:57.003Z</time></trkpt><trkpt lat="45.187454" lon="8.1824892"><ele>141.0</ele><time>2026-04-25T10:28:58Z</time></trkpt><trkpt lat="45.1873566" lon="8.1822711"><ele>141.0</ele><time>2026-04-25T10:28:59Z</time></trkpt><trkpt lat="45.187261" lon="8.1820299"><ele>141.0</ele><time>2026-04-25T10:29:00.003Z</time></trkpt><trkpt lat="45.18717" lon="8.1817819"><ele>141.0</ele><time>2026-04-25T10:29:01.032Z</time></trkpt><trkpt lat="45.187081" lon="8.1815282"><ele>141.0</ele><time>2026-04-25T10:29:02.003Z</time></trkpt><trkpt lat="45.1869898" lon="8.1812689"><ele>141.0</ele><time>2026-04-25T10:29:03Z</time></trkpt><trkpt lat="45.1869037" lon="8.1810098"><ele>141.0</ele><time>2026-04-25T10:29:03.998Z</time></trkpt><trkpt lat="45.1868196" lon="8.1807561"><ele>141.0</ele><time>2026-04-25T10:29:04.999Z</time></trkpt><trkpt lat="45.1867402" lon="8.1805057"><ele>141.0</ele><time>2026-04-25T10:29:05.999Z</time></trkpt><trkpt lat="45.1866623" lon="8.1802575"><ele>141.33333333333334</ele><time>2026-04-25T10:29:06.994Z</time></trkpt><trkpt lat="45.1865868" lon="8.1800108"><ele>141.66666666666669</ele><time>2026-04-25T10:29:07.993Z</time></trkpt><trkpt lat="45.1865115" lon="8.1797624"><ele>142.0</ele><time>2026-04-25T10:29:08.997Z</time></trkpt><trkpt lat="45.1864236" lon="8.1795207"><ele>142.0</ele><time>2026-04-25T10:29:09.999Z</time></trkpt><trkpt lat="45.1863288" lon="8.1792751"><ele>142.0</ele><time>2026-04-25T10:29:11.002Z</time></trkpt><trkpt lat="45.1862269" lon="8.1790239"><ele>142.0</ele><time>2026-04-25T10:29:12.021Z</time></trkpt><trkpt lat="45.1861176" lon="8.1787668"><ele>142.0</ele><time>2026-04-25T10:29:13Z</time></trkpt><trkpt lat="45.1860165" lon="8.1785144"><ele>142.0</ele><time>2026-04-25T10:29:13.998Z</time></trkpt><trkpt lat="45.1859151" lon="8.1782873"><ele>142.0</ele><time>2026-04-25T10:29:15Z</time></trkpt><trkpt lat="45.1858178" lon="8.1780773"><ele>142.0</ele><time>2026-04-25T10:29:15.999Z</time></trkpt><trkpt lat="45.1857249" lon="8.177881"><ele>142.0</ele><time>2026-04-25T10:29:16.999Z</time></trkpt><trkpt lat="45.185636" lon="8.1776936"><ele>142.0</ele><time>2026-04-25T10:29:17.999Z</time></trkpt><trkpt lat="45.1855469" lon="8.1774947"><ele>142.0</ele><time>2026-04-25T10:29:18.998Z</time></trkpt><trkpt lat="45.1854589" lon="8.1772846"><ele>142.0</ele><time>2026-04-25T10:29:19.997Z</time></trkpt><trkpt lat="45.18538" lon="8.177077"><ele>142.0</ele><time>2026-04-25T10:29:20.995Z</time></trkpt><trkpt lat="45.1853034" lon="8.1768783"><ele>142.0</ele><time>2026-04-25T10:29:21.999Z</time></trkpt><trkpt lat="45.1852247" lon="8.1766834"><ele>142.0</ele><time>2026-04-25T10:29:23.001Z</time></trkpt><trkpt lat="45.1851391" lon="8.1764838"><ele>142.0</ele><time>2026-04-25T10:29:23.997Z</time></trkpt><trkpt lat="45.1850417" lon="8.1762762"><ele>142.0</ele><time>2026-04-25T10:29:24.998Z</time></trkpt><trkpt lat="45.1849404" lon="8.1760686"><ele>142.0</ele><time>2026-04-25T10:29:25.999Z</time></trkpt><trkpt lat="45.1848393" lon="8.1758624"><ele>142.0</ele><time>2026-04-25T10:29:27.005Z</time></trkpt><trkpt lat="45.1847384" lon="8.1756436"><ele>142.0</ele><time>2026-04-25T10:29:27.999Z</time></trkpt><trkpt lat="45.1846373" lon="8.1754095"><ele>142.0</ele><time>2026-04-25T10:29:28.997Z</time></trkpt><trkpt lat="45.1845365" lon="8.1751672"><ele>142.0</ele><time>2026-04-25T10:29:29.996Z</time></trkpt><trkpt lat="45.1844357" lon="8.1749226"><ele>141.66666666666669</ele><time>2026-04-25T10:29:30.997Z</time></trkpt><trkpt lat="45.1843355" lon="8.1746784"><ele>141.33333333333334</ele><time>2026-04-25T10:29:31.992Z</time></trkpt><trkpt lat="45.1842405" lon="8.1744544"><ele>141.0</ele><time>2026-04-25T10:29:33.003Z</time></trkpt><trkpt lat="45.1841505" lon="8.1742476"><ele>141.0</ele><time>2026-04-25T10:29:33.999Z</time></trkpt><trkpt lat="45.1840635" lon="8.1740465"><ele>141.0</ele><time>2026-04-25T10:29:34.997Z</time></trkpt><trkpt lat="45.1839794" lon="8.1738428"><ele>141.0</ele><time>2026-04-25T10:29:35.993Z</time></trkpt><trkpt lat="45.183896" lon="8.1736374"><ele>141.66666666666666</ele><time>2026-04-25T10:29:36.995Z</time></trkpt><trkpt lat="45.1838123" lon="8.1734277"><ele>142.33333333333331</ele><time>2026-04-25T10:29:37.999Z</time></trkpt><trkpt lat="45.1837308" lon="8.1732086"><ele>143.0</ele><time>2026-04-25T10:29:38.997Z</time></trkpt><trkpt lat="45.1836491" lon="8.1729842"><ele>143.0</ele><time>2026-04-25T10:29:40.029Z</time></trkpt><trkpt lat="45.1835711" lon="8.172767"><ele>143.0</ele><time>2026-04-25T10:29:41.007Z</time></trkpt><trkpt lat="45.1835006" lon="8.1725671"><ele>143.0</ele><time>2026-04-25T10:29:41.996Z</time></trkpt><trkpt lat="45.1834365" lon="8.1723902"><ele>142.75</ele><time>2026-04-25T10:29:42.995Z</time></trkpt><trkpt lat="45.1833722" lon="8.1722299"><ele>142.5</ele><time>2026-04-25T10:29:43.998Z</time></trkpt><trkpt lat="45.1833048" lon="8.1720873"><ele>142.25</ele><time>2026-04-25T10:29:45.011Z</time></trkpt><trkpt lat="45.1832302" lon="8.1719586"><ele>142.0</ele><time>2026-04-25T10:29:46.002Z</time></trkpt><trkpt lat="45.1831472" lon="8.1718387"><ele>142.4</ele><time>2026-04-25T10:29:47.001Z</time></trkpt><trkpt lat="45.1830695" lon="8.1717282"><ele>142.79999999999998</ele><time>2026-04-25T10:29:48Z</time></trkpt><trkpt lat="45.182998" lon="8.1716298"><ele>143.2</ele><time>2026-04-25T10:29:49.001Z</time></trkpt><trkpt lat="45.1829367" lon="8.171532"><ele>143.6</ele><time>2026-04-25T10:29:50.003Z</time></trkpt><trkpt lat="45.1828853" lon="8.1714141"><ele>144.0</ele><time>2026-04-25T10:29:51.004Z</time></trkpt><trkpt lat="45.1828468" lon="8.1712659"><ele>144.0</ele><time>2026-04-25T10:29:52.003Z</time></trkpt><trkpt lat="45.1828223" lon="8.1710898"><ele>144.0</ele><time>2026-04-25T10:29:52.993Z</time></trkpt><trkpt lat="45.1828075" lon="8.1709212"><ele>144.0</ele><time>2026-04-25T10:29:54.002Z</time></trkpt><trkpt lat="45.1828026" lon="8.1707786"><ele>144.0</ele><time>2026-04-25T10:29:54.997Z</time></trkpt><trkpt lat="45.1828078" lon="8.1706588"><ele>144.0</ele><time>2026-04-25T10:29:55.998Z</time></trkpt><trkpt lat="45.1828305" lon="8.1705476"><ele>143.75</ele><time>2026-04-25T10:29:56.996Z</time></trkpt><trkpt lat="45.1828762" lon="8.1704387"><ele>143.5</ele><time>2026-04-25T10:29:57.998Z</time></trkpt><trkpt lat="45.1829422" lon="8.1703143"><ele>143.25</ele><time>2026-04-25T10:29:58.997Z</time></trkpt><trkpt lat="45.1830135" lon="8.1701659"><ele>143.0</ele><time>2026-04-25T10:30:00.011Z</time></trkpt><trkpt lat="45.1830785" lon="8.1699864"><ele>143.0</ele><time>2026-04-25T10:30:00.999Z</time></trkpt><trkpt lat="45.1831321" lon="8.169788"><ele>143.0</ele><time>2026-04-25T10:30:02.012Z</time></trkpt><trkpt lat="45.1831756" lon="8.1696043"><ele>143.0</ele><time>2026-04-25T10:30:03.003Z</time></trkpt><trkpt lat="45.1832133" lon="8.1694269"><ele>143.0</ele><time>2026-04-25T10:30:04.007Z</time></trkpt><trkpt lat="45.1832375" lon="8.1692466"><ele>143.0</ele><time>2026-04-25T10:30:04.998Z</time></trkpt><trkpt lat="45.1832496" lon="8.1690573"><ele>143.0</ele><time>2026-04-25T10:30:06.004Z</time></trkpt><trkpt lat="45.1832492" lon="8.1688508"><ele>143.0</ele><time>2026-04-25T10:30:06.998Z</time></trkpt><trkpt lat="45.1832471" lon="8.1686463"><ele>143.0</ele><time>2026-04-25T10:30:07.999Z</time></trkpt><trkpt lat="45.1832235" lon="8.1684348"><ele>143.33333333333331</ele><time>2026-04-25T10:30:09.004Z</time></trkpt><trkpt lat="45.1832054" lon="8.1682234"><ele>143.66666666666666</ele><time>2026-04-25T10:30:09.997Z</time></trkpt><trkpt lat="45.1831844" lon="8.1680076"><ele>144.0</ele><time>2026-04-25T10:30:11.006Z</time></trkpt><trkpt lat="45.1831657" lon="8.1677913"><ele>144.0</ele><time>2026-04-25T10:30:12.004Z</time></trkpt><trkpt lat="45.1831537" lon="8.1675685"><ele>144.0</ele><time>2026-04-25T10:30:13Z</time></trkpt><trkpt lat="45.1831473" lon="8.1673377"><ele>144.0</ele><time>2026-04-25T10:30:14Z</time></trkpt><trkpt lat="45.1831453" lon="8.1671022"><ele>143.66666666666666</ele><time>2026-04-25T10:30:14.997Z</time></trkpt><trkpt lat="45.1831478" lon="8.1668611"><ele>143.33333333333331</ele><time>2026-04-25T10:30:16.02Z</time></trkpt><trkpt lat="45.1831513" lon="8.1666389"><ele>143.0</ele><time>2026-04-25T10:30:17Z</time></trkpt><trkpt lat="45.1831535" lon="8.166438"><ele>143.0</ele><time>2026-04-25T10:30:17.992Z</time></trkpt><trkpt lat="45.1831535" lon="8.1662496"><ele>143.0</ele><time>2026-04-25T10:30:19Z</time></trkpt><trkpt lat="45.1831349" lon="8.1660677"><ele>143.0</ele><time>2026-04-25T10:30:19.995Z</time></trkpt><trkpt lat="45.183094" lon="8.1658748"><ele>143.0</ele><time>2026-04-25T10:30:20.996Z</time></trkpt><trkpt lat="45.1830408" lon="8.1656567"><ele>143.33333333333331</ele><time>2026-04-25T10:30:21.998Z</time></trkpt><trkpt lat="45.1829795" lon="8.1654338"><ele>143.66666666666666</ele><time>2026-04-25T10:30:23.001Z</time></trkpt><trkpt lat="45.1829178" lon="8.1651983"><ele>144.0</ele><time>2026-04-25T10:30:24.001Z</time></trkpt><trkpt lat="45.1828487" lon="8.1649659"><ele>144.0</ele><time>2026-04-25T10:30:24.998Z</time></trkpt><trkpt lat="45.1827864" lon="8.1647344"><ele>144.0</ele><time>2026-04-25T10:30:25.996Z</time></trkpt><trkpt lat="45.1827309" lon="8.1645135"><ele>144.0</ele><time>2026-04-25T10:30:27.003Z</time></trkpt><trkpt lat="45.1826675" lon="8.164298"><ele>144.0</ele><time>2026-04-25T10:30:28.025Z</time></trkpt><trkpt lat="45.1826141" lon="8.164066"><ele>144.0</ele><time>2026-04-25T10:30:29.005Z</time></trkpt><trkpt lat="45.1825567" lon="8.1638204"><ele>144.0</ele><time>2026-04-25T10:30:29.997Z</time></trkpt><trkpt lat="45.1825056" lon="8.1635569"><ele>144.0</ele><time>2026-04-25T10:30:30.999Z</time></trkpt><trkpt lat="45.1824584" lon="8.1633047"><ele>144.0</ele><time>2026-04-25T10:30:31.995Z</time></trkpt><trkpt lat="45.1824152" lon="8.1630556"><ele>144.0</ele><time>2026-04-25T10:30:33.017Z</time></trkpt><trkpt lat="45.1823717" lon="8.1628034"><ele>144.0</ele><time>2026-04-25T10:30:34Z</time></trkpt><trkpt lat="45.1823227" lon="8.162563"><ele>144.0</ele><time>2026-04-25T10:30:35.001Z</time></trkpt><trkpt lat="45.1822697" lon="8.1623269"><ele>144.0</ele><time>2026-04-25T10:30:35.993Z</time></trkpt><trkpt lat="45.1822208" lon="8.1621098"><ele>144.0</ele><time>2026-04-25T10:30:36.995Z</time></trkpt><trkpt lat="45.1821689" lon="8.1619191"><ele>144.0</ele><time>2026-04-25T10:30:38.019Z</time></trkpt><trkpt lat="45.1821113" lon="8.1617342"><ele>144.0</ele><time>2026-04-25T10:30:39Z</time></trkpt><trkpt lat="45.1820612" lon="8.1615649"><ele>144.0</ele><time>2026-04-25T10:30:40.002Z</time></trkpt><trkpt lat="45.1820109" lon="8.1613967"><ele>143.75</ele><time>2026-04-25T10:30:41.002Z</time></trkpt><trkpt lat="45.1819822" lon="8.1612223"><ele>143.5</ele><time>2026-04-25T10:30:41.996Z</time></trkpt><trkpt lat="45.1819619" lon="8.1610258"><ele>143.25</ele><time>2026-04-25T10:30:43.01Z</time></trkpt><trkpt lat="45.181951" lon="8.1608158"><ele>143.0</ele><time>2026-04-25T10:30:43.995Z</time></trkpt><trkpt lat="45.1819378" lon="8.1605954"><ele>143.0</ele><time>2026-04-25T10:30:44.997Z</time></trkpt><trkpt lat="45.1819248" lon="8.1603675"><ele>143.0</ele><time>2026-04-25T10:30:45.992Z</time></trkpt><trkpt lat="45.1819023" lon="8.1601538"><ele>143.0</ele><time>2026-04-25T10:30:46.994Z</time></trkpt><trkpt lat="45.1818788" lon="8.1599398"><ele>143.25</ele><time>2026-04-25T10:30:48.004Z</time></trkpt><trkpt lat="45.1818645" lon="8.1597315"><ele>143.5</ele><time>2026-04-25T10:30:49.001Z</time></trkpt><trkpt lat="45.181849" lon="8.1595242"><ele>143.75</ele><time>2026-04-25T10:30:50.005Z</time></trkpt><trkpt lat="45.1818321" lon="8.1593303"><ele>144.0</ele><time>2026-04-25T10:30:50.989Z</time></trkpt><trkpt lat="45.1818191" lon="8.1591466"><ele>143.75</ele><time>2026-04-25T10:30:51.999Z</time></trkpt><trkpt lat="45.1818031" lon="8.1589691"><ele>143.5</ele><time>2026-04-25T10:30:53.006Z</time></trkpt><trkpt lat="45.1817854" lon="8.1587924"><ele>143.25</ele><time>2026-04-25T10:30:53.989Z</time></trkpt><trkpt lat="45.1817784" lon="8.1585984"><ele>143.0</ele><time>2026-04-25T10:30:54.999Z</time></trkpt><trkpt lat="45.18178" lon="8.1583936"><ele>143.0</ele><time>2026-04-25T10:30:56.005Z</time></trkpt><trkpt lat="45.1817747" lon="8.1581766"><ele>143.0</ele><time>2026-04-25T10:30:57.003Z</time></trkpt><trkpt lat="45.181772" lon="8.1579265"><ele>143.0</ele><time>2026-04-25T10:30:58.003Z</time></trkpt><trkpt lat="45.1817458" lon="8.1576589"><ele>143.0</ele><time>2026-04-25T10:30:59.008Z</time></trkpt><trkpt lat="45.1817178" lon="8.1574302"><ele>143.0</ele><time>2026-04-25T10:31:00.001Z</time></trkpt><trkpt lat="45.181698" lon="8.1572126"><ele>143.0</ele><time>2026-04-25T10:31:00.994Z</time></trkpt><trkpt lat="45.18168" lon="8.1570136"><ele>143.25</ele><time>2026-04-25T10:31:02Z</time></trkpt><trkpt lat="45.1816578" lon="8.1568386"><ele>143.5</ele><time>2026-04-25T10:31:03.009Z</time></trkpt><trkpt lat="45.181636" lon="8.1566603"><ele>143.75</ele><time>2026-04-25T10:31:04.003Z</time></trkpt><trkpt lat="45.1816228" lon="8.156496"><ele>144.0</ele><time>2026-04-25T10:31:05.004Z</time></trkpt><trkpt lat="45.181621" lon="8.1563333"><ele>144.0</ele><time>2026-04-25T10:31:06.015Z</time></trkpt><trkpt lat="45.1816359" lon="8.156172"><ele>144.0</ele><time>2026-04-25T10:31:06.996Z</time></trkpt><trkpt lat="45.1816655" lon="8.1560065"><ele>144.0</ele><time>2026-04-25T10:31:08Z</time></trkpt><trkpt lat="45.1817054" lon="8.1558324"><ele>144.0</ele><time>2026-04-25T10:31:08.996Z</time></trkpt><trkpt lat="45.1817492" lon="8.1556397"><ele>144.66666666666666</ele><time>2026-04-25T10:31:10.009Z</time></trkpt><trkpt lat="45.1817949" lon="8.1554345"><ele>145.33333333333331</ele><time>2026-04-25T10:31:11.005Z</time></trkpt><trkpt lat="45.1818508" lon="8.1552131"><ele>146.0</ele><time>2026-04-25T10:31:12.004Z</time></trkpt><trkpt lat="45.1819184" lon="8.1549798"><ele>145.66666666666666</ele><time>2026-04-25T10:31:12.993Z</time></trkpt><trkpt lat="45.1819927" lon="8.1547361"><ele>145.33333333333334</ele><time>2026-04-25T10:31:13.999Z</time></trkpt><trkpt lat="45.1820736" lon="8.1544819"><ele>145.0</ele><time>2026-04-25T10:31:14.995Z</time></trkpt><trkpt lat="45.1821559" lon="8.1542222"><ele>145.0</ele><time>2026-04-25T10:31:15.993Z</time></trkpt><trkpt lat="45.1822396" lon="8.1539473"><ele>145.0</ele><time>2026-04-25T10:31:16.996Z</time></trkpt><trkpt lat="45.1823253" lon="8.1536571"><ele>145.0</ele><time>2026-04-25T10:31:17.99Z</time></trkpt><trkpt lat="45.1824118" lon="8.153358"><ele>145.0</ele><time>2026-04-25T10:31:19Z</time></trkpt><trkpt lat="45.1824983" lon="8.1530506"><ele>145.0</ele><time>2026-04-25T10:31:19.988Z</time></trkpt><trkpt lat="45.1825876" lon="8.1527235"><ele>145.0</ele><time>2026-04-25T10:31:21.011Z</time></trkpt><trkpt lat="45.1826788" lon="8.1523815"><ele>145.0</ele><time>2026-04-25T10:31:22Z</time></trkpt><trkpt lat="45.1827684" lon="8.1520339"><ele>145.0</ele><time>2026-04-25T10:31:22.997Z</time></trkpt><trkpt lat="45.1828472" lon="8.1516836"><ele>145.0</ele><time>2026-04-25T10:31:23.999Z</time></trkpt><trkpt lat="45.1829208" lon="8.1513197"><ele>145.0</ele><time>2026-04-25T10:31:25.003Z</time></trkpt><trkpt lat="45.1829914" lon="8.1509427"><ele>145.0</ele><time>2026-04-25T10:31:25.996Z</time></trkpt><trkpt lat="45.1830624" lon="8.1505575"><ele>145.5</ele><time>2026-04-25T10:31:26.999Z</time></trkpt><trkpt lat="45.1831341" lon="8.1501652"><ele>146.0</ele><time>2026-04-25T10:31:27.997Z</time></trkpt><trkpt lat="45.1832088" lon="8.1497728"><ele>146.0</ele><time>2026-04-25T10:31:28.992Z</time></trkpt><trkpt lat="45.1832884" lon="8.1493851"><ele>146.0</ele><time>2026-04-25T10:31:29.995Z</time></trkpt><trkpt lat="45.1833705" lon="8.1490059"><ele>146.0</ele><time>2026-04-25T10:31:30.996Z</time></trkpt><trkpt lat="45.1834531" lon="8.1486359"><ele>146.0</ele><time>2026-04-25T10:31:32.021Z</time></trkpt><trkpt lat="45.1835339" lon="8.1482745"><ele>146.0</ele><time>2026-04-25T10:31:32.994Z</time></trkpt><trkpt lat="45.1836134" lon="8.1479201"><ele>146.0</ele><time>2026-04-25T10:31:33.997Z</time></trkpt><trkpt lat="45.1836896" lon="8.1475729"><ele>146.0</ele><time>2026-04-25T10:31:35.003Z</time></trkpt><trkpt lat="45.1837628" lon="8.1472309"><ele>146.0</ele><time>2026-04-25T10:31:35.999Z</time></trkpt><trkpt lat="45.1838348" lon="8.146894"><ele>146.0</ele><time>2026-04-25T10:31:37.005Z</time></trkpt><trkpt lat="45.1839094" lon="8.1465602"><ele>146.0</ele><time>2026-04-25T10:31:37.992Z</time></trkpt><trkpt lat="45.1839867" lon="8.1462301"><ele>146.0</ele><time>2026-04-25T10:31:38.993Z</time></trkpt><trkpt lat="45.1840651" lon="8.1459024"><ele>146.0</ele><time>2026-04-25T10:31:39.998Z</time></trkpt><trkpt lat="45.1841443" lon="8.1455753"><ele>146.5</ele><time>2026-04-25T10:31:40.992Z</time></trkpt><trkpt lat="45.1842209" lon="8.1452495"><ele>147.0</ele><time>2026-04-25T10:31:42.006Z</time></trkpt><trkpt lat="45.1842944" lon="8.1449236"><ele>147.0</ele><time>2026-04-25T10:31:42.998Z</time></trkpt><trkpt lat="45.1843672" lon="8.1445987"><ele>147.0</ele><time>2026-04-25T10:31:44Z</time></trkpt><trkpt lat="45.1844397" lon="8.1442749"><ele>147.0</ele><time>2026-04-25T10:31:44.996Z</time></trkpt><trkpt lat="45.1845106" lon="8.1439517"><ele>147.0</ele><time>2026-04-25T10:31:45.997Z</time></trkpt><trkpt lat="45.1845808" lon="8.1436293"><ele>147.0</ele><time>2026-04-25T10:31:47Z</time></trkpt><trkpt lat="45.1846505" lon="8.1433159"><ele>147.0</ele><time>2026-04-25T10:31:48.002Z</time></trkpt><trkpt lat="45.1847182" lon="8.1430114"><ele>147.0</ele><time>2026-04-25T10:31:49.003Z</time></trkpt><trkpt lat="45.1847857" lon="8.1427136"><ele>147.0</ele><time>2026-04-25T10:31:50.002Z</time></trkpt><trkpt lat="45.1848523" lon="8.1424188"><ele>147.0</ele><time>2026-04-25T10:31:50.999Z</time></trkpt><trkpt lat="45.1849188" lon="8.1421322"><ele>147.0</ele><time>2026-04-25T10:31:51.999Z</time></trkpt><trkpt lat="45.1849861" lon="8.1418484"><ele>147.0</ele><time>2026-04-25T10:31:52.991Z</time></trkpt><trkpt lat="45.1850583" lon="8.1415764"><ele>147.0</ele><time>2026-04-25T10:31:54.006Z</time></trkpt><trkpt lat="45.1851249" lon="8.1412984"><ele>147.0</ele><time>2026-04-25T10:31:54.999Z</time></trkpt><trkpt lat="45.1851902" lon="8.1410212"><ele>147.0</ele><time>2026-04-25T10:31:55.995Z</time></trkpt><trkpt lat="45.1852531" lon="8.1407443"><ele>147.0</ele><time>2026-04-25T10:31:57Z</time></trkpt><trkpt lat="45.1853168" lon="8.1404821"><ele>146.66666666666666</ele><time>2026-04-25T10:31:57.996Z</time></trkpt><trkpt lat="45.1853783" lon="8.1402234"><ele>146.33333333333331</ele><time>2026-04-25T10:31:59.008Z</time></trkpt><trkpt lat="45.1854364" lon="8.1399692"><ele>146.0</ele><time>2026-04-25T10:31:59.996Z</time></trkpt><trkpt lat="45.1854961" lon="8.1397095"><ele>145.66666666666666</ele><time>2026-04-25T10:32:00.998Z</time></trkpt><trkpt lat="45.1855495" lon="8.1394537"><ele>145.33333333333334</ele><time>2026-04-25T10:32:01.999Z</time></trkpt><trkpt lat="45.185595" lon="8.1392019"><ele>145.0</ele><time>2026-04-25T10:32:03Z</time></trkpt><trkpt lat="45.1856335" lon="8.1389556"><ele>145.0</ele><time>2026-04-25T10:32:04Z</time></trkpt><trkpt lat="45.1856641" lon="8.1387206"><ele>145.0</ele><time>2026-04-25T10:32:05.001Z</time></trkpt><trkpt lat="45.185687" lon="8.1384899"><ele>145.0</ele><time>2026-04-25T10:32:06Z</time></trkpt><trkpt lat="45.1856978" lon="8.138256"><ele>145.0</ele><time>2026-04-25T10:32:06.995Z</time></trkpt><trkpt lat="45.1856978" lon="8.138014"><ele>145.0</ele><time>2026-04-25T10:32:07.998Z</time></trkpt><trkpt lat="45.185687" lon="8.1377626"><ele>145.0</ele><time>2026-04-25T10:32:09Z</time></trkpt><trkpt lat="45.185665" lon="8.1375018"><ele>145.33333333333334</ele><time>2026-04-25T10:32:09.999Z</time></trkpt><trkpt lat="45.1856397" lon="8.1372263"><ele>145.66666666666666</ele><time>2026-04-25T10:32:11.002Z</time></trkpt><trkpt lat="45.1856119" lon="8.1369376"><ele>146.0</ele><time>2026-04-25T10:32:11.993Z</time></trkpt><trkpt lat="45.1855812" lon="8.1366406"><ele>146.33333333333331</ele><time>2026-04-25T10:32:13.031Z</time></trkpt><trkpt lat="45.1855507" lon="8.1363568"><ele>146.66666666666666</ele><time>2026-04-25T10:32:13.993Z</time></trkpt><trkpt lat="45.1855209" lon="8.1360872"><ele>147.0</ele><time>2026-04-25T10:32:14.996Z</time></trkpt><trkpt lat="45.1854928" lon="8.1358224"><ele>147.33333333333334</ele><time>2026-04-25T10:32:15.989Z</time></trkpt><trkpt lat="45.185465" lon="8.1355592"><ele>147.66666666666669</ele><time>2026-04-25T10:32:16.996Z</time></trkpt><trkpt lat="45.1854379" lon="8.1352965"><ele>148.0</ele><time>2026-04-25T10:32:17.998Z</time></trkpt><trkpt lat="45.1854121" lon="8.1350312"><ele>148.0</ele><time>2026-04-25T10:32:18.995Z</time></trkpt><trkpt lat="45.185388" lon="8.1347668"><ele>148.0</ele><time>2026-04-25T10:32:19.996Z</time></trkpt><trkpt lat="45.1853674" lon="8.1345203"><ele>148.0</ele><time>2026-04-25T10:32:20.995Z</time></trkpt><trkpt lat="45.1853473" lon="8.1342861"><ele>148.0</ele><time>2026-04-25T10:32:21.998Z</time></trkpt><trkpt lat="45.1853301" lon="8.134063"><ele>148.0</ele><time>2026-04-25T10:32:22.993Z</time></trkpt><trkpt lat="45.1853175" lon="8.13385"><ele>148.0</ele><time>2026-04-25T10:32:24.014Z</time></trkpt><trkpt lat="45.1853084" lon="8.1336511"><ele>148.0</ele><time>2026-04-25T10:32:25.003Z</time></trkpt><trkpt lat="45.1853206" lon="8.133446"><ele>148.0</ele><time>2026-04-25T10:32:25.999Z</time></trkpt><trkpt lat="45.1853422" lon="8.1332307"><ele>148.0</ele><time>2026-04-25T10:32:26.996Z</time></trkpt><trkpt lat="45.1853697" lon="8.133007"><ele>148.0</ele><time>2026-04-25T10:32:27.997Z</time></trkpt><trkpt lat="45.185397" lon="8.1328001"><ele>147.75</ele><time>2026-04-25T10:32:28.999Z</time></trkpt><trkpt lat="45.1854225" lon="8.1326169"><ele>147.5</ele><time>2026-04-25T10:32:30.001Z</time></trkpt><trkpt lat="45.1854463" lon="8.1324423"><ele>147.25</ele><time>2026-04-25T10:32:30.994Z</time></trkpt><trkpt lat="45.1854629" lon="8.1322845"><ele>147.0</ele><time>2026-04-25T10:32:32.003Z</time></trkpt><trkpt lat="45.1854787" lon="8.1321407"><ele>147.0</ele><time>2026-04-25T10:32:33.003Z</time></trkpt><trkpt lat="45.1854925" lon="8.1320092"><ele>147.0</ele><time>2026-04-25T10:32:34.004Z</time></trkpt><trkpt lat="45.1855026" lon="8.1318911"><ele>147.0</ele><time>2026-04-25T10:32:35Z</time></trkpt><trkpt lat="45.185515" lon="8.1317823"><ele>147.0</ele><time>2026-04-25T10:32:35.999Z</time></trkpt><trkpt lat="45.1855377" lon="8.131685"><ele>147.0</ele><time>2026-04-25T10:32:37Z</time></trkpt><trkpt lat="45.1855776" lon="8.1315861"><ele>147.0</ele><time>2026-04-25T10:32:38.009Z</time></trkpt><trkpt lat="45.1856367" lon="8.1314925"><ele>146.75</ele><time>2026-04-25T10:32:39.001Z</time></trkpt><trkpt lat="45.1857188" lon="8.1313948"><ele>146.5</ele><time>2026-04-25T10:32:40.003Z</time></trkpt><trkpt lat="45.185816" lon="8.1312861"><ele>146.25</ele><time>2026-04-25T10:32:41.001Z</time></trkpt><trkpt lat="45.1859182" lon="8.1311688"><ele>146.0</ele><time>2026-04-25T10:32:41.998Z</time></trkpt><trkpt lat="45.1860234" lon="8.1310381"><ele>146.0</ele><time>2026-04-25T10:32:42.998Z</time></trkpt><trkpt lat="45.1861339" lon="8.1308891"><ele>146.0</ele><time>2026-04-25T10:32:44.004Z</time></trkpt><trkpt lat="45.1862472" lon="8.1307099"><ele>146.0</ele><time>2026-04-25T10:32:44.992Z</time></trkpt><trkpt lat="45.1863589" lon="8.1305069"><ele>146.0</ele><time>2026-04-25T10:32:46.024Z</time></trkpt><trkpt lat="45.1864545" lon="8.1303194"><ele>146.0</ele><time>2026-04-25T10:32:47Z</time></trkpt><trkpt lat="45.1865391" lon="8.1301553"><ele>146.0</ele><time>2026-04-25T10:32:48Z</time></trkpt><trkpt lat="45.186617" lon="8.1300044"><ele>146.0</ele><time>2026-04-25T10:32:48.996Z</time></trkpt><trkpt lat="45.186692" lon="8.1298414"><ele>146.0</ele><time>2026-04-25T10:32:49.991Z</time></trkpt><trkpt lat="45.1867598" lon="8.1296738"><ele>146.0</ele><time>2026-04-25T10:32:51.005Z</time></trkpt><trkpt lat="45.1868208" lon="8.1294942"><ele>146.0</ele><time>2026-04-25T10:32:51.997Z</time></trkpt><trkpt lat="45.1868765" lon="8.1293022"><ele>146.0</ele><time>2026-04-25T10:32:53.004Z</time></trkpt><trkpt lat="45.186927" lon="8.1291003"><ele>146.25</ele><time>2026-04-25T10:32:54.001Z</time></trkpt><trkpt lat="45.186968" lon="8.1289096"><ele>146.5</ele><time>2026-04-25T10:32:55Z</time></trkpt><trkpt lat="45.1870012" lon="8.1287276"><ele>146.75</ele><time>2026-04-25T10:32:55.995Z</time></trkpt><trkpt lat="45.1870244" lon="8.1285364"><ele>147.0</ele><time>2026-04-25T10:32:57.003Z</time></trkpt><trkpt lat="45.1870376" lon="8.1283278"><ele>147.0</ele><time>2026-04-25T10:32:58.003Z</time></trkpt><trkpt lat="45.1870448" lon="8.1281036"><ele>147.0</ele><time>2026-04-25T10:32:58.996Z</time></trkpt><trkpt lat="45.1870456" lon="8.1278744"><ele>147.0</ele><time>2026-04-25T10:32:59.999Z</time></trkpt><trkpt lat="45.1870392" lon="8.1276451"><ele>147.0</ele><time>2026-04-25T10:33:01.003Z</time></trkpt><trkpt lat="45.1870274" lon="8.1274326"><ele>147.0</ele><time>2026-04-25T10:33:01.999Z</time></trkpt><trkpt lat="45.1870069" lon="8.1272202"><ele>147.0</ele><time>2026-04-25T10:33:03.001Z</time></trkpt><trkpt lat="45.1869696" lon="8.1269955"><ele>147.0</ele><time>2026-04-25T10:33:03.998Z</time></trkpt><trkpt lat="45.1869165" lon="8.1267507"><ele>147.0</ele><time>2026-04-25T10:33:05.002Z</time></trkpt><trkpt lat="45.1868601" lon="8.126531"><ele>147.0</ele><time>2026-04-25T10:33:06.008Z</time></trkpt><trkpt lat="45.1868065" lon="8.1263333"><ele>147.0</ele><time>2026-04-25T10:33:06.996Z</time></trkpt><trkpt lat="45.1867587" lon="8.1261419"><ele>147.0</ele><time>2026-04-25T10:33:07.993Z</time></trkpt><trkpt lat="45.1867173" lon="8.1259434"><ele>147.0</ele><time>2026-04-25T10:33:08.998Z</time></trkpt><trkpt lat="45.1866831" lon="8.1257389"><ele>147.0</ele><time>2026-04-25T10:33:10.005Z</time></trkpt><trkpt lat="45.186657" lon="8.1255293"><ele>147.33333333333334</ele><time>2026-04-25T10:33:10.99Z</time></trkpt><trkpt lat="45.1866403" lon="8.1253137"><ele>147.66666666666669</ele><time>2026-04-25T10:33:12.012Z</time></trkpt><trkpt lat="45.1866362" lon="8.125095"><ele>148.0</ele><time>2026-04-25T10:33:12.993Z</time></trkpt><trkpt lat="45.1866449" lon="8.1248773"><ele>148.25</ele><time>2026-04-25T10:33:14Z</time></trkpt><trkpt lat="45.1866609" lon="8.1246719"><ele>148.5</ele><time>2026-04-25T10:33:14.997Z</time></trkpt><trkpt lat="45.1866849" lon="8.1244773"><ele>148.75</ele><time>2026-04-25T10:33:16Z</time></trkpt><trkpt lat="45.1867226" lon="8.1242885"><ele>149.0</ele><time>2026-04-25T10:33:16.998Z</time></trkpt><trkpt lat="45.1867747" lon="8.1240992"><ele>149.66666666666666</ele><time>2026-04-25T10:33:18.015Z</time></trkpt><trkpt lat="45.1868424" lon="8.1238953"><ele>150.33333333333334</ele><time>2026-04-25T10:33:18.996Z</time></trkpt><trkpt lat="45.186918" lon="8.1237024"><ele>151.0</ele><time>2026-04-25T10:33:19.995Z</time></trkpt><trkpt lat="45.1870094" lon="8.1234977"><ele>151.0</ele><time>2026-04-25T10:33:20.992Z</time></trkpt><trkpt lat="45.1871174" lon="8.1232716"><ele>151.0</ele><time>2026-04-25T10:33:21.995Z</time></trkpt><trkpt lat="45.1872402" lon="8.1230272"><ele>151.0</ele><time>2026-04-25T10:33:22.993Z</time></trkpt><trkpt lat="45.1873618" lon="8.1227904"><ele>151.33333333333334</ele><time>2026-04-25T10:33:23.993Z</time></trkpt><trkpt lat="45.187474" lon="8.122573"><ele>151.66666666666666</ele><time>2026-04-25T10:33:24.995Z</time></trkpt><trkpt lat="45.1875806" lon="8.1223645"><ele>152.0</ele><time>2026-04-25T10:33:25.996Z</time></trkpt><trkpt lat="45.1876824" lon="8.1221523"><ele>152.0</ele><time>2026-04-25T10:33:27.015Z</time></trkpt><trkpt lat="45.1877845" lon="8.1219134"><ele>152.0</ele><time>2026-04-25T10:33:28Z</time></trkpt><trkpt lat="45.187884" lon="8.1216501"><ele>152.0</ele><time>2026-04-25T10:33:28.993Z</time></trkpt><trkpt lat="45.1879762" lon="8.1213987"><ele>151.0</ele><time>2026-04-25T10:33:29.997Z</time></trkpt><trkpt lat="45.1880572" lon="8.1211682"><ele>150.0</ele><time>2026-04-25T10:33:30.992Z</time></trkpt><trkpt lat="45.1881263" lon="8.120959"><ele>149.0</ele><time>2026-04-25T10:33:32.005Z</time></trkpt><trkpt lat="45.1881855" lon="8.1207786"><ele>149.2</ele><time>2026-04-25T10:33:32.989Z</time></trkpt><trkpt lat="45.1882349" lon="8.1206197"><ele>149.4</ele><time>2026-04-25T10:33:33.994Z</time></trkpt><trkpt lat="45.1882741" lon="8.1204772"><ele>149.6</ele><time>2026-04-25T10:33:34.999Z</time></trkpt><trkpt lat="45.1883141" lon="8.1203516"><ele>149.8</ele><time>2026-04-25T10:33:35.992Z</time></trkpt><trkpt lat="45.1883493" lon="8.1202308"><ele>150.0</ele><time>2026-04-25T10:33:37.015Z</time></trkpt><trkpt lat="45.1883859" lon="8.120129"><ele>150.0</ele><time>2026-04-25T10:33:37.991Z</time></trkpt><trkpt lat="45.1884177" lon="8.1200324"><ele>150.0</ele><time>2026-04-25T10:33:39Z</time></trkpt><trkpt lat="45.1884454" lon="8.1199391"><ele>150.0</ele><time>2026-04-25T10:33:39.99Z</time></trkpt><trkpt lat="45.1884702" lon="8.1198495"><ele>150.0</ele><time>2026-04-25T10:33:40.994Z</time></trkpt><trkpt lat="45.1884963" lon="8.1197622"><ele>150.0</ele><time>2026-04-25T10:33:41.999Z</time></trkpt><trkpt lat="45.1885286" lon="8.1195976"><ele>150.0</ele><time>2026-04-25T10:33:44.009Z</time></trkpt><trkpt lat="45.1885951" lon="8.1194636"><ele>150.0</ele><time>2026-04-25T10:33:45.997Z</time></trkpt><trkpt lat="45.1887159" lon="8.119473"><ele>150.0</ele><time>2026-04-25T10:33:47.992Z</time></trkpt><trkpt lat="45.188799" lon="8.1194897"><ele>150.0</ele><time>2026-04-25T10:33:48.989Z</time></trkpt><trkpt lat="45.1888896" lon="8.1194888"><ele>150.0</ele><time>2026-04-25T10:33:49.992Z</time></trkpt><trkpt lat="45.1889876" lon="8.1194796"><ele>150.0</ele><time>2026-04-25T10:33:50.995Z</time></trkpt><trkpt lat="45.189085" lon="8.1194797"><ele>150.0</ele><time>2026-04-25T10:33:52Z</time></trkpt><trkpt lat="45.1891771" lon="8.1195046"><ele>150.0</ele><time>2026-04-25T10:33:52.998Z</time></trkpt><trkpt lat="45.1892576" lon="8.1195278"><ele>150.0</ele><time>2026-04-25T10:33:53.994Z</time></trkpt><trkpt lat="45.189334" lon="8.119524"><ele>150.0</ele><time>2026-04-25T10:33:55Z</time></trkpt><trkpt lat="45.1894021" lon="8.1194844"><ele>150.0</ele><time>2026-04-25T10:33:56Z</time></trkpt><trkpt lat="45.1894504" lon="8.1194108"><ele>150.0</ele><time>2026-04-25T10:33:57.013Z</time></trkpt><trkpt lat="45.1894712" lon="8.1193185"><ele>150.0</ele><time>2026-04-25T10:33:57.999Z</time></trkpt><trkpt lat="45.1894598" lon="8.1192134"><ele>150.0</ele><time>2026-04-25T10:33:58.994Z</time></trkpt><trkpt lat="45.1894148" lon="8.1191121"><ele>150.0</ele><time>2026-04-25T10:33:59.999Z</time></trkpt><trkpt lat="45.1893429" lon="8.1190157"><ele>150.0</ele><time>2026-04-25T10:34:00.998Z</time></trkpt><trkpt lat="45.1892583" lon="8.1189026"><ele>150.0</ele><time>2026-04-25T10:34:02.008Z</time></trkpt><trkpt lat="45.1891795" lon="8.1187498"><ele>150.33333333333334</ele><time>2026-04-25T10:34:02.996Z</time></trkpt><trkpt lat="45.1891164" lon="8.118564"><ele>150.66666666666669</ele><time>2026-04-25T10:34:03.993Z</time></trkpt><trkpt lat="45.1890542" lon="8.1183478"><ele>151.0</ele><time>2026-04-25T10:34:04.997Z</time></trkpt><trkpt lat="45.1889861" lon="8.1181024"><ele>150.66666666666669</ele><time>2026-04-25T10:34:06.005Z</time></trkpt><trkpt lat="45.1889108" lon="8.1178287"><ele>150.33333333333334</ele><time>2026-04-25T10:34:06.993Z</time></trkpt><trkpt lat="45.1888297" lon="8.1175231"><ele>150.0</ele><time>2026-04-25T10:34:08.012Z</time></trkpt><trkpt lat="45.1887376" lon="8.1172063"><ele>150.0</ele><time>2026-04-25T10:34:08.996Z</time></trkpt><trkpt lat="45.1886399" lon="8.1168748"><ele>150.0</ele><time>2026-04-25T10:34:10.001Z</time></trkpt><trkpt lat="45.1885491" lon="8.1165357"><ele>149.5</ele><time>2026-04-25T10:34:10.997Z</time></trkpt><trkpt lat="45.1884623" lon="8.1161922"><ele>149.0</ele><time>2026-04-25T10:34:11.997Z</time></trkpt><trkpt lat="45.1883752" lon="8.1158402"><ele>148.5</ele><time>2026-04-25T10:34:12.996Z</time></trkpt><trkpt lat="45.1882839" lon="8.1154803"><ele>148.0</ele><time>2026-04-25T10:34:13.99Z</time></trkpt><trkpt lat="45.1881879" lon="8.1151166"><ele>149.0</ele><time>2026-04-25T10:34:14.996Z</time></trkpt><trkpt lat="45.1880914" lon="8.1147471"><ele>150.0</ele><time>2026-04-25T10:34:15.996Z</time></trkpt><trkpt lat="45.1879946" lon="8.114376"><ele>150.5</ele><time>2026-04-25T10:34:17Z</time></trkpt><trkpt lat="45.1878986" lon="8.1140092"><ele>151.0</ele><time>2026-04-25T10:34:18.004Z</time></trkpt><trkpt lat="45.1878008" lon="8.1136462"><ele>151.0</ele><time>2026-04-25T10:34:19.005Z</time></trkpt><trkpt lat="45.187705" lon="8.1132883"><ele>151.0</ele><time>2026-04-25T10:34:19.992Z</time></trkpt><trkpt lat="45.1876105" lon="8.1129357"><ele>150.5</ele><time>2026-04-25T10:34:20.99Z</time></trkpt><trkpt lat="45.187518" lon="8.1125868"><ele>150.0</ele><time>2026-04-25T10:34:21.996Z</time></trkpt><trkpt lat="45.1874258" lon="8.1122423"><ele>149.0</ele><time>2026-04-25T10:34:22.989Z</time></trkpt><trkpt lat="45.1873335" lon="8.1118993"><ele>148.0</ele><time>2026-04-25T10:34:24.019Z</time></trkpt><trkpt lat="45.1872428" lon="8.1115584"><ele>148.0</ele><time>2026-04-25T10:34:25Z</time></trkpt><trkpt lat="45.1871523" lon="8.1112231"><ele>148.0</ele><time>2026-04-25T10:34:25.994Z</time></trkpt><trkpt lat="45.1870612" lon="8.110893"><ele>149.5</ele><time>2026-04-25T10:34:27.001Z</time></trkpt><trkpt lat="45.1869695" lon="8.110563"><ele>151.0</ele><time>2026-04-25T10:34:27.997Z</time></trkpt><trkpt lat="45.186876" lon="8.1102315"><ele>150.5</ele><time>2026-04-25T10:34:29.006Z</time></trkpt><trkpt lat="45.1867824" lon="8.1099"><ele>150.0</ele><time>2026-04-25T10:34:29.993Z</time></trkpt><trkpt lat="45.1866899" lon="8.1095619"><ele>150.0</ele><time>2026-04-25T10:34:30.997Z</time></trkpt><trkpt lat="45.1865969" lon="8.109218"><ele>150.0</ele><time>2026-04-25T10:34:31.996Z</time></trkpt><trkpt lat="45.1865043" lon="8.1088673"><ele>150.0</ele><time>2026-04-25T10:34:32.993Z</time></trkpt><trkpt lat="45.1864112" lon="8.1085064"><ele>150.0</ele><time>2026-04-25T10:34:34.009Z</time></trkpt><trkpt lat="45.1863188" lon="8.1081372"><ele>150.0</ele><time>2026-04-25T10:34:34.998Z</time></trkpt><trkpt lat="45.1862296" lon="8.1077576"><ele>150.0</ele><time>2026-04-25T10:34:35.993Z</time></trkpt><trkpt lat="45.1861458" lon="8.1073667"><ele>150.0</ele><time>2026-04-25T10:34:36.998Z</time></trkpt><trkpt lat="45.18607" lon="8.1069655"><ele>150.0</ele><time>2026-04-25T10:34:38Z</time></trkpt><trkpt lat="45.1860012" lon="8.1065547"><ele>149.0</ele><time>2026-04-25T10:34:39.015Z</time></trkpt><trkpt lat="45.1859385" lon="8.1061351"><ele>148.0</ele><time>2026-04-25T10:34:39.996Z</time></trkpt><trkpt lat="45.1858807" lon="8.1057097"><ele>148.0</ele><time>2026-04-25T10:34:40.993Z</time></trkpt><trkpt lat="45.1858316" lon="8.1052771"><ele>148.0</ele><time>2026-04-25T10:34:42.001Z</time></trkpt><trkpt lat="45.1857933" lon="8.1048425"><ele>149.0</ele><time>2026-04-25T10:34:42.995Z</time></trkpt><trkpt lat="45.185766" lon="8.1044073"><ele>150.0</ele><time>2026-04-25T10:34:44.016Z</time></trkpt><trkpt lat="45.1857434" lon="8.1039888"><ele>150.0</ele><time>2026-04-25T10:34:44.989Z</time></trkpt><trkpt lat="45.1857322" lon="8.103565"><ele>150.0</ele><time>2026-04-25T10:34:45.998Z</time></trkpt><trkpt lat="45.1857346" lon="8.1031471"><ele>150.5</ele><time>2026-04-25T10:34:46.999Z</time></trkpt><trkpt lat="45.1857418" lon="8.1027263"><ele>151.0</ele><time>2026-04-25T10:34:47.996Z</time></trkpt><trkpt lat="45.1857522" lon="8.1023143"><ele>151.0</ele><time>2026-04-25T10:34:49.019Z</time></trkpt><trkpt lat="45.1857709" lon="8.1019075"><ele>151.0</ele><time>2026-04-25T10:34:49.994Z</time></trkpt><trkpt lat="45.1857914" lon="8.1015016"><ele>151.0</ele><time>2026-04-25T10:34:51Z</time></trkpt><trkpt lat="45.1858266" lon="8.1010939"><ele>151.0</ele><time>2026-04-25T10:34:51.996Z</time></trkpt><trkpt lat="45.185865" lon="8.1006931"><ele>151.0</ele><time>2026-04-25T10:34:52.996Z</time></trkpt><trkpt lat="45.1859127" lon="8.1002975"><ele>151.0</ele><time>2026-04-25T10:34:53.997Z</time></trkpt><trkpt lat="45.1859689" lon="8.0998998"><ele>150.5</ele><time>2026-04-25T10:34:54.997Z</time></trkpt><trkpt lat="45.1860336" lon="8.0994984"><ele>150.0</ele><time>2026-04-25T10:34:55.993Z</time></trkpt><trkpt lat="45.1861101" lon="8.099098"><ele>150.5</ele><time>2026-04-25T10:34:57.002Z</time></trkpt><trkpt lat="45.1861936" lon="8.0986971"><ele>151.0</ele><time>2026-04-25T10:34:58.002Z</time></trkpt><trkpt lat="45.1862839" lon="8.0982982"><ele>151.0</ele><time>2026-04-25T10:34:58.997Z</time></trkpt><trkpt lat="45.1863797" lon="8.0978991"><ele>151.0</ele><time>2026-04-25T10:34:59.995Z</time></trkpt><trkpt lat="45.1864831" lon="8.0974978"><ele>151.0</ele><time>2026-04-25T10:35:00.997Z</time></trkpt><trkpt lat="45.1865961" lon="8.0970972"><ele>151.0</ele><time>2026-04-25T10:35:02.005Z</time></trkpt><trkpt lat="45.1867202" lon="8.0967014"><ele>151.0</ele><time>2026-04-25T10:35:02.992Z</time></trkpt><trkpt lat="45.1868552" lon="8.0963061"><ele>151.0</ele><time>2026-04-25T10:35:03.999Z</time></trkpt><trkpt lat="45.1870004" lon="8.0959139"><ele>151.0</ele><time>2026-04-25T10:35:04.993Z</time></trkpt><trkpt lat="45.1871531" lon="8.0955234"><ele>151.0</ele><time>2026-04-25T10:35:05.996Z</time></trkpt><trkpt lat="45.1873074" lon="8.0951451"><ele>151.0</ele><time>2026-04-25T10:35:06.997Z</time></trkpt><trkpt lat="45.1874555" lon="8.0947914"><ele>151.0</ele><time>2026-04-25T10:35:08.003Z</time></trkpt><trkpt lat="45.1875944" lon="8.094463"><ele>151.0</ele><time>2026-04-25T10:35:08.999Z</time></trkpt><trkpt lat="45.1877276" lon="8.0941475"><ele>151.0</ele><time>2026-04-25T10:35:09.996Z</time></trkpt><trkpt lat="45.1878584" lon="8.0938429"><ele>150.5</ele><time>2026-04-25T10:35:11.002Z</time></trkpt><trkpt lat="45.1879883" lon="8.0935444"><ele>150.0</ele><time>2026-04-25T10:35:12.011Z</time></trkpt><trkpt lat="45.1881143" lon="8.0932525"><ele>151.0</ele><time>2026-04-25T10:35:12.997Z</time></trkpt><trkpt lat="45.1882384" lon="8.0929636"><ele>152.0</ele><time>2026-04-25T10:35:13.999Z</time></trkpt><trkpt lat="45.1883617" lon="8.0926774"><ele>151.5</ele><time>2026-04-25T10:35:14.989Z</time></trkpt><trkpt lat="45.1884824" lon="8.0923937"><ele>151.0</ele><time>2026-04-25T10:35:16.001Z</time></trkpt><trkpt lat="45.188601" lon="8.0921131"><ele>151.0</ele><time>2026-04-25T10:35:16.996Z</time></trkpt><trkpt lat="45.1887206" lon="8.0918317"><ele>151.0</ele><time>2026-04-25T10:35:17.998Z</time></trkpt><trkpt lat="45.1888439" lon="8.0915494"><ele>151.5</ele><time>2026-04-25T10:35:19.003Z</time></trkpt><trkpt lat="45.1889736" lon="8.0912689"><ele>152.0</ele><time>2026-04-25T10:35:20.01Z</time></trkpt><trkpt lat="45.1891066" lon="8.0909895"><ele>153.0</ele><time>2026-04-25T10:35:20.995Z</time></trkpt><trkpt lat="45.1892364" lon="8.0907078"><ele>154.0</ele><time>2026-04-25T10:35:21.995Z</time></trkpt><trkpt lat="45.1893625" lon="8.0904236"><ele>154.0</ele><time>2026-04-25T10:35:22.995Z</time></trkpt><trkpt lat="45.1894859" lon="8.0901393"><ele>154.0</ele><time>2026-04-25T10:35:23.995Z</time></trkpt><trkpt lat="45.1896098" lon="8.0898573"><ele>154.0</ele><time>2026-04-25T10:35:24.998Z</time></trkpt><trkpt lat="45.1897353" lon="8.0895775"><ele>154.0</ele><time>2026-04-25T10:35:25.999Z</time></trkpt><trkpt lat="45.1898607" lon="8.0893002"><ele>154.0</ele><time>2026-04-25T10:35:26.997Z</time></trkpt><trkpt lat="45.1899845" lon="8.0890235"><ele>154.0</ele><time>2026-04-25T10:35:27.997Z</time></trkpt><trkpt lat="45.1901045" lon="8.0887459"><ele>154.0</ele><time>2026-04-25T10:35:28.992Z</time></trkpt><trkpt lat="45.1902205" lon="8.0884678"><ele>154.0</ele><time>2026-04-25T10:35:29.992Z</time></trkpt><trkpt lat="45.1903342" lon="8.0881919"><ele>154.0</ele><time>2026-04-25T10:35:30.989Z</time></trkpt><trkpt lat="45.1904472" lon="8.0879202"><ele>154.0</ele><time>2026-04-25T10:35:31.994Z</time></trkpt><trkpt lat="45.190561" lon="8.0876554"><ele>154.0</ele><time>2026-04-25T10:35:32.993Z</time></trkpt><trkpt lat="45.1906744" lon="8.0873951"><ele>154.33333333333334</ele><time>2026-04-25T10:35:34.002Z</time></trkpt><trkpt lat="45.1907864" lon="8.087137"><ele>154.66666666666666</ele><time>2026-04-25T10:35:34.988Z</time></trkpt><trkpt lat="45.1908984" lon="8.0868812"><ele>155.0</ele><time>2026-04-25T10:35:35.996Z</time></trkpt><trkpt lat="45.1910087" lon="8.0866279"><ele>155.0</ele><time>2026-04-25T10:35:36.994Z</time></trkpt><trkpt lat="45.1911186" lon="8.086376"><ele>155.0</ele><time>2026-04-25T10:35:37.997Z</time></trkpt><trkpt lat="45.1912283" lon="8.0861264"><ele>155.0</ele><time>2026-04-25T10:35:39.006Z</time></trkpt><trkpt lat="45.1913378" lon="8.0858783"><ele>155.0</ele><time>2026-04-25T10:35:39.996Z</time></trkpt><trkpt lat="45.1914469" lon="8.0856329"><ele>155.0</ele><time>2026-04-25T10:35:41.007Z</time></trkpt><trkpt lat="45.1915561" lon="8.0853898"><ele>155.0</ele><time>2026-04-25T10:35:41.992Z</time></trkpt><trkpt lat="45.1916663" lon="8.0851641"><ele>154.66666666666666</ele><time>2026-04-25T10:35:42.998Z</time></trkpt><trkpt lat="45.1917714" lon="8.0849278"><ele>154.33333333333334</ele><time>2026-04-25T10:35:43.999Z</time></trkpt><trkpt lat="45.1918777" lon="8.0846912"><ele>154.0</ele><time>2026-04-25T10:35:44.995Z</time></trkpt><trkpt lat="45.1919799" lon="8.0844463"><ele>154.0</ele><time>2026-04-25T10:35:46.016Z</time></trkpt><trkpt lat="45.1920848" lon="8.0842066"><ele>154.0</ele><time>2026-04-25T10:35:46.991Z</time></trkpt><trkpt lat="45.1921905" lon="8.0839649"><ele>154.0</ele><time>2026-04-25T10:35:47.992Z</time></trkpt><trkpt lat="45.1922952" lon="8.0837258"><ele>154.33333333333334</ele><time>2026-04-25T10:35:48.997Z</time></trkpt><trkpt lat="45.1923988" lon="8.0834881"><ele>154.66666666666666</ele><time>2026-04-25T10:35:49.996Z</time></trkpt><trkpt lat="45.1924961" lon="8.083264"><ele>155.0</ele><time>2026-04-25T10:35:51.008Z</time></trkpt><trkpt lat="45.192585" lon="8.083052"><ele>155.0</ele><time>2026-04-25T10:35:52.001Z</time></trkpt><trkpt lat="45.1926683" lon="8.0828556"><ele>155.0</ele><time>2026-04-25T10:35:52.995Z</time></trkpt><trkpt lat="45.1927428" lon="8.0826663"><ele>155.0</ele><time>2026-04-25T10:35:53.999Z</time></trkpt><trkpt lat="45.1928092" lon="8.0824881"><ele>155.0</ele><time>2026-04-25T10:35:54.992Z</time></trkpt><trkpt lat="45.1928687" lon="8.0823179"><ele>155.0</ele><time>2026-04-25T10:35:55.987Z</time></trkpt><trkpt lat="45.1929228" lon="8.0821586"><ele>155.0</ele><time>2026-04-25T10:35:56.997Z</time></trkpt><trkpt lat="45.1929738" lon="8.0820104"><ele>155.0</ele><time>2026-04-25T10:35:57.993Z</time></trkpt><trkpt lat="45.1930209" lon="8.0818734"><ele>155.0</ele><time>2026-04-25T10:35:59.015Z</time></trkpt><trkpt lat="45.1930675" lon="8.081745"><ele>155.0</ele><time>2026-04-25T10:35:59.999Z</time></trkpt><trkpt lat="45.1931199" lon="8.0816311"><ele>155.0</ele><time>2026-04-25T10:36:00.998Z</time></trkpt><trkpt lat="45.1931853" lon="8.0815401"><ele>155.0</ele><time>2026-04-25T10:36:01.999Z</time></trkpt><trkpt lat="45.193265" lon="8.0814837"><ele>155.0</ele><time>2026-04-25T10:36:02.992Z</time></trkpt><trkpt lat="45.1933523" lon="8.0814602"><ele>155.5</ele><time>2026-04-25T10:36:04.009Z</time></trkpt><trkpt lat="45.1934323" lon="8.0814273"><ele>156.0</ele><time>2026-04-25T10:36:04.992Z</time></trkpt><trkpt lat="45.1934938" lon="8.0813631"><ele>156.5</ele><time>2026-04-25T10:36:05.996Z</time></trkpt><trkpt lat="45.1935301" lon="8.0812685"><ele>157.0</ele><time>2026-04-25T10:36:06.992Z</time></trkpt><trkpt lat="45.1935382" lon="8.0811546"><ele>157.5</ele><time>2026-04-25T10:36:08.004Z</time></trkpt><trkpt lat="45.1935196" lon="8.0810277"><ele>158.0</ele><time>2026-04-25T10:36:08.992Z</time></trkpt><trkpt lat="45.1934938" lon="8.0808874"><ele>158.0</ele><time>2026-04-25T10:36:09.995Z</time></trkpt><trkpt lat="45.1934745" lon="8.0807121"><ele>158.0</ele><time>2026-04-25T10:36:11.001Z</time></trkpt><trkpt lat="45.1934741" lon="8.0805032"><ele>158.0</ele><time>2026-04-25T10:36:11.992Z</time></trkpt><trkpt lat="45.1934969" lon="8.0802803"><ele>158.0</ele><time>2026-04-25T10:36:13Z</time></trkpt><trkpt lat="45.1935068" lon="8.0800349"><ele>158.66666666666666</ele><time>2026-04-25T10:36:13.989Z</time></trkpt><trkpt lat="45.1935094" lon="8.0797916"><ele>159.33333333333334</ele><time>2026-04-25T10:36:15.02Z</time></trkpt><trkpt lat="45.1935049" lon="8.0795435"><ele>160.0</ele><time>2026-04-25T10:36:16.01Z</time></trkpt><trkpt lat="45.1935041" lon="8.0792924"><ele>160.0</ele><time>2026-04-25T10:36:16.994Z</time></trkpt><trkpt lat="45.1935001" lon="8.0790415"><ele>160.0</ele><time>2026-04-25T10:36:17.995Z</time></trkpt><trkpt lat="45.1934942" lon="8.078786"><ele>160.0</ele><time>2026-04-25T10:36:18.995Z</time></trkpt><trkpt lat="45.1934882" lon="8.07853"><ele>160.0</ele><time>2026-04-25T10:36:20.009Z</time></trkpt><trkpt lat="45.1934837" lon="8.0782699"><ele>160.0</ele><time>2026-04-25T10:36:20.988Z</time></trkpt><trkpt lat="45.1934791" lon="8.0780079"><ele>160.0</ele><time>2026-04-25T10:36:21.992Z</time></trkpt><trkpt lat="45.1934728" lon="8.0777445"><ele>159.33333333333334</ele><time>2026-04-25T10:36:22.989Z</time></trkpt><trkpt lat="45.193464" lon="8.0774778"><ele>158.66666666666666</ele><time>2026-04-25T10:36:24.002Z</time></trkpt><trkpt lat="45.1934542" lon="8.0772071"><ele>158.0</ele><time>2026-04-25T10:36:24.994Z</time></trkpt><trkpt lat="45.1934453" lon="8.0769348"><ele>157.33333333333331</ele><time>2026-04-25T10:36:26.012Z</time></trkpt><trkpt lat="45.1934373" lon="8.0766585"><ele>156.66666666666666</ele><time>2026-04-25T10:36:27.001Z</time></trkpt><trkpt lat="45.1934311" lon="8.076382"><ele>156.0</ele><time>2026-04-25T10:36:27.998Z</time></trkpt><trkpt lat="45.1934259" lon="8.0761025"><ele>156.0</ele><time>2026-04-25T10:36:28.999Z</time></trkpt><trkpt lat="45.193421" lon="8.0758211"><ele>156.0</ele><time>2026-04-25T10:36:29.996Z</time></trkpt><trkpt lat="45.1934122" lon="8.0755367"><ele>156.0</ele><time>2026-04-25T10:36:31.009Z</time></trkpt><trkpt lat="45.1934019" lon="8.07525"><ele>156.0</ele><time>2026-04-25T10:36:31.992Z</time></trkpt><trkpt lat="45.1933941" lon="8.0749636"><ele>156.0</ele><time>2026-04-25T10:36:32.99Z</time></trkpt><trkpt lat="45.1933878" lon="8.074675"><ele>156.0</ele><time>2026-04-25T10:36:33.993Z</time></trkpt><trkpt lat="45.19338" lon="8.0743843"><ele>156.33333333333334</ele><time>2026-04-25T10:36:34.997Z</time></trkpt><trkpt lat="45.193371" lon="8.07409"><ele>156.66666666666669</ele><time>2026-04-25T10:36:35.989Z</time></trkpt><trkpt lat="45.193362" lon="8.0737916"><ele>157.0</ele><time>2026-04-25T10:36:36.988Z</time></trkpt><trkpt lat="45.1933546" lon="8.073491"><ele>157.66666666666669</ele><time>2026-04-25T10:36:37.991Z</time></trkpt><trkpt lat="45.1933492" lon="8.0731871"><ele>158.33333333333334</ele><time>2026-04-25T10:36:38.995Z</time></trkpt><trkpt lat="45.1933421" lon="8.0728827"><ele>159.0</ele><time>2026-04-25T10:36:39.996Z</time></trkpt><trkpt lat="45.1933339" lon="8.0725775"><ele>158.66666666666666</ele><time>2026-04-25T10:36:40.994Z</time></trkpt><trkpt lat="45.1933251" lon="8.0722726"><ele>158.33333333333331</ele><time>2026-04-25T10:36:41.996Z</time></trkpt><trkpt lat="45.1933152" lon="8.0719681"><ele>158.0</ele><time>2026-04-25T10:36:42.994Z</time></trkpt><trkpt lat="45.1933065" lon="8.0716637"><ele>158.0</ele><time>2026-04-25T10:36:43.993Z</time></trkpt><trkpt lat="45.1933003" lon="8.0713597"><ele>158.0</ele><time>2026-04-25T10:36:44.993Z</time></trkpt><trkpt lat="45.1932949" lon="8.0710573"><ele>158.0</ele><time>2026-04-25T10:36:45.996Z</time></trkpt><trkpt lat="45.1932882" lon="8.0707593"><ele>157.66666666666666</ele><time>2026-04-25T10:36:47.02Z</time></trkpt><trkpt lat="45.1932784" lon="8.0704677"><ele>157.33333333333334</ele><time>2026-04-25T10:36:47.998Z</time></trkpt><trkpt lat="45.1932683" lon="8.0701835"><ele>157.0</ele><time>2026-04-25T10:36:48.993Z</time></trkpt><trkpt lat="45.1932607" lon="8.0699036"><ele>157.0</ele><time>2026-04-25T10:36:49.996Z</time></trkpt><trkpt lat="45.1932555" lon="8.0696359"><ele>157.0</ele><time>2026-04-25T10:36:50.994Z</time></trkpt><trkpt lat="45.1932494" lon="8.0693829"><ele>157.0</ele><time>2026-04-25T10:36:52.008Z</time></trkpt><trkpt lat="45.1932418" lon="8.0691343"><ele>156.66666666666669</ele><time>2026-04-25T10:36:52.999Z</time></trkpt><trkpt lat="45.1932348" lon="8.0688888"><ele>156.33333333333334</ele><time>2026-04-25T10:36:53.998Z</time></trkpt><trkpt lat="45.1932293" lon="8.0686559"><ele>156.0</ele><time>2026-04-25T10:36:55Z</time></trkpt><trkpt lat="45.1932237" lon="8.0684367"><ele>156.25</ele><time>2026-04-25T10:36:55.993Z</time></trkpt><trkpt lat="45.1932176" lon="8.0682314"><ele>156.5</ele><time>2026-04-25T10:36:57.015Z</time></trkpt><trkpt lat="45.193211" lon="8.0680388"><ele>156.75</ele><time>2026-04-25T10:36:58Z</time></trkpt><trkpt lat="45.193206" lon="8.0678574"><ele>157.0</ele><time>2026-04-25T10:36:58.998Z</time></trkpt><trkpt lat="45.1932006" lon="8.0676867"><ele>157.0</ele><time>2026-04-25T10:36:59.999Z</time></trkpt><trkpt lat="45.1931917" lon="8.0675405"><ele>157.0</ele><time>2026-04-25T10:37:00.996Z</time></trkpt><trkpt lat="45.1931801" lon="8.0674166"><ele>157.0</ele><time>2026-04-25T10:37:02.007Z</time></trkpt><trkpt lat="45.1931563" lon="8.0673129"><ele>157.0</ele><time>2026-04-25T10:37:02.994Z</time></trkpt><trkpt lat="45.1931135" lon="8.0672322"><ele>157.0</ele><time>2026-04-25T10:37:04.003Z</time></trkpt><trkpt lat="45.1930506" lon="8.0671777"><ele>157.0</ele><time>2026-04-25T10:37:05Z</time></trkpt><trkpt lat="45.1929744" lon="8.0671545"><ele>157.0</ele><time>2026-04-25T10:37:05.999Z</time></trkpt><trkpt lat="45.1928956" lon="8.0671587"><ele>157.0</ele><time>2026-04-25T10:37:06.998Z</time></trkpt><trkpt lat="45.1928235" lon="8.0671671"><ele>157.0</ele><time>2026-04-25T10:37:08.002Z</time></trkpt><trkpt lat="45.1927596" lon="8.0671512"><ele>157.0</ele><time>2026-04-25T10:37:08.997Z</time></trkpt><trkpt lat="45.1926756" lon="8.0671071"><ele>157.0</ele><time>2026-04-25T10:37:10.995Z</time></trkpt><trkpt lat="45.1926027" lon="8.067118"><ele>157.0</ele><time>2026-04-25T10:37:14Z</time></trkpt><trkpt lat="45.1925172" lon="8.0671739"><ele>157.0</ele><time>2026-04-25T10:37:15.996Z</time></trkpt><trkpt lat="45.1924577" lon="8.0672295"><ele>157.0</ele><time>2026-04-25T10:37:16.994Z</time></trkpt><trkpt lat="45.1923859" lon="8.0672943"><ele>157.0</ele><time>2026-04-25T10:37:18.006Z</time></trkpt><trkpt lat="45.1923046" lon="8.0673587"><ele>157.0</ele><time>2026-04-25T10:37:18.994Z</time></trkpt><trkpt lat="45.1922092" lon="8.0674257"><ele>157.0</ele><time>2026-04-25T10:37:19.997Z</time></trkpt><trkpt lat="45.192102" lon="8.0674895"><ele>156.75</ele><time>2026-04-25T10:37:20.995Z</time></trkpt><trkpt lat="45.1919826" lon="8.0675464"><ele>156.5</ele><time>2026-04-25T10:37:21.989Z</time></trkpt><trkpt lat="45.1918547" lon="8.0676017"><ele>156.25</ele><time>2026-04-25T10:37:22.997Z</time></trkpt><trkpt lat="45.1917288" lon="8.0676569"><ele>156.0</ele><time>2026-04-25T10:37:23.999Z</time></trkpt><trkpt lat="45.1916012" lon="8.0677159"><ele>156.0</ele><time>2026-04-25T10:37:25.011Z</time></trkpt><trkpt lat="45.1914758" lon="8.067779"><ele>156.0</ele><time>2026-04-25T10:37:25.995Z</time></trkpt><trkpt lat="45.1913541" lon="8.0678437"><ele>156.0</ele><time>2026-04-25T10:37:26.995Z</time></trkpt><trkpt lat="45.1912418" lon="8.0679119"><ele>156.0</ele><time>2026-04-25T10:37:27.996Z</time></trkpt><trkpt lat="45.1911411" lon="8.0679913"><ele>156.0</ele><time>2026-04-25T10:37:28.988Z</time></trkpt><trkpt lat="45.1910546" lon="8.0680836"><ele>156.0</ele><time>2026-04-25T10:37:29.997Z</time></trkpt><trkpt lat="45.1909789" lon="8.0681809"><ele>156.0</ele><time>2026-04-25T10:37:30.991Z</time></trkpt><trkpt lat="45.1909033" lon="8.0682612"><ele>156.0</ele><time>2026-04-25T10:37:31.991Z</time></trkpt><trkpt lat="45.1908212" lon="8.0683098"><ele>156.0</ele><time>2026-04-25T10:37:33Z</time></trkpt><trkpt lat="45.1907294" lon="8.0683197"><ele>156.0</ele><time>2026-04-25T10:37:33.995Z</time></trkpt><trkpt lat="45.1906344" lon="8.068291"><ele>156.0</ele><time>2026-04-25T10:37:34.993Z</time></trkpt><trkpt lat="45.1905358" lon="8.0682402"><ele>156.0</ele><time>2026-04-25T10:37:36.009Z</time></trkpt><trkpt lat="45.1904296" lon="8.0681822"><ele>156.0</ele><time>2026-04-25T10:37:36.99Z</time></trkpt><trkpt lat="45.1903181" lon="8.0681194"><ele>156.0</ele><time>2026-04-25T10:37:37.996Z</time></trkpt><trkpt lat="45.190199" lon="8.0680536"><ele>156.0</ele><time>2026-04-25T10:37:38.997Z</time></trkpt><trkpt lat="45.1900747" lon="8.0679893"><ele>156.0</ele><time>2026-04-25T10:37:39.994Z</time></trkpt><trkpt lat="45.18995" lon="8.0679245"><ele>156.0</ele><time>2026-04-25T10:37:41.016Z</time></trkpt><trkpt lat="45.1898341" lon="8.0678637"><ele>156.0</ele><time>2026-04-25T10:37:41.988Z</time></trkpt><trkpt lat="45.1897249" lon="8.0678085"><ele>156.2</ele><time>2026-04-25T10:37:43Z</time></trkpt><trkpt lat="45.189622" lon="8.0677562"><ele>156.39999999999998</ele><time>2026-04-25T10:37:43.992Z</time></trkpt><trkpt lat="45.1895253" lon="8.067709"><ele>156.6</ele><time>2026-04-25T10:37:44.993Z</time></trkpt><trkpt lat="45.1894367" lon="8.0676681"><ele>156.79999999999998</ele><time>2026-04-25T10:37:45.996Z</time></trkpt><trkpt lat="45.1893628" lon="8.0676385"><ele>157.0</ele><time>2026-04-25T10:37:46.996Z</time></trkpt><trkpt lat="45.1892668" lon="8.0675724"><ele>156.79999999999998</ele><time>2026-04-25T10:37:48.997Z</time></trkpt><trkpt lat="45.1892409" lon="8.0674276"><ele>156.6</ele><time>2026-04-25T10:37:50.996Z</time></trkpt><trkpt lat="45.1892512" lon="8.0672422"><ele>156.39999999999998</ele><time>2026-04-25T10:37:52.994Z</time></trkpt><trkpt lat="45.1892579" lon="8.0671243"><ele>156.2</ele><time>2026-04-25T10:37:54.006Z</time></trkpt><trkpt lat="45.1892716" lon="8.0670041"><ele>156.0</ele><time>2026-04-25T10:37:54.997Z</time></trkpt><trkpt lat="45.1892955" lon="8.066905"><ele>156.0</ele><time>2026-04-25T10:37:56.004Z</time></trkpt><trkpt lat="45.1893301" lon="8.0668103"><ele>156.0</ele><time>2026-04-25T10:37:56.995Z</time></trkpt><trkpt lat="45.1893645" lon="8.0667336"><ele>156.0</ele><time>2026-04-25T10:37:57.996Z</time></trkpt><trkpt lat="45.1894074" lon="8.0666641"><ele>156.0</ele><time>2026-04-25T10:37:58.995Z</time></trkpt><trkpt lat="45.1894514" lon="8.0665677"><ele>157.0</ele><time>2026-04-25T10:38:01.038Z</time></trkpt></trkseg></trk></gpx>